ECMWFFLT1_sfc_thetae_000.txt.gz
Theta_e
323 323 323 323 324 325 325 325 324 325 328 329 329 330 331 331 331 331 332 332 330 330 331 334 337 337 337 337 337 337 338 338 340 339 337 337 336 334 334 335 333 333 334 333 335 337 339 341 339 338 340 341 338 338 341 341 341 340 341 342 342 340 342
321 322 323 324 323 324 325 325 325 326 325 328 328 329 330 330 330 331 332 331 329 329 331 334 341 339 338 338 339 339 337 334 340 339 337 336 338 335 335 335 336 335 334 335 337 339 341 341 339 338 340 341 336 337 340 342 341 339 340 341 340 342 340
319 320 321 322 323 323 324 324 325 326 326 328 330 329 329 330 331 330 329 329 328 328 331 333 336 338 338 337 336 336 337 334 336 334 332 333 336 337 337 336 336 337 338 339 339 340 342 340 339 339 339 339 339 339 339 340 343 340 336 336 341 341 340
318 319 320 321 321 321 322 323 326 325 327 328 328 329 328 330 330 328 328 328 328 328 328 329 330 335 337 337 336 335 336 334 334 335 335 334 334 336 335 335 337 337 337 337 338 339 340 341 340 339 342 340 339 339 339 339 341 341 340 339 339 340 340
318 319 320 321 321 321 321 320 325 324 325 327 328 331 329 329 328 327 327 330 328 326 327 328 330 333 336 336 336 337 337 335 335 335 335 335 336 334 334 334 334 335 336 338 339 340 338 338 339 341 337 333 334 338 339 339 339 340 340 339 337 337 340
318 318 318 319 319 319 320 321 324 324 325 326 327 328 328 329 329 328 328 327 327 328 326 326 327 332 332 333 334 336 335 333 333 335 334 334 333 332 332 333 333 334 335 335 338 337 337 337 337 337 337 338 336 337 338 338 339 340 341 340 339 340 340
318 318 318 319 320 320 320 320 323 325 326 328 329 333 331 330 328 328 328 327 327 325 325 324 327 329 330 332 332 332 330 331 331 330 331 331 331 332 331 332 334 333 334 335 334 335 335 335 335 336 337 337 339 339 339 338 337 338 339 338 338 339 339
319 319 319 320 320 319 321 322 324 326 328 328 329 330 330 330 329 329 328 327 326 325 324 324 328 329 331 331 331 329 328 328 328 329 330 330 329 331 331 331 332 333 334 333 334 334 334 334 335 336 336 335 336 338 337 336 337 337 338 337 337 337 339
320 320 320 319 319 320 322 323 324 325 327 328 328 327 328 328 328 328 328 327 326 325 323 325 328 330 330 329 328 328 328 328 327 328 328 328 328 328 329 331 332 335 333 332 332 334 334 335 336 336 335 334 334 334 334 336 336 338 337 337 336 335 337
318 318 319 320 319 321 322 325 324 326 326 326 325 326 327 327 327 327 327 328 326 325 324 327 328 330 329 328 327 327 326 326 327 326 327 326 327 327 328 330 331 334 332 332 333 333 335 336 336 336 334 333 335 335 334 334 335 335 336 336 334 334 334
319 319 319 319 321 322 322 324 323 323 323 324 325 326 326 326 326 327 327 327 326 325 325 327 329 329 328 326 325 325 325 325 326 326 326 326 327 327 329 330 332 334 334 333 333 334 335 335 335 334 334 334 334 333 334 334 334 333 335 335 337 338 337
319 319 319 320 320 321 322 323 322 322 324 324 325 325 325 325 326 326 326 326 328 325 324 326 328 329 327 326 324 324 324 325 326 326 326 327 327 328 329 331 332 334 335 335 334 335 335 335 334 335 334 335 336 334 332 334 333 333 333 334 336 336 336
319 319 319 319 320 320 321 321 322 323 324 324 325 325 325 326 326 326 326 325 327 325 325 326 327 325 325 325 324 323 324 325 326 326 326 326 327 328 329 330 332 335 336 337 338 336 335 335 335 335 334 335 336 335 333 333 333 333 334 335 336 335 335
326 318 319 319 320 320 320 320 321 321 322 324 325 326 326 326 326 326 326 325 325 325 327 330 326 323 324 324 325 324 325 325 326 327 327 328 328 328 328 330 331 333 336 338 337 337 336 334 334 333 333 334 335 336 336 334 333 333 334 335 336 337 336
315 317 318 319 318 319 320 320 320 321 322 325 324 324 324 324 324 324 323 324 323 323 322 327 324 323 323 324 324 325 325 326 328 328 328 328 327 327 327 328 329 331 333 335 336 337 336 335 334 332 331 332 333 334 335 336 335 336 335 333 333 334 335
315 316 317 317 318 318 319 320 321 321 323 322 322 322 323 322 322 322 322 321 322 321 322 325 323 322 323 323 325 325 327 327 329 329 327 326 326 325 326 327 328 330 332 334 335 335 335 334 334 332 331 331 332 333 334 335 335 331 321 323 327 329 331
314 316 317 317 317 318 318 319 321 322 321 321 321 321 321 320 320 321 322 322 322 321 322 322 321 321 322 323 324 326 327 328 328 326 325 325 325 325 326 327 328 329 331 332 333 333 333 334 332 331 331 331 331 331 332 333 333 324 321 325 326 326 327
312 314 316 317 317 317 317 320 320 320 320 321 321 321 320 320 320 320 320 320 320 321 323 322 322 322 322 323 324 326 327 328 326 325 325 324 324 324 325 327 328 328 328 329 330 331 333 331 331 331 330 331 330 330 332 333 326 319 320 323 324 326 328
313 315 316 315 316 318 319 320 319 320 321 321 321 321 321 321 320 320 320 319 320 322 322 323 323 322 323 323 323 325 325 327 327 326 325 324 324 324 325 326 327 327 327 327 329 331 330 329 329 330 329 330 330 331 331 332 323 318 319 321 321 323 327
314 315 316 316 317 318 318 319 320 322 322 322 323 323 324 325 321 320 321 323 323 321 321 320 320 320 322 322 322 323 324 325 326 326 325 325 325 324 324 325 326 327 327 329 330 328 327 329 328 328 328 329 330 330 331 332 320 317 317 317 318 321 326
314 316 316 316 317 318 319 319 320 320 322 323 325 325 324 322 325 325 323 322 322 322 320 319 319 319 320 321 322 321 321 321 321 323 325 325 325 325 325 326 326 326 326 327 326 326 327 328 328 329 330 329 331 331 330 332 318 316 316 315 316 319 329
315 318 318 318 318 319 319 319 320 321 322 326 329 326 323 323 324 322 321 320 320 320 320 319 318 318 318 321 321 321 321 320 321 323 325 326 326 326 326 326 326 325 325 327 327 329 329 330 328 328 328 328 331 331 328 330 319 315 315 314 316 321 333
318 317 319 318 319 319 321 321 321 322 327 325 324 324 324 324 324 322 321 319 320 320 318 318 317 318 319 323 320 321 321 321 321 323 325 326 326 326 326 325 325 325 326 325 326 327 329 329 327 329 328 328 330 329 329 328 322 314 313 313 315 324 333
318 319 320 320 320 321 322 322 323 325 326 323 323 324 324 325 324 323 321 321 320 319 319 318 318 319 321 321 320 320 319 321 322 322 324 325 326 326 326 326 325 324 326 325 325 326 329 329 328 329 328 329 329 330 330 330 322 312 312 313 315 321 331
319 320 320 320 320 320 322 322 323 326 327 322 322 323 324 324 323 321 321 322 321 321 319 319 319 320 320 319 319 319 320 322 322 322 323 325 327 327 326 326 325 326 325 323 324 325 328 330 328 328 327 329 330 331 330 330 325 315 311 312 313 323 330
317 318 319 319 319 321 322 325 328 323 321 322 322 323 325 325 323 325 323 323 322 320 319 320 321 321 321 320 320 321 323 322 323 323 324 325 327 328 327 328 326 323 322 322 322 323 326 326 327 327 327 329 329 330 330 331 329 325 310 310 313 316 328
319 319 318 319 321 331 322 321 320 319 320 320 322 324 324 322 321 323 328 327 322 323 323 323 322 322 321 321 320 321 321 322 322 323 325 326 326 328 329 325 323 323 322 323 323 321 323 325 326 327 327 328 330 329 329 333 330 328 311 310 311 314 320
318 318 319 327 331 326 318 320 319 320 322 322 323 324 322 321 321 323 322 321 321 322 323 324 324 323 320 319 319 321 322 321 323 326 327 328 328 326 325 323 323 324 324 324 322 320 319 321 324 327 326 327 329 329 327 332 331 327 321 310 308 309 313
314 317 320 322 322 328 320 318 319 320 321 322 323 324 322 321 321 322 324 321 323 324 324 326 325 323 321 320 321 322 322 321 321 324 327 329 328 324 322 322 323 323 324 323 322 320 317 317 319 319 321 324 326 328 327 328 329 323 326 314 307 306 309
314 317 318 319 319 322 326 318 318 317 317 319 321 320 321 322 322 323 324 321 323 322 323 324 324 322 321 323 321 319 318 320 323 319 319 321 323 322 321 322 323 323 322 321 321 318 317 315 315 314 315 319 323 326 327 328 327 326 323 322 311 307 305
314 315 314 314 317 324 322 317 317 318 318 318 320 320 321 322 321 325 324 322 324 324 324 325 324 323 321 320 317 317 318 318 317 318 317 317 318 320 320 320 320 319 319 320 319 317 316 315 315 313 314 318 322 322 324 327 326 326 325 324 321 313 308
314 314 314 314 317 324 319 319 319 318 318 319 320 321 324 322 321 320 322 321 322 323 322 324 324 322 320 318 317 316 317 317 317 317 317 318 318 320 319 319 319 317 317 317 317 317 317 316 316 314 314 315 319 321 322 324 324 323 325 328 326 322 314
313 314 314 315 318 325 317 317 317 318 319 319 319 323 324 322 321 322 322 323 324 323 322 323 323 324 321 316 315 315 317 320 317 317 316 315 315 314 316 316 315 315 315 314 314 316 316 317 316 314 313 315 317 321 322 322 322 323 325 326 327 327 323
314 317 315 316 319 322 316 316 316 317 318 319 319 322 323 323 322 322 321 322 322 320 320 324 323 320 316 315 316 318 319 318 329 321 312 313 314 313 314 315 316 314 314 313 316 316 316 315 315 313 313 313 317 318 320 321 321 320 319 320 319 323 327
317 318 319 319 320 321 317 317 318 317 319 319 319 319 319 320 322 322 320 318 319 318 320 321 326 320 314 316 316 316 323 315 319 316 313 312 314 315 314 315 317 315 315 316 319 317 316 316 314 316 314 316 316 317 320 320 319 320 311 314 304 307 315
319 319 319 320 321 319 318 321 318 318 319 319 318 318 318 319 319 319 322 319 320 320 317 322 320 319 316 315 313 315 320 316 314 315 315 315 314 314 315 326 312 311 315 316 318 312 304 303 313 315 315 317 317 317 319 318 318 304 297 296 296 297 295
319 318 318 319 318 318 318 318 321 320 319 319 319 319 321 321 321 320 321 320 320 320 319 320 319 318 315 316 314 317 319 316 315 316 315 314 314 313 315 316 316 307 306 310 313 305 299 297 294 296 300 311 315 313 304 301 297 295 294 294 294 293 293
318 319 319 319 318 317 317 318 319 319 319 319 319 319 318 321 321 319 321 321 319 319 317 317 318 317 316 315 314 322 328 316 317 319 317 315 314 314 315 313 313 315 309 305 305 303 299 298 298 296 294 295 298 304 312 305 297 293 295 294 294 294 293

ECMWFFLT1_sfc_thetae_006.txt.gz
Theta_e
325 325 325 325 324 324 324 325 324 323 325 326 326 327 328 330 330 329 329 328 328 328 329 328 330 330 330 332 334 335 335 335 335 336 336 335 336 335 334 334 333 333 334 333 334 335 336 338 338 339 340 340 341 340 340 341 342 343 343 342 342 342 342
324 324 324 324 324 324 323 324 323 322 325 326 326 327 327 328 329 329 328 327 327 327 329 328 334 328 329 331 333 334 333 334 336 338 336 335 335 334 334 334 334 334 334 334 335 336 337 338 339 339 340 341 340 341 341 340 340 340 340 341 340 340 341
323 324 323 323 324 323 323 323 322 323 326 326 327 327 327 328 329 329 330 330 327 327 327 326 332 328 328 329 331 332 331 333 334 334 333 332 332 333 334 335 335 334 335 335 336 336 338 338 339 339 339 340 340 340 340 340 340 340 339 339 339 339 339
323 323 323 324 324 323 323 323 324 323 325 327 327 327 326 328 330 328 328 328 326 329 327 327 325 327 328 330 331 330 331 332 332 332 332 332 331 333 333 332 332 332 332 333 334 335 337 338 338 338 339 337 337 338 338 338 339 339 339 338 338 338 338
322 322 322 322 322 321 321 321 322 323 325 326 326 329 327 329 329 328 326 327 325 326 326 326 327 328 329 329 330 331 332 331 331 331 331 331 331 331 330 330 331 331 332 332 334 335 335 334 335 335 336 336 336 337 336 337 337 338 337 337 336 337 337
320 320 321 321 321 321 321 321 322 323 324 326 326 327 328 328 327 327 326 329 330 329 327 326 325 328 329 327 328 329 330 329 329 330 330 330 330 329 329 330 330 330 331 332 333 334 334 334 334 335 334 335 335 335 336 336 337 337 337 337 336 336 336
320 320 320 321 321 321 321 320 320 323 324 325 326 328 330 328 327 327 326 326 327 327 325 324 325 325 327 329 328 329 327 327 328 328 328 329 329 329 328 329 331 330 330 332 332 333 334 334 334 334 334 334 335 335 335 335 335 336 336 335 335 336 336
320 319 320 321 321 320 320 319 320 322 324 326 325 326 329 328 327 327 326 326 325 325 324 324 325 326 327 328 329 327 327 327 327 327 327 327 327 328 328 328 328 329 330 330 332 333 333 334 334 334 334 335 335 335 335 335 335 334 335 333 333 333 334
319 320 320 320 320 319 319 319 320 322 324 325 326 327 328 328 327 327 326 326 325 324 324 323 324 325 327 328 327 327 326 326 326 326 327 326 327 327 327 328 328 329 329 330 331 334 334 334 334 334 334 334 335 335 335 335 334 334 333 333 332 330 332
317 317 318 319 319 319 318 318 320 322 324 324 325 325 326 327 326 326 326 326 326 325 325 324 324 326 327 327 327 326 325 325 325 325 326 326 327 327 328 328 328 330 330 331 332 332 334 335 335 335 335 335 335 335 334 333 334 333 333 332 331 331 331
316 318 317 318 318 318 318 319 320 322 323 324 325 325 325 326 326 326 326 326 326 326 326 324 325 326 327 326 326 326 325 324 325 325 325 326 327 328 329 329 328 329 330 331 331 332 333 335 336 335 335 335 335 335 334 334 334 333 332 332 333 332 331
316 317 317 318 317 316 318 320 321 321 323 324 325 325 325 325 325 326 325 325 326 326 325 324 325 325 326 326 325 324 324 324 324 325 325 327 328 329 329 329 329 329 329 331 330 332 333 334 335 336 335 335 335 334 334 334 334 333 332 331 331 330 331
317 317 317 317 318 317 318 319 320 321 322 323 324 324 325 325 326 326 325 325 325 325 325 325 324 324 324 324 323 323 323 324 324 325 325 326 327 328 329 329 329 328 328 330 331 331 332 333 333 334 335 335 335 335 334 333 333 333 332 331 329 328 327
322 317 317 317 317 317 318 320 321 321 322 322 323 324 324 325 326 326 325 325 325 324 324 325 325 324 324 323 322 322 322 323 324 324 325 327 328 329 330 329 328 328 329 330 329 330 331 332 332 332 333 333 335 335 335 333 333 333 332 330 328 327 326
317 316 317 316 317 318 319 320 321 321 322 322 323 323 323 324 324 323 323 323 325 325 324 324 322 322 323 322 322 322 322 323 324 325 327 328 328 328 328 328 327 328 328 329 329 331 331 332 331 330 330 332 333 334 333 332 332 332 331 328 327 326 325
317 316 316 317 317 318 319 320 321 322 322 322 322 323 323 323 324 324 324 324 324 322 322 321 321 322 322 321 321 322 323 323 324 326 326 327 327 328 328 327 327 328 328 328 329 329 330 331 331 331 331 331 331 332 332 331 332 329 321 322 327 326 325
316 317 317 317 317 318 319 320 321 321 322 322 322 323 323 324 324 324 322 322 322 321 321 321 320 320 320 321 322 322 322 323 324 325 325 326 327 327 327 326 327 327 328 328 329 329 329 330 330 330 331 331 330 331 331 331 331 323 321 324 326 326 324
316 317 317 317 318 318 319 320 320 320 321 321 323 323 323 323 323 322 321 321 321 321 321 320 320 320 320 321 322 322 323 323 324 324 325 325 325 326 326 326 326 327 327 328 328 328 330 329 329 329 330 330 331 332 331 331 325 322 321 324 324 324 324
316 317 317 317 318 319 319 320 320 320 321 321 323 323 324 324 323 321 322 321 321 321 320 320 320 320 320 321 322 323 323 323 323 323 324 324 324 324 325 325 326 327 327 328 329 329 328 327 327 328 329 330 330 331 331 330 324 322 319 321 321 321 323
317 317 317 318 319 319 319 320 320 321 321 322 324 325 326 326 323 323 323 323 322 320 319 319 320 320 321 322 322 322 322 323 323 323 322 323 322 323 324 325 325 327 327 328 328 326 326 326 326 327 328 330 330 331 330 330 323 320 317 316 316 319 322
316 316 316 317 317 318 319 320 320 320 320 321 323 324 324 323 323 324 322 320 320 320 319 319 320 320 320 320 321 321 321 322 321 321 321 322 322 323 323 324 325 326 327 327 327 326 325 325 325 327 329 330 331 330 330 330 320 317 315 313 313 315 322
315 316 316 317 318 318 319 319 319 319 320 324 325 324 323 323 323 322 322 322 320 320 320 320 319 320 320 319 320 321 321 321 321 320 320 321 322 322 323 324 325 326 327 328 327 326 326 326 326 327 328 329 329 328 328 329 320 316 314 312 312 315 325
316 316 318 318 319 319 320 320 320 320 324 323 323 323 323 323 323 322 322 321 321 321 320 319 319 319 320 322 321 323 322 322 320 320 321 322 321 322 322 323 325 327 328 327 326 324 324 324 325 327 328 329 330 329 328 328 324 316 312 310 310 315 324
317 317 318 318 319 319 319 319 320 322 324 322 322 323 324 324 323 322 321 321 322 321 320 318 319 320 321 320 322 322 322 322 321 321 322 321 321 322 323 325 326 326 328 326 324 323 323 324 325 327 328 329 329 329 328 329 324 315 312 310 310 311 323
315 316 316 317 318 318 318 319 320 322 324 322 321 322 324 324 323 322 321 323 322 321 320 320 320 320 320 321 322 322 322 321 321 322 322 321 321 323 324 325 326 328 326 324 323 323 324 326 325 325 326 327 328 329 329 329 325 318 315 311 308 315 323
315 315 316 318 318 319 320 322 322 323 321 321 322 323 323 323 322 323 323 323 322 321 321 322 322 323 322 322 322 322 323 322 325 325 323 322 322 323 325 327 328 324 322 322 323 323 324 323 324 323 323 324 326 328 329 329 329 328 315 310 308 309 319
316 317 317 318 319 328 320 320 321 321 321 322 323 323 323 323 321 322 326 325 322 321 322 323 323 323 322 322 322 322 323 323 322 323 323 322 323 324 327 326 323 322 321 321 321 322 322 322 322 322 322 322 323 325 327 329 329 330 317 312 309 308 312
317 317 318 324 326 327 320 319 320 320 321 322 323 323 322 322 322 323 322 323 323 324 325 325 324 324 323 323 323 323 323 323 323 323 323 325 326 324 322 322 321 322 321 320 319 319 319 319 321 320 320 320 321 323 325 328 330 330 322 317 311 307 307
316 316 317 317 319 328 324 319 319 320 321 322 322 322 321 321 322 323 324 321 322 324 324 323 323 322 322 322 323 324 324 324 324 325 324 324 324 322 321 321 320 320 321 319 318 318 317 318 319 319 319 318 319 320 323 325 327 323 326 317 313 309 308
317 317 318 318 319 321 328 321 320 320 321 321 321 320 321 321 322 323 323 322 324 323 323 323 322 322 322 324 325 324 324 324 324 323 322 322 322 322 320 319 319 320 319 318 317 317 316 317 317 318 317 317 317 319 321 322 325 324 322 322 316 312 307
318 318 317 318 318 322 327 322 320 319 320 319 320 320 321 321 321 324 324 324 325 323 323 323 323 323 323 323 323 323 323 321 320 320 320 319 321 320 322 319 319 320 319 318 317 316 316 316 318 317 317 317 317 318 319 320 323 326 325 323 318 315 310
315 316 316 317 317 320 325 322 319 318 318 319 318 319 322 320 320 322 323 324 326 325 322 323 323 323 323 322 322 322 321 319 318 319 319 320 320 321 320 318 319 319 318 318 317 316 315 316 317 318 317 317 316 316 317 319 322 324 323 320 317 315 313
314 315 316 316 318 323 322 318 316 316 317 318 318 317 319 319 320 322 323 323 322 322 322 322 323 323 322 321 321 321 318 317 318 319 319 318 317 317 319 320 318 317 318 318 316 316 316 316 317 317 316 316 315 315 316 318 321 321 316 316 313 313 314
313 313 313 314 316 323 319 317 316 317 318 317 317 317 319 319 320 321 321 321 322 322 322 323 323 321 320 320 321 321 318 318 327 326 319 320 317 317 317 317 318 318 318 317 317 315 315 315 315 314 313 312 313 314 315 317 318 316 309 310 309 309 310
312 312 312 313 314 322 317 317 317 316 317 318 319 317 318 319 320 321 321 322 323 321 320 320 325 326 324 322 318 316 324 320 322 325 322 320 317 317 317 317 318 319 318 316 315 315 314 312 312 311 309 309 310 312 314 315 315 311 301 303 300 302 305
310 312 312 313 316 318 319 320 317 317 317 317 317 317 318 318 319 319 320 321 321 319 319 321 322 320 320 318 316 315 318 322 318 316 318 317 316 317 318 323 310 314 319 317 310 302 298 299 307 305 305 308 311 310 310 310 307 298 294 293 292 293 293
312 313 314 317 315 315 317 316 320 319 318 318 319 319 319 319 319 320 321 320 320 319 319 318 320 320 319 320 318 318 319 319 319 317 315 316 316 316 318 318 319 304 301 308 307 300 294 294 295 297 300 304 306 308 302 300 297 293 292 293 293 292 292
314 315 317 317 316 315 317 318 319 319 319 317 318 318 317 318 318 318 319 321 321 320 319 319 320 319 318 318 317 321 325 321 319 320 317 315 315 316 317 316 316 318 303 298 299 296 295 296 296 295 296 297 298 301 306 301 296 293 293 293 293 293 292

ECMWFFLT1_sfc_thetae_009.txt.gz
Theta_e
338 340 341 342 340 338 337 337 338 338 341 343 344 343 342 344 344 344 342 342 341 341 341 341 341 343 340 344 347 348 349 348 346 345 345 344 342 340 338 338 338 338 339 338 339 339 340 342 342 343 344 345 346 346 346 347 347 346 347 348 348 345 346
336 338 339 340 340 338 338 338 339 338 340 342 342 343 343 344 345 342 342 342 341 340 340 341 341 340 343 343 347 346 346 347 346 346 345 345 344 341 338 338 338 337 338 339 339 339 340 341 342 342 342 343 344 344 345 345 345 346 345 345 345 345 346
336 337 338 339 338 337 337 338 339 338 340 340 340 340 341 344 345 344 342 341 341 341 341 341 341 341 343 345 344 344 344 345 345 344 342 341 341 341 340 338 338 338 338 339 340 338 340 340 342 343 342 342 342 343 343 342 342 342 343 343 342 342 343
336 336 338 339 339 339 338 337 338 337 338 340 340 340 343 346 347 346 344 342 340 340 340 340 340 341 342 343 343 343 343 344 344 343 342 341 340 342 341 341 340 340 339 339 339 339 339 341 340 341 341 341 342 343 343 343 342 341 341 340 339 340 340
337 337 337 336 336 336 336 336 337 337 336 338 341 344 345 345 345 344 342 343 341 339 340 340 341 342 343 344 343 343 343 343 343 342 342 341 342 342 340 339 339 339 339 340 341 340 340 340 339 340 340 343 342 342 343 343 341 341 340 340 339 338 338
335 336 335 335 335 335 335 335 335 335 335 336 340 341 341 339 340 339 340 341 341 341 342 341 341 343 342 345 343 343 343 343 342 341 341 341 341 340 339 339 338 338 339 341 340 340 340 340 339 340 341 341 341 341 341 340 340 340 339 338 338 337 337
336 336 335 334 335 335 335 335 334 334 335 338 340 341 338 337 338 338 338 338 339 340 340 338 339 340 340 343 343 343 342 341 341 341 340 340 340 341 340 340 340 339 340 341 340 340 339 339 341 342 341 341 341 340 340 340 339 339 339 338 337 337 337
336 335 335 335 334 334 334 335 334 334 335 338 338 335 335 337 338 337 336 336 337 336 336 335 338 339 340 341 341 341 340 340 340 340 340 340 342 341 341 340 339 340 340 339 341 342 340 340 341 341 340 339 340 340 340 340 340 339 338 336 335 335 335
336 336 334 333 334 334 334 335 334 335 337 337 337 339 340 340 337 337 337 337 337 336 336 335 335 339 341 339 340 340 341 340 339 339 341 341 342 340 339 338 339 340 339 339 339 341 341 340 341 341 340 339 339 340 340 341 340 340 338 335 334 334 334
334 333 333 333 334 334 335 334 335 336 337 338 338 339 340 340 340 339 338 337 337 336 337 337 336 336 338 339 338 340 340 339 339 339 339 337 340 340 339 338 339 341 340 340 340 340 341 342 341 340 340 339 340 340 339 338 337 338 339 337 335 333 333
333 333 332 332 333 334 333 331 332 334 337 338 339 339 341 341 341 339 340 339 337 337 336 337 338 336 337 338 336 337 339 338 338 337 337 338 336 337 337 337 337 339 340 340 340 340 340 340 341 339 340 339 339 338 336 334 335 335 335 334 335 334 332
331 331 331 332 333 332 331 332 335 336 337 338 339 340 341 341 341 341 341 340 339 337 338 337 337 335 335 334 335 337 336 337 338 337 337 337 337 338 339 341 342 341 339 340 338 339 340 340 340 340 340 340 340 338 337 336 336 337 335 335 335 333 332
329 330 331 331 332 332 333 333 334 336 337 337 339 340 340 340 340 340 341 341 340 339 338 339 339 339 336 335 334 337 336 336 337 338 336 338 339 340 339 340 339 337 337 338 338 338 338 340 340 340 340 340 340 339 339 339 339 338 336 335 334 333 332
328 329 330 332 331 331 331 332 334 335 337 337 339 340 339 340 340 341 341 340 340 339 337 338 339 338 336 335 336 337 335 336 338 339 339 339 340 341 342 342 342 341 341 340 338 338 339 339 340 340 340 340 340 339 339 339 339 338 336 334 334 332 332
326 327 328 329 330 331 332 332 333 335 336 337 339 338 338 338 339 340 341 340 341 339 338 340 339 338 336 336 336 336 337 338 339 339 339 339 340 340 341 341 341 341 340 340 340 340 340 340 339 339 340 340 340 340 339 338 338 338 335 333 332 333 331
326 326 327 328 329 330 332 333 335 336 337 338 338 338 337 338 339 339 339 338 338 339 339 340 338 336 335 335 335 336 338 338 339 339 340 340 340 340 340 339 339 339 338 339 339 340 340 341 340 339 338 338 339 340 340 339 339 333 323 323 331 332 330
327 327 327 328 330 331 332 333 335 336 336 337 338 338 338 339 339 340 338 337 337 339 340 339 336 336 335 334 336 337 338 338 339 339 339 340 340 340 339 338 338 338 339 340 340 340 341 340 339 338 338 337 338 338 339 338 338 327 321 324 325 330 330
327 327 328 328 330 331 332 332 334 335 336 337 339 339 339 338 339 340 338 338 338 337 338 337 335 333 334 334 336 337 337 338 339 339 339 340 340 339 338 336 336 338 339 339 340 341 341 340 339 338 338 337 338 338 339 339 332 323 321 324 323 324 328
327 328 329 330 331 331 331 332 334 336 337 339 339 338 339 340 339 338 340 340 340 340 337 335 334 335 334 335 336 336 338 338 337 337 338 339 339 337 336 336 336 337 338 338 339 340 340 339 338 338 338 338 338 338 339 339 331 323 320 321 321 322 324
329 329 330 330 331 331 332 334 335 336 338 340 340 338 340 341 340 340 341 341 340 337 337 336 336 335 333 334 335 337 338 337 337 336 338 338 337 336 335 336 337 337 338 338 340 339 339 339 339 339 339 339 339 339 339 340 331 322 319 316 316 318 322
329 329 329 330 331 332 334 335 336 337 337 337 337 338 338 339 339 340 339 338 336 336 335 335 335 334 334 334 335 337 336 336 336 336 337 337 336 335 336 336 337 337 338 338 338 337 337 337 336 337 337 338 339 338 338 339 326 320 316 314 312 313 320
328 329 330 331 332 333 335 335 336 336 337 338 337 336 336 337 338 336 337 338 336 336 335 335 334 333 334 334 335 335 336 336 335 337 337 335 335 336 336 337 338 337 338 337 336 338 338 338 338 337 336 337 338 337 336 336 325 319 317 313 312 313 328
328 329 331 333 334 335 338 338 338 338 339 338 336 336 336 336 336 336 337 336 335 335 334 333 333 333 334 334 335 336 337 336 335 336 336 335 335 335 334 334 335 336 338 336 335 335 336 336 335 337 336 336 336 336 335 334 330 319 313 312 311 315 330
329 331 333 333 335 335 337 337 337 337 336 335 335 336 337 337 336 336 336 336 335 334 333 333 332 334 335 335 336 337 338 337 336 335 335 336 334 332 332 333 336 336 337 334 332 331 332 333 334 337 338 336 334 332 331 331 329 317 311 311 313 312 327
326 327 330 331 331 332 334 335 336 334 335 335 334 336 337 337 336 335 335 336 334 333 333 334 335 335 335 336 337 338 337 336 336 335 335 335 334 333 332 333 334 334 335 333 332 332 335 335 335 335 335 332 333 332 330 331 328 319 313 312 313 319 328
328 328 329 331 332 334 336 336 335 334 333 333 335 337 337 336 335 334 335 334 334 333 334 335 336 339 338 337 336 336 336 336 336 337 336 336 336 336 334 334 333 332 330 332 331 330 330 333 333 333 332 332 334 332 332 332 333 334 317 313 312 311 322
330 330 330 328 329 332 332 333 333 334 335 336 337 337 335 334 334 334 336 337 336 335 335 337 339 338 336 336 335 335 336 337 337 337 338 338 336 334 333 334 332 331 332 329 329 330 332 331 331 330 332 332 333 332 332 331 330 333 321 315 312 312 313
327 327 328 331 333 334 332 331 333 334 334 337 336 334 334 335 334 335 337 336 335 337 338 340 338 337 336 336 337 336 336 337 338 339 338 339 336 335 334 334 333 331 331 329 330 331 331 332 331 330 331 332 333 333 333 333 329 332 326 317 311 309 309
327 328 327 329 330 332 332 332 331 331 333 333 332 333 333 333 334 336 336 335 337 339 340 338 336 336 336 336 335 336 337 338 339 338 338 337 336 334 332 332 332 333 333 332 330 330 329 329 329 328 327 328 330 333 334 334 333 325 330 319 311 306 307
331 331 330 329 328 331 332 333 334 333 333 330 332 333 333 334 334 335 335 335 339 339 337 335 335 335 335 336 337 337 338 337 338 339 338 336 335 332 332 331 331 332 333 331 329 327 326 327 328 327 325 324 325 329 331 334 333 329 322 323 313 307 304
330 330 330 329 327 330 330 331 334 334 332 332 333 334 335 334 334 335 334 337 339 336 335 334 335 336 335 336 336 338 337 336 336 337 335 332 333 330 329 328 330 329 332 331 328 327 326 326 326 326 325 325 326 327 329 330 332 333 328 320 316 311 308
329 330 328 328 329 329 329 330 330 331 331 333 333 333 334 334 334 334 336 338 336 336 335 335 335 334 334 335 336 335 334 333 334 336 333 331 331 331 331 328 327 327 329 328 327 327 326 325 324 323 324 324 323 325 326 328 331 331 329 323 320 317 312
331 329 329 330 330 329 329 329 328 329 330 330 332 331 330 332 332 334 336 335 334 334 335 334 333 332 334 335 334 334 333 332 331 331 328 329 329 329 328 328 328 328 327 327 325 325 324 323 323 322 322 322 322 324 325 326 327 326 321 318 317 317 316
331 330 329 327 327 328 329 329 330 329 330 330 332 330 329 329 331 331 332 330 330 330 332 331 332 332 333 332 332 331 332 332 331 330 325 325 325 323 325 326 326 326 326 324 324 323 322 322 322 320 320 319 320 321 322 323 323 319 312 309 308 308 310
331 330 328 327 327 328 328 330 329 331 331 330 329 328 328 328 327 328 330 330 330 332 332 333 333 332 332 330 329 328 332 332 331 330 326 326 329 329 330 327 326 327 323 320 320 320 321 322 318 317 317 319 319 317 318 319 316 313 304 303 298 300 305
330 327 327 326 325 327 329 329 329 329 329 329 327 328 328 328 329 329 328 330 332 333 333 333 331 329 326 326 325 323 324 327 326 327 327 323 325 326 326 312 302 316 323 315 306 302 300 302 312 310 312 315 316 314 311 310 309 302 296 294 293 293 293
327 326 325 326 325 326 326 327 327 328 326 327 327 327 328 328 328 330 329 332 332 331 333 331 329 327 325 326 323 324 325 324 324 328 329 327 327 327 324 319 313 298 302 306 306 300 295 295 296 299 301 308 312 311 305 304 300 296 295 295 294 292 292
327 327 326 327 326 326 326 326 327 327 327 328 328 328 329 327 328 330 328 330 330 332 332 331 328 327 326 325 325 328 328 328 328 327 326 326 327 326 324 323 317 313 297 296 300 298 296 295 294 294 295 297 300 305 312 304 299 296 296 296 295 294 293

ECMWFFLT1_sfc_thetae_012.txt.gz
Theta_e
342 344 345 347 348 347 347 348 344 341 344 346 347 347 348 349 349 349 346 345 347 348 348 347 346 344 344 344 345 346 344 344 344 342 341 341 343 344 343 343 343 343 342 341 342 342 344 345 344 344 347 348 347 347 347 348 348 347 346 347 347 347 346
340 342 343 345 347 347 348 347 343 341 344 344 346 348 348 351 350 347 346 346 347 348 347 346 344 344 344 344 345 343 342 342 343 343 343 343 344 344 344 344 343 343 343 343 342 343 343 343 344 344 344 346 347 348 347 347 347 347 345 345 345 343 344
341 342 343 345 346 347 348 344 343 343 344 343 344 346 347 351 350 348 347 346 347 347 347 345 345 345 345 345 343 343 343 342 342 341 340 338 340 340 342 344 343 341 342 343 343 342 343 343 344 344 343 343 344 346 347 345 345 345 345 346 344 343 343
342 342 344 347 349 350 349 344 342 341 342 343 344 346 348 351 350 348 348 348 346 346 345 345 345 345 345 344 343 344 344 343 343 341 340 340 340 341 341 342 343 342 341 341 341 342 343 343 343 343 343 343 344 344 347 347 346 345 345 345 343 343 343
345 344 344 345 346 348 348 343 340 340 340 342 345 348 350 349 347 348 348 347 345 345 345 346 346 347 347 345 344 344 343 343 342 342 342 341 343 343 342 341 341 341 341 341 342 342 343 343 342 342 342 344 345 343 343 344 344 344 344 344 342 341 340
343 343 343 344 346 348 347 342 340 339 339 340 345 347 346 344 344 343 345 347 345 345 347 347 347 347 345 347 346 344 344 343 343 343 342 342 342 341 340 340 340 340 340 341 341 340 342 342 342 342 342 340 339 340 340 342 342 343 343 343 343 342 340
343 344 343 344 345 347 347 343 338 338 340 341 346 347 342 340 340 338 340 343 343 344 345 345 346 346 346 346 346 345 343 342 342 342 341 342 342 341 340 341 341 340 341 343 342 342 341 341 342 343 343 342 342 342 343 342 343 344 343 342 341 341 341
344 344 345 345 345 345 345 343 339 339 340 342 343 340 336 337 337 336 338 339 340 340 341 341 345 346 346 346 345 343 342 341 341 340 340 340 340 340 340 340 339 340 342 340 341 342 341 342 343 343 343 343 342 343 344 344 343 342 343 342 341 341 340
345 346 345 344 344 344 344 344 341 340 342 343 344 341 339 339 337 337 338 338 338 338 338 336 338 345 347 345 344 342 342 342 340 339 340 339 338 336 336 336 338 339 339 338 338 340 341 340 342 343 345 344 344 344 344 342 341 342 342 342 342 341 340
345 346 348 346 344 343 344 344 343 343 344 345 344 343 342 342 340 338 337 336 336 336 336 337 336 338 344 345 342 341 341 341 340 339 337 333 335 335 335 334 336 337 337 337 337 337 340 341 343 343 344 343 344 345 344 341 340 339 340 340 341 340 338
345 348 347 345 344 344 345 343 343 345 346 346 346 345 345 344 341 339 340 338 335 334 334 337 340 339 340 341 338 338 340 340 339 337 336 335 332 333 332 331 332 334 335 336 336 337 338 339 341 342 343 342 343 343 344 342 340 340 340 341 342 340 337
346 347 346 346 345 345 344 345 347 347 347 346 345 345 346 345 344 341 340 340 338 335 336 337 339 337 338 336 335 337 338 339 338 336 335 334 333 333 334 334 335 334 333 333 332 334 334 336 338 341 342 343 342 344 345 344 343 342 341 341 341 339 337
345 346 346 344 345 345 346 347 346 347 346 345 344 345 346 344 342 340 341 342 339 338 338 341 341 342 339 336 333 336 338 337 337 336 334 335 335 336 333 332 332 331 331 332 332 331 333 335 338 341 344 344 344 343 343 343 342 341 342 342 341 338 337
342 344 345 344 345 345 345 346 346 345 345 344 343 345 344 343 341 341 341 342 340 339 339 339 342 342 340 338 336 337 337 337 336 336 337 336 337 337 336 335 335 335 335 335 333 330 332 333 336 337 338 339 340 341 342 345 344 343 342 343 340 337 336
340 340 342 342 344 345 345 344 345 344 344 343 344 344 343 342 342 342 345 343 343 339 339 342 343 342 339 338 338 338 339 337 337 337 337 337 336 335 335 335 335 334 335 334 334 334 334 336 334 335 336 338 340 342 342 344 345 343 341 338 337 338 336
339 339 339 341 343 344 345 345 345 344 345 345 343 343 342 343 344 343 343 343 340 341 341 343 344 343 340 337 337 338 338 337 338 338 337 336 335 335 335 333 333 332 332 332 332 334 335 336 337 335 334 335 339 341 342 343 345 338 332 332 335 335 335
338 337 338 340 343 343 344 344 345 344 343 343 342 343 342 344 344 344 340 338 335 340 342 343 344 343 340 338 337 337 337 337 337 337 336 336 335 335 334 333 332 332 332 333 335 335 336 335 334 334 335 336 337 338 338 340 343 332 327 327 327 333 335
336 337 338 339 341 343 343 343 343 343 343 342 342 343 344 344 344 344 343 337 337 338 342 343 342 341 340 338 337 336 337 337 337 336 335 335 335 335 334 333 332 332 333 333 333 333 334 333 334 335 337 338 337 336 336 337 334 326 326 327 326 328 335
336 338 338 339 341 342 342 341 343 343 341 340 340 343 345 347 345 344 344 341 341 343 342 342 340 340 339 338 336 336 337 338 337 336 335 335 335 335 334 333 331 331 331 331 332 333 333 333 333 335 337 336 335 334 334 334 332 324 324 325 324 324 328
336 338 339 339 341 341 342 342 342 342 341 342 343 342 345 346 346 346 345 341 343 344 344 341 340 339 338 338 337 337 337 337 337 336 335 335 335 335 334 331 330 331 331 332 333 333 332 333 333 333 335 334 333 334 335 334 331 324 323 322 321 321 324
336 337 338 339 340 341 343 343 343 343 342 342 341 342 343 345 348 347 343 342 341 345 344 342 340 339 339 338 338 338 337 337 337 336 336 336 335 334 333 331 331 331 331 331 331 331 331 331 332 333 333 332 331 331 331 332 326 323 321 320 317 317 320
335 336 338 339 341 342 344 343 344 343 344 344 344 343 343 346 346 341 339 342 342 344 343 341 339 338 339 338 338 338 338 338 337 337 337 336 336 333 331 331 331 331 332 333 331 331 330 330 330 330 330 331 331 330 331 331 325 322 320 317 315 316 332
334 337 339 341 342 344 347 347 346 345 348 347 347 346 344 343 344 342 338 339 340 342 341 338 337 337 338 338 338 338 338 338 337 338 337 337 334 332 330 330 330 330 333 332 331 328 327 329 328 331 330 330 331 332 333 333 327 317 315 315 314 317 334
335 338 340 341 345 346 349 348 348 349 347 347 348 347 345 344 344 344 341 339 340 339 338 336 335 337 338 339 340 339 339 338 339 338 337 337 334 332 330 329 331 330 333 331 330 328 328 329 329 331 331 330 331 330 330 329 325 312 311 312 314 319 334
334 337 341 343 343 345 347 348 349 349 350 349 347 348 349 348 345 344 343 340 337 337 335 335 337 337 338 340 341 340 339 338 339 338 337 336 333 332 331 330 331 331 332 332 331 330 331 330 329 329 330 328 329 333 331 331 326 315 312 310 313 323 336
337 339 342 345 345 347 349 351 350 348 346 346 347 350 350 348 345 343 340 336 335 335 335 337 339 340 341 340 340 340 340 339 339 339 338 336 335 334 333 333 332 331 330 330 329 328 328 328 329 328 328 328 329 330 331 331 331 327 311 312 312 313 331
338 339 340 339 341 345 347 349 348 345 345 346 349 350 348 346 344 342 342 340 337 336 336 339 342 341 343 344 340 339 339 338 338 338 338 337 335 334 334 333 331 330 330 327 328 329 328 329 329 329 329 328 329 330 331 331 330 330 316 315 312 314 316
337 337 340 340 343 342 343 342 345 346 345 349 351 348 346 345 344 343 343 340 337 339 340 342 343 345 346 345 341 338 337 337 338 339 337 338 338 337 336 334 333 331 330 328 328 330 330 330 330 329 329 329 329 331 333 335 332 331 321 312 309 307 308
338 336 336 339 341 342 339 341 340 341 342 341 343 345 344 344 343 342 342 340 341 341 342 344 345 346 346 344 340 339 338 338 339 339 337 337 338 338 335 334 333 333 333 332 332 330 329 329 329 329 327 328 328 330 331 335 337 325 330 315 311 306 307
340 339 338 335 335 339 337 341 342 341 342 339 342 343 343 342 341 341 340 341 344 345 344 346 346 346 344 343 340 338 338 337 338 338 339 339 339 338 336 333 331 331 332 333 330 328 327 328 328 328 327 327 326 329 329 334 335 325 321 325 315 310 306
339 339 338 337 333 338 338 337 339 342 343 343 343 343 342 341 339 339 339 342 345 346 345 345 344 343 342 340 339 338 337 337 337 337 336 337 338 337 334 332 331 329 331 332 329 328 328 328 328 328 327 326 326 327 327 330 332 334 329 322 321 314 310
341 341 339 339 339 340 337 336 337 337 339 342 344 343 342 342 340 339 341 344 345 348 345 343 343 341 340 339 337 337 337 336 336 335 334 334 334 334 333 330 328 327 329 329 328 329 328 328 326 326 327 325 325 325 326 329 332 334 330 325 322 318 314
339 338 338 338 342 341 338 337 334 335 336 337 343 342 340 341 340 341 343 345 347 346 345 343 341 339 338 337 336 337 337 336 332 330 331 335 334 332 331 329 328 328 327 327 327 327 326 326 327 326 325 324 324 325 326 328 329 328 325 324 323 323 322
339 339 341 340 340 338 337 337 337 336 337 337 340 341 339 337 339 341 342 341 340 338 341 340 339 337 336 335 334 334 335 335 331 331 329 330 332 328 328 328 328 327 329 328 328 327 326 327 327 325 324 323 323 324 324 324 325 323 317 316 317 317 319
338 340 340 342 341 340 339 339 337 337 336 336 339 338 337 336 335 335 338 337 336 337 338 337 336 335 334 335 335 333 334 332 332 332 331 328 331 332 328 329 334 332 330 324 323 324 326 327 325 324 323 323 324 322 322 323 321 317 305 306 301 303 308
337 337 338 337 336 337 337 336 336 334 335 337 337 335 335 334 335 334 332 334 335 337 337 337 335 334 331 331 331 330 329 329 328 329 329 328 328 330 323 310 301 312 327 320 309 304 300 304 319 316 320 323 323 320 316 315 314 302 296 295 294 294 294
334 333 333 333 334 335 335 336 335 335 335 335 335 334 333 333 333 334 332 335 336 336 336 337 333 330 328 329 328 328 329 327 326 327 330 329 333 330 326 321 315 298 298 305 305 300 296 295 296 298 302 312 320 315 303 305 300 296 294 294 294 293 292
336 335 333 333 334 334 334 333 334 333 334 335 334 334 334 332 333 335 333 336 336 336 337 336 333 330 328 328 330 331 328 326 327 328 327 330 329 332 327 323 319 313 299 296 299 298 295 295 294 295 296 296 300 307 319 307 300 295 294 294 294 294 292

ECMWFFLT1_sfc_thetae_015.txt.gz
Theta_e
338 339 340 336 336 337 342 348 352 354 355 354 352 350 346 347 348 352 352 351 351 349 350 352 352 350 348 348 349 349 347 344 345 342 343 342 343 343 343 343 342 343 342 341 343 342 344 345 345 344 345 344 344 344 348 352 352 348 346 347 346 345 347
337 337 340 339 336 340 345 351 355 354 353 353 350 349 347 348 350 351 351 352 350 350 352 352 351 349 348 348 349 347 345 343 343 343 343 343 344 343 342 342 342 342 344 344 344 344 345 344 344 344 344 344 343 344 345 346 347 348 344 343 343 343 344
339 337 341 342 336 333 345 351 353 352 352 351 349 347 346 350 351 352 351 349 349 352 353 351 350 348 348 348 347 346 346 344 342 342 342 341 341 340 341 341 341 341 342 344 344 343 344 344 345 345 344 343 342 343 345 345 345 344 345 345 344 342 343
338 337 341 345 348 343 344 347 351 349 350 350 349 348 349 352 353 353 351 349 348 350 351 350 349 348 348 348 347 347 345 345 345 343 342 341 341 343 341 340 342 343 343 342 342 342 343 344 344 343 344 343 343 344 345 344 345 346 346 346 345 344 343
341 342 341 343 346 346 342 350 350 347 347 348 349 350 351 354 354 351 349 350 348 349 351 350 348 348 349 349 347 347 346 345 345 345 344 343 343 342 341 340 340 341 341 342 343 342 343 343 342 342 342 342 341 342 340 341 342 343 342 344 343 342 340
339 342 342 342 345 341 340 347 348 345 344 343 346 348 350 352 349 345 346 349 349 349 350 349 348 349 348 350 348 346 346 345 345 344 343 343 343 341 340 340 340 341 340 341 341 340 340 341 341 341 341 340 339 339 339 339 340 339 341 342 343 343 342
340 343 343 344 346 346 347 348 346 344 342 341 345 348 349 347 344 341 342 345 345 346 346 346 348 348 349 349 348 348 346 345 344 344 344 343 343 342 341 341 341 341 341 342 341 341 339 339 340 341 341 341 342 341 342 342 342 343 344 343 342 342 342
341 343 346 346 347 344 345 346 344 343 341 341 344 345 345 343 340 338 341 342 341 340 341 341 346 347 349 348 347 346 346 346 344 343 344 343 342 341 340 340 339 341 342 340 341 340 338 339 339 340 341 341 343 343 343 343 344 341 341 340 341 342 340
343 347 347 347 347 342 340 346 344 342 342 343 346 347 344 341 337 337 339 340 340 339 340 340 342 347 350 348 347 346 345 343 342 342 342 341 340 337 337 336 337 338 338 338 338 340 339 338 339 340 341 342 343 343 343 343 344 341 340 339 341 341 340
345 348 349 346 344 340 343 346 345 344 342 345 347 347 342 339 339 337 337 336 338 338 339 339 337 341 348 348 346 345 343 342 342 341 339 336 338 336 335 334 334 337 336 337 335 335 339 339 340 339 340 340 342 343 345 344 345 345 341 339 340 341 341
346 350 350 348 346 346 348 346 343 345 345 346 347 346 343 340 338 337 338 337 335 336 336 337 338 336 342 346 344 343 342 341 340 340 340 338 334 334 333 332 332 333 333 334 334 335 336 337 338 338 338 339 342 342 342 343 342 340 339 341 342 342 340
348 350 350 350 350 348 347 347 345 345 345 346 347 344 343 343 339 339 338 337 336 334 335 335 337 337 338 338 339 340 340 341 340 338 338 336 335 334 335 335 335 334 333 333 331 333 331 333 334 335 336 338 342 345 345 345 344 346 345 344 341 340 340
348 350 351 350 350 348 350 349 344 345 346 346 346 345 344 343 339 338 340 338 334 335 335 338 338 340 339 337 334 337 337 338 339 340 337 338 337 338 336 335 334 334 333 333 333 332 331 332 334 335 335 337 340 340 340 343 342 343 345 344 344 342 341
349 350 353 353 351 349 348 349 347 347 348 349 347 347 345 344 340 340 340 338 336 335 335 336 341 341 339 338 337 337 336 338 338 339 338 338 339 339 338 337 337 338 337 336 334 331 331 331 331 332 334 335 336 337 339 339 340 342 342 342 342 341 339
345 347 351 351 351 350 349 348 348 350 350 349 348 346 345 342 341 342 343 339 340 336 337 341 343 342 340 340 339 339 339 339 340 339 339 338 339 338 338 338 338 337 337 336 334 333 331 332 332 334 334 335 336 338 339 340 340 341 342 341 342 338 334
343 345 348 349 350 350 350 350 351 351 351 348 347 345 343 341 342 341 340 337 337 340 339 343 344 344 342 339 339 340 341 340 340 339 339 339 338 338 338 337 337 336 335 334 333 334 334 335 335 333 333 333 335 338 338 340 340 337 333 334 340 337 335
342 343 345 349 350 350 351 352 353 352 349 347 346 345 342 342 343 344 336 335 336 340 341 342 345 344 343 341 340 340 341 341 340 340 339 339 339 338 338 338 337 337 335 334 334 335 336 335 333 332 333 333 334 336 337 337 338 330 329 329 331 336 336
336 342 343 347 349 351 351 352 353 351 349 346 347 345 343 344 340 339 338 335 336 338 340 342 344 344 344 342 341 340 340 339 339 339 338 339 339 339 339 338 337 336 335 334 333 334 334 333 333 334 334 335 336 336 336 336 335 323 326 329 328 331 336
334 339 343 346 348 349 350 351 352 352 349 347 345 344 345 344 339 341 340 339 341 341 341 341 342 345 344 342 341 340 340 340 339 338 338 339 339 339 338 338 336 335 334 332 333 334 334 334 333 333 335 335 335 335 335 335 329 322 325 327 326 327 331
336 339 343 344 347 348 351 352 351 351 350 347 347 345 345 345 343 345 343 340 342 340 342 344 344 344 343 342 341 340 340 339 339 338 339 339 339 339 338 337 336 334 333 332 333 334 333 333 332 332 333 333 333 333 333 334 330 322 323 323 324 325 328
339 340 343 345 346 347 350 351 352 352 349 347 345 345 343 343 345 345 343 342 341 341 342 343 344 343 343 341 341 340 339 338 338 338 339 339 339 339 338 337 336 334 333 332 331 332 334 332 331 332 332 331 330 331 331 333 323 320 321 320 320 321 325
339 340 343 345 347 349 350 350 351 350 349 348 345 342 342 343 344 342 342 343 341 341 344 344 343 342 341 339 340 339 339 338 339 339 339 339 339 338 337 337 336 334 334 333 332 334 333 332 332 330 330 331 331 331 331 331 320 319 319 318 318 321 333
337 340 343 346 347 348 351 352 352 351 350 347 344 343 341 342 342 342 341 341 338 341 342 343 343 342 340 339 338 339 339 339 338 339 339 339 338 339 338 336 335 334 335 333 332 332 331 331 330 332 330 332 332 331 332 333 326 316 316 316 317 320 336
338 342 346 346 349 349 352 352 352 352 348 346 345 344 343 342 343 344 342 341 339 338 340 342 341 341 340 338 338 339 339 340 339 339 338 339 337 337 337 335 335 334 334 331 330 329 331 331 331 333 333 331 331 330 330 328 325 313 311 311 314 323 335
337 342 345 346 347 349 350 352 352 351 350 348 345 345 346 345 343 342 342 340 337 337 339 341 341 340 339 339 339 339 339 339 339 339 337 337 337 337 335 335 335 334 334 332 333 333 333 332 331 331 332 329 330 331 327 329 327 310 310 310 314 322 337
341 343 346 347 350 353 354 354 353 350 348 346 348 350 349 346 343 341 340 340 338 336 337 340 341 341 341 341 340 339 340 340 340 340 338 337 337 337 336 336 334 333 333 332 331 330 331 330 330 329 330 332 330 329 329 331 331 330 309 311 312 315 330
343 344 345 344 347 351 353 352 350 348 347 349 351 350 349 346 346 344 344 345 344 340 338 340 343 343 342 342 339 339 340 341 341 339 338 337 336 336 336 335 334 335 334 330 330 330 331 330 330 329 330 331 332 332 333 331 333 330 312 309 312 312 317
342 343 342 345 349 350 351 347 350 349 347 351 352 351 349 350 349 348 347 345 344 345 343 343 343 343 343 343 341 339 339 340 342 340 338 338 338 337 336 336 336 335 333 330 332 332 331 332 331 330 330 331 332 333 334 335 335 335 315 309 307 307 309
339 337 339 346 346 347 342 343 343 340 340 341 343 347 350 350 349 349 347 345 347 347 346 344 343 343 343 343 341 342 340 341 340 339 338 338 338 336 336 338 338 337 337 335 333 331 330 331 331 330 329 331 332 331 331 334 338 326 331 309 309 305 307
339 339 342 337 336 339 336 341 340 337 337 334 339 343 348 349 348 348 347 346 349 348 348 346 344 344 344 344 344 343 341 340 339 339 339 339 338 337 337 337 338 338 337 336 332 331 330 329 330 332 329 327 326 330 329 334 338 327 325 326 313 309 306
336 337 335 332 333 337 337 338 341 340 341 345 348 350 351 350 346 346 345 347 348 347 346 346 344 343 344 344 344 343 341 340 339 338 338 338 338 337 336 337 338 336 337 335 334 332 330 330 331 329 330 327 326 327 329 330 333 334 329 323 322 316 312
338 337 333 334 339 340 338 336 338 340 342 347 349 348 347 346 345 343 344 346 346 346 345 345 344 343 344 345 342 341 341 339 337 338 338 338 338 336 337 334 335 335 332 332 333 329 330 329 331 329 327 326 329 325 328 327 327 333 331 327 325 320 317
340 338 337 339 343 341 338 337 334 335 336 338 343 345 343 346 346 346 346 345 344 344 346 346 345 344 344 342 339 341 340 338 336 335 338 339 337 333 333 334 335 334 333 332 330 327 327 329 327 326 324 331 325 325 326 327 327 329 326 324 323 323 322
340 341 343 344 342 341 340 338 337 337 339 340 342 343 341 338 337 337 340 339 337 337 343 344 344 343 343 342 341 339 338 337 336 336 335 335 332 331 334 336 336 334 330 329 328 326 327 328 326 326 327 327 325 326 327 324 325 325 319 316 316 315 317
342 343 342 341 341 342 343 340 339 339 336 340 340 339 338 337 336 332 331 331 336 339 337 340 341 342 341 340 339 336 336 335 337 338 334 332 332 334 332 330 336 335 331 327 328 329 331 328 325 325 326 325 325 325 323 324 323 318 303 307 300 303 309
342 341 341 341 341 341 339 338 337 336 336 339 338 337 338 337 336 337 332 331 331 335 336 339 340 339 337 333 332 333 333 334 333 333 332 333 332 330 321 306 298 308 332 322 306 301 301 308 323 319 324 323 327 325 321 319 316 300 296 295 294 294 294
337 335 334 335 336 336 337 336 336 337 335 338 337 336 335 335 334 336 335 335 337 336 337 338 336 333 331 330 330 329 331 330 335 329 333 330 330 330 328 323 316 297 297 304 304 299 295 294 295 298 301 315 323 314 302 304 300 296 295 294 294 293 293
334 333 333 333 335 335 336 336 336 337 336 338 335 335 335 333 334 336 333 334 336 337 337 337 335 333 331 329 329 335 332 331 329 331 330 329 330 332 331 326 322 315 298 295 298 298 295 294 294 294 295 296 302 310 318 308 300 296 294 294 294 294 293

ECMWFFLT1_sfc_thetae_018.txt.gz
Theta_e
333 334 337 340 341 340 345 347 348 350 353 355 356 355 350 348 351 352 352 353 353 353 353 353 354 354 353 354 353 353 350 352 351 355 354 356 352 348 346 344 344 345 345 345 347 350 348 349 348 347 348 347 347 348 348 349 349 349 351 349 346 347 345
333 334 334 338 340 341 346 348 350 351 354 356 355 354 349 349 352 351 353 353 353 354 352 352 353 354 354 353 354 353 352 349 348 350 354 351 349 348 349 348 346 347 347 350 349 348 349 346 347 348 346 347 346 348 346 348 349 348 346 347 345 345 344
337 336 336 340 341 342 347 348 351 352 356 355 352 351 347 350 352 352 354 352 353 354 352 352 354 354 352 353 352 352 350 349 346 345 344 345 344 341 345 346 347 347 347 347 348 347 349 348 348 348 346 346 345 346 347 347 348 348 348 348 345 343 344
337 337 340 343 345 346 348 348 348 352 357 354 352 350 349 352 353 354 354 353 352 352 352 353 353 353 352 351 351 351 350 349 348 346 344 343 344 346 346 345 346 347 347 347 346 344 345 347 346 347 346 346 346 346 345 346 345 346 347 346 347 345 346
339 340 342 342 342 343 345 347 346 350 353 353 353 352 350 352 352 353 353 353 350 351 353 353 351 352 352 353 350 350 350 349 350 349 348 345 347 350 343 342 343 344 348 345 348 349 350 348 345 345 346 346 344 344 344 345 344 347 346 346 345 344 344
334 341 338 336 339 338 340 344 344 346 349 351 352 350 348 347 349 349 350 352 351 351 355 354 353 352 351 351 352 350 352 350 349 349 347 347 347 346 344 344 341 342 340 347 345 344 344 344 344 343 342 339 340 341 341 343 343 343 344 345 344 344 344
338 341 339 339 340 339 340 345 346 346 347 349 350 349 346 347 347 348 349 348 346 350 350 349 350 350 351 352 352 351 349 348 348 347 346 346 346 346 346 346 346 343 342 344 345 345 343 343 345 345 342 341 343 342 344 344 344 345 345 344 344 344 343
339 339 342 342 343 339 337 340 346 346 345 346 344 343 346 347 347 347 346 345 344 345 346 346 348 350 352 352 352 349 349 349 347 347 348 345 347 346 345 344 344 346 347 342 344 346 342 345 342 343 344 341 342 344 343 344 345 342 344 343 342 341 340
340 347 344 339 344 343 344 345 347 346 346 344 343 345 344 343 342 344 343 343 343 343 343 342 344 349 353 351 350 350 349 350 348 347 345 344 343 339 339 338 342 343 342 341 339 348 346 344 343 344 344 343 343 344 343 344 344 343 344 342 341 339 339
348 343 348 345 344 345 344 343 347 346 343 341 342 343 341 339 340 341 341 340 339 339 340 340 343 345 349 350 349 349 349 347 347 344 340 338 341 337 337 336 337 341 344 338 342 341 345 343 342 342 343 342 344 343 343 344 344 345 344 343 341 339 339
342 352 351 348 349 347 345 343 344 344 343 341 343 343 344 342 338 339 340 340 338 337 339 339 343 344 347 347 345 346 348 344 342 340 341 338 334 334 332 332 332 339 335 337 335 335 338 346 348 346 344 341 342 342 342 343 344 343 343 342 340 340 338
351 353 355 353 353 349 346 346 345 345 344 342 346 347 346 347 344 341 340 341 340 338 339 338 337 346 345 345 345 347 344 344 342 340 340 339 338 336 337 336 341 336 332 338 334 336 334 338 340 342 343 343 344 344 342 343 343 344 343 341 339 332 329
347 353 356 351 353 348 349 348 346 345 345 346 346 349 348 346 342 339 344 340 337 342 341 346 341 345 344 341 341 344 342 342 343 343 337 343 343 343 338 335 333 333 334 335 335 333 331 332 337 341 340 342 342 341 340 340 341 343 344 342 336 332 331
345 346 350 354 355 350 347 347 348 346 345 348 349 350 348 344 341 344 342 337 339 335 333 336 345 346 344 342 345 345 342 341 344 343 345 344 343 343 343 341 342 342 342 339 336 333 333 331 332 334 338 337 337 338 339 339 339 340 344 341 338 337 336
337 339 343 341 347 353 349 347 348 348 346 348 350 349 346 342 343 347 342 338 341 334 338 345 342 343 343 345 345 344 345 345 344 345 345 344 344 343 343 342 343 343 342 342 339 336 333 334 333 337 337 337 337 338 339 338 339 342 338 339 341 339 338
332 337 341 346 349 351 353 351 350 348 347 348 349 347 343 342 344 342 339 337 335 340 342 344 342 345 344 342 343 345 344 345 345 345 345 343 342 343 343 340 342 339 341 341 338 338 338 340 340 335 334 336 337 338 337 338 341 338 332 333 339 340 339
330 333 340 345 349 350 351 351 350 348 348 349 348 346 344 342 344 341 335 337 338 342 338 347 345 346 345 344 344 345 345 344 344 344 343 343 343 343 342 342 342 342 342 342 341 341 340 338 338 336 336 335 334 335 336 338 339 332 326 327 330 337 339
332 340 339 343 346 348 350 348 349 348 348 348 349 347 346 344 343 342 340 339 337 336 339 343 345 345 346 345 345 345 344 343 344 343 342 343 343 343 343 342 342 342 341 340 339 341 341 337 338 339 337 335 334 334 336 336 335 327 325 327 328 331 338
333 335 342 345 344 345 345 343 349 350 349 350 349 348 347 346 343 338 338 338 339 338 338 343 343 347 347 345 344 344 343 344 343 343 342 342 342 343 343 343 342 341 339 337 338 339 340 339 337 337 339 337 336 335 334 335 331 324 324 325 325 327 331
335 336 336 337 345 344 348 349 350 352 352 353 352 349 346 348 342 339 339 337 338 338 342 344 345 347 346 346 345 344 344 343 342 342 342 343 343 343 343 342 341 340 338 337 339 338 337 338 339 339 339 338 337 337 336 337 330 323 322 322 323 325 328
335 337 338 338 346 346 354 355 355 356 356 353 350 349 345 344 340 338 338 336 336 341 347 345 345 347 347 345 345 344 343 343 342 342 342 343 343 343 342 341 341 340 339 336 335 336 339 339 339 339 336 335 333 333 336 338 321 321 320 319 319 321 326
328 329 335 340 350 353 356 355 356 353 355 353 351 348 344 340 336 335 336 336 338 342 347 346 346 346 346 345 344 343 343 342 342 342 342 342 342 341 341 341 342 340 340 339 336 337 337 337 338 336 335 335 335 336 335 332 323 321 319 317 317 321 332
328 334 339 348 347 352 360 358 358 354 358 354 351 348 346 340 335 338 338 337 339 344 343 344 346 345 346 344 344 342 342 341 340 341 341 341 340 340 339 340 341 341 341 338 336 335 335 335 334 336 335 334 336 336 336 334 332 320 316 314 316 321 334
330 338 343 345 355 352 359 358 357 360 354 352 350 348 347 341 341 345 345 341 341 339 339 341 342 345 345 344 343 343 343 342 341 341 340 341 340 340 340 340 342 341 341 337 334 332 331 332 334 337 337 334 334 330 331 330 325 312 311 311 314 323 334
330 339 345 347 348 350 352 356 357 353 354 352 349 348 349 346 345 344 345 343 338 338 339 341 344 344 344 344 344 344 343 342 342 341 340 340 339 338 338 339 340 340 339 337 335 334 338 337 336 333 333 329 328 335 330 329 325 311 311 312 314 320 332
345 343 346 351 350 353 356 357 358 352 351 349 350 350 350 348 346 343 344 341 339 338 341 343 345 348 348 346 345 344 343 342 342 342 340 340 341 340 340 341 337 336 335 336 334 333 334 333 331 331 328 328 327 330 334 334 337 330 310 311 312 315 327
344 344 346 346 348 350 354 354 354 350 349 349 352 350 348 346 346 346 347 348 345 344 345 347 348 350 349 348 344 342 342 342 342 342 341 341 341 341 340 338 336 336 336 333 333 338 335 332 331 330 334 330 330 330 331 333 333 332 314 311 310 314 316
339 342 341 349 352 351 351 349 352 351 348 354 353 350 350 351 352 351 353 351 349 351 351 354 356 352 350 349 345 343 341 341 342 343 342 342 342 341 340 341 341 339 338 337 337 335 334 335 336 336 333 334 330 332 334 334 331 334 325 313 308 307 308
340 336 338 350 350 352 349 349 348 345 346 344 346 350 351 351 352 353 351 352 351 353 357 356 355 355 352 349 346 344 343 344 344 343 342 342 342 340 339 341 341 341 342 343 340 337 333 333 335 334 329 328 329 330 336 337 335 326 330 315 309 305 305
341 343 350 348 350 350 347 349 347 344 346 341 344 347 348 354 353 352 351 350 351 353 354 357 355 355 352 350 348 346 345 344 344 345 344 343 342 340 341 341 340 341 342 337 329 326 328 332 332 330 326 326 326 326 333 338 339 327 326 321 308 304 302
336 340 344 344 344 343 344 343 343 340 344 348 344 344 349 353 353 351 348 349 348 350 351 352 352 351 350 348 347 348 346 345 345 342 341 340 339 339 339 338 339 339 336 334 332 329 330 329 331 329 328 326 326 330 335 333 337 334 330 324 321 313 311
342 342 341 342 342 344 341 338 338 342 346 349 351 352 352 351 348 343 346 345 345 349 350 349 349 349 347 347 347 346 346 340 340 337 337 339 338 337 340 341 338 333 332 331 332 332 328 328 330 329 328 328 328 327 331 330 331 333 333 328 325 320 315
341 342 339 337 340 343 339 337 336 341 343 343 345 345 343 345 345 349 348 347 345 346 348 346 347 345 346 347 346 345 339 339 332 334 336 334 335 338 338 331 336 331 327 327 328 328 327 329 327 327 327 327 327 328 332 327 328 330 323 321 320 319 319
340 339 342 344 342 349 341 339 337 338 338 342 344 345 339 336 336 337 340 330 329 331 336 343 341 341 344 344 345 344 341 339 338 333 331 334 333 331 330 332 331 334 331 330 329 327 325 326 327 326 327 327 325 324 328 326 322 316 315 315 313 314 315
338 337 341 338 339 346 345 342 340 342 341 340 340 340 339 334 331 330 332 331 333 343 340 336 334 339 339 340 343 342 340 335 331 336 332 330 329 330 321 315 327 332 332 328 322 327 328 326 329 329 327 326 326 325 325 323 315 311 303 308 301 305 308
331 335 337 340 337 338 337 339 341 341 340 340 340 338 337 335 334 333 328 330 332 338 341 340 337 335 334 336 336 334 332 333 331 337 334 331 331 329 315 305 298 303 318 318 305 299 295 303 320 317 322 322 316 318 318 315 310 300 296 295 294 294 294
333 334 336 338 336 336 336 337 339 340 340 339 339 336 335 336 332 336 332 335 336 333 337 336 337 334 332 332 330 330 341 338 339 336 333 332 333 331 325 318 311 297 296 301 301 297 294 293 294 298 303 318 313 307 304 303 298 295 295 294 294 293 293
333 333 335 337 337 336 337 337 338 338 338 338 338 336 336 330 334 337 328 333 335 335 337 335 337 334 331 330 329 343 342 335 335 332 331 333 334 333 333 325 320 318 299 294 298 298 294 294 294 294 297 298 306 311 313 305 298 293 294 295 294 294 293

ECMWFFLT1_sfc_thetae_021.txt.gz
Theta_e
329 330 332 333 333 334 337 340 343 344 347 347 349 351 350 344 342 342 342 344 343 344 343 344 343 344 345 344 347 345 339 341 341 343 337 342 344 337 335 338 337 336 337 336 336 338 339 342 340 341 342 342 341 341 340 341 343 346 342 342 340 340 339
327 330 331 333 333 335 339 342 344 345 348 348 350 351 348 342 342 342 342 344 343 344 343 345 345 345 346 345 345 343 342 342 343 347 342 344 343 339 337 338 338 335 333 334 338 339 340 340 340 340 340 341 340 340 341 340 341 340 339 340 337 336 336
327 328 331 333 334 336 340 342 345 346 348 349 350 350 346 342 342 343 343 343 343 344 343 344 346 345 346 346 344 342 342 340 342 339 337 335 335 335 340 340 335 335 337 338 337 339 341 340 340 339 339 338 340 340 340 340 339 340 339 339 337 336 335
326 327 332 334 335 338 341 342 345 346 349 350 351 350 344 342 343 344 345 344 345 343 342 343 346 345 345 345 343 343 341 339 339 337 337 337 337 338 338 338 336 334 335 336 341 338 339 337 338 338 345 338 338 339 339 338 338 338 338 338 338 338 338
327 331 332 334 334 339 340 342 344 346 349 351 351 350 345 344 345 345 346 345 347 344 344 344 346 346 346 345 345 344 341 340 339 338 338 338 339 341 335 335 334 334 336 338 337 340 339 337 337 336 337 337 337 337 338 339 338 339 338 337 336 337 337
329 333 333 334 336 340 341 343 345 347 349 350 350 349 345 345 346 347 347 346 346 346 344 346 345 347 343 344 344 344 342 342 339 340 338 338 337 335 334 334 334 335 334 332 337 337 337 334 334 335 335 334 334 335 336 337 338 338 337 337 336 337 338
330 333 334 335 337 340 340 342 346 349 350 351 351 349 346 346 346 347 348 346 347 345 345 345 345 345 343 344 343 343 341 341 340 339 339 339 338 336 336 335 338 334 333 336 335 336 335 334 335 336 337 335 336 335 335 336 336 337 337 336 336 337 337
333 333 334 336 337 340 341 342 347 351 351 350 349 347 345 345 346 346 347 347 346 347 347 345 345 344 343 344 343 342 341 340 339 339 338 337 337 337 338 337 336 336 335 333 334 337 336 336 336 336 334 334 334 335 336 336 336 338 337 336 335 335 338
334 334 334 336 337 338 341 341 344 349 349 348 348 346 344 343 344 345 346 347 345 346 347 347 345 344 344 344 342 342 341 342 340 340 339 337 338 338 338 337 335 336 335 335 336 337 337 336 335 335 334 334 334 334 335 336 335 336 336 335 334 333 333
333 332 333 334 335 336 339 341 341 343 345 346 346 344 342 342 343 345 345 345 344 344 346 346 345 344 344 343 343 342 342 342 341 340 339 338 337 336 335 335 335 336 335 335 335 334 336 337 336 335 334 334 335 335 335 335 336 337 336 337 334 333 333
332 334 333 333 333 333 338 340 340 341 343 343 344 343 342 342 343 343 344 343 342 343 345 344 344 343 344 342 342 343 342 341 340 337 336 335 335 334 334 334 332 335 330 330 330 331 329 331 334 334 334 335 334 334 334 335 336 336 336 336 335 334 331
337 336 336 335 334 333 335 339 341 340 340 341 341 341 341 342 342 342 341 342 341 341 343 340 342 343 343 342 341 340 340 339 337 336 335 334 333 332 331 331 329 329 331 332 331 332 333 330 330 333 332 333 334 333 333 334 336 335 336 336 335 331 327
340 339 339 336 337 336 336 338 340 340 339 340 340 340 339 339 340 339 336 338 339 339 340 337 340 342 342 342 340 340 338 338 336 335 335 335 334 334 333 330 331 333 333 334 333 331 329 328 328 332 332 332 331 332 332 332 333 334 336 337 332 330 329
348 342 343 341 338 338 337 337 339 339 338 338 338 339 338 338 338 337 335 335 335 335 337 337 340 341 341 340 341 340 338 337 337 335 334 334 335 334 333 332 333 332 333 335 332 332 330 329 328 329 331 330 331 330 331 329 329 331 334 335 332 330 329
341 342 344 344 338 339 338 337 338 338 338 337 337 338 337 337 336 336 336 335 333 334 335 338 340 341 341 340 340 339 338 338 336 336 336 337 335 333 333 333 332 334 334 333 334 335 331 330 330 330 329 329 329 329 331 332 333 337 336 334 330 330 331
336 340 342 342 341 340 340 339 338 338 338 337 336 339 338 337 336 336 335 331 330 333 335 339 339 340 340 337 338 338 337 337 337 336 335 335 333 332 332 332 333 334 333 333 333 333 333 330 331 332 329 328 330 330 332 332 335 338 334 334 334 334 334
329 334 339 339 341 342 341 341 340 339 338 337 337 340 340 338 337 335 332 328 332 333 334 335 335 335 335 335 336 336 335 334 334 334 334 333 332 332 333 333 334 333 333 334 333 332 331 333 328 327 328 330 328 327 330 332 335 333 328 329 332 333 332
319 329 335 336 338 343 343 342 342 340 338 337 340 341 340 337 335 331 328 329 331 334 335 333 332 333 335 335 335 335 334 333 333 333 333 333 332 332 332 333 333 333 332 333 333 333 333 331 330 330 330 330 329 328 329 330 335 327 325 327 327 330 331
332 332 335 339 341 343 343 343 342 343 340 339 341 342 339 337 333 329 330 329 329 334 336 335 334 334 335 335 335 335 334 333 333 333 333 333 332 333 334 333 333 333 333 332 333 332 331 330 331 330 330 330 329 330 330 329 330 325 323 324 324 326 329
333 332 336 340 342 343 342 342 341 343 343 342 343 342 339 338 333 332 331 331 331 332 333 336 334 335 335 335 336 335 335 334 334 334 333 334 333 334 334 334 333 333 333 333 333 331 330 330 329 329 330 330 329 329 329 328 325 322 322 321 321 323 326
329 332 332 332 340 341 341 341 341 342 342 343 343 341 339 337 334 331 331 330 329 329 330 332 336 337 337 337 336 336 335 335 334 334 334 334 334 334 334 334 334 334 334 333 331 330 329 329 329 330 331 330 329 327 328 332 321 320 320 319 318 319 325
327 326 327 330 329 339 342 342 342 343 343 346 343 342 339 334 332 331 330 330 328 329 329 330 335 339 339 337 337 336 335 335 334 334 334 334 334 334 333 333 334 333 334 333 331 330 330 330 330 329 328 329 329 328 328 330 320 319 319 317 316 320 325
323 324 326 331 335 341 343 344 344 347 347 346 344 342 338 333 331 331 330 329 330 330 330 332 336 338 339 338 338 337 336 335 334 334 333 334 333 333 333 333 333 334 335 333 331 330 329 328 328 329 328 328 328 328 326 329 324 316 315 314 315 319 324
330 329 335 342 351 353 351 350 349 350 349 346 344 341 336 332 330 329 328 329 329 329 330 334 335 338 339 339 339 338 337 336 335 334 334 333 333 333 333 334 334 334 336 333 331 330 329 329 328 329 330 329 328 330 327 327 320 312 310 312 314 322 325
326 338 342 346 349 350 351 351 351 351 349 346 342 339 335 331 329 329 327 328 328 330 331 335 336 338 339 339 340 339 338 337 335 335 334 333 333 333 333 334 334 335 336 334 332 330 329 329 327 327 329 329 327 335 328 325 319 306 308 311 312 318 323
340 341 343 345 348 350 350 351 351 350 347 343 341 338 334 331 330 330 329 330 331 331 332 334 337 339 340 340 340 340 339 337 336 335 334 334 334 334 334 335 335 336 335 334 332 331 329 329 328 327 326 326 326 332 328 327 327 318 310 309 311 316 323
341 342 342 344 347 351 349 349 348 347 347 344 342 338 335 332 331 331 333 334 333 332 334 335 337 339 340 340 340 339 339 338 337 336 335 335 334 335 336 335 335 334 333 332 332 330 329 328 327 327 327 328 328 328 329 332 329 320 309 308 311 314 317
341 342 343 346 347 348 348 348 345 345 345 345 342 339 337 335 333 334 337 335 333 334 336 337 337 339 340 340 340 339 338 337 337 337 337 336 334 333 333 334 335 333 333 332 329 329 330 329 328 326 327 327 327 328 327 330 334 324 314 310 308 309 311
336 336 342 343 344 347 347 345 345 344 344 344 342 341 340 338 337 338 339 336 337 342 347 344 341 341 342 341 341 339 338 337 336 335 335 332 331 332 332 333 332 332 331 332 331 329 328 330 328 325 325 324 325 325 326 327 330 326 323 310 306 304 305
330 333 343 346 346 345 343 338 333 332 339 344 342 343 342 343 341 342 341 342 345 345 345 346 346 345 344 341 340 339 337 335 336 335 333 332 330 330 327 329 331 331 331 328 326 323 322 326 327 325 323 322 322 322 324 327 329 325 325 317 307 302 302
339 340 340 339 336 336 335 334 331 331 332 337 342 343 345 345 344 344 341 341 343 342 343 342 342 341 342 341 340 339 338 338 333 330 328 331 330 327 327 328 328 327 328 327 326 323 322 322 325 324 323 322 321 322 325 330 328 324 325 323 316 306 303
335 334 333 334 334 333 332 333 333 333 332 333 339 345 346 346 344 342 340 341 341 340 340 341 339 338 339 340 339 339 337 335 329 327 328 328 328 328 329 329 329 326 323 323 325 325 322 321 320 321 321 320 321 323 324 326 327 326 325 327 324 317 314
334 334 334 333 334 334 331 332 332 333 333 334 337 337 340 341 341 339 340 339 341 341 341 340 340 340 340 340 341 338 335 332 330 328 327 326 326 327 328 328 327 324 322 321 322 323 323 322 322 322 322 321 322 323 324 324 325 321 316 316 314 314 315
331 330 331 332 332 332 331 330 331 333 333 332 333 339 340 340 340 342 339 338 330 334 340 338 340 340 339 339 338 336 334 334 340 332 327 328 328 326 325 325 325 324 322 322 321 320 321 321 323 323 322 322 323 322 322 320 316 311 312 311 311 310 309
330 331 332 332 332 332 329 330 331 331 331 330 331 331 328 328 326 327 328 332 335 334 334 337 338 336 336 337 336 335 336 331 330 328 327 326 323 312 309 311 315 320 318 308 309 316 323 324 323 324 325 324 320 318 319 319 317 314 306 310 304 304 305
329 330 331 332 333 333 332 332 330 329 328 328 330 331 330 330 327 325 327 332 335 337 334 335 333 332 330 330 333 333 334 331 327 326 327 327 320 309 308 305 298 300 317 312 305 299 298 302 318 318 318 311 310 316 320 319 314 302 298 296 295 294 295
329 328 330 331 330 330 330 330 333 332 330 330 330 328 328 329 331 330 333 334 333 334 332 333 333 330 331 328 327 331 333 329 326 327 326 326 323 314 311 309 305 295 296 302 302 297 293 293 296 300 309 313 309 307 305 304 299 296 296 295 294 293 293
330 329 329 330 330 330 330 331 331 331 330 329 328 328 329 331 332 332 331 333 333 332 330 331 330 328 327 327 327 335 333 331 331 330 328 328 326 319 316 313 309 307 297 294 297 296 293 293 294 297 300 303 306 306 306 300 296 294 294 294 294 294 293

ECMWFFLT1_sfc_thetae_024.txt.gz
Theta_e
330 332 333 334 334 335 335 337 339 340 342 346 349 351 352 352 350 346 343 340 340 337 337 338 338 337 336 335 336 338 338 337 335 334 335 334 335 335 333 332 332 332 333 331 332 333 336 337 336 336 335 337 336 336 335 338 340 343 338 338 338 337 334
328 331 333 334 334 334 334 337 339 341 343 346 348 350 351 350 347 344 342 340 339 338 338 339 340 338 337 338 339 339 338 336 338 341 336 339 339 333 332 334 332 332 333 333 332 334 336 337 337 335 337 339 337 335 336 336 337 337 338 336 334 332 333
326 330 332 333 333 333 333 337 340 341 343 346 348 349 349 348 346 344 341 339 338 338 339 339 340 339 339 339 341 339 336 336 338 338 335 334 334 333 333 335 333 332 331 331 332 336 339 335 335 335 335 334 334 335 335 334 336 336 335 336 336 335 331
326 329 332 333 333 333 334 338 340 342 344 346 348 349 348 347 345 344 342 340 338 339 338 339 339 340 340 340 341 339 336 336 337 335 333 332 332 332 334 334 332 331 331 331 334 337 339 336 335 334 343 334 334 335 334 335 334 334 335 335 334 334 333
325 328 331 331 331 331 333 338 341 341 344 346 348 350 349 347 345 343 342 341 339 340 340 341 340 340 343 342 342 340 337 336 335 334 333 332 334 334 333 333 331 330 330 330 333 337 334 334 333 334 333 334 334 333 334 333 334 335 334 334 333 334 334
324 326 329 330 331 332 334 338 341 342 344 345 347 348 347 345 344 342 341 341 340 341 341 341 341 342 341 342 341 340 338 336 336 335 334 334 334 333 331 331 330 330 329 331 336 334 335 334 334 333 331 333 334 333 332 331 333 334 333 333 333 333 334
324 326 328 330 331 333 335 338 341 343 345 346 347 349 347 344 343 342 341 341 341 340 340 340 342 342 342 342 341 340 337 336 335 334 335 334 333 332 331 331 334 330 330 331 330 333 333 332 331 330 331 332 333 331 331 331 332 333 332 331 332 332 333
325 326 328 330 331 334 336 338 341 343 345 346 347 347 345 343 342 342 341 341 342 341 341 340 342 342 342 342 341 340 338 337 335 335 335 334 333 333 332 332 333 333 331 330 331 332 333 331 331 331 332 332 331 332 331 332 332 333 332 332 331 332 335
325 327 329 330 332 335 337 339 341 342 344 345 346 346 344 342 342 342 342 342 343 342 341 342 342 343 342 341 340 339 338 337 335 335 334 333 333 333 333 333 333 334 333 332 332 332 332 332 331 332 332 331 331 331 331 332 332 333 333 332 331 331 331
327 328 329 332 333 336 337 339 341 342 344 345 346 345 343 342 342 342 343 342 343 342 342 342 342 343 341 340 339 338 337 336 336 335 334 333 334 333 334 335 335 335 333 332 332 332 333 334 333 332 332 331 331 330 330 331 332 333 333 333 332 331 331
329 330 330 331 333 335 336 338 340 342 344 345 346 345 343 342 342 342 343 343 343 343 343 343 343 343 341 340 339 338 337 336 335 335 334 334 335 334 335 335 335 334 333 332 331 332 331 332 333 332 331 332 330 330 331 331 332 333 333 333 333 332 331
328 329 330 331 332 334 335 338 341 343 344 345 345 345 343 342 342 342 343 343 344 344 344 343 344 343 341 340 339 338 337 336 336 335 335 335 335 335 335 334 333 330 332 331 329 328 328 328 329 332 329 329 330 330 330 331 331 332 333 333 333 332 330
329 329 329 330 331 334 336 336 340 343 344 345 345 345 343 342 342 342 343 343 344 344 344 344 343 342 341 340 338 338 337 337 337 336 336 336 334 333 333 332 331 329 327 330 328 328 326 326 325 329 328 329 329 330 330 330 330 331 332 332 332 331 329
336 329 329 330 330 331 334 336 338 341 344 344 345 344 343 342 342 342 342 343 343 343 344 344 342 341 340 339 338 338 338 337 337 336 335 335 334 332 331 331 329 327 328 331 328 327 326 326 326 325 329 327 326 327 328 327 326 326 328 331 332 331 329
329 328 329 329 329 330 333 335 336 338 341 343 344 343 341 341 341 341 342 342 342 342 343 343 341 340 339 339 338 338 338 338 337 336 335 335 332 331 331 330 329 328 329 331 329 332 328 327 327 325 327 326 326 326 327 328 328 328 328 331 332 331 330
329 329 330 330 330 330 332 335 337 337 339 340 341 341 340 340 340 340 340 340 340 340 342 341 340 340 339 338 337 338 337 337 337 335 334 333 332 331 331 330 329 328 328 329 329 329 330 328 327 326 325 325 325 325 328 329 330 334 333 334 334 330 330
331 331 333 332 331 331 331 333 335 337 337 338 340 340 340 339 339 339 338 339 338 338 340 339 339 339 338 337 338 338 337 335 335 335 333 333 332 330 330 329 329 329 328 328 328 329 329 330 327 328 327 326 325 325 328 328 329 330 328 330 332 332 329
332 333 336 335 333 333 333 333 334 336 337 337 338 339 339 338 338 338 336 336 335 336 337 338 338 338 338 338 338 338 337 336 335 334 333 332 331 330 329 328 328 328 328 328 328 329 330 329 328 327 326 327 327 326 326 327 331 325 325 328 328 331 332
329 333 336 337 336 335 335 335 335 336 337 337 337 338 339 339 337 336 336 332 332 334 336 337 338 338 338 338 337 337 337 336 334 333 332 331 331 330 329 329 328 328 328 328 329 329 329 329 329 328 328 328 327 327 327 327 329 324 324 324 325 327 330
323 326 329 334 337 338 337 337 337 337 338 338 338 339 340 339 337 337 335 332 332 333 335 336 337 337 337 335 335 336 335 335 334 332 331 331 330 330 329 329 329 329 329 330 330 330 329 329 329 329 328 328 327 327 327 327 328 324 322 321 322 323 327
326 328 330 332 335 338 340 339 339 338 337 338 338 338 339 337 336 332 330 332 331 332 334 335 335 335 334 332 331 332 332 332 331 331 330 330 329 329 329 329 329 329 329 330 329 329 329 329 328 329 329 329 329 328 327 328 325 320 320 318 317 319 325
326 329 332 336 336 338 340 340 340 340 339 340 339 339 338 336 333 330 329 331 331 331 332 333 333 332 331 330 330 332 331 331 330 330 329 329 329 329 328 328 329 329 329 330 329 330 330 330 329 329 329 329 329 328 326 326 323 319 318 317 316 321 325
323 323 326 332 339 340 342 342 342 342 342 340 339 339 337 333 330 329 329 329 329 330 329 330 330 332 331 330 331 332 332 331 330 330 329 329 329 329 329 329 329 329 330 330 330 329 329 329 329 330 329 329 328 327 326 326 323 316 315 315 316 319 322
323 323 323 324 330 338 341 341 341 341 342 340 339 338 335 331 329 328 327 326 327 328 328 328 328 333 333 332 333 334 333 332 332 331 331 330 330 330 330 330 328 329 332 331 330 330 330 329 328 328 329 328 327 327 326 326 323 314 312 313 315 321 321
325 324 325 329 334 335 338 340 341 342 341 340 338 335 333 330 328 326 325 326 326 327 326 325 326 329 332 334 335 335 335 334 333 332 331 331 331 332 330 329 330 332 333 333 333 332 332 332 330 328 328 328 328 332 330 326 322 311 311 312 313 320 323
335 338 340 343 344 345 343 342 343 341 340 338 337 335 332 330 328 327 326 326 327 327 326 326 327 329 332 336 337 337 336 335 334 333 332 332 332 331 331 332 331 331 331 332 333 331 329 329 327 326 326 327 326 327 330 327 325 317 309 308 310 316 324
337 340 343 345 346 349 345 343 344 342 339 337 335 333 332 331 330 328 328 328 326 326 327 328 328 330 334 337 337 337 337 336 335 334 333 332 332 332 331 331 331 330 329 330 328 326 325 325 325 325 325 325 326 327 327 327 325 321 308 307 309 315 319
339 340 344 346 346 346 344 343 339 336 334 334 334 333 332 332 330 326 328 329 327 326 327 329 330 333 335 336 337 337 337 337 335 335 333 332 332 330 330 331 331 330 329 328 326 325 325 324 324 323 323 324 326 326 325 326 330 321 312 309 308 310 314
336 338 340 342 343 344 341 337 336 335 334 335 335 334 333 331 330 329 329 327 327 328 329 331 333 335 336 336 337 337 337 335 334 333 333 331 331 330 329 329 329 329 329 327 326 325 324 322 322 322 319 321 321 323 325 324 327 324 320 310 306 306 308
337 337 335 335 337 336 335 332 333 333 334 335 335 335 333 330 329 329 328 327 329 333 335 334 334 336 336 337 337 336 335 334 334 332 331 331 330 328 327 327 327 326 326 326 325 323 322 321 321 321 320 320 320 320 322 323 323 325 322 315 307 303 303
335 333 333 333 333 334 334 333 332 332 332 332 334 335 333 332 330 331 330 331 338 339 339 337 336 335 336 336 337 336 333 332 331 330 329 329 328 327 326 325 326 324 325 324 322 321 320 320 320 320 319 318 318 318 319 321 324 324 323 318 310 304 302
330 330 330 331 330 332 332 332 331 331 330 331 334 335 336 336 335 333 333 334 334 335 334 333 335 337 337 337 336 334 330 327 327 327 327 327 326 326 326 326 325 324 323 322 322 321 320 320 319 319 318 318 317 318 319 322 325 322 322 322 317 310 305
328 328 328 329 331 333 331 331 330 330 331 331 333 335 334 333 333 331 331 331 328 330 332 329 331 335 336 335 334 331 328 326 324 324 324 323 323 323 325 324 323 323 323 322 321 320 320 319 319 318 318 318 318 319 320 322 324 321 320 318 314 314 314
325 327 327 328 329 330 330 330 330 331 330 329 330 332 333 332 331 330 331 332 330 329 333 336 336 335 335 335 334 332 330 327 333 327 323 322 323 323 324 322 322 322 321 321 320 319 319 319 319 318 319 318 319 319 319 319 319 315 315 312 311 309 306
325 325 325 325 327 328 328 329 329 328 328 327 328 330 331 332 333 335 334 332 333 336 334 334 337 335 336 336 334 332 333 331 334 326 325 321 313 309 309 313 318 320 320 312 308 314 320 320 319 320 321 321 321 319 319 319 316 315 309 310 308 306 304
324 325 325 326 327 328 329 328 327 326 326 325 326 327 329 328 328 330 330 330 329 329 331 334 335 334 335 334 334 333 332 328 327 324 322 317 311 309 306 304 296 299 312 313 306 300 296 301 317 318 318 314 311 314 319 319 316 305 299 296 296 296 297
326 326 327 327 327 327 326 326 326 325 324 323 324 324 324 323 324 325 328 330 330 331 330 331 329 327 326 326 326 327 330 326 323 322 321 317 313 311 309 306 304 295 295 300 301 297 292 291 293 295 303 315 311 307 303 304 299 296 295 295 294 294 293
326 328 329 329 328 327 326 325 325 323 323 322 323 324 325 324 324 323 328 330 332 331 329 328 327 324 322 321 325 331 326 323 324 323 322 318 314 312 311 308 306 305 297 294 296 295 292 291 294 297 300 304 308 306 305 300 295 294 295 294 294 294 293

ECMWFFLT1_sfc_thetae_027.txt.gz
Theta_e
329 331 332 334 336 337 338 339 340 342 342 343 344 347 349 351 351 351 351 351 350 348 343 340 339 338 336 334 333 332 333 333 334 332 332 330 331 331 331 332 332 331 330 330 329 330 334 333 332 333 332 333 332 332 332 334 336 338 335 335 335 334 332
326 330 332 333 334 336 337 339 339 341 342 343 344 346 349 350 351 351 350 350 350 347 341 339 339 337 335 333 334 333 333 334 336 338 333 333 336 333 333 332 331 331 330 331 330 330 331 333 334 333 332 333 335 333 332 332 334 334 335 334 333 332 331
325 329 331 332 333 334 336 337 338 340 341 342 344 346 348 350 351 351 350 348 347 346 341 338 339 336 335 332 333 334 334 334 335 335 332 332 333 333 332 333 331 331 331 331 331 331 334 333 333 332 332 333 334 333 332 331 333 334 333 333 334 334 329
325 328 330 332 333 334 335 336 337 339 341 342 344 346 348 350 352 351 350 348 346 344 339 338 338 336 335 333 333 335 335 334 334 334 333 333 333 331 332 331 331 331 331 331 332 333 336 335 333 332 340 333 332 332 331 333 332 332 332 332 332 333 332
324 327 330 330 331 332 334 335 336 337 339 342 344 347 349 351 352 351 349 348 346 344 341 339 338 336 336 335 334 336 336 334 334 334 332 333 333 331 331 331 331 331 331 330 330 336 334 334 332 332 332 334 332 331 332 331 332 332 331 331 331 332 332
322 325 328 330 331 332 333 335 336 337 339 340 342 345 348 350 351 350 349 347 345 344 342 339 338 338 335 335 335 337 336 335 335 334 332 332 331 330 330 331 331 330 328 328 332 332 332 333 332 332 331 331 332 331 331 330 331 331 331 330 331 331 332
322 324 327 329 331 332 332 333 336 338 339 341 343 346 348 349 350 349 348 345 344 342 340 338 338 337 336 337 337 338 335 334 334 333 332 331 331 331 330 331 333 330 330 329 330 332 331 331 331 331 331 330 331 330 330 329 329 330 329 328 329 329 330
323 323 326 329 330 332 332 333 335 337 339 341 342 344 346 348 349 348 346 345 343 342 340 339 337 337 337 338 338 338 336 335 334 333 332 331 331 331 330 330 331 330 329 328 329 330 331 331 331 331 330 329 328 329 330 329 329 329 329 330 329 329 331
323 324 325 328 329 331 332 332 334 337 338 340 342 344 346 347 347 346 345 344 342 341 340 340 338 338 339 339 338 338 337 335 334 333 332 331 331 331 330 330 330 331 330 329 329 330 330 330 329 329 329 328 329 329 329 329 329 329 329 329 329 329 329
322 323 324 327 329 331 331 332 334 336 337 339 341 342 344 346 346 345 344 343 342 340 340 340 339 339 339 339 339 338 337 335 334 333 332 331 331 330 330 331 331 333 331 331 330 329 331 330 329 329 328 328 329 329 329 329 329 329 330 330 330 329 329
322 323 324 325 327 328 330 331 333 336 338 339 340 342 344 345 344 344 343 342 341 341 341 340 340 339 339 339 339 338 337 335 334 333 332 331 331 331 331 331 332 332 332 331 330 330 329 330 330 329 329 329 329 329 328 329 329 329 329 330 330 330 330
322 323 323 324 326 327 329 331 334 336 337 339 341 342 343 344 344 343 343 342 342 340 340 340 340 340 339 339 339 338 337 336 334 333 332 332 331 331 332 332 332 332 334 333 331 330 329 329 329 331 329 329 329 329 328 329 329 329 329 330 331 330 330
322 323 324 325 327 329 330 331 333 335 337 339 341 342 343 343 343 342 342 341 341 341 340 339 340 341 339 338 338 337 337 336 335 334 333 333 332 332 332 332 333 334 332 333 331 329 328 327 326 329 329 328 327 328 328 328 328 329 329 329 329 329 329
330 324 324 326 327 328 329 331 333 335 336 339 341 342 343 344 343 342 341 341 341 341 340 340 339 339 339 338 338 337 337 336 336 335 334 333 333 333 333 334 334 334 332 330 328 326 326 325 324 324 327 326 326 328 328 327 327 327 327 327 328 329 329
324 324 325 325 326 329 330 331 332 334 336 338 340 341 342 343 342 342 341 342 341 341 340 340 339 339 339 338 338 337 337 337 336 335 334 335 333 333 333 333 333 332 329 329 328 328 326 325 325 324 325 324 325 325 326 326 326 326 326 325 326 328 329
324 324 325 326 327 329 331 332 333 335 337 338 340 341 342 342 341 341 341 341 341 341 341 341 339 338 338 338 338 337 337 336 336 335 334 334 333 333 333 333 332 330 328 327 327 327 327 326 326 324 325 325 324 324 325 326 327 331 329 330 328 327 329
324 324 325 326 327 328 330 332 333 335 337 338 340 341 342 342 342 341 341 341 341 341 342 341 339 339 338 338 338 337 336 337 336 334 333 334 334 334 333 332 330 329 327 326 326 327 328 328 326 325 324 324 324 324 325 326 328 329 326 327 330 331 328
323 324 325 326 327 328 329 331 332 333 336 338 340 341 342 342 341 341 340 341 341 341 342 341 340 339 338 338 338 335 335 336 336 334 334 333 333 334 333 331 329 328 327 326 326 327 328 328 327 326 326 326 325 324 325 325 330 324 324 326 327 330 331
323 324 325 326 327 328 328 329 332 334 335 338 341 342 343 343 341 340 341 341 342 342 341 341 340 339 339 338 337 334 335 335 335 335 334 334 333 333 332 330 329 328 327 327 327 327 327 327 326 326 326 326 325 325 326 326 327 323 323 323 324 326 329
323 325 326 327 328 329 329 330 330 332 335 337 340 343 344 344 342 342 342 342 341 340 340 340 340 338 337 337 336 335 335 335 336 334 334 334 333 332 330 329 329 329 328 328 327 327 326 326 326 326 326 327 326 326 326 325 327 323 322 321 322 323 326
323 326 328 330 331 333 332 331 330 330 331 335 337 339 341 341 341 339 338 339 338 339 339 339 336 334 337 335 334 335 335 336 334 333 333 333 333 331 330 329 329 328 328 328 327 326 326 326 326 327 328 328 328 327 326 327 324 321 321 319 319 320 324
322 324 327 329 331 333 334 335 335 334 334 336 338 338 339 340 340 338 338 336 337 336 336 335 333 333 334 334 334 334 336 335 333 333 333 333 331 330 330 330 329 328 328 328 327 327 328 327 327 327 328 329 328 327 326 327 323 320 320 318 318 320 323
323 325 328 329 331 333 336 338 338 338 337 336 337 337 337 338 338 337 333 331 333 333 333 333 330 330 332 333 334 335 335 334 333 332 332 332 330 329 330 330 329 328 328 328 327 327 327 328 328 328 328 328 328 326 326 326 324 319 316 315 317 318 321
323 326 327 328 330 333 332 335 337 338 338 336 336 336 336 335 333 330 329 329 329 329 330 329 329 330 331 333 333 335 335 333 333 332 331 330 329 330 330 330 329 328 330 328 328 328 328 328 328 328 328 328 327 327 326 325 323 318 315 313 316 319 320
321 323 323 325 331 333 334 335 336 338 337 335 333 331 331 330 329 328 327 327 328 329 329 328 329 331 331 332 333 334 334 333 332 331 330 330 330 330 330 329 329 329 330 330 329 328 327 330 328 327 326 327 327 330 329 325 323 319 316 314 314 318 320
318 321 322 322 327 332 333 339 339 337 336 334 330 328 328 328 328 328 327 328 329 328 328 329 330 332 333 333 332 332 332 332 332 331 330 329 330 330 330 330 329 329 329 329 329 329 329 328 328 326 326 326 327 327 326 325 325 326 316 311 311 314 321
333 335 335 339 339 343 336 337 338 337 335 331 328 328 328 328 328 328 328 327 326 327 328 329 330 331 332 332 332 333 333 332 332 331 331 330 330 330 331 330 330 329 329 329 329 328 327 327 326 326 325 325 325 324 324 325 325 326 314 309 309 312 316
338 340 341 343 342 340 339 337 334 331 329 328 328 328 328 327 327 327 326 326 325 327 329 329 330 330 330 330 332 334 333 333 333 333 333 332 331 330 329 329 330 329 329 329 327 326 326 326 325 324 323 323 323 323 323 327 331 325 319 311 307 307 312
334 336 336 337 338 340 338 334 332 330 329 329 329 328 328 327 327 326 326 324 326 328 329 328 328 328 329 329 330 330 331 334 334 334 333 332 331 330 329 328 328 327 328 326 325 325 325 324 323 322 322 321 321 322 323 322 327 326 325 313 307 305 307
330 331 332 334 335 335 335 332 331 331 330 330 329 328 328 328 327 326 325 324 326 327 329 328 328 328 328 329 329 330 333 334 335 334 332 331 330 329 328 327 327 327 327 326 325 323 323 323 321 320 320 320 319 318 320 321 320 323 324 322 312 306 304
330 330 330 331 333 333 334 333 331 331 330 330 329 328 328 328 327 327 325 325 328 328 328 327 327 326 326 328 330 332 333 333 332 332 331 331 330 328 328 327 327 325 325 325 323 322 322 322 319 319 320 319 319 318 317 319 318 319 323 324 321 311 305
328 329 329 330 329 331 332 331 331 330 330 329 329 328 329 328 328 327 326 329 331 329 329 329 328 328 329 331 332 333 332 332 330 330 330 330 329 328 327 327 326 326 324 322 322 321 320 320 317 318 317 317 317 317 317 317 317 319 320 325 325 318 307
326 326 326 327 330 332 330 330 330 330 330 329 329 329 330 329 330 329 329 328 327 328 330 331 331 332 331 330 330 332 331 330 328 327 326 326 325 325 326 325 325 323 322 321 320 320 319 318 319 318 317 317 317 316 316 318 318 319 320 321 320 316 311
323 325 326 325 328 329 328 329 330 330 331 330 330 331 331 331 329 328 327 327 328 329 330 331 332 331 329 329 330 330 328 326 334 329 325 324 324 323 322 321 320 321 321 321 320 319 319 319 319 318 318 317 316 315 316 317 318 318 319 320 317 312 309
323 323 323 325 327 329 327 329 329 329 329 330 330 331 330 329 327 327 325 325 325 326 326 327 330 329 328 329 330 329 330 328 332 327 325 323 318 311 309 312 316 317 319 311 309 312 319 320 317 318 317 317 317 316 316 317 317 319 315 318 312 310 307
323 323 323 324 326 326 328 328 327 327 327 327 328 329 328 326 326 325 325 325 325 325 327 330 331 331 330 331 331 330 330 329 329 324 323 320 317 312 310 305 297 299 311 314 307 301 296 299 316 316 316 318 317 315 318 318 316 311 306 302 298 298 299
324 323 323 325 325 324 325 326 328 327 327 326 328 328 327 326 327 326 326 325 327 329 331 331 330 330 331 331 331 331 331 328 326 324 321 318 314 313 312 308 304 294 295 301 302 297 292 291 292 294 297 308 311 307 301 302 299 296 294 293 293 293 293
323 324 325 325 326 325 325 325 326 326 326 325 325 324 322 322 321 322 325 325 327 328 327 328 328 325 327 331 331 331 331 327 326 323 319 315 313 311 310 308 305 304 296 294 296 295 292 291 291 293 295 298 303 306 303 298 294 294 293 293 294 293 293

ECMWFFLT1_sfc_thetae_030.txt.gz
Theta_e
328 329 330 332 333 334 336 338 339 340 341 342 343 345 346 347 348 349 348 349 349 348 349 349 349 349 347 346 343 339 338 337 337 336 334 333 333 333 333 333 333 333 333 333 334 334 337 337 337 338 337 338 337 337 337 339 342 344 341 342 341 341 339
326 328 330 332 333 334 336 338 339 340 341 342 343 345 346 348 349 349 349 349 350 349 349 349 348 348 347 345 341 338 335 334 337 339 335 334 336 333 335 334 334 333 333 334 334 333 337 336 337 336 336 339 340 337 337 338 339 339 341 340 339 339 339
325 328 329 331 333 334 336 338 339 341 342 342 343 345 346 347 349 350 350 350 350 350 350 348 348 347 346 343 339 336 335 334 335 336 333 333 333 332 334 335 334 334 334 334 334 333 337 336 337 336 336 336 337 338 337 336 337 339 339 339 339 339 337
324 327 329 331 333 335 336 338 339 340 342 343 343 344 346 348 350 351 351 350 350 350 349 347 347 346 344 341 339 336 334 334 335 335 334 333 333 333 334 334 334 334 334 333 334 335 336 336 336 336 341 336 336 337 336 336 336 337 337 337 337 337 337
323 326 328 330 332 333 335 337 339 340 341 343 344 345 346 348 350 350 351 351 351 350 350 348 347 346 344 341 339 337 335 334 334 335 334 334 335 334 333 333 333 333 334 334 335 337 336 336 335 335 336 337 336 335 336 335 335 336 336 336 336 336 337
322 324 326 329 331 333 335 337 338 340 341 342 343 344 345 347 349 350 350 351 351 351 351 347 345 345 341 339 339 338 336 335 335 335 334 334 334 333 333 333 333 333 332 333 336 335 335 336 336 335 335 335 336 335 335 334 335 335 336 335 335 336 336
321 323 325 328 330 332 334 335 338 339 341 342 344 345 345 346 348 349 350 350 350 349 349 346 344 343 341 339 338 338 335 334 335 335 335 334 334 333 333 333 335 333 334 334 333 334 334 334 335 335 336 335 336 336 335 334 334 334 335 334 335 335 335
322 323 325 327 329 331 333 334 336 338 340 341 342 343 344 346 347 349 349 350 350 350 349 346 343 342 341 338 337 337 336 335 335 335 334 334 333 333 332 332 334 334 334 332 333 333 333 333 334 335 334 334 334 334 334 334 334 333 334 334 334 334 334
322 324 325 327 329 331 332 334 335 337 338 339 340 342 343 345 346 348 349 350 350 349 348 347 344 342 341 338 336 336 336 336 335 335 333 333 332 332 332 332 333 334 333 332 332 333 333 333 333 334 334 333 334 333 333 333 333 333 333 333 333 333 334
321 322 324 326 329 330 331 333 334 336 336 337 338 340 342 344 346 348 349 349 349 348 348 347 344 342 340 338 337 337 336 336 335 334 333 332 332 332 332 332 332 334 333 332 332 332 333 334 333 333 333 332 333 332 332 332 332 333 333 333 333 333 333
320 322 323 324 326 328 330 331 332 334 336 337 338 339 341 343 344 346 348 349 348 348 348 346 344 341 339 338 337 337 336 335 335 334 333 333 332 332 332 332 332 333 333 332 332 332 333 334 334 332 331 331 332 332 332 332 333 332 333 333 334 334 333
320 321 322 323 324 326 328 330 332 333 335 336 337 338 340 342 344 346 347 348 349 348 347 345 343 341 339 338 337 337 336 336 335 334 334 333 332 332 332 332 332 332 334 333 332 333 332 332 332 333 332 332 332 332 332 332 332 332 333 333 334 334 334
320 321 321 321 324 326 328 329 331 332 334 336 337 338 340 341 343 345 346 347 348 347 346 344 342 340 339 339 338 337 336 336 335 335 334 334 333 333 333 332 332 332 332 334 333 332 332 332 332 334 334 333 333 333 332 333 333 332 333 333 333 333 333
329 320 321 322 323 325 327 329 330 332 333 335 336 338 340 341 343 344 345 346 346 346 344 343 341 340 339 339 338 337 337 336 337 336 336 335 334 333 332 333 333 333 334 335 333 332 332 332 332 332 333 333 332 332 333 332 331 331 332 333 333 333 333
320 320 320 321 322 324 326 327 329 331 332 334 336 337 339 341 342 344 345 345 345 345 343 343 341 340 339 338 337 337 338 336 337 336 336 335 333 332 332 332 333 334 334 334 333 334 333 333 332 330 329 330 330 330 331 331 331 331 331 331 331 332 333
319 320 320 321 322 324 326 328 329 330 332 334 335 337 338 340 341 343 343 344 344 343 343 342 340 339 339 337 336 336 336 337 337 336 335 334 332 332 333 333 333 334 333 331 330 331 332 331 330 328 328 328 328 328 329 330 330 331 329 330 332 331 332
319 320 320 322 323 324 326 327 329 330 332 333 335 337 338 340 341 343 343 343 343 343 343 341 340 340 335 334 335 336 337 336 336 336 334 334 333 333 333 333 334 334 333 331 329 329 330 331 329 328 328 328 328 328 328 328 329 328 325 326 328 331 331
320 320 321 322 324 325 326 328 329 330 331 333 335 337 339 340 341 342 342 342 342 343 343 341 340 335 334 335 336 336 336 335 335 335 334 334 334 333 333 334 333 333 332 331 329 330 330 329 329 328 328 328 328 328 329 328 329 323 323 325 326 329 333
320 321 322 323 325 326 327 328 330 331 332 334 335 337 339 341 341 341 342 342 343 343 342 340 337 334 335 336 337 337 337 334 333 334 334 334 334 334 333 334 333 333 331 329 330 330 329 329 329 328 328 328 328 327 328 329 327 323 323 323 324 325 329
322 323 324 325 326 327 328 329 330 332 333 334 337 339 341 343 342 343 344 343 343 342 341 340 335 335 335 336 336 336 335 334 333 333 334 335 335 334 334 334 333 333 331 331 330 329 329 329 329 329 329 329 329 329 329 329 327 322 321 321 321 323 326
322 323 324 325 326 327 328 328 329 330 332 334 337 340 342 342 343 343 342 342 341 342 341 338 335 335 335 334 335 335 335 334 333 332 334 335 335 334 333 333 333 332 331 331 330 329 328 328 328 329 330 329 330 329 329 330 324 320 320 318 318 320 324
323 324 324 326 327 328 328 329 329 330 332 337 338 340 342 342 343 342 341 342 341 340 339 337 335 335 334 333 334 335 334 332 332 331 332 335 334 333 332 331 332 331 331 331 330 330 330 330 329 329 329 330 330 329 330 331 323 320 319 317 317 320 326
324 325 327 328 329 330 332 333 333 333 334 335 337 338 340 342 342 342 340 339 339 339 337 336 335 334 334 333 333 333 334 333 331 329 331 334 334 333 333 332 332 332 331 330 329 329 328 329 329 330 330 330 330 329 330 331 325 318 316 316 317 319 326
325 328 328 328 330 331 333 335 336 337 335 334 336 337 339 340 341 340 337 336 335 336 335 335 334 334 334 333 333 334 334 334 333 332 333 333 333 333 332 332 332 332 332 330 329 328 329 329 329 330 330 330 330 330 330 330 326 317 314 313 315 321 326
321 323 325 327 330 331 333 335 337 337 336 335 335 335 337 339 338 337 334 333 333 334 334 334 335 335 335 335 334 335 336 336 335 334 333 333 333 332 331 331 332 333 332 331 331 331 331 331 330 330 330 330 330 332 332 330 326 318 314 313 313 319 326
321 321 322 324 331 332 336 339 338 335 334 334 334 334 335 336 336 335 333 332 333 333 333 334 335 336 337 336 336 336 337 337 336 335 334 333 334 333 332 332 332 331 331 331 331 331 331 332 331 329 330 331 331 331 332 331 330 329 318 314 313 314 325
336 336 336 337 336 339 336 335 335 335 334 333 331 331 333 334 333 333 332 331 331 332 333 335 335 335 336 335 336 337 337 337 337 336 336 335 333 332 331 331 332 332 331 331 331 330 330 330 330 330 330 331 330 330 330 330 330 330 318 315 312 313 315
339 340 340 341 340 337 335 333 331 330 328 328 329 330 331 332 332 332 331 330 330 332 333 333 334 335 334 333 334 335 336 336 336 337 336 334 332 330 330 332 332 332 331 331 330 329 330 330 330 330 330 329 328 328 329 329 330 331 323 317 312 310 311
334 334 335 336 336 337 334 331 329 328 328 329 329 330 330 331 332 331 331 329 330 331 332 333 333 333 333 333 333 333 333 334 334 334 333 332 332 330 330 331 331 331 331 330 330 329 329 329 329 328 328 327 327 327 328 328 329 325 328 319 312 310 308
331 332 333 334 334 333 333 330 329 329 329 329 329 329 329 331 331 330 329 327 328 330 332 331 331 332 332 332 332 332 332 333 333 333 333 333 332 331 330 331 331 330 330 329 329 328 328 328 327 326 325 325 326 326 326 326 326 324 323 325 318 309 304
328 329 329 330 332 334 332 331 329 329 329 329 329 328 329 330 330 331 327 326 330 330 330 330 330 330 330 330 330 331 331 333 334 334 333 333 333 331 330 330 330 329 328 329 328 327 327 327 326 325 325 324 324 325 324 323 324 324 325 323 322 310 304
328 329 330 331 331 333 331 331 330 329 329 329 329 329 331 329 330 330 327 329 331 329 329 329 329 329 329 329 329 330 332 332 333 334 334 334 334 333 332 330 329 329 327 327 327 326 326 325 325 324 323 323 323 323 323 323 322 323 324 324 324 316 307
326 326 327 329 332 333 331 331 329 329 330 329 329 329 330 329 330 329 329 330 329 329 329 329 329 330 329 329 330 331 332 331 331 331 331 330 331 331 331 330 329 329 328 327 326 325 325 324 324 324 322 323 323 322 322 323 323 323 323 324 324 320 313
326 326 326 327 331 331 330 330 330 330 330 329 329 330 331 330 329 329 330 330 330 330 330 330 330 329 328 329 330 331 331 330 335 332 329 329 329 328 327 326 327 327 326 326 325 324 323 323 323 323 323 322 322 322 321 322 322 322 322 322 322 319 316
324 325 326 327 329 331 328 329 330 330 330 330 329 330 330 329 328 328 328 329 330 330 330 330 332 331 329 329 330 331 332 331 334 331 329 325 317 311 310 315 318 320 317 312 313 319 323 323 321 322 322 323 323 322 322 321 321 322 312 320 314 316 314
324 324 324 325 328 327 329 331 329 329 330 329 329 329 328 327 327 327 327 326 327 329 330 332 332 331 331 331 330 330 331 330 329 326 324 322 317 313 309 304 298 302 316 313 305 300 296 301 317 315 317 321 322 320 321 321 320 300 296 298 300 302 303
324 324 324 326 327 326 327 327 330 329 329 328 329 328 327 326 325 325 326 327 329 330 331 332 331 331 331 331 330 329 330 328 326 324 321 320 318 316 314 310 305 294 296 302 302 296 292 292 293 295 299 312 319 310 300 300 296 293 293 293 293 293 293
324 325 326 326 326 326 326 327 328 328 328 327 328 327 327 326 326 325 326 327 329 330 329 327 325 323 325 328 330 333 330 328 326 324 320 318 317 317 316 315 313 309 295 294 296 295 292 291 291 292 294 297 301 308 309 298 293 292 292 293 293 293 292

ECMWFFLT1_sfc_thetae_033.txt.gz
Theta_e
333 334 336 338 338 338 340 344 345 346 348 348 349 348 348 350 352 355 354 356 356 357 360 360 360 360 360 361 362 362 362 361 361 358 356 354 353 352 350 350 349 350 348 347 347 347 349 350 350 349 349 349 348 349 349 349 348 348 349 350 349 347 346
332 333 335 337 337 338 341 344 347 346 347 348 349 350 349 351 353 353 354 356 357 357 360 360 360 360 361 361 362 362 361 360 359 358 357 355 353 352 351 350 350 350 350 349 350 351 351 350 349 349 347 348 347 348 347 348 348 348 347 349 347 347 346
332 333 335 337 337 338 342 344 346 346 347 348 349 349 350 352 354 354 354 355 357 358 360 360 361 361 362 362 361 360 360 359 358 357 355 352 351 349 350 351 350 349 349 350 351 349 351 350 351 350 347 347 346 348 348 348 348 347 347 348 347 346 345
332 333 335 338 340 342 343 343 345 345 347 348 349 350 351 354 355 355 356 356 356 358 358 360 360 360 361 361 360 359 358 358 357 356 355 353 351 350 349 350 350 350 349 348 348 349 349 350 350 350 349 348 348 347 347 346 346 347 347 348 346 346 346
333 335 335 337 338 340 340 342 344 346 346 347 350 353 354 355 355 356 357 357 356 357 358 359 360 361 361 361 360 358 357 356 355 355 354 353 352 350 348 347 347 347 348 348 350 350 350 349 348 348 348 349 347 348 347 347 346 348 347 348 345 345 344
331 333 335 336 337 339 340 341 343 344 346 346 349 352 353 353 353 352 354 356 357 358 360 360 360 360 359 360 359 357 356 355 355 354 353 352 350 347 347 348 347 347 347 348 348 347 349 348 346 346 345 344 344 344 344 346 345 346 346 347 345 344 343
332 333 335 336 337 339 340 341 342 344 346 347 349 351 351 350 351 352 353 354 356 357 358 359 359 359 359 359 358 357 354 353 353 352 351 349 349 348 348 348 349 348 348 350 348 349 347 348 347 346 345 344 345 345 345 346 345 347 347 346 345 346 345
333 333 336 337 338 339 339 341 343 344 346 348 349 349 349 350 351 352 353 354 355 355 356 355 358 359 359 358 357 356 355 353 352 350 349 347 347 348 348 348 348 349 349 348 349 350 347 347 346 347 347 344 347 348 347 348 348 346 347 345 344 343 344
333 335 335 335 337 338 339 342 343 345 348 349 349 350 350 350 351 352 353 354 355 355 355 356 358 360 359 357 355 355 354 353 350 348 345 344 344 343 344 345 347 348 347 346 346 348 347 346 346 347 348 346 347 348 348 349 348 348 347 345 345 343 342
333 334 336 337 338 339 341 343 346 349 349 350 350 351 351 351 352 352 353 354 354 355 356 357 358 358 358 356 354 353 352 349 345 343 342 340 341 340 341 341 344 346 346 345 344 344 346 346 346 346 346 345 345 346 347 347 347 346 347 346 345 344 343
333 335 336 336 338 340 342 342 345 348 349 350 351 351 352 352 352 352 353 354 354 355 356 358 359 357 356 355 350 350 349 344 343 340 339 338 338 339 339 339 340 342 342 343 342 343 343 343 344 345 344 342 343 345 345 345 346 346 345 345 344 344 343
334 335 336 337 339 341 340 344 346 348 349 350 350 350 353 353 352 352 353 355 356 355 356 357 358 356 355 353 348 346 341 340 338 336 336 337 337 338 339 339 341 340 340 341 340 340 340 342 342 342 343 343 343 345 345 346 346 346 344 343 344 344 343
333 335 336 335 339 340 344 345 345 346 349 349 349 351 351 351 351 352 354 355 355 356 357 358 358 356 354 349 344 342 338 337 336 336 336 337 338 338 338 338 338 338 337 339 338 338 337 339 341 342 342 343 342 342 344 344 344 345 345 344 344 344 343
332 333 335 338 338 339 340 343 345 346 347 348 348 350 350 351 351 352 354 354 355 356 356 357 357 354 351 345 342 339 338 339 339 338 339 340 341 340 338 337 338 338 339 340 338 336 337 338 339 340 341 342 342 343 344 345 345 345 345 345 345 344 344
329 330 332 333 337 340 341 341 344 345 346 347 348 348 349 349 351 353 355 354 356 356 356 358 356 353 349 346 344 342 341 342 343 342 343 342 343 342 340 337 337 339 339 339 338 338 338 339 339 340 340 341 342 343 344 344 344 345 345 345 345 345 344
329 329 330 332 335 337 341 342 344 345 346 347 347 348 348 349 351 351 351 352 355 356 356 357 355 352 349 346 345 343 342 343 344 344 342 341 339 338 337 336 337 339 339 339 339 340 340 340 340 339 339 340 341 343 344 343 344 338 331 333 344 346 344
330 329 331 334 337 338 341 343 344 345 345 346 347 348 348 350 350 351 349 351 352 355 356 356 354 351 348 345 344 343 342 343 343 340 337 336 336 336 336 336 339 340 340 340 340 339 340 340 338 337 338 339 339 341 341 342 342 331 326 327 329 340 343
330 332 332 333 336 338 340 341 343 343 344 345 347 349 349 350 350 351 349 351 352 354 355 354 353 350 347 344 344 342 342 343 343 341 339 338 337 338 339 339 340 341 340 340 340 340 339 338 338 338 338 337 338 338 340 341 334 325 324 325 326 329 340
331 332 333 336 336 337 338 339 341 344 345 346 346 347 349 351 350 350 352 353 355 355 353 352 350 348 346 344 343 343 343 344 343 342 343 342 342 342 341 341 340 341 340 340 342 341 337 336 336 336 337 337 338 338 339 340 331 323 322 323 323 324 330
333 334 334 334 336 336 339 342 343 344 346 348 348 347 349 351 351 353 354 354 355 353 352 351 349 347 345 343 343 344 344 344 343 343 343 342 342 342 341 340 340 341 341 342 343 341 339 337 336 337 338 338 338 339 340 341 332 322 320 320 320 322 326
335 334 333 335 337 337 341 343 344 345 346 344 344 348 349 350 352 352 352 353 352 353 351 349 347 346 344 343 343 343 343 344 343 342 340 338 339 340 340 340 341 342 343 343 342 341 340 339 339 339 339 339 339 340 340 342 327 321 319 317 317 319 323
332 333 334 336 339 341 342 341 342 343 345 347 346 346 347 349 350 349 351 352 351 351 350 348 347 346 344 342 342 342 344 344 343 341 339 337 337 338 338 339 340 341 344 344 343 342 341 340 339 339 339 340 340 339 339 340 325 320 319 317 317 319 330
332 335 339 340 340 342 345 345 345 346 348 347 348 349 348 350 350 351 351 350 350 351 348 347 346 345 344 343 342 343 343 343 341 340 339 338 338 339 339 340 341 343 344 342 342 340 339 339 339 340 339 339 340 340 340 341 331 318 316 316 317 320 333
334 336 338 339 344 341 344 346 348 350 348 349 350 351 352 351 351 352 350 349 350 349 347 346 345 346 345 344 344 344 343 343 341 340 338 337 336 337 339 341 343 343 344 342 341 340 340 340 340 341 341 339 340 339 340 340 333 319 314 314 316 322 334
334 337 339 341 342 345 346 348 348 347 350 351 350 351 353 353 352 350 350 350 348 348 347 346 347 346 345 345 345 345 344 343 342 339 337 336 336 337 339 340 342 343 343 341 342 342 343 341 341 340 342 341 341 335 337 339 334 320 316 314 314 323 334
338 340 343 346 347 350 352 351 349 349 349 351 351 350 352 352 351 350 350 349 349 348 347 347 348 348 348 347 346 346 344 343 343 341 340 339 338 339 341 343 343 342 341 341 341 341 342 342 341 340 341 341 340 339 338 338 340 338 315 312 312 316 334
340 342 342 344 346 349 351 353 354 352 351 352 350 349 351 351 351 350 350 350 349 348 349 351 351 349 348 347 346 345 344 343 341 339 339 339 338 340 341 342 341 341 342 341 341 342 342 341 341 340 340 341 340 339 339 340 341 341 321 313 311 313 319
343 345 346 347 348 348 347 346 346 345 344 347 348 349 351 352 351 349 348 348 348 350 352 352 351 349 348 346 345 344 343 342 341 340 338 339 339 339 340 342 342 342 342 341 341 340 339 340 340 340 339 341 340 341 341 341 336 340 327 316 310 310 313
345 344 344 345 344 345 345 344 343 342 342 343 345 347 349 351 349 347 346 346 348 349 349 349 349 348 347 346 344 343 343 342 342 340 340 340 340 339 339 342 342 342 342 340 339 338 337 338 338 338 338 340 340 339 339 341 340 327 334 322 312 310 309
344 343 341 341 342 343 344 343 342 340 341 341 342 344 347 349 347 346 345 346 346 345 345 346 347 347 345 344 344 343 343 342 340 341 342 341 341 341 341 341 342 342 341 339 336 336 337 338 338 338 338 338 338 337 338 339 339 331 325 329 318 309 306
343 344 345 345 345 346 347 346 344 341 340 340 341 342 344 347 347 344 344 343 342 343 343 343 344 344 343 343 343 343 342 342 341 341 343 343 341 340 340 340 339 337 338 338 338 336 336 338 338 337 337 336 336 337 335 334 334 335 330 323 322 311 306
343 345 345 345 345 345 345 344 344 343 339 338 338 338 339 342 345 344 343 341 342 342 342 342 342 341 340 341 342 342 342 342 341 341 342 341 341 340 341 338 338 336 337 337 337 338 337 338 336 334 334 334 334 333 332 331 332 334 334 329 327 319 310
340 341 343 342 343 344 345 346 344 343 342 338 338 339 339 340 341 342 341 340 340 341 342 342 341 340 339 340 340 341 341 340 339 340 342 340 340 337 335 337 338 335 336 336 336 335 335 334 333 332 332 332 330 330 331 333 334 334 333 333 331 331 326
340 340 340 342 343 345 346 347 347 345 344 341 339 339 339 339 339 338 337 337 338 339 340 340 340 340 338 338 338 337 338 338 338 338 339 339 338 338 338 338 337 336 335 335 334 333 332 332 333 331 331 330 331 332 335 335 334 332 330 330 330 330 329
338 338 340 342 343 345 347 347 346 345 343 341 339 338 337 335 334 335 337 336 337 339 338 337 338 338 337 337 337 337 338 338 338 338 337 335 331 325 325 332 335 335 331 328 332 335 334 332 329 330 331 335 334 333 332 333 332 329 312 325 313 323 327
337 338 339 339 340 341 342 342 344 342 340 339 338 338 336 334 334 335 335 336 337 338 337 336 336 336 335 336 336 336 336 336 336 338 335 332 327 319 312 302 297 307 325 318 308 302 299 302 329 333 332 331 331 329 331 330 325 303 297 297 299 299 302
337 337 337 339 339 339 340 340 341 341 340 339 338 337 336 336 336 335 335 336 337 336 338 338 337 336 335 335 335 335 336 338 337 335 334 332 328 323 318 313 307 294 296 303 305 298 293 293 295 298 304 324 328 313 300 301 296 294 295 296 296 297 298
336 336 336 337 338 338 339 339 339 340 339 339 338 337 337 335 335 335 335 337 337 338 339 338 337 335 336 335 334 333 334 335 332 330 329 329 327 323 319 317 312 308 294 293 296 294 292 292 292 293 296 298 308 318 319 300 293 292 293 293 293 294 293

ECMWFFLT1_sfc_thetae_036.txt.gz
Theta_e
341 342 342 343 344 345 346 347 350 350 352 355 356 357 356 358 360 361 362 364 365 365 368 370 369 369 369 368 369 370 370 370 369 367 365 364 363 363 363 362 361 360 357 354 355 351 353 352 351 350 351 352 350 350 351 351 350 351 351 351 350 349 350
339 340 341 342 344 345 348 349 351 350 352 354 356 358 356 359 360 360 361 364 365 365 367 369 369 369 369 369 370 370 371 370 370 369 368 366 365 364 364 363 362 361 360 357 355 354 354 352 351 350 350 352 350 351 350 351 351 352 350 351 349 349 348
339 340 341 342 343 345 348 349 351 351 353 353 354 355 356 358 361 361 362 363 365 366 367 369 369 369 369 369 369 370 371 371 370 370 368 365 365 364 365 365 363 360 359 358 357 355 355 354 352 352 351 351 349 350 351 351 352 350 350 351 349 347 348
338 339 341 344 346 348 349 350 351 351 351 353 354 355 357 359 362 362 362 363 364 365 365 367 369 368 369 369 369 370 370 371 371 370 368 366 366 366 365 364 364 362 358 357 356 355 354 353 352 351 351 350 349 349 350 349 350 349 349 350 347 348 348
338 340 341 342 344 346 348 349 350 352 351 352 354 358 359 359 360 361 362 364 363 364 365 367 367 369 369 370 369 370 370 371 370 370 368 367 368 367 364 362 362 361 359 359 357 355 354 352 351 350 350 350 349 348 349 349 348 349 349 350 347 346 345
337 339 341 341 343 345 347 348 349 350 350 350 353 356 357 357 357 357 359 363 363 364 367 368 368 369 368 369 369 369 371 372 371 370 368 368 367 364 363 362 361 360 358 358 355 353 353 350 348 349 349 348 346 345 347 347 346 347 348 348 346 345 343
338 340 341 342 343 344 346 348 348 349 351 351 353 356 356 355 355 355 357 359 360 362 364 364 367 368 368 369 369 370 370 370 369 368 367 367 366 365 364 363 362 359 358 357 353 352 350 349 348 350 349 347 347 345 346 347 346 346 346 346 346 345 346
340 342 343 344 343 344 345 348 348 349 350 352 352 353 354 354 355 355 355 356 358 358 360 360 365 368 369 369 369 369 369 368 368 367 366 365 365 363 362 362 360 359 357 354 354 352 347 348 348 349 348 346 345 346 346 346 347 345 345 345 344 345 344
340 343 343 342 343 343 344 348 349 349 352 353 352 354 355 355 354 355 355 355 357 356 358 359 362 367 370 369 369 369 367 366 364 363 360 361 361 359 360 359 360 358 356 353 350 351 348 347 348 349 350 348 345 346 347 347 348 346 345 344 344 344 343
342 343 345 344 343 342 345 347 351 352 352 353 354 355 356 355 356 355 355 355 356 356 357 358 360 365 368 368 367 366 364 364 363 360 358 357 358 357 358 358 359 358 355 352 347 349 349 348 349 349 350 348 346 346 347 347 347 346 345 346 346 344 343
340 344 346 344 343 343 345 347 350 352 353 355 355 355 357 356 356 355 356 356 355 356 357 359 361 364 366 366 363 363 363 363 361 359 358 357 356 357 356 355 355 355 352 350 346 349 350 350 350 349 349 346 345 345 345 345 346 345 344 345 345 345 344
343 344 345 344 344 344 346 350 353 354 356 357 357 357 358 358 356 356 357 357 357 357 358 359 360 362 364 362 361 361 361 362 360 359 358 357 356 355 355 354 351 349 347 348 346 346 346 348 348 348 348 347 345 345 345 345 346 345 345 344 344 345 345
343 344 345 343 345 346 350 351 354 356 358 358 357 358 359 358 357 356 359 359 358 359 360 362 361 363 363 361 360 361 362 362 360 358 356 355 355 355 353 350 347 346 345 345 344 344 344 345 346 347 347 347 346 344 344 345 345 346 347 346 345 345 345
344 342 344 345 346 348 349 352 356 357 359 359 357 359 359 358 357 358 359 359 359 359 359 360 363 364 363 361 360 360 361 362 360 358 356 355 356 355 354 352 350 348 347 346 344 344 343 343 345 346 346 346 347 346 345 345 345 347 347 345 345 345 345
341 340 343 343 347 348 350 352 354 357 357 357 358 358 359 358 359 360 361 361 362 360 360 364 365 365 363 362 360 359 360 360 359 359 359 357 358 357 356 354 353 350 349 348 346 344 342 342 343 345 347 347 347 346 345 344 345 345 344 345 346 346 345
339 339 339 342 346 348 350 352 355 356 356 357 357 358 357 358 359 359 359 359 359 361 361 364 366 365 363 360 358 358 358 356 358 358 358 356 355 356 356 354 351 349 348 348 345 346 346 345 343 343 346 346 346 346 345 345 345 341 335 338 345 346 346
340 338 339 344 348 348 350 352 353 355 355 356 356 358 358 359 360 360 358 359 360 361 362 364 365 363 361 360 360 358 357 355 355 356 356 356 356 356 356 354 352 350 350 349 347 347 348 347 345 343 345 345 344 344 344 344 344 335 330 330 332 342 343
339 342 341 344 346 348 349 350 353 354 354 354 357 359 359 360 360 360 358 360 359 360 361 364 364 361 360 360 359 357 355 355 353 353 356 357 357 356 356 355 353 351 351 350 349 349 349 347 347 347 346 345 343 343 344 344 338 329 328 329 328 331 343
340 343 343 346 347 347 348 349 352 354 354 355 356 358 359 361 360 360 360 361 362 363 362 363 362 362 361 361 358 355 355 355 353 352 353 357 357 355 354 354 352 350 349 349 350 349 349 347 347 349 348 346 345 343 343 344 335 326 326 326 325 325 332
341 343 344 345 347 347 350 350 351 353 353 356 358 358 360 362 360 361 361 360 362 362 363 364 363 361 360 360 357 356 355 355 353 352 352 355 357 355 354 353 352 350 348 348 350 348 348 346 346 348 348 346 346 344 344 344 333 324 323 322 322 323 328
343 344 345 346 348 348 350 351 353 354 353 354 354 356 358 359 360 361 359 360 361 362 363 364 363 361 359 358 357 355 354 352 352 351 352 353 356 355 353 352 352 350 347 346 346 347 347 345 348 348 347 346 345 345 345 346 327 320 320 319 318 320 325
341 343 343 346 350 349 351 349 351 352 355 355 354 355 357 358 358 357 358 361 361 362 363 363 362 360 357 356 356 355 353 352 352 351 352 352 353 354 352 351 350 348 347 347 347 346 346 348 347 347 346 346 346 343 343 343 324 321 320 318 317 320 334
335 342 344 347 347 348 352 354 355 356 358 356 355 355 356 357 357 358 358 359 359 361 361 361 360 359 357 356 355 352 352 351 351 351 352 352 352 351 351 349 349 347 346 342 340 342 344 345 343 346 345 344 345 345 344 345 333 320 318 317 316 321 337
335 340 342 345 349 351 355 355 355 358 354 355 355 355 356 356 356 358 358 358 358 358 358 358 359 359 358 357 355 353 352 352 351 351 351 351 352 352 351 351 350 347 346 341 341 341 341 344 346 348 346 343 344 342 343 345 333 316 315 314 315 326 338
337 339 343 347 350 352 351 355 356 353 354 354 352 354 358 357 357 357 357 357 356 357 358 358 359 359 358 357 356 353 352 352 352 352 351 351 352 352 351 350 348 347 347 345 343 341 345 344 342 344 346 344 343 346 344 344 334 314 314 313 314 326 339
343 345 348 351 349 351 353 354 352 350 353 354 357 360 359 358 358 358 357 357 358 357 358 359 359 361 361 358 356 353 352 353 353 352 352 352 353 351 349 348 345 344 344 343 340 338 342 342 341 343 343 344 343 342 344 344 346 345 312 312 312 318 340
343 344 343 342 344 350 356 355 355 355 356 361 362 360 360 359 359 358 359 359 358 358 359 361 362 361 360 358 354 352 353 353 352 352 352 352 352 350 347 346 344 344 346 343 340 340 342 344 343 342 341 341 342 346 344 342 346 348 310 311 311 315 322
346 348 351 354 354 351 351 351 356 359 360 362 361 360 361 362 360 360 360 359 358 360 361 362 362 360 358 355 353 352 352 352 352 352 351 351 351 348 344 345 345 344 343 343 343 343 343 344 343 342 341 343 344 342 345 345 341 343 319 311 309 310 314
351 350 350 352 354 354 355 355 355 354 357 360 362 362 363 363 360 359 359 357 360 361 363 361 359 358 356 353 353 353 352 352 352 350 349 349 350 347 343 343 343 343 346 345 345 344 343 344 342 341 340 342 342 343 345 347 345 330 340 312 308 307 310
349 349 349 350 351 352 352 352 352 353 356 358 359 360 361 360 357 356 357 359 362 362 361 361 358 355 353 352 352 352 352 351 351 350 350 348 347 344 343 342 342 343 343 343 342 341 341 343 342 341 339 338 340 342 342 343 345 331 329 327 310 306 306
349 349 350 350 351 353 353 352 352 352 353 355 358 359 358 359 357 356 358 360 360 359 359 357 356 353 351 351 351 351 350 349 349 348 348 347 344 343 343 342 343 342 343 343 342 341 341 342 341 339 340 338 340 342 342 344 343 340 331 325 318 309 305
350 351 351 352 353 353 353 353 352 350 349 351 354 355 357 357 358 358 358 356 355 355 356 355 354 350 348 350 349 348 347 346 346 347 347 346 346 344 345 343 342 341 340 340 341 342 341 339 340 337 337 338 338 339 341 340 338 337 335 330 327 318 310
350 351 353 355 355 353 353 352 349 348 346 344 347 349 352 355 356 355 352 351 352 353 354 353 349 348 347 348 347 348 347 346 345 345 345 346 345 345 344 343 341 340 340 338 340 342 340 336 336 339 338 337 337 336 338 334 333 335 336 336 336 335 326
350 352 355 356 355 354 353 350 347 345 344 343 346 348 349 349 349 349 350 349 349 350 350 349 347 346 345 345 345 345 346 345 344 344 342 343 341 340 341 340 340 339 338 338 339 337 335 335 336 336 336 335 334 334 332 332 334 335 334 334 334 334 336
351 352 352 354 357 358 355 355 353 351 349 348 349 348 347 346 345 346 346 346 347 350 348 346 346 346 345 343 344 344 345 344 343 342 342 342 341 334 327 332 341 340 341 339 342 346 339 336 339 338 338 336 334 333 333 335 335 337 316 326 307 326 335
348 349 349 351 352 353 353 354 353 352 350 350 350 348 347 345 345 346 345 346 347 349 348 345 344 343 341 342 341 341 340 341 341 342 340 339 334 328 321 308 296 303 333 329 311 304 299 308 341 341 337 334 336 332 335 334 334 306 303 300 301 300 298
345 345 344 347 348 350 351 352 352 353 351 351 350 348 347 346 345 346 345 347 348 347 347 345 342 340 339 340 339 339 340 340 340 340 341 338 336 332 326 321 314 297 294 301 301 297 293 293 296 300 305 324 335 319 303 304 299 297 295 294 296 297 298
344 343 342 344 346 348 349 350 351 351 350 351 350 348 348 345 345 346 344 345 346 346 346 344 342 340 339 338 341 342 342 341 341 339 338 336 335 333 328 326 322 315 297 292 295 295 292 292 293 294 298 298 309 324 322 302 294 294 294 294 294 294 293

ECMWFFLT1_sfc_thetae_039.txt.gz
Theta_e
338 338 341 344 345 344 344 346 347 344 346 349 352 354 353 353 356 360 361 365 367 369 372 372 371 371 371 369 369 369 368 367 367 365 365 364 363 363 362 362 361 361 357 353 355 354 356 356 354 353 353 351 350 351 353 352 351 349 349 349 347 347 347
331 335 339 343 345 345 345 348 349 347 347 349 351 354 354 355 356 358 361 365 368 370 372 372 372 372 371 371 370 371 370 368 368 367 366 366 365 365 364 364 362 362 361 359 358 358 357 355 353 352 351 352 349 352 351 352 351 350 348 349 348 348 348
334 334 336 341 344 346 347 347 349 349 349 349 351 353 354 358 359 360 361 363 368 370 372 372 373 372 372 372 371 372 371 370 369 367 365 362 363 361 364 364 364 361 360 360 359 357 357 356 354 353 351 351 349 350 352 351 350 349 349 349 347 347 347
335 336 341 344 346 349 349 348 348 349 350 351 352 355 359 361 362 361 362 365 368 369 371 373 372 371 371 372 371 371 371 371 370 368 366 364 363 364 363 364 365 362 360 359 357 356 356 356 353 353 351 351 350 350 351 350 349 349 349 350 347 347 347
338 343 342 343 344 347 348 348 348 350 349 351 354 360 362 362 362 362 363 366 368 369 370 372 371 373 372 372 371 371 370 372 371 370 369 367 366 366 364 363 362 362 360 360 358 357 356 356 354 352 351 351 350 350 350 350 349 350 350 349 348 346 345
335 341 343 342 344 345 347 349 350 350 349 349 354 358 360 360 361 361 362 366 367 368 371 372 372 373 372 372 371 370 372 372 373 372 370 369 366 364 365 365 362 362 359 359 357 356 356 355 354 352 350 348 348 345 347 349 348 348 349 348 347 346 343
332 336 341 344 345 345 347 350 350 351 350 350 353 358 358 358 359 359 360 362 363 366 367 368 370 371 372 372 371 371 372 371 373 372 370 369 367 366 366 366 365 363 361 362 358 357 356 354 353 352 351 349 348 346 347 349 348 347 348 348 347 346 345
331 336 344 345 345 345 346 349 351 351 352 350 350 353 356 355 356 355 356 360 361 361 364 363 368 371 372 372 371 371 372 371 373 372 371 369 367 366 366 366 365 364 363 360 360 358 355 354 351 351 351 348 349 349 348 349 350 344 346 347 346 344 343
332 342 344 344 345 345 346 349 351 352 355 353 350 354 356 355 353 353 354 356 359 358 361 360 365 369 372 371 371 371 372 372 372 372 371 368 368 365 365 364 365 364 362 361 359 358 356 353 350 351 350 350 349 349 347 349 348 348 346 346 345 343 342
344 347 348 345 346 344 347 349 354 357 358 358 357 359 357 355 354 352 352 354 355 355 359 358 362 367 371 371 371 372 372 372 372 372 369 366 366 364 364 363 364 365 364 362 359 356 356 354 351 350 351 349 349 347 347 347 347 348 347 346 344 344 344
336 348 351 347 347 347 348 348 354 359 360 362 361 356 360 357 355 352 353 353 353 355 357 358 360 364 369 370 368 369 371 371 371 370 368 365 365 364 362 361 362 364 363 360 357 356 354 352 351 351 350 348 346 346 346 346 347 348 344 346 346 345 344
347 349 353 350 350 349 348 356 361 363 364 365 359 357 363 363 357 355 354 355 354 355 357 357 357 363 367 367 367 369 370 371 371 369 367 365 364 363 361 360 361 362 361 360 357 356 352 350 349 350 350 349 349 348 347 347 348 349 347 344 345 345 345
347 351 352 349 350 349 354 358 359 360 362 360 357 359 360 358 357 356 360 358 354 355 356 359 359 365 367 368 366 368 370 371 370 369 367 366 365 363 361 359 358 360 359 359 356 353 350 348 349 350 350 350 348 347 348 347 346 348 348 347 347 347 345
351 349 351 350 350 349 350 354 357 359 360 360 358 360 360 360 359 359 361 358 356 354 356 358 361 362 367 368 367 369 371 371 371 370 367 365 367 365 363 361 360 361 362 360 357 351 350 347 347 347 349 349 348 348 348 348 346 347 348 347 347 345 344
347 348 350 348 350 351 351 351 357 360 359 360 360 360 361 361 361 363 364 361 361 356 357 362 363 364 366 369 368 370 372 372 371 369 368 366 366 365 363 362 361 361 361 359 356 352 348 346 345 347 348 350 348 348 347 346 345 346 346 346 346 347 343
341 343 348 349 351 351 354 355 358 361 362 362 360 361 361 361 362 361 361 360 359 359 359 364 367 367 367 368 369 371 371 370 370 369 368 365 365 366 364 361 361 360 359 358 355 352 347 345 346 347 347 347 347 348 347 345 345 343 336 339 346 345 343
325 327 331 342 355 354 355 357 359 363 363 361 361 362 362 363 363 362 360 359 358 360 361 363 368 366 367 369 371 370 370 369 368 368 366 365 365 366 365 363 363 362 361 358 354 350 348 344 343 345 346 344 344 345 346 345 345 334 329 331 335 345 346
325 330 331 335 349 355 356 357 359 362 362 362 362 363 363 364 363 362 360 361 360 359 360 364 366 365 369 370 370 369 368 367 367 366 365 365 363 363 363 363 362 361 361 357 353 349 347 345 345 347 345 344 345 346 347 346 338 328 328 329 329 335 346
325 326 329 339 345 356 355 355 358 363 362 364 363 363 364 365 363 363 364 364 365 365 363 364 365 368 370 371 370 369 368 367 366 365 364 363 363 363 363 362 361 361 357 355 354 349 348 348 347 345 345 346 346 345 344 346 333 326 326 327 327 328 336
326 327 327 326 333 352 358 358 357 361 363 365 365 364 365 368 366 365 365 364 365 364 366 367 369 370 370 370 369 368 367 366 364 363 362 362 361 362 362 361 359 358 358 355 354 350 350 348 347 346 347 347 347 346 346 347 332 325 323 324 324 326 330
329 330 332 334 345 344 359 360 360 362 363 362 362 364 364 365 366 365 364 365 365 365 366 367 369 370 369 367 369 367 364 363 362 360 360 358 359 360 360 360 361 358 358 355 352 350 350 347 348 349 348 347 347 346 346 347 326 322 321 321 321 323 327
325 326 327 331 350 357 360 358 359 360 362 362 360 362 364 364 365 363 363 365 365 365 366 368 369 369 369 367 367 365 364 361 360 359 358 358 358 356 357 359 359 359 358 356 353 352 350 350 350 350 349 350 347 345 344 345 321 321 320 320 320 322 336
325 325 324 347 351 357 364 362 362 362 364 361 360 362 362 364 364 363 363 363 364 365 365 367 368 367 366 365 364 362 360 359 358 357 357 357 355 355 355 357 358 359 359 355 353 350 349 350 348 347 348 345 346 343 345 344 327 318 317 318 318 322 338
331 334 333 336 355 360 365 362 362 364 360 358 359 361 363 363 363 363 362 362 363 364 365 366 367 367 366 365 363 362 361 359 358 357 356 356 355 354 355 356 358 357 358 355 352 348 347 347 343 348 347 342 342 342 344 344 331 315 315 316 316 325 338
330 329 331 339 353 359 358 360 362 360 359 360 358 360 364 363 362 360 360 362 362 364 366 366 367 367 365 363 363 362 360 359 357 357 355 355 353 353 354 354 356 357 356 353 351 348 349 346 343 345 337 333 339 343 346 341 330 314 315 314 314 325 340
333 332 333 348 354 359 360 361 361 360 357 356 360 363 364 361 361 362 363 363 363 363 364 365 368 368 366 364 363 362 360 357 357 357 355 355 355 355 355 356 354 354 354 351 348 346 344 344 343 337 332 339 340 339 340 337 339 324 313 312 313 317 337
341 337 338 346 349 356 358 359 360 358 358 360 364 363 362 362 362 361 362 362 362 361 364 368 368 367 366 364 361 359 357 356 355 354 354 355 354 355 355 356 355 355 353 349 348 347 345 344 341 336 337 338 333 338 339 337 342 333 313 312 312 314 322
342 344 349 351 357 357 360 359 360 360 359 363 362 361 361 363 362 361 362 362 362 366 367 366 366 365 364 362 360 357 356 355 356 356 354 355 356 356 356 357 357 354 352 350 349 347 346 345 342 338 335 334 337 339 341 343 341 343 318 313 310 312 315
348 349 350 355 356 359 356 355 354 353 359 359 360 361 363 365 363 363 363 363 364 366 366 365 363 362 361 359 358 358 357 355 355 355 355 355 355 355 354 354 352 351 351 350 348 346 343 341 341 339 336 337 339 340 341 345 342 330 329 313 310 310 311
347 348 350 352 353 353 351 353 357 360 360 359 363 366 367 367 363 363 362 361 365 366 365 363 361 360 359 357 357 356 355 354 354 354 355 355 355 354 352 350 350 350 349 349 346 343 342 346 344 341 338 337 338 339 337 342 343 330 325 321 312 309 309
354 353 351 350 351 356 359 359 361 361 362 364 366 366 366 366 363 362 362 364 365 363 362 361 359 358 355 355 354 354 352 354 354 354 354 354 353 352 350 348 348 346 347 346 344 344 343 341 340 338 339 335 335 337 342 342 341 338 327 321 316 311 308
352 352 353 356 358 359 360 360 359 359 359 361 364 363 364 365 365 362 363 364 363 362 360 358 355 353 352 353 353 352 353 352 353 353 353 352 352 351 350 348 346 345 346 344 343 342 341 338 338 335 335 336 338 339 339 340 341 337 331 325 321 317 310
353 353 353 354 356 356 357 357 355 356 357 357 361 363 364 364 363 362 361 359 359 358 357 356 354 352 352 352 351 353 353 352 350 350 350 351 349 349 347 346 345 346 344 343 342 342 341 338 338 335 337 336 339 340 339 340 339 339 334 332 328 325 319
353 354 355 356 356 355 355 354 353 353 354 353 356 357 357 356 355 356 357 356 356 356 355 353 353 352 351 349 350 349 351 349 348 348 347 348 347 346 347 346 346 344 343 343 342 341 337 336 335 336 334 337 338 337 336 337 339 337 335 335 333 333 331
354 352 352 352 354 354 353 353 352 352 352 351 352 352 352 351 350 350 352 353 355 356 353 351 350 352 350 348 347 347 349 348 347 347 345 333 325 323 321 323 333 343 333 324 325 339 339 340 341 340 339 340 339 335 332 333 334 336 319 328 316 336 335
354 356 356 356 356 357 357 356 355 353 352 352 352 351 351 350 350 351 351 353 354 354 352 351 350 350 347 346 344 344 345 345 345 345 340 332 327 324 318 307 297 307 336 326 311 303 302 313 336 337 341 340 338 332 337 333 335 304 298 298 298 297 298
348 350 351 354 355 355 355 355 355 354 353 352 352 350 349 349 349 351 352 354 355 353 352 352 348 346 345 344 343 341 342 344 344 344 341 336 333 333 331 327 318 297 295 302 306 301 297 296 296 300 306 336 332 315 301 301 297 296 296 296 296 295 295
343 345 347 349 352 352 352 353 353 352 351 352 351 350 350 348 350 352 351 353 353 353 353 352 347 344 342 342 343 342 344 344 344 343 340 337 336 336 335 333 329 322 300 294 297 296 295 295 295 295 298 302 314 323 322 303 295 295 296 296 296 295 294

ECMWFFLT1_sfc_thetae_042.txt.gz
Theta_e
333 334 336 340 341 341 342 346 348 347 349 351 353 353 352 354 356 359 361 364 365 367 368 368 367 367 367 367 368 368 367 368 369 367 366 366 365 365 365 364 364 363 361 360 358 356 357 360 356 354 354 353 352 354 354 355 354 353 353 353 354 353 349
332 334 334 335 341 342 344 347 351 348 348 351 352 353 352 353 356 358 360 365 366 367 368 368 367 367 367 367 368 368 367 368 368 367 367 366 366 367 366 365 364 364 363 360 360 360 357 358 358 355 353 353 351 353 353 354 354 353 351 352 349 351 351
333 334 334 335 338 341 344 343 348 349 348 350 351 351 351 353 357 359 360 363 366 368 369 368 367 367 368 368 367 367 367 367 367 367 366 365 365 362 365 366 365 364 363 362 362 358 359 356 358 356 354 351 348 352 353 353 353 352 352 351 349 349 350
332 333 335 339 341 343 344 345 349 348 347 346 349 350 353 355 357 360 361 363 365 367 368 369 368 367 368 368 367 367 367 367 367 366 365 365 365 364 364 365 365 364 363 361 361 357 356 356 355 356 356 352 350 350 350 351 350 351 351 351 348 348 349
336 338 336 339 340 343 344 346 350 349 346 345 348 353 355 357 357 359 361 363 364 365 368 369 367 368 369 369 367 367 367 367 367 366 366 366 366 365 365 362 364 362 362 362 361 360 358 356 354 354 352 353 351 350 351 351 349 350 349 349 347 346 347
337 336 336 337 338 341 344 344 345 347 346 344 346 352 354 354 354 354 357 362 363 366 369 370 370 369 369 369 367 368 369 369 368 368 366 366 366 364 363 364 363 362 362 361 360 359 358 356 353 352 350 350 348 348 349 350 349 348 349 349 348 347 345
334 336 337 336 337 337 341 344 345 347 347 346 347 352 353 353 352 352 354 357 361 365 366 368 369 369 368 368 368 369 369 369 369 368 367 366 365 364 364 364 364 363 362 363 359 357 356 355 353 351 350 348 349 348 348 349 349 349 350 349 347 349 347
333 334 339 341 341 337 338 344 347 347 349 349 346 347 350 353 353 352 351 355 358 362 365 366 368 369 368 369 369 368 369 369 369 369 368 366 365 364 364 364 364 365 365 361 360 357 355 355 354 353 351 348 349 349 349 350 350 349 349 348 347 346 346
334 336 338 338 338 338 341 345 348 350 350 351 349 350 350 351 351 351 351 353 357 361 364 367 368 369 369 369 368 368 369 370 369 368 367 366 365 362 361 364 365 366 364 361 359 358 356 354 354 353 352 349 349 349 349 350 350 348 349 347 347 345 344
335 339 339 336 337 335 340 342 346 352 353 352 352 353 353 354 354 353 353 354 356 360 364 366 367 368 370 369 368 368 368 369 370 368 365 363 364 361 360 361 364 365 364 362 359 357 357 356 354 354 352 350 349 349 349 349 348 348 348 347 347 346 344
337 343 342 338 340 342 345 343 345 353 355 353 353 354 356 357 357 356 356 355 356 359 363 365 365 368 368 367 365 366 368 368 368 368 367 364 364 363 360 361 362 363 362 361 358 358 357 356 355 354 352 350 350 348 348 349 348 347 345 347 347 346 344
345 346 345 347 349 347 345 346 352 357 358 357 354 355 358 359 359 358 357 356 356 359 361 361 361 365 366 367 367 367 367 367 367 367 366 365 363 363 361 360 362 362 361 360 359 358 356 356 354 352 350 349 349 348 347 348 348 347 345 346 346 345 344
344 349 347 349 351 351 352 356 359 357 359 359 356 355 358 358 357 356 357 356 355 357 358 361 360 363 368 368 364 366 367 367 367 367 367 366 365 365 363 360 360 361 360 360 359 358 355 354 353 351 350 349 349 349 346 346 348 347 346 345 345 345 344
353 352 353 354 354 355 354 357 364 361 360 361 359 357 357 358 356 356 356 354 353 354 355 357 358 362 367 367 365 366 367 368 368 368 368 367 367 366 364 361 361 362 363 361 360 358 356 353 352 350 350 348 348 348 346 346 347 348 347 346 345 345 345
348 348 352 351 355 355 355 357 366 366 362 362 362 359 359 358 357 357 357 354 353 352 353 356 358 360 365 367 366 366 368 369 369 369 369 369 368 366 365 364 363 364 364 362 360 358 356 355 351 349 348 348 348 346 346 346 346 347 346 345 345 344 343
346 347 348 349 354 356 358 357 362 368 365 365 363 361 359 359 359 358 357 355 354 353 353 358 359 360 364 367 367 369 370 371 371 370 371 369 367 367 366 365 364 363 363 361 359 358 356 354 351 349 347 347 347 346 345 345 346 342 335 338 345 345 344
333 329 340 347 356 356 357 357 359 365 365 364 364 362 360 360 361 360 357 356 353 354 355 359 360 361 364 367 369 371 372 372 372 372 370 369 368 368 367 365 364 363 363 362 360 357 356 353 348 347 346 346 346 345 345 346 346 334 330 333 337 343 344
326 338 336 340 350 353 355 355 356 361 363 363 363 364 362 363 363 362 357 357 354 353 355 360 361 361 364 369 371 372 373 373 373 372 371 369 368 368 367 365 364 364 364 363 360 359 356 351 348 347 346 346 346 345 345 346 337 328 328 331 332 338 344
327 331 339 351 353 354 354 353 355 360 362 362 363 364 364 365 363 362 360 359 359 358 355 361 362 363 366 371 372 373 374 374 372 370 369 368 368 368 367 366 364 364 363 361 361 360 355 351 348 346 346 346 346 344 345 345 332 326 326 328 329 332 340
329 329 329 333 355 355 357 357 356 360 363 364 364 362 363 365 364 364 363 364 364 361 358 363 365 365 368 372 372 374 373 372 370 369 368 368 367 367 366 365 364 364 363 361 361 358 354 350 348 348 348 347 347 345 346 346 328 325 324 326 326 327 333
338 342 343 341 346 356 360 362 362 364 367 364 362 363 363 364 366 365 364 365 364 363 362 366 367 367 370 372 373 372 371 370 369 368 367 367 366 365 365 364 365 364 362 360 358 354 351 348 346 347 348 347 346 345 346 347 324 322 322 322 322 323 328
325 328 330 334 339 345 364 363 363 364 367 365 365 361 361 363 362 360 361 364 364 363 366 369 368 368 371 371 371 370 370 369 368 367 366 365 365 364 363 363 364 362 361 359 357 355 352 350 347 347 347 347 345 344 347 345 320 321 320 319 319 322 336
323 327 327 331 333 341 370 366 366 365 369 367 364 362 362 363 362 362 360 359 360 363 367 369 368 368 371 370 369 369 369 368 366 365 364 363 361 360 360 362 363 363 363 360 357 354 350 349 348 348 346 346 349 347 346 339 322 318 316 317 320 324 337
323 325 328 330 333 334 357 368 367 368 368 366 364 363 364 364 364 364 362 360 361 361 364 367 368 371 371 370 369 368 368 367 364 363 362 360 359 358 358 359 362 363 363 360 356 353 351 351 349 349 348 345 347 345 346 339 323 317 315 318 318 327 338
323 324 326 327 329 331 357 367 366 368 367 366 363 364 368 366 364 362 362 362 360 359 362 367 370 371 370 369 369 368 366 365 364 361 359 359 357 356 356 357 359 361 362 360 359 356 354 350 349 349 349 347 347 345 344 340 326 316 316 315 316 327 341
334 328 328 334 336 365 367 368 368 366 364 364 365 366 369 366 365 361 361 362 362 362 365 368 370 371 369 368 367 366 365 363 362 360 358 359 358 357 358 358 357 358 358 358 357 356 354 351 349 346 346 345 344 345 345 340 330 324 315 315 314 321 343
341 339 336 331 333 361 370 368 367 363 362 364 366 366 366 365 364 362 363 365 363 364 367 370 371 370 368 367 364 363 362 361 360 358 358 359 357 357 357 357 356 357 359 356 356 354 350 348 346 344 340 338 340 341 338 339 338 332 314 312 313 318 329
340 341 340 335 352 362 364 361 365 365 361 367 367 366 367 366 364 364 365 365 365 367 370 371 370 368 366 365 363 361 360 358 360 358 357 358 359 358 357 359 360 359 359 356 355 351 349 347 344 343 340 335 336 341 340 336 332 328 314 312 312 314 319
353 347 352 362 361 362 358 359 360 358 359 365 367 367 367 367 364 364 364 365 367 369 370 368 367 366 364 363 361 359 358 358 357 356 357 358 359 358 357 359 360 360 358 355 352 350 348 348 343 342 340 338 339 337 340 340 333 322 323 313 311 310 315
351 354 356 354 356 357 355 359 359 359 363 363 366 367 368 367 363 363 363 365 368 368 366 366 366 364 362 359 359 358 356 357 356 357 358 358 357 357 357 357 357 356 355 354 351 349 348 347 342 339 337 336 336 340 341 340 336 325 324 322 313 310 310
352 349 351 355 357 362 361 360 362 362 363 366 368 368 368 367 363 362 363 365 366 364 364 363 362 361 359 358 357 356 355 355 355 355 356 356 356 354 353 353 354 352 353 352 351 349 346 345 342 341 340 337 337 339 341 341 339 335 326 321 315 311 310
341 343 348 354 360 360 360 364 363 362 363 365 368 367 366 367 365 361 363 365 363 364 363 362 360 359 358 357 356 355 354 354 353 355 355 354 354 354 353 352 350 350 350 350 348 348 346 345 342 339 337 336 337 338 338 338 337 334 330 324 321 317 312
344 343 338 333 335 348 359 360 357 360 361 361 364 365 365 364 364 364 364 364 363 363 363 360 358 356 357 356 354 355 354 352 351 352 352 352 352 352 352 352 351 350 348 348 346 346 344 342 340 337 335 335 336 337 336 336 337 336 332 330 328 327 321
342 340 339 340 341 341 343 345 349 352 356 353 357 359 362 362 362 362 362 361 360 360 360 357 357 354 353 352 352 352 351 349 352 351 350 348 346 346 348 350 349 348 348 347 346 343 341 340 338 336 335 336 336 335 334 334 336 336 334 332 333 331 328
338 338 339 339 340 341 343 345 345 345 346 353 355 356 356 356 356 356 356 356 357 358 354 352 351 352 351 350 350 349 350 349 350 344 338 331 322 316 314 315 323 338 333 326 325 342 342 341 340 339 339 339 338 335 332 333 333 335 326 334 322 328 328
339 338 337 339 340 342 343 344 344 347 348 351 352 354 354 354 354 355 356 356 355 354 352 351 349 349 347 347 346 347 347 347 344 339 336 331 325 321 316 308 297 304 327 326 313 305 307 322 339 341 340 341 340 337 336 334 338 310 309 311 311 312 311
334 335 336 337 339 341 341 345 348 349 348 349 350 350 350 351 351 354 354 355 355 353 353 353 349 347 346 345 344 343 346 344 340 338 337 335 332 330 327 323 315 297 296 302 303 300 298 299 304 316 324 335 329 311 301 303 299 298 298 299 299 297 296
336 338 345 344 346 347 348 348 347 348 348 350 350 351 352 350 352 355 354 356 355 355 356 354 351 347 345 344 345 344 346 343 340 339 338 336 335 333 330 328 325 319 300 295 297 298 295 296 300 306 310 312 316 316 312 301 297 296 297 297 297 296 295

ECMWFFLT1_sfc_thetae_045.txt.gz
Theta_e
330 330 332 334 334 335 337 338 339 339 342 344 344 345 347 349 350 351 352 355 355 355 356 358 358 358 357 356 357 359 360 360 359 358 357 356 356 356 355 354 355 355 355 354 353 353 349 349 347 347 345 347 345 343 345 346 344 345 344 344 345 343 341
329 330 332 334 334 336 338 339 339 340 341 345 345 346 347 349 350 351 353 354 356 356 357 358 358 359 359 358 358 359 359 360 360 360 358 357 356 357 357 355 356 356 355 355 354 351 350 349 348 346 344 347 346 344 343 347 344 344 342 342 341 341 341
329 330 332 334 335 336 339 340 340 341 342 344 346 346 347 348 350 352 353 355 356 357 358 358 359 359 359 360 359 360 360 360 359 359 358 357 357 358 358 358 357 357 356 355 354 350 351 350 347 347 345 343 345 346 343 345 346 345 343 341 340 341 339
330 331 332 333 335 336 339 341 341 342 344 345 346 347 347 348 350 353 355 356 356 357 357 358 359 359 359 359 359 360 360 360 360 359 359 359 358 358 358 358 358 358 356 355 354 352 351 351 347 346 350 343 342 345 345 344 346 345 343 342 339 340 340
330 331 331 331 333 335 337 340 342 342 343 345 347 348 348 349 350 353 356 358 358 358 359 359 359 359 360 360 361 361 360 359 360 360 360 359 359 358 358 358 357 357 356 356 354 352 349 349 347 346 346 344 342 344 345 345 344 344 343 342 339 339 340
329 329 329 330 331 335 337 338 342 342 342 344 346 347 348 349 350 351 355 358 358 360 361 361 360 360 359 360 361 361 361 360 360 360 360 359 359 358 357 358 358 358 356 355 354 351 349 349 348 346 345 344 343 343 344 345 344 344 342 342 340 339 340
329 329 329 330 331 334 337 338 340 343 343 344 346 348 349 349 349 351 353 356 358 358 360 360 360 359 359 360 360 360 359 359 359 359 360 359 359 358 358 358 358 358 357 355 354 351 349 348 348 347 346 344 343 343 343 344 343 343 342 342 340 338 339
328 329 329 330 331 332 337 338 339 342 343 344 345 347 347 348 349 350 351 355 358 359 360 361 361 360 359 360 360 359 360 359 359 360 360 359 358 358 357 357 358 358 358 355 354 351 350 348 347 347 346 345 343 342 343 344 344 343 342 341 341 339 341
329 329 330 330 331 333 335 338 338 340 342 342 344 346 347 347 348 349 350 353 356 358 359 361 362 362 360 360 359 359 360 360 359 359 359 358 358 358 358 358 358 359 357 356 354 352 350 348 347 346 345 345 344 343 342 344 343 343 342 341 341 340 340
328 328 330 331 332 333 335 337 338 340 341 341 342 344 345 347 348 348 350 352 354 356 359 361 362 363 361 360 359 359 359 359 359 359 358 358 358 358 358 358 358 359 357 357 355 352 351 349 347 346 345 344 344 343 342 343 343 343 342 342 341 340 339
328 329 330 330 331 332 335 337 337 339 342 341 341 343 345 346 347 347 348 350 352 355 358 360 362 362 362 360 359 359 359 359 359 359 358 358 358 358 358 358 358 358 358 357 355 353 351 350 348 346 345 343 343 342 342 343 343 343 342 342 342 341 340
329 329 330 330 331 331 333 337 338 340 342 342 341 342 344 346 347 348 348 348 351 353 356 359 361 362 362 361 360 359 358 358 359 359 359 358 358 358 358 357 357 357 358 357 355 353 351 349 349 348 345 344 343 343 342 343 343 343 342 342 342 342 341
329 330 331 331 331 332 334 337 339 341 342 343 342 342 344 346 347 348 348 348 349 352 354 358 360 362 362 361 360 358 358 358 359 359 360 359 358 358 358 356 357 357 357 358 356 353 351 350 349 349 347 345 344 343 342 343 343 342 342 343 342 341 340
336 330 331 331 331 331 333 336 338 341 343 343 343 343 344 346 348 348 348 348 349 350 353 357 360 361 362 362 360 358 358 358 359 360 360 360 359 358 358 357 356 357 357 358 356 354 352 350 349 349 348 346 344 343 343 343 343 342 341 342 342 341 341
329 329 330 329 330 332 334 335 336 338 344 346 345 344 345 346 347 348 349 349 349 350 352 357 360 361 362 362 360 359 359 359 359 360 361 360 359 358 358 357 355 356 357 357 356 355 353 352 350 348 347 346 345 344 343 343 343 343 341 340 341 342 341
331 329 330 330 331 332 335 336 337 338 343 347 345 345 346 347 347 348 349 350 350 350 352 356 358 359 361 361 360 359 359 359 359 359 360 360 359 358 358 357 356 356 357 356 356 355 354 352 351 349 347 346 344 344 344 342 343 339 331 334 341 340 340
336 333 338 341 339 337 336 337 338 342 344 347 347 346 347 349 350 350 351 351 352 351 352 355 357 358 358 360 361 360 359 359 358 359 359 360 360 359 359 358 357 356 356 356 355 354 354 353 351 349 347 346 344 343 343 342 342 330 329 331 333 339 339
340 340 341 343 343 343 340 340 347 349 347 349 349 348 347 349 351 351 351 352 352 353 353 354 355 356 356 359 361 361 360 359 359 358 358 359 359 359 359 359 357 355 356 356 355 354 354 352 351 349 347 346 344 343 343 342 334 325 328 329 329 334 340
338 340 340 342 342 343 344 345 350 355 352 351 352 351 349 350 351 351 352 352 353 353 352 352 353 354 354 357 361 361 360 360 359 358 358 358 359 360 359 358 357 355 356 356 356 355 353 352 350 348 347 345 343 342 342 341 330 325 326 328 328 330 337
326 329 334 341 344 344 345 345 346 354 355 353 354 354 353 352 351 352 353 353 352 351 350 349 350 352 353 355 360 361 361 360 360 359 359 359 360 360 359 358 357 356 356 356 356 354 353 351 347 346 345 344 343 342 341 341 326 323 323 325 326 327 333
328 328 329 329 336 343 344 344 344 346 352 355 355 355 355 353 353 353 353 352 351 350 348 348 348 350 352 354 358 361 361 361 360 360 360 361 360 360 359 358 357 356 356 356 355 354 351 348 346 344 344 343 343 342 340 341 321 321 321 322 323 323 329
322 327 331 332 333 340 343 344 344 344 348 355 356 356 356 354 355 354 353 353 352 350 348 347 348 350 352 354 358 361 362 362 361 361 362 361 360 359 358 358 357 356 355 355 354 354 351 347 346 344 343 343 342 342 340 338 318 320 320 321 321 326 333
318 320 321 326 338 340 347 348 347 347 348 352 355 355 355 356 356 355 354 353 353 352 350 348 349 351 353 355 359 362 364 364 363 362 361 360 359 358 358 357 357 356 355 353 352 350 348 345 344 343 343 342 342 341 341 330 320 318 318 318 322 327 334
316 316 318 324 328 342 348 350 350 349 349 351 354 355 356 356 356 355 354 353 353 352 351 351 352 354 355 358 362 364 365 364 363 361 360 359 358 357 358 358 358 357 356 353 351 349 348 345 342 342 343 343 342 342 339 328 320 316 316 318 322 325 329
316 316 316 317 317 321 349 353 352 352 351 353 353 355 356 356 356 355 354 353 353 353 352 352 356 357 359 362 365 365 365 364 362 361 359 358 358 358 357 357 357 358 357 355 353 350 349 346 343 342 342 342 343 340 335 329 322 315 316 317 317 323 329
329 331 331 328 321 319 323 352 354 352 353 354 355 356 356 356 356 354 353 353 353 353 352 354 359 362 364 365 365 365 363 362 360 359 358 357 357 356 356 356 357 357 357 356 353 350 348 345 344 343 343 343 344 341 336 332 327 321 315 314 314 318 332
333 333 337 341 338 341 326 322 349 355 356 358 357 357 357 357 355 353 353 353 352 352 353 359 364 365 365 364 364 362 361 360 359 358 357 357 355 354 354 354 355 356 355 354 352 350 347 345 344 344 342 344 344 342 337 333 330 325 314 314 314 317 327
344 346 353 355 353 352 343 328 336 353 358 359 359 358 357 357 354 353 352 352 351 352 359 365 366 365 364 362 361 360 359 358 357 357 356 355 353 352 351 351 353 353 354 353 350 347 345 343 341 340 338 340 341 340 337 333 328 330 317 314 312 314 322
341 341 346 346 346 347 350 352 352 353 356 359 359 358 358 357 354 353 353 353 352 359 365 366 365 363 361 359 358 357 356 355 354 354 354 352 351 351 349 350 350 352 352 350 345 344 342 340 339 336 334 336 337 338 337 334 331 324 323 313 311 312 315
343 341 343 346 345 345 345 343 344 346 348 352 355 360 360 358 354 353 353 354 360 365 364 363 362 360 358 355 355 354 353 352 352 352 352 351 350 350 349 348 349 350 350 347 344 342 340 338 337 334 332 333 334 335 335 334 332 323 320 319 311 311 312
341 340 341 341 340 342 343 343 343 344 343 343 344 348 352 357 355 352 354 360 363 362 362 361 358 356 354 353 352 351 351 350 350 350 350 350 350 348 348 348 349 348 347 345 344 342 339 337 336 334 332 331 331 333 333 332 330 326 322 318 314 313 312
338 339 341 341 340 340 342 343 344 344 343 342 343 343 344 348 356 356 359 362 361 362 360 357 355 353 351 350 350 350 349 348 349 350 350 349 350 349 347 347 346 345 344 344 344 342 339 336 336 334 332 331 333 333 333 332 329 327 325 322 317 316 314
336 338 339 339 340 338 338 339 340 340 342 341 344 347 349 349 350 358 360 360 361 359 357 354 352 350 349 349 349 348 349 348 348 348 348 348 347 347 346 346 346 345 343 343 342 340 338 336 334 333 333 334 334 334 333 332 330 328 326 324 321 321 318
330 332 335 338 338 340 338 337 337 337 339 340 342 346 349 349 349 349 354 358 360 357 355 352 350 349 348 348 347 347 347 347 351 342 334 331 333 334 337 342 346 344 342 341 342 339 337 336 334 332 333 334 334 333 332 331 330 329 327 326 325 324 321
329 330 331 333 335 335 335 335 336 338 339 340 343 345 348 349 348 349 352 353 356 351 352 349 346 348 348 347 347 346 344 339 334 330 323 317 311 307 307 311 325 330 322 315 313 331 339 336 335 334 335 335 334 333 331 331 330 330 322 328 319 324 324
329 330 333 334 335 335 336 338 338 339 337 337 339 340 340 343 346 347 349 352 353 351 347 346 347 346 346 346 346 343 339 335 331 328 324 320 317 314 310 305 296 303 320 316 313 307 314 324 335 337 336 335 335 334 333 331 333 320 311 310 309 310 312
329 330 332 334 335 334 335 336 338 335 334 334 335 337 339 341 342 344 347 348 348 348 346 346 344 344 344 344 342 338 336 334 331 329 326 324 323 321 318 316 311 297 296 302 304 303 307 311 314 318 323 331 327 313 309 321 315 308 306 304 305 305 303
332 332 333 333 335 335 334 333 336 335 333 335 335 336 340 346 347 347 347 348 348 347 346 345 344 342 342 340 338 336 335 334 332 331 329 328 326 324 322 320 317 315 303 296 299 299 298 302 307 310 312 314 318 316 315 306 304 305 304 303 302 299 297

ECMWFFLT1_sfc_thetae_048.txt.gz
Theta_e
327 327 327 329 329 331 332 333 333 334 337 338 339 341 342 344 346 348 348 348 349 350 351 351 351 353 352 353 353 354 354 353 353 352 353 353 353 352 351 351 351 351 352 352 352 351 351 351 350 348 347 345 342 341 341 341 338 341 341 340 339 341 339
327 327 328 329 329 330 332 333 334 334 337 339 340 341 343 344 345 348 349 349 349 350 352 352 352 352 352 352 353 354 353 353 354 354 354 353 354 353 353 352 352 352 352 353 353 352 351 350 350 347 345 345 342 341 341 341 339 340 341 340 337 339 339
327 328 328 329 329 330 331 333 334 335 337 339 340 341 343 344 345 347 349 349 349 350 352 353 353 352 352 352 352 353 354 354 354 354 353 353 353 354 354 353 353 353 353 353 353 352 351 349 349 347 344 344 342 341 341 340 340 340 341 340 339 338 338
327 328 329 330 331 331 332 333 334 335 337 339 340 341 343 344 346 348 349 350 349 350 350 353 354 353 353 352 352 352 353 354 354 355 355 354 354 355 354 353 353 353 352 352 353 353 351 349 347 346 348 343 342 341 340 341 340 340 339 340 338 338 338
327 328 329 330 330 331 332 333 334 335 336 340 341 342 344 345 346 347 349 351 351 350 351 353 355 355 355 354 353 353 354 354 355 355 356 356 355 355 354 353 353 353 353 353 353 352 350 348 346 345 344 343 343 341 340 341 341 340 339 339 336 337 338
326 327 328 330 331 331 333 333 335 336 336 339 340 341 344 345 346 347 348 350 351 352 352 353 354 355 354 354 354 354 354 355 356 356 356 356 355 354 354 354 353 353 353 353 353 351 351 348 346 345 343 342 342 342 340 340 342 341 340 339 337 336 337
326 327 328 329 331 332 333 334 335 337 337 339 342 343 344 345 346 347 348 349 351 351 351 352 353 354 355 355 355 355 354 354 355 356 357 356 356 355 355 355 354 354 354 354 353 351 350 348 346 345 344 342 341 342 341 339 340 342 340 339 337 336 336
327 327 328 329 331 332 333 335 336 337 338 339 341 342 343 345 346 347 348 349 351 352 352 352 353 354 355 355 356 355 355 355 356 356 357 356 356 355 355 355 355 355 355 353 353 352 349 348 347 345 344 342 340 341 341 341 339 341 340 339 337 336 337
327 328 329 330 331 332 334 335 336 337 338 339 341 342 343 344 345 347 348 349 351 351 352 353 354 355 355 355 355 355 356 356 356 356 356 356 356 355 355 356 356 356 355 354 353 353 350 348 347 345 344 343 341 340 340 341 340 341 340 340 338 337 336
327 328 329 330 331 333 334 335 337 337 337 339 340 342 342 344 345 347 348 350 351 351 352 354 355 356 355 355 355 356 356 356 357 356 356 356 356 355 356 356 356 356 355 355 354 352 351 349 347 346 344 343 341 340 340 340 341 340 340 340 339 338 337
327 328 329 329 330 331 332 333 335 337 338 339 341 342 343 344 345 346 347 350 351 352 354 355 356 356 356 355 355 355 356 356 357 356 356 356 356 356 356 356 356 356 356 355 353 353 351 349 347 345 344 343 341 340 340 340 341 340 340 340 340 339 338
327 327 328 328 329 328 329 333 335 337 338 339 341 342 343 344 345 346 347 349 352 353 354 355 357 357 356 356 355 355 355 356 356 356 355 356 356 356 356 356 356 356 356 355 354 353 351 349 347 346 344 343 342 341 340 340 341 341 340 340 340 339 339
326 326 327 327 328 328 329 332 334 336 338 339 340 342 344 344 344 345 346 347 351 353 355 356 356 357 357 356 356 355 355 355 356 356 356 356 356 356 356 356 356 356 356 356 355 353 351 349 347 346 345 344 343 342 341 341 341 341 340 340 340 339 338
332 325 326 327 327 327 328 332 334 335 337 339 340 342 343 344 345 345 345 346 349 352 354 356 356 357 357 356 355 355 355 356 356 356 356 356 356 356 356 356 356 355 356 356 355 354 352 350 348 346 345 344 343 343 342 341 341 341 340 340 340 340 339
324 324 325 325 326 327 329 331 333 334 336 338 339 340 341 343 344 345 345 346 348 350 352 355 356 356 357 356 355 355 356 356 356 357 357 356 356 355 355 355 355 355 355 355 355 355 354 352 350 347 345 344 343 342 342 342 341 341 341 340 340 340 339
323 324 324 325 326 327 330 332 333 334 336 337 338 339 340 342 343 344 344 345 347 348 351 354 354 355 356 356 356 356 356 356 356 356 356 356 355 355 355 355 355 355 354 354 355 355 354 353 350 348 346 344 343 342 342 342 342 338 329 332 340 340 339
323 323 324 326 327 327 329 332 333 334 335 336 338 338 339 341 343 344 345 345 346 347 349 352 353 354 355 356 357 357 357 356 356 356 355 355 355 355 355 354 354 354 353 354 354 354 354 353 350 348 347 346 344 342 342 342 342 331 327 328 332 338 338
324 324 325 326 326 327 329 331 333 334 335 336 338 339 339 340 342 344 344 345 345 346 348 350 352 353 354 355 357 357 357 356 356 355 355 355 355 355 355 355 354 353 352 353 353 353 354 352 350 349 348 347 345 343 342 342 334 328 326 327 328 333 339
324 325 326 327 327 328 330 331 333 335 337 338 340 340 341 341 342 343 344 345 346 347 347 348 350 352 353 355 356 357 357 357 356 355 355 355 355 356 355 354 354 353 352 352 353 353 352 352 351 349 348 347 345 344 344 343 333 327 324 324 328 333 336
326 327 328 328 330 330 331 333 334 336 338 340 342 342 343 343 342 344 345 346 347 346 346 346 348 350 352 354 356 357 357 357 356 355 355 355 355 356 355 354 354 354 353 353 353 352 352 352 351 350 348 347 346 345 344 343 332 324 321 322 327 331 334
329 327 328 330 330 331 332 333 334 335 336 339 343 344 344 343 344 344 345 346 346 346 346 346 347 349 351 353 356 357 357 357 356 355 355 355 355 355 355 354 354 354 353 353 352 352 351 351 350 350 349 348 347 345 344 344 328 320 319 320 324 327 331
332 331 330 332 332 332 332 333 334 335 337 341 344 346 345 344 345 345 345 346 346 347 347 346 346 348 350 352 355 357 358 357 356 356 355 355 355 354 354 355 354 354 354 353 353 353 353 352 351 350 349 348 347 345 343 344 321 318 317 319 321 324 335
317 321 325 326 331 336 338 337 335 336 339 342 343 345 346 346 346 346 346 346 346 347 347 347 346 347 349 351 354 356 358 358 357 356 355 355 354 354 354 354 354 355 355 353 353 353 352 352 351 350 349 347 346 344 343 339 320 316 315 317 319 323 336
332 318 314 317 324 328 336 340 342 342 341 342 346 346 347 347 347 346 346 347 347 347 347 347 346 347 348 350 352 355 357 358 357 356 355 355 354 354 355 355 356 355 355 353 353 352 353 352 351 349 348 346 345 345 343 335 319 313 314 316 318 326 335
340 339 330 317 320 325 329 333 339 343 343 342 345 349 350 350 348 347 346 347 347 347 347 347 347 348 348 350 352 354 357 358 358 357 356 355 355 355 355 355 355 356 355 355 354 353 353 351 349 346 345 345 345 338 341 335 321 312 314 316 317 326 336
338 339 343 345 335 322 327 336 340 340 341 341 342 347 351 351 350 348 347 347 347 347 346 347 348 349 349 350 351 353 356 358 358 357 357 356 356 356 356 356 356 355 355 354 354 352 350 347 346 344 343 343 344 342 341 336 328 320 314 315 315 321 336
340 340 340 342 342 347 331 328 339 342 343 343 343 344 349 352 351 349 348 348 347 346 348 349 349 349 349 349 351 353 355 358 358 358 358 358 357 357 357 357 356 355 354 353 351 348 345 343 343 342 342 342 342 341 339 337 332 324 313 313 314 318 325
338 339 341 342 342 342 344 345 334 334 343 345 345 346 347 348 349 349 349 348 348 348 350 350 349 348 348 349 351 354 356 358 359 359 359 359 358 356 356 357 357 356 355 352 349 346 344 342 340 340 339 339 340 339 338 335 327 329 314 313 313 316 318
336 337 337 339 339 340 343 342 341 342 342 345 349 351 351 350 347 347 347 348 349 351 351 351 351 351 351 352 354 355 357 359 358 358 359 358 357 356 355 355 355 355 353 350 347 346 343 341 339 338 337 338 338 338 336 334 329 320 321 313 313 313 314
336 337 338 340 340 339 340 341 342 340 340 342 344 347 351 351 349 348 347 347 348 352 353 355 356 356 355 355 356 357 358 358 358 359 358 357 356 355 354 353 354 353 352 350 347 345 342 339 338 337 337 337 336 335 334 332 330 320 318 318 313 311 310
333 334 336 336 336 338 338 338 340 342 342 342 343 344 347 351 351 348 348 350 355 357 358 358 358 358 356 357 357 357 358 358 357 357 356 355 355 352 351 352 352 351 348 347 345 343 339 336 336 336 336 336 335 334 333 332 332 327 322 317 313 310 309
331 333 334 334 334 335 336 338 339 339 340 341 343 344 345 346 348 348 348 355 358 360 360 359 357 356 356 356 356 356 356 355 354 354 353 353 353 352 351 350 350 347 344 344 342 340 338 335 336 335 335 334 334 333 332 331 330 326 324 321 316 314 312
329 330 331 331 332 334 335 336 336 336 338 338 341 344 344 343 344 346 349 352 357 360 359 358 356 353 354 354 354 354 353 352 350 349 349 349 348 348 348 348 347 345 343 342 341 339 338 336 334 333 333 333 333 332 332 330 327 325 323 321 319 320 320
329 329 330 331 332 334 335 336 335 334 334 334 336 340 340 340 341 342 342 343 344 347 350 350 351 352 351 352 350 350 349 348 351 348 344 343 345 346 345 345 345 344 343 342 341 338 336 335 334 332 332 332 332 330 329 327 326 324 323 321 321 322 321
330 330 331 332 332 334 334 334 333 332 332 332 334 335 338 339 339 341 341 342 342 342 340 339 339 343 343 342 342 340 339 338 331 325 321 315 310 307 310 326 340 336 323 320 327 340 337 335 334 333 333 333 331 330 328 327 326 326 318 323 316 321 322
329 332 332 333 334 333 333 333 331 330 331 332 333 333 335 337 339 340 341 340 340 340 339 338 338 339 338 338 337 334 331 328 326 324 321 318 316 316 313 305 296 305 327 321 314 315 322 322 334 335 334 333 333 333 331 329 331 317 311 308 307 308 311
325 329 333 334 333 333 333 332 331 331 330 330 331 331 333 337 338 339 340 340 339 339 338 337 336 335 335 334 334 333 331 330 329 327 325 325 323 322 318 317 313 298 298 304 308 312 310 310 313 317 322 332 331 319 314 321 312 308 306 304 303 303 303
325 328 332 335 334 333 334 334 333 331 331 332 333 333 334 337 338 338 340 340 340 339 337 336 334 332 333 331 332 331 329 331 329 328 326 327 327 327 325 324 321 318 302 297 301 302 304 306 309 310 311 316 321 319 318 309 305 304 303 302 302 301 300

ECMWFFLT1_sfc_thetae_051.txt.gz
Theta_e
325 325 326 329 330 330 331 332 332 333 334 335 336 337 339 341 342 342 342 343 344 344 346 348 349 350 349 350 351 351 351 351 350 350 349 349 350 349 349 350 349 349 351 352 353 353 354 354 352 351 350 348 346 344 341 341 337 338 338 338 338 338 337
323 324 325 327 329 330 331 332 332 333 334 335 336 337 338 340 342 342 342 343 344 345 346 347 349 349 350 350 351 351 351 351 351 351 351 350 350 350 350 350 350 349 350 352 353 354 354 353 352 351 349 349 346 343 341 340 337 336 337 336 336 337 337
322 324 324 326 328 329 330 332 332 333 333 334 336 336 337 339 342 342 342 343 343 344 346 347 349 350 350 351 350 350 351 351 350 350 350 350 350 350 350 350 350 350 350 352 353 353 353 352 352 351 349 348 346 342 341 339 338 336 337 336 336 337 336
322 323 324 326 327 329 331 332 333 333 334 334 336 336 337 339 341 343 344 343 343 344 344 346 348 349 350 350 350 350 351 351 351 350 350 351 350 351 350 350 350 350 350 350 352 353 353 352 351 350 352 347 346 342 340 340 339 337 336 337 335 335 337
323 323 324 324 326 328 329 331 332 333 333 334 336 338 338 339 341 343 344 344 344 344 345 346 348 349 351 351 351 351 351 351 351 351 351 351 351 352 351 350 350 350 350 351 351 352 351 350 350 349 348 347 345 342 340 339 339 338 337 337 335 335 335
324 323 323 324 325 327 329 330 332 333 333 333 335 336 338 339 340 342 344 345 345 346 346 347 347 349 349 350 351 351 351 351 352 352 351 351 351 351 351 351 351 350 350 350 352 351 351 350 349 348 347 346 345 343 340 339 339 338 337 337 336 336 335
324 325 325 325 325 326 328 329 331 333 334 334 336 337 339 339 339 341 343 344 345 345 345 346 347 348 348 350 350 351 350 350 351 351 352 351 351 351 351 352 352 351 351 351 351 351 351 350 349 348 347 345 344 343 340 339 339 338 337 336 336 335 336
324 325 326 326 326 327 328 329 330 332 334 334 335 336 337 339 340 340 342 344 345 346 346 346 348 348 349 349 350 349 350 350 351 352 352 351 351 351 351 352 352 352 352 351 351 351 350 350 349 348 347 345 343 343 341 339 339 339 338 336 336 334 336
324 326 326 327 327 328 328 329 330 331 332 333 334 336 337 338 339 340 341 343 345 346 346 347 348 350 350 350 350 349 350 350 351 351 351 351 351 351 352 352 352 353 352 351 351 351 351 350 348 347 346 345 343 342 341 340 339 339 339 337 336 335 334
323 324 326 328 329 329 329 329 330 330 331 332 333 335 336 338 340 341 342 343 345 345 346 347 348 350 351 351 350 350 350 350 351 351 351 351 352 352 352 352 353 354 352 352 352 351 351 350 349 347 345 344 343 341 341 340 339 338 339 338 337 336 335
323 324 325 326 327 329 329 329 329 330 331 332 333 335 337 338 339 340 342 343 344 345 347 348 349 349 350 351 351 351 350 350 350 350 351 351 352 352 353 353 353 353 353 352 352 351 351 350 349 347 345 344 343 341 340 340 339 338 338 339 339 337 336
321 323 325 326 327 328 328 329 330 331 331 333 334 335 336 338 339 341 342 343 344 345 347 348 349 350 350 351 351 351 351 351 350 350 351 352 352 353 353 354 353 353 353 353 352 352 351 350 348 347 345 345 344 342 340 340 340 339 339 339 339 338 337
322 323 324 325 327 328 328 329 330 331 332 333 334 335 337 338 339 340 342 343 344 346 347 348 349 350 350 350 350 351 351 351 351 351 351 352 352 353 353 353 354 353 353 354 353 352 351 350 348 348 347 345 344 343 342 340 340 339 339 339 338 338 337
329 323 324 325 326 326 327 328 330 331 332 333 334 336 337 339 340 340 341 342 344 346 347 349 349 349 350 350 350 350 351 352 352 353 353 353 353 353 353 354 354 354 354 354 353 353 352 351 349 348 347 346 345 344 343 341 340 339 339 339 339 338 337
321 323 324 324 324 325 326 327 330 331 333 334 335 336 337 339 339 340 342 343 344 346 347 349 349 349 350 350 350 350 351 352 353 354 354 354 353 353 353 353 353 354 354 354 353 354 353 352 351 348 346 346 345 344 343 342 341 340 339 339 338 338 337
321 322 323 323 325 325 326 328 330 332 333 334 335 336 337 338 339 340 341 342 344 346 347 349 349 349 349 350 350 351 352 352 353 353 354 354 353 353 353 353 353 353 353 353 354 353 353 352 351 350 347 345 344 344 343 343 342 336 328 331 339 338 338
321 322 323 324 325 326 326 327 329 331 333 334 335 336 338 339 340 341 341 342 344 345 348 349 349 349 350 350 351 352 352 352 353 353 353 353 353 353 353 353 353 353 353 353 353 353 353 353 351 349 348 346 345 343 343 343 342 330 326 328 331 338 338
320 321 321 322 324 325 326 327 328 330 332 334 336 337 338 339 340 341 341 342 343 345 348 350 350 349 350 351 352 352 352 353 353 353 353 353 353 353 353 353 353 352 352 352 352 352 353 352 351 350 349 348 346 344 343 343 333 326 325 327 327 332 340
319 321 322 323 323 325 326 326 328 330 333 335 336 337 339 340 340 341 342 342 344 346 347 349 350 350 350 351 352 353 353 353 353 353 353 353 353 353 353 353 352 352 351 351 352 352 352 351 351 350 349 348 346 345 344 343 331 325 324 325 325 328 335
318 320 322 324 324 325 326 328 329 331 333 335 337 339 340 341 341 342 343 344 344 344 346 347 349 350 350 351 352 353 353 353 353 352 353 353 353 353 353 352 352 352 352 352 352 351 351 351 351 351 350 349 347 346 345 344 329 323 322 322 323 326 334
324 324 322 321 322 324 326 327 328 330 331 334 336 338 339 340 341 342 343 343 343 344 345 346 347 348 350 351 352 353 354 353 353 353 353 353 353 353 352 352 352 351 352 351 351 350 350 350 350 351 350 350 349 347 346 346 326 320 320 320 320 324 329
322 322 325 325 323 324 325 326 328 330 332 336 337 338 339 339 340 341 341 343 343 343 344 345 345 346 348 349 351 353 354 354 353 353 353 353 353 352 352 352 351 351 351 351 351 351 351 351 351 350 350 350 349 348 346 346 322 319 319 318 318 324 336
335 334 326 322 326 328 329 331 331 331 334 336 336 337 338 339 340 340 340 341 342 342 343 343 343 345 346 348 350 352 354 354 354 353 353 353 352 352 352 351 351 352 352 350 350 349 349 349 350 351 350 350 349 347 347 346 325 318 316 316 317 324 338
338 338 338 339 337 328 330 333 333 334 333 333 334 336 338 338 339 339 339 340 341 342 342 342 342 344 345 347 349 351 353 354 354 353 353 353 352 352 352 353 353 352 352 351 350 349 349 350 350 350 350 349 349 348 347 346 326 314 314 314 316 325 337
337 337 338 338 338 339 339 331 333 335 335 334 334 336 339 341 340 339 338 339 340 341 341 341 342 343 344 345 348 350 352 354 354 354 353 353 353 353 352 352 352 353 353 352 352 351 351 350 350 349 350 350 349 339 344 347 328 313 313 313 315 329 336
335 336 338 338 339 338 337 336 333 336 336 335 336 339 341 342 341 340 339 339 340 340 340 342 343 344 345 345 347 350 352 353 354 354 354 353 353 354 353 354 353 353 353 352 352 351 351 350 350 349 349 349 349 348 346 345 331 320 312 312 314 324 336
336 337 337 338 338 340 338 338 336 333 334 336 338 339 342 343 342 341 341 340 340 340 342 343 345 345 345 345 346 348 351 353 354 354 355 355 354 354 354 354 353 353 353 352 352 352 351 350 349 349 349 348 348 348 345 342 329 321 312 311 314 321 326
335 336 337 338 339 337 338 339 339 340 340 340 342 339 342 343 342 341 341 341 341 342 344 345 345 345 345 345 345 347 349 351 354 355 355 355 355 354 353 354 354 353 353 353 352 351 350 349 348 348 348 346 346 346 344 335 325 326 314 312 314 318 322
332 332 333 334 334 336 338 337 338 339 339 341 342 343 340 344 343 342 342 341 342 345 346 346 346 345 345 345 345 346 348 350 352 353 355 355 355 354 353 353 353 353 353 352 351 350 349 348 347 346 344 341 341 341 340 334 329 321 321 311 312 314 319
332 332 333 334 335 336 338 338 339 339 340 341 342 341 341 340 343 344 343 344 346 346 346 346 346 346 346 345 345 346 347 349 351 353 355 355 354 354 353 353 352 352 352 352 351 349 348 346 344 343 341 339 337 337 336 334 332 321 318 316 311 312 314
330 331 332 333 334 336 337 337 337 338 339 340 341 342 341 339 339 340 342 346 347 345 346 346 346 345 345 345 345 346 347 348 350 352 354 355 355 353 352 352 352 351 352 351 350 349 347 344 341 341 339 337 336 334 333 334 333 329 322 317 313 311 312
331 332 333 334 334 336 336 337 336 336 336 337 338 340 340 340 339 339 343 344 347 348 349 349 347 346 345 345 345 346 347 347 349 352 354 354 355 354 354 352 351 351 351 350 349 348 346 340 339 338 337 336 335 333 333 332 331 327 324 321 316 314 312
331 332 332 332 333 335 334 334 333 333 333 333 335 338 340 339 340 340 340 341 346 350 351 350 349 347 347 346 346 347 348 348 350 351 353 354 355 355 354 353 353 351 349 349 348 346 343 339 337 337 336 335 334 333 332 331 329 326 323 322 320 320 318
331 332 332 333 333 334 333 333 332 332 332 332 333 336 338 339 340 340 339 340 342 346 349 350 350 349 349 349 349 349 350 350 354 353 352 353 354 353 352 352 353 351 349 348 348 344 341 339 337 336 336 335 334 333 331 329 327 325 323 321 321 321 319
331 332 333 332 332 332 331 331 331 332 330 327 330 332 335 337 339 339 338 339 341 342 346 348 346 349 349 350 350 350 350 351 350 351 351 352 347 327 330 350 351 350 345 334 347 347 343 340 339 338 338 336 334 332 329 328 326 326 317 322 316 319 320
330 332 332 334 334 333 331 331 331 331 331 331 330 330 333 335 336 337 339 338 339 339 340 340 343 344 345 346 347 348 348 349 350 350 348 340 327 321 313 308 307 328 339 333 326 323 322 322 335 338 338 336 335 335 332 329 331 316 309 307 307 308 311
328 329 331 333 333 333 333 333 334 333 333 333 334 333 333 334 336 337 338 338 338 338 338 338 339 339 337 337 335 335 335 333 334 339 337 334 330 323 319 318 308 299 307 320 323 320 314 314 315 316 323 333 332 320 311 316 309 305 304 303 304 304 305
328 329 331 332 332 332 333 333 334 333 333 333 333 334 336 337 338 337 339 340 339 338 336 334 333 333 334 333 332 332 330 329 328 328 329 329 331 332 330 325 319 310 299 303 308 306 304 306 308 309 311 316 321 320 317 308 304 303 302 303 302 302 301

ECMWFFLT1_sfc_thetae_054.txt.gz
Theta_e
327 328 329 331 331 332 332 333 334 334 334 335 336 338 340 341 343 343 344 344 345 345 346 347 348 349 349 350 350 351 351 351 351 350 350 350 350 350 350 351 350 351 352 353 354 355 356 358 357 357 356 355 353 350 348 347 344 342 342 343 342 341 340
324 326 328 329 330 331 332 333 333 334 334 335 336 337 339 340 342 342 343 344 345 345 345 346 348 349 349 349 350 351 351 351 351 351 351 350 351 351 352 351 351 351 352 353 355 356 357 357 357 356 355 355 353 351 348 347 344 342 341 341 341 341 340
323 325 327 328 329 330 332 332 333 333 334 334 335 336 337 339 341 342 343 343 344 345 345 346 348 348 349 350 350 350 351 351 350 350 350 349 350 350 351 352 352 352 352 353 355 355 357 356 357 356 355 354 353 351 349 346 345 342 341 341 341 341 340
321 323 325 328 329 331 332 332 333 333 334 334 335 336 337 339 341 342 343 343 343 344 344 345 346 348 349 349 349 350 350 351 351 350 350 350 350 351 350 351 351 352 351 351 354 355 356 356 356 355 356 354 353 351 348 346 345 343 342 341 340 341 340
320 322 324 325 327 329 330 331 332 333 333 334 335 337 337 339 340 341 342 343 343 343 344 345 346 348 349 350 350 350 350 350 350 351 351 351 351 351 350 350 350 351 351 352 353 354 355 355 355 354 354 353 352 350 347 346 345 343 341 341 339 339 340
320 320 322 324 326 327 329 331 332 332 333 333 334 335 336 337 339 340 341 342 343 344 345 345 346 347 347 349 350 350 351 351 351 351 351 351 351 350 350 350 350 350 351 351 352 353 354 354 354 354 353 353 352 349 347 345 344 343 341 340 339 339 339
321 321 321 323 325 326 328 330 331 332 333 334 334 336 337 337 338 339 341 341 342 342 343 344 345 346 347 348 349 350 349 350 351 351 351 351 351 350 350 351 351 351 351 352 351 353 353 353 353 353 353 352 352 350 347 345 344 343 341 340 339 338 338
322 322 322 323 324 326 327 328 330 332 333 334 334 334 335 336 337 338 339 341 342 342 342 343 344 346 347 348 349 349 350 350 351 351 351 351 351 351 351 351 351 351 352 351 351 352 352 353 353 353 352 352 351 350 348 346 344 343 342 340 339 338 338
322 323 323 323 324 325 326 327 329 331 332 333 333 334 334 336 336 337 339 340 342 342 342 343 344 346 347 348 349 349 350 350 350 351 351 350 350 350 351 351 352 352 351 351 351 352 352 352 352 352 352 351 350 350 348 346 345 343 342 340 340 339 338
321 322 323 325 325 325 326 327 328 330 331 332 333 333 334 335 336 337 338 340 341 342 342 343 344 345 347 347 348 349 350 350 350 350 350 350 350 350 351 351 352 353 352 351 352 351 352 353 352 352 351 350 350 349 348 346 345 343 342 341 340 340 339
320 322 324 324 324 325 325 325 326 328 330 332 333 333 334 335 336 336 337 339 340 342 343 344 345 345 346 346 347 348 349 349 350 350 350 350 350 350 351 351 352 352 352 352 351 351 352 352 352 351 350 349 349 348 347 347 345 343 342 342 342 341 340
320 321 322 323 325 325 324 325 327 328 330 331 332 333 334 335 336 336 337 339 340 341 343 344 345 345 345 346 346 347 348 349 349 349 349 350 350 351 351 351 352 352 352 353 352 352 352 351 351 351 350 350 349 349 347 347 346 344 343 342 342 341 340
319 320 322 323 325 326 326 326 326 327 329 330 332 333 334 334 335 336 337 338 340 341 343 344 345 346 346 346 346 346 347 348 349 349 349 350 351 351 352 351 352 352 352 353 352 352 351 351 351 351 351 350 349 348 348 347 346 345 344 343 342 342 340
325 320 322 323 324 325 325 326 327 327 328 330 331 333 334 335 335 336 337 338 339 341 342 344 345 345 346 346 346 347 347 348 349 349 350 351 352 352 352 352 352 352 353 353 352 352 352 351 351 351 351 350 349 349 348 347 345 345 345 344 342 342 341
315 318 320 321 323 325 326 326 327 327 328 329 331 332 333 334 335 337 338 339 340 341 342 344 345 345 345 346 346 347 348 349 350 350 350 351 351 351 351 352 352 353 353 353 353 353 353 353 352 351 350 350 349 349 348 346 345 345 344 343 342 342 341
313 316 319 320 322 324 326 327 328 328 329 329 330 331 332 333 335 336 337 338 339 341 342 344 345 345 345 345 346 348 349 350 350 350 350 350 350 351 352 352 352 352 352 352 353 353 353 353 353 352 350 349 349 348 347 347 346 338 329 333 342 342 341
313 315 317 320 322 324 326 327 328 329 329 330 330 331 332 333 335 336 337 338 339 341 343 344 345 345 345 345 347 348 349 350 350 351 350 350 351 351 351 352 352 352 352 353 353 353 353 353 352 351 351 350 349 348 347 347 346 331 325 328 331 340 341
313 315 317 319 321 323 325 326 327 328 329 330 331 332 332 334 335 336 336 338 339 341 343 344 344 345 345 346 347 348 349 350 350 351 351 351 351 351 352 352 352 352 352 352 352 353 353 352 352 352 352 351 350 349 348 348 336 327 325 326 327 332 342
313 314 317 320 321 324 324 325 327 329 330 331 332 332 333 335 335 336 337 338 340 342 343 343 344 345 346 347 348 348 349 350 350 350 351 351 352 352 352 352 352 352 352 351 353 353 352 352 352 352 352 351 350 349 349 348 334 326 323 325 325 327 336
315 315 317 319 322 323 325 326 328 329 330 332 333 334 335 337 336 337 339 339 341 342 343 343 344 345 346 347 348 348 349 350 350 350 351 352 352 353 352 352 351 352 352 353 353 352 352 352 352 352 352 352 351 350 350 349 333 324 321 322 323 325 332
323 324 322 320 320 323 325 327 328 329 330 331 333 335 336 336 337 339 339 340 341 342 343 344 344 345 346 346 348 349 350 350 350 350 351 352 352 352 352 352 352 352 353 352 352 352 351 352 352 352 352 352 352 351 350 350 328 321 319 320 320 322 327
332 333 332 330 324 322 324 325 327 328 329 334 336 336 337 337 339 339 339 341 341 342 343 344 344 345 346 346 348 349 350 350 350 350 351 351 352 352 352 352 352 352 353 353 353 353 353 353 353 352 352 352 352 351 350 350 323 320 319 318 318 320 335
334 334 335 335 335 329 325 326 328 328 332 333 334 336 337 338 340 340 341 341 341 342 343 344 344 345 346 347 348 349 350 351 350 350 351 351 351 351 351 352 352 353 354 352 352 352 352 352 352 353 352 352 352 351 350 351 326 318 316 317 317 321 338
337 336 337 337 338 338 337 333 331 333 331 332 333 336 337 338 340 340 340 340 341 341 341 342 343 345 346 347 348 349 351 351 351 350 350 351 351 351 352 352 353 353 354 352 352 351 352 352 352 353 353 352 352 351 350 351 327 314 314 315 315 325 339
336 337 337 337 337 337 338 336 333 334 335 333 333 335 338 339 339 339 339 340 340 341 341 341 343 344 346 347 349 350 351 352 352 352 351 351 351 352 352 352 353 354 354 353 353 352 353 352 352 352 353 352 352 341 347 351 327 312 313 314 315 327 341
333 334 335 337 338 339 340 339 336 335 334 335 338 338 338 338 338 338 339 339 340 340 340 342 343 345 346 348 349 351 352 353 353 353 352 352 352 353 353 354 353 354 353 353 353 353 353 352 351 351 351 352 351 351 349 351 333 320 313 313 314 321 342
333 334 334 336 337 339 340 340 340 340 340 340 340 339 338 339 338 337 338 338 339 339 341 343 345 345 346 347 348 350 351 353 353 353 354 354 353 354 353 354 354 354 353 352 353 353 352 351 351 350 351 351 351 352 351 351 335 322 312 312 314 318 328
332 334 335 337 338 338 339 339 340 341 341 341 343 342 341 340 338 338 338 338 338 340 343 344 345 345 345 346 346 348 350 351 353 354 354 355 355 354 353 354 355 354 354 353 352 351 351 351 350 350 350 350 350 351 351 346 327 324 313 313 313 316 322
331 331 333 335 336 338 338 337 338 338 339 340 341 341 341 342 340 340 339 338 339 343 345 345 345 345 345 345 345 346 348 350 351 352 354 354 354 354 353 354 354 354 353 353 352 351 350 350 350 349 349 349 350 350 351 345 328 317 320 313 313 314 318
332 333 334 336 337 337 338 336 337 337 337 338 340 340 340 341 341 341 340 340 345 345 345 347 345 345 345 344 344 345 346 347 349 351 353 354 354 354 353 353 353 353 353 352 351 350 350 350 350 349 348 348 348 348 348 339 329 317 316 318 314 314 315
332 332 333 333 334 336 337 336 335 335 336 336 338 340 339 340 339 340 339 340 343 346 347 346 346 344 343 344 344 345 345 346 348 349 351 353 353 352 352 352 353 352 353 352 351 351 350 350 349 348 348 347 346 346 343 337 329 323 319 316 314 314 314
332 333 333 334 334 334 333 334 334 334 333 333 335 337 339 340 340 338 338 341 342 345 348 348 346 344 344 344 345 345 346 345 346 347 350 351 353 353 353 352 352 351 352 352 351 351 350 349 349 348 348 347 347 344 340 334 329 324 321 319 317 317 315
331 331 331 331 332 333 332 332 331 330 330 330 331 334 337 338 339 339 339 339 341 344 347 349 348 346 345 345 345 346 346 345 345 345 347 349 351 353 353 353 353 352 350 351 351 350 350 349 348 347 347 346 346 343 337 333 330 325 321 321 321 324 322
331 331 331 331 332 332 332 332 331 331 331 331 331 332 335 337 338 339 339 339 341 343 345 345 344 346 347 348 348 346 346 345 347 347 345 347 349 350 352 353 353 352 350 350 351 350 349 349 347 346 346 345 345 339 335 333 330 325 321 320 323 325 325
331 332 333 332 332 333 333 333 333 333 333 333 333 333 335 336 337 338 339 339 339 340 341 340 341 342 342 343 346 347 347 347 346 345 346 346 347 349 351 351 352 352 352 354 354 353 351 350 350 348 348 346 341 336 333 332 328 326 317 322 318 322 325
331 332 332 334 334 334 334 334 334 333 333 334 335 335 336 337 338 338 339 339 339 338 337 337 337 336 335 336 337 337 338 341 345 347 347 346 346 347 348 339 327 339 353 352 339 335 333 333 349 350 347 342 336 334 334 332 332 316 309 309 309 310 313
330 330 331 332 332 332 333 334 335 334 334 334 335 336 337 337 337 337 338 339 338 337 335 336 335 334 333 333 332 332 333 333 333 334 337 342 347 347 345 345 338 312 309 320 332 328 321 318 316 319 326 334 332 326 324 322 311 305 305 305 306 306 307
330 330 331 331 331 331 331 332 332 332 333 334 335 335 336 336 337 337 338 338 337 337 335 335 335 332 332 331 331 331 331 331 331 331 331 332 336 339 342 341 339 334 312 307 312 315 310 309 310 312 314 317 323 325 323 308 304 303 302 303 303 304 304

ECMWFFLT1_sfc_thetae_057.txt.gz
Theta_e
337 337 338 339 340 340 341 343 344 343 345 346 347 347 347 349 351 354 353 355 355 356 358 358 358 358 358 358 359 360 360 360 360 359 358 359 360 360 360 360 360 361 361 361 363 364 367 368 368 368 368 367 366 365 364 365 362 360 358 357 355 354 354
335 335 337 338 339 340 342 344 345 344 344 345 346 348 347 349 352 352 352 355 356 356 357 357 358 358 358 359 360 361 360 360 360 360 360 360 361 362 362 362 361 362 363 363 364 367 368 368 368 368 367 367 366 367 364 364 362 360 357 356 354 353 354
334 335 336 338 338 339 342 343 345 344 344 344 345 346 347 350 352 352 353 353 355 356 357 357 358 358 358 359 360 360 360 360 360 359 359 357 358 357 360 362 362 361 362 364 365 366 368 367 368 368 368 366 365 365 365 364 362 360 358 357 354 353 353
333 334 336 338 340 341 343 343 343 343 344 344 344 345 347 351 352 354 354 353 354 355 355 357 357 357 358 359 359 359 360 361 361 359 358 358 358 359 360 361 362 361 361 362 363 364 365 366 367 367 367 367 367 367 365 363 362 360 358 357 354 354 354
333 334 335 336 338 340 340 341 342 343 343 343 344 347 349 350 350 352 353 353 353 354 355 356 356 358 359 359 358 359 359 360 360 360 360 360 361 361 360 359 359 360 360 362 364 364 365 366 365 366 366 366 366 366 365 364 362 361 358 357 355 354 353
329 332 334 335 336 337 339 340 341 342 342 342 343 345 345 346 348 348 349 352 352 353 356 357 356 357 357 358 358 358 360 361 362 362 361 361 361 360 359 359 359 359 359 361 362 362 364 364 364 364 364 364 364 364 364 363 362 360 359 357 355 354 352
329 331 333 333 335 336 338 339 340 341 342 343 343 345 345 344 345 347 348 350 351 352 353 353 355 356 357 358 358 359 359 359 360 361 360 360 361 360 359 360 360 360 360 363 361 362 362 363 363 364 364 363 364 363 364 363 361 360 359 357 355 355 354
332 330 333 334 335 335 337 339 340 341 342 343 342 342 343 343 344 345 347 348 349 350 351 351 353 355 356 358 358 358 358 358 359 360 360 359 359 359 359 360 360 361 362 361 362 362 361 363 363 364 364 363 364 364 364 363 363 360 359 357 355 354 353
333 335 332 331 333 334 335 338 340 340 343 343 342 343 342 343 343 344 346 347 348 349 350 350 352 355 357 357 357 358 358 358 359 359 359 358 358 357 357 358 360 361 360 360 359 362 361 362 362 364 364 364 364 365 364 364 362 361 358 357 355 354 352
333 335 336 333 333 333 336 338 341 344 345 344 344 346 343 343 344 344 345 346 347 348 349 350 351 353 356 356 356 358 358 358 359 358 357 356 357 356 357 357 358 360 360 359 359 359 362 362 363 364 364 363 363 364 364 363 362 360 359 358 356 355 353
332 337 338 335 334 335 336 335 339 341 343 344 344 344 344 344 343 343 344 345 345 347 349 350 352 352 353 354 354 355 357 357 357 357 356 356 356 356 356 356 357 358 358 358 358 359 361 361 363 363 363 361 362 363 363 363 362 360 358 357 357 356 354
333 335 339 339 339 338 335 337 339 341 343 344 345 344 344 345 344 343 344 345 346 346 348 349 350 351 352 352 352 354 355 357 357 356 356 356 356 356 356 357 358 357 358 358 357 358 358 360 360 361 362 362 362 363 363 363 363 361 359 357 356 355 354
330 335 338 336 340 339 340 342 340 340 342 343 343 345 344 343 343 343 346 346 346 347 348 350 350 352 352 352 351 354 355 356 357 357 356 357 357 357 357 357 357 357 357 358 357 357 357 358 360 361 361 362 361 361 362 363 362 361 360 358 357 356 354
331 330 334 338 339 340 340 338 339 340 342 344 343 345 344 344 344 345 346 345 345 346 347 349 351 352 352 351 352 355 356 356 358 358 358 357 359 359 358 357 358 358 359 359 358 357 357 357 358 360 360 361 361 361 362 362 362 361 360 359 357 355 354
325 327 333 333 338 342 341 340 341 340 342 343 343 344 344 343 344 346 347 347 348 346 348 351 352 352 352 352 352 356 358 359 359 359 359 358 359 359 359 358 359 360 359 360 358 358 358 358 358 359 359 360 361 361 361 360 360 360 359 358 357 356 354
321 323 326 332 336 337 342 342 342 343 342 342 343 344 343 344 345 345 345 345 346 347 347 352 354 353 352 352 354 357 357 358 359 359 360 359 359 360 359 358 359 358 359 359 359 359 359 360 359 359 359 359 360 361 360 359 360 347 335 339 355 356 355
326 327 326 332 337 338 341 343 343 344 344 343 342 344 343 343 346 345 343 344 344 347 348 350 351 353 352 353 356 356 358 358 358 359 358 358 359 359 359 359 359 359 359 359 359 359 360 360 359 358 359 359 359 359 359 359 357 334 329 331 335 351 355
325 329 330 329 332 335 338 339 341 342 342 340 342 344 345 344 346 345 343 344 345 345 347 349 351 351 354 354 355 357 357 357 358 358 357 358 358 359 359 359 359 359 359 359 359 360 360 359 359 360 359 358 358 358 358 359 340 329 327 329 329 335 354
329 329 330 331 331 334 333 335 338 342 341 341 342 342 343 345 344 346 346 347 347 349 347 348 348 352 354 356 356 357 357 358 358 357 357 358 358 359 360 359 359 359 359 358 360 360 360 360 359 359 360 359 359 357 358 359 337 328 325 326 327 328 340
334 336 336 335 332 330 333 337 337 339 341 344 342 340 342 345 345 347 348 347 351 349 349 349 349 351 353 356 356 357 358 358 357 357 357 358 358 359 359 358 358 358 358 358 359 359 359 359 359 360 360 359 358 357 359 359 335 326 323 323 323 326 333
343 343 344 344 343 340 337 339 341 342 343 341 340 342 343 344 344 347 347 349 349 350 350 351 351 351 354 355 357 358 357 358 358 358 358 359 359 359 358 357 358 358 357 357 358 359 359 358 358 359 358 358 358 357 356 358 329 323 321 320 320 322 326
341 341 342 344 344 345 347 342 339 339 341 343 342 341 342 342 343 343 344 347 347 349 352 353 353 353 355 355 356 356 358 357 358 358 359 359 358 358 357 358 358 358 359 358 358 360 360 360 359 359 359 358 358 356 356 356 326 322 320 319 319 321 338
339 341 340 341 342 344 347 349 345 340 344 345 343 342 342 343 343 343 344 344 345 350 348 350 352 353 355 354 355 355 356 357 357 357 358 358 358 357 357 357 358 359 360 358 358 358 358 359 358 360 359 357 357 357 356 357 333 319 317 317 317 322 344
340 340 340 340 342 344 348 350 349 343 341 342 343 343 345 345 344 347 348 345 346 345 346 349 351 354 355 354 355 356 357 358 358 357 357 358 357 357 357 358 360 360 360 358 357 355 357 358 359 360 360 357 357 357 357 357 336 315 315 316 315 326 345
339 339 341 341 341 342 344 348 348 342 342 344 343 347 351 348 345 345 347 348 344 345 347 350 353 353 353 354 356 357 357 358 358 358 357 357 357 357 358 358 359 360 361 358 358 358 359 359 358 359 360 360 358 344 353 358 339 314 316 315 314 328 348
338 338 340 342 343 344 346 350 353 351 347 347 353 350 352 348 347 346 349 348 347 347 350 352 351 355 358 357 359 359 359 358 359 359 357 357 358 358 358 360 359 360 359 358 358 358 358 358 358 358 359 359 358 358 357 357 354 329 315 314 313 320 347
338 338 339 341 342 345 346 347 346 345 346 349 352 351 349 348 350 351 352 353 351 351 352 356 357 357 357 359 357 358 358 358 358 357 357 358 359 359 359 360 359 359 359 357 357 358 357 357 358 357 358 359 358 358 358 357 357 336 314 313 313 316 330
338 339 341 342 342 343 344 344 344 344 344 346 349 351 351 352 353 352 354 353 352 354 355 356 358 358 358 357 357 356 356 357 359 360 359 360 361 360 359 360 360 360 361 359 359 358 357 357 358 357 356 357 358 359 358 351 341 345 316 314 312 314 320
337 337 339 341 341 341 342 341 340 340 342 345 347 351 353 350 352 352 352 355 355 357 356 355 356 358 358 358 358 358 358 360 360 359 360 361 362 361 359 361 361 361 362 360 359 358 357 357 357 357 356 356 358 357 358 361 352 327 327 314 312 312 316
337 338 339 340 341 341 341 340 339 339 341 343 346 349 353 356 353 353 351 348 351 356 361 360 354 357 357 357 357 357 358 359 359 360 361 362 362 361 360 360 360 360 361 360 359 357 355 356 356 355 354 353 354 357 356 357 356 326 320 321 312 312 314
336 337 338 339 339 341 340 338 338 338 339 342 343 345 348 351 349 347 346 346 352 356 360 361 359 355 354 354 355 357 356 357 358 359 361 361 362 360 360 361 362 359 361 360 358 357 355 355 355 355 353 353 353 355 356 357 351 335 323 317 313 313 313
335 336 337 338 339 339 339 340 339 338 338 339 342 343 344 345 346 343 343 349 352 355 357 360 360 358 355 355 355 355 355 355 355 357 359 360 361 361 362 361 360 358 360 359 357 356 356 355 354 353 354 353 354 354 356 361 349 339 331 321 317 316 314
333 335 336 336 338 339 339 339 338 337 337 337 340 342 342 343 343 344 345 347 350 354 357 358 359 358 358 358 356 356 355 355 352 353 356 359 359 360 360 360 360 360 358 358 357 356 355 354 354 354 353 352 353 356 358 354 346 340 334 329 327 327 324
333 334 336 337 338 338 339 339 338 337 337 337 339 341 342 342 342 343 344 345 347 350 351 351 352 353 355 356 358 358 358 357 352 351 353 354 355 354 356 358 359 358 357 357 357 356 355 355 353 353 353 353 353 356 353 349 342 337 335 331 331 330 332
334 335 336 336 337 338 338 338 337 337 337 337 339 341 341 341 342 343 343 344 347 348 347 346 348 349 350 352 352 351 352 355 356 356 355 355 357 356 356 354 354 356 357 360 361 361 358 356 355 355 356 355 354 355 354 346 340 339 327 332 324 329 337
334 334 336 337 338 337 337 337 337 337 337 337 339 339 339 340 340 341 342 343 344 345 345 346 346 346 345 345 345 345 347 348 349 350 349 350 350 351 352 344 327 339 353 355 338 329 327 329 354 359 359 357 359 360 355 349 345 328 315 314 314 316 319
333 333 334 336 335 335 335 337 338 337 337 337 339 339 340 340 341 341 342 342 343 343 343 343 342 341 340 339 338 336 339 339 339 340 342 342 343 345 344 346 349 320 313 318 323 323 316 311 313 320 329 350 357 352 334 334 326 312 310 310 310 311 311
332 333 333 334 334 334 334 335 335 335 335 337 338 338 339 339 340 341 341 343 343 343 342 342 341 339 339 339 339 338 339 340 339 339 340 340 342 343 342 342 342 345 325 315 315 314 310 308 307 306 307 314 329 343 346 323 309 308 309 308 309 309 308

ECMWFFLT1_sfc_thetae_060.txt.gz
Theta_e
341 342 345 347 348 348 349 351 354 353 354 356 358 357 357 358 360 361 362 363 364 365 366 366 366 366 365 364 365 366 366 366 366 365 365 364 364 364 364 364 364 365 361 360 365 364 368 369 367 368 370 371 370 369 371 370 369 368 368 368 366 365 364
337 340 343 345 347 348 350 352 354 353 354 356 357 359 357 358 359 360 361 364 365 365 366 366 366 365 365 365 366 366 366 366 366 366 366 365 366 365 366 367 365 365 365 363 362 367 368 370 369 369 370 372 371 372 371 371 370 370 367 367 365 364 363
337 339 342 344 346 348 350 352 354 353 355 355 356 357 357 359 360 361 361 362 364 365 366 366 366 365 365 365 366 366 367 367 367 366 365 363 365 363 366 367 367 364 365 366 365 366 370 371 372 371 371 371 370 371 371 371 371 369 369 368 366 364 365
338 339 342 345 347 350 351 352 353 353 354 355 355 356 358 360 361 361 361 362 363 364 364 365 365 364 364 365 366 367 367 367 367 366 365 365 365 366 365 366 367 365 365 365 365 365 368 371 372 373 371 371 371 370 371 370 368 369 368 368 365 365 366
338 340 341 343 345 348 349 350 351 353 353 353 355 358 359 359 359 360 361 362 362 363 363 364 364 365 366 367 366 366 367 368 368 367 367 366 367 367 366 365 365 365 364 365 367 368 369 371 371 372 372 372 371 370 370 372 369 369 368 367 365 364 363
334 339 341 342 344 345 348 349 350 351 352 352 354 356 357 357 357 357 358 361 361 363 365 365 365 365 365 365 366 365 368 369 370 369 368 368 367 365 366 365 365 366 364 365 366 366 369 369 369 370 370 370 368 366 369 370 369 368 368 367 367 365 363
332 339 341 342 343 344 347 349 349 351 352 352 353 356 356 355 356 356 357 359 359 360 361 362 363 364 365 365 366 367 367 368 369 368 368 368 368 367 367 367 367 366 366 367 366 367 367 368 368 369 369 368 369 366 367 370 369 370 370 368 367 366 366
331 338 343 343 343 344 346 348 349 349 351 352 351 352 353 353 354 355 356 356 357 358 359 359 362 364 365 366 366 366 366 367 368 368 368 367 367 367 366 367 367 368 368 366 368 369 366 369 369 369 368 368 369 370 368 370 372 369 369 369 367 366 365
331 341 342 342 343 342 344 348 349 349 351 352 351 352 352 353 353 354 355 355 356 356 357 358 360 363 366 365 365 366 367 367 367 368 368 366 366 365 365 366 368 369 367 366 365 369 368 368 368 370 371 369 369 371 370 371 372 370 369 368 368 367 365
331 344 344 342 343 341 344 345 349 351 351 352 352 353 352 351 353 353 353 353 354 354 355 357 359 361 364 365 365 366 366 367 366 366 365 364 365 365 365 364 366 368 367 367 365 366 369 369 369 370 371 369 370 370 371 371 371 371 369 369 368 367 367
341 345 344 340 340 342 343 343 347 351 352 355 354 351 353 352 352 351 352 353 353 354 355 357 359 359 362 364 362 363 365 365 366 364 365 364 364 364 364 364 364 366 366 366 365 364 368 369 370 370 371 369 369 370 370 370 371 370 368 368 368 368 366
343 341 344 343 342 342 341 346 349 352 353 355 353 351 354 354 352 351 352 353 353 354 355 356 358 358 360 361 361 362 364 365 366 365 364 363 363 363 363 363 364 364 365 366 365 365 364 368 368 368 370 371 370 371 371 372 371 371 369 368 368 367 366
334 336 341 342 345 344 347 348 348 352 355 353 351 352 352 351 351 351 353 353 353 354 355 357 358 359 360 361 361 361 363 364 364 364 362 364 363 363 363 362 362 362 363 365 365 364 362 363 367 368 369 370 370 369 370 371 371 371 371 369 368 368 366
342 335 341 345 347 347 348 350 351 353 355 354 352 353 352 351 350 351 352 352 353 353 354 355 357 358 358 360 361 362 363 365 366 365 365 364 366 365 364 363 363 364 365 365 364 363 363 361 363 367 368 369 370 370 370 371 370 371 371 370 368 367 367
333 334 340 341 347 351 351 351 353 352 352 352 351 351 351 350 351 353 354 353 354 352 353 356 357 358 358 360 361 363 365 366 367 367 366 365 366 366 365 365 365 365 364 365 365 364 363 363 362 365 367 368 369 370 369 368 369 370 370 368 367 367 366
327 328 330 335 343 347 353 354 355 356 353 353 350 351 350 351 352 351 352 352 352 353 354 356 358 358 358 359 361 363 366 366 367 367 367 365 365 366 366 364 365 364 364 364 364 365 366 365 364 363 365 366 368 368 368 367 368 356 341 346 365 366 365
323 326 328 331 339 343 347 352 354 357 354 354 352 352 352 353 353 352 350 351 351 353 354 354 358 359 359 360 363 364 367 367 367 368 367 366 366 367 366 365 365 365 366 365 366 366 367 365 364 362 363 365 366 367 367 367 365 339 334 336 340 359 366
324 328 332 332 336 341 345 349 353 355 354 352 353 354 354 355 353 352 349 350 351 351 352 354 356 358 360 362 364 365 367 367 368 367 367 367 366 366 367 366 365 365 366 365 365 366 366 365 364 365 364 364 365 365 366 367 347 332 331 333 334 341 364
327 326 329 345 345 346 343 342 346 355 353 351 350 351 353 354 352 353 352 353 354 354 352 352 354 360 363 363 365 366 367 368 367 367 366 367 367 366 367 367 366 365 365 364 366 367 366 366 365 365 365 364 365 365 366 367 341 330 328 331 331 333 347
323 324 328 333 346 344 346 348 347 346 349 353 351 348 352 356 352 354 354 352 354 354 355 355 356 361 362 363 365 366 366 367 367 366 366 367 367 367 367 366 365 365 364 365 366 365 366 365 365 366 366 365 365 366 366 367 338 327 325 327 327 330 338
324 327 344 347 352 349 354 355 355 354 350 348 349 350 349 351 352 353 353 352 351 353 356 355 356 360 363 363 364 365 366 367 366 365 366 367 367 366 366 365 366 365 364 363 364 365 365 365 365 365 366 365 364 365 365 366 332 324 322 323 323 326 331
327 332 339 347 357 361 360 359 360 357 353 351 348 348 348 349 350 349 351 352 350 352 354 356 358 358 363 363 362 364 365 364 365 364 365 365 365 365 364 364 365 365 365 364 363 365 365 366 366 365 365 366 366 363 364 365 327 321 321 321 321 323 346
338 349 351 355 353 354 359 360 359 360 360 354 350 347 347 348 349 349 351 351 350 354 353 355 358 358 363 362 362 362 363 363 363 363 364 364 364 364 363 364 365 365 367 364 362 363 364 365 365 366 365 365 366 365 365 366 338 319 318 319 319 325 352
346 349 349 351 355 354 357 359 360 361 359 353 351 349 348 348 350 351 351 351 350 352 352 352 357 360 362 362 361 361 363 364 364 364 363 364 363 363 363 364 365 365 366 364 363 360 362 365 365 366 366 364 365 364 365 365 341 315 316 317 316 329 353
346 348 351 351 352 352 355 358 359 358 358 355 349 350 351 351 350 348 349 351 349 351 352 353 357 359 360 362 362 363 363 365 365 364 363 363 363 363 363 363 364 365 366 364 364 363 364 363 364 365 366 365 365 348 358 364 341 314 317 315 315 331 355
350 349 350 351 352 354 357 357 361 352 350 348 351 353 353 350 349 350 351 351 350 350 352 356 359 363 363 362 362 363 364 364 365 366 364 365 365 365 364 366 364 364 363 364 364 363 362 361 362 364 364 364 363 362 362 362 363 336 314 315 314 320 353
349 348 349 350 350 351 355 355 355 355 356 360 360 357 354 351 351 351 353 355 353 352 355 359 362 365 365 364 362 361 363 364 364 364 363 364 365 365 364 364 363 363 363 362 363 364 363 361 362 362 363 364 364 363 361 360 361 351 312 314 313 316 330
347 348 348 348 348 350 353 352 355 354 354 357 357 355 354 354 353 353 356 356 354 356 357 362 365 366 365 364 362 360 362 363 365 366 365 365 365 366 365 365 366 365 365 364 364 364 363 364 363 362 362 363 363 363 363 355 342 365 317 315 312 315 319
348 349 349 348 348 348 350 352 351 351 354 357 358 357 360 358 356 357 358 356 359 360 363 365 363 363 363 364 362 363 364 365 365 364 364 363 365 365 365 366 365 366 366 366 365 364 363 363 362 361 360 360 361 360 362 364 361 334 336 314 313 312 316
347 349 349 349 349 349 349 350 350 350 353 356 363 361 358 361 360 362 364 363 365 364 362 363 363 363 362 361 361 360 360 361 362 364 364 364 364 365 366 366 367 366 365 365 363 362 360 358 360 360 358 357 355 357 359 363 362 340 327 326 312 313 313
346 347 348 348 347 350 350 349 349 349 350 353 358 361 362 362 359 359 358 360 363 364 361 361 361 361 360 360 361 362 361 361 362 362 363 364 364 364 364 366 366 363 364 364 362 361 359 358 359 357 357 356 356 358 359 360 362 363 340 319 315 313 312
345 347 348 348 348 349 350 350 350 350 349 350 351 353 355 357 358 356 357 360 362 364 365 363 360 359 359 360 361 361 362 361 362 363 365 366 365 366 366 366 363 362 361 360 358 358 358 357 357 356 357 357 358 357 359 361 361 363 362 327 320 317 314
344 345 346 345 346 348 349 349 348 347 347 347 350 351 351 352 353 355 358 360 361 364 365 366 364 362 362 361 360 362 361 360 359 360 361 365 364 364 363 362 361 361 359 359 358 359 358 357 357 356 355 356 357 358 359 361 360 361 364 347 337 332 328
342 343 344 346 347 349 348 347 346 346 345 345 347 349 349 350 350 352 354 356 360 362 364 364 364 363 363 362 362 360 361 360 356 359 360 360 361 360 360 359 360 359 359 358 359 358 357 358 356 355 356 355 356 357 357 359 360 360 363 352 345 340 338
341 342 343 344 346 346 345 344 344 344 343 343 345 346 347 347 348 349 351 353 356 359 358 357 357 360 361 362 361 361 363 364 363 359 359 359 361 360 362 361 360 362 361 361 362 362 360 359 358 358 359 359 358 357 356 357 357 360 340 356 330 340 343
341 341 342 343 344 344 344 344 344 343 343 343 344 344 344 345 346 348 349 351 353 354 353 353 353 353 352 353 353 354 354 356 355 356 357 357 357 359 360 347 326 339 356 360 342 327 316 315 343 350 348 348 354 359 358 359 360 328 320 318 318 318 321
339 339 340 342 342 341 342 342 342 342 342 343 344 343 344 343 345 346 348 350 351 350 350 351 349 347 347 346 346 345 349 349 351 352 352 351 350 349 346 345 345 318 310 317 315 309 303 301 300 302 306 325 336 336 322 318 314 312 313 309 310 312 314
338 340 340 341 341 340 340 340 341 341 341 343 343 343 344 343 344 345 346 348 349 349 348 349 348 345 344 345 345 345 347 347 348 347 345 345 347 347 346 344 345 349 327 312 317 312 304 302 302 301 301 302 308 317 333 323 313 309 308 310 309 309 310

ECMWFFLT1_sfc_thetae_063.txt.gz
Theta_e
334 340 342 345 349 350 352 353 355 354 356 358 358 357 357 359 361 363 364 365 366 367 367 366 365 365 364 363 365 366 365 367 367 365 363 362 362 363 364 365 364 365 360 360 364 363 366 367 365 366 367 369 370 370 371 371 370 369 370 370 367 364 363
333 332 333 341 346 350 353 356 357 356 356 358 359 358 358 359 360 362 364 367 367 368 368 367 367 366 366 365 365 366 366 368 368 367 365 363 365 364 365 367 366 366 364 362 361 367 367 367 366 366 365 368 369 372 370 371 371 371 369 370 368 365 364
332 333 337 340 342 349 353 355 357 356 357 358 360 359 358 361 362 363 364 366 368 369 369 369 368 367 367 366 366 367 368 368 367 365 363 361 363 361 364 366 366 363 364 363 362 362 367 368 370 368 366 366 367 370 370 371 371 370 369 370 369 365 365
330 333 335 334 341 352 353 355 357 357 357 359 360 360 360 362 363 364 365 367 368 368 368 369 369 368 369 369 368 368 369 368 367 365 363 362 362 364 363 364 366 365 363 364 360 359 361 366 367 370 370 368 368 368 368 368 367 369 369 370 367 366 366
333 333 334 337 341 350 351 353 356 358 357 358 361 363 362 362 362 363 365 367 367 367 368 368 368 368 368 369 367 367 367 368 367 366 366 363 364 366 365 362 363 364 363 363 365 363 364 365 366 369 369 369 369 368 368 368 367 369 370 370 367 364 364
328 333 333 334 341 347 351 352 355 356 357 357 359 362 362 361 362 361 364 366 366 367 369 369 368 369 368 368 367 366 369 370 370 368 367 366 365 363 364 363 362 364 362 362 363 362 363 362 365 367 366 366 366 363 363 365 366 366 370 369 368 364 362
328 334 336 338 341 346 349 352 353 356 357 357 359 362 362 361 361 361 362 364 364 365 366 366 367 368 368 368 368 368 369 368 369 368 367 367 366 365 365 366 366 363 365 366 364 364 363 364 365 367 367 365 366 362 363 367 366 366 367 369 368 366 365
331 334 339 340 340 344 348 352 353 355 357 358 358 359 360 360 360 360 360 362 362 363 363 364 365 368 369 368 367 366 368 368 369 370 368 367 365 365 365 366 367 366 367 365 366 366 363 366 366 366 367 366 367 367 364 367 368 364 366 367 367 365 364
330 334 336 337 340 340 343 351 353 354 356 357 357 358 359 360 359 359 359 360 361 360 362 362 363 366 369 367 366 367 368 368 369 370 369 367 365 365 363 365 368 369 367 365 365 368 366 365 367 369 368 368 368 369 367 368 367 367 366 367 368 365 363
331 333 337 338 340 339 341 345 354 357 357 358 358 359 359 359 360 359 358 359 359 358 360 360 362 364 368 368 367 368 368 369 368 368 367 365 365 364 363 363 365 368 368 367 365 365 369 367 368 370 371 367 368 369 369 368 366 367 366 367 368 367 365
332 338 338 337 341 342 343 345 353 359 359 362 361 356 359 359 359 358 358 359 358 358 359 360 360 363 366 366 365 365 366 367 367 367 365 364 363 362 362 362 362 365 367 367 365 363 367 369 369 370 371 368 367 368 369 369 368 369 367 367 369 369 367
348 349 350 347 347 346 346 355 360 362 363 364 358 355 361 362 358 358 358 358 359 358 359 359 357 361 364 364 363 365 366 368 367 365 365 363 361 361 360 360 361 362 366 367 366 363 362 368 368 368 370 371 369 369 370 372 371 371 369 366 367 368 368
340 342 348 343 346 346 353 358 358 360 362 357 356 356 357 357 357 357 359 359 358 359 359 360 359 362 363 364 362 364 366 368 367 365 363 364 362 361 360 359 359 359 361 366 366 364 360 362 368 369 370 372 371 369 370 371 371 371 371 369 368 369 369
340 330 336 345 347 348 348 351 354 358 360 357 355 357 356 356 356 358 359 358 358 358 358 359 360 361 363 365 364 366 367 369 369 367 367 365 368 365 362 361 360 362 361 364 366 364 362 359 364 368 369 371 371 371 372 372 371 372 373 372 369 368 369
327 325 340 345 350 351 351 350 354 356 357 356 354 355 356 355 356 360 361 359 361 357 357 361 362 363 363 365 366 368 370 371 371 370 369 366 369 367 365 363 364 364 364 365 365 366 364 363 359 366 369 370 372 372 371 370 371 371 372 372 371 369 367
323 327 333 336 345 351 356 355 356 357 358 360 357 358 355 356 359 357 356 357 358 359 359 362 365 365 364 364 367 370 372 372 373 372 371 368 369 371 367 363 364 362 362 363 364 367 368 368 364 362 366 369 371 372 371 370 372 360 344 350 371 370 368
325 326 327 333 344 344 351 353 357 359 359 361 360 358 357 358 358 356 355 356 355 358 359 359 367 365 364 366 370 371 373 373 373 373 373 371 369 371 371 367 365 366 368 368 366 368 372 368 365 362 362 366 369 370 370 371 369 343 336 339 344 365 369
324 327 327 329 333 343 347 350 353 359 359 358 359 359 358 361 357 356 354 355 355 356 357 358 361 362 367 369 371 372 373 372 373 373 373 372 371 372 372 369 368 369 370 367 366 371 368 367 367 368 364 362 367 369 370 371 351 335 334 336 337 344 370
323 324 326 332 337 341 339 338 342 357 357 358 357 357 357 358 356 357 357 358 358 358 356 356 357 363 368 368 369 372 373 374 374 373 373 373 372 372 372 372 369 367 367 366 369 369 370 371 368 368 367 365 367 367 369 370 344 332 332 334 334 335 350
324 325 327 329 330 335 344 348 345 341 353 360 359 356 356 358 356 358 357 355 358 358 360 361 359 364 365 368 369 371 373 374 373 373 373 374 373 372 372 371 370 367 366 367 369 369 369 368 369 369 370 368 367 369 369 371 343 329 328 330 330 333 342
325 326 328 329 331 331 342 356 358 353 349 349 352 356 356 355 355 358 358 357 356 357 363 361 362 366 366 366 369 371 372 373 373 373 373 374 373 372 371 370 371 369 367 366 367 368 369 368 368 369 370 368 366 365 365 369 337 325 325 326 326 329 333
324 325 326 332 354 367 364 355 358 355 357 354 350 351 353 355 356 355 356 356 354 356 358 362 364 364 366 367 368 369 372 372 372 372 373 372 372 371 370 370 371 370 369 367 366 368 369 370 369 368 368 368 367 364 365 366 330 323 323 324 324 326 349
327 330 329 350 352 356 368 366 362 361 367 364 357 350 350 351 355 356 355 354 352 355 355 357 360 360 366 366 367 368 371 371 371 371 371 371 370 370 369 370 371 371 371 367 365 365 366 368 368 370 368 368 368 367 366 366 339 320 320 322 322 328 356
328 329 329 342 360 355 361 361 362 366 364 362 363 357 353 352 354 357 357 355 353 353 354 354 357 362 366 367 368 369 370 371 371 371 370 371 369 369 369 369 370 370 370 367 365 362 364 367 368 369 369 367 367 366 367 367 345 316 318 319 319 332 358
329 329 344 357 355 353 357 365 366 365 365 366 363 361 358 355 353 354 355 356 353 353 355 357 359 361 362 367 370 369 369 370 371 370 369 370 369 369 369 368 369 370 370 368 367 365 365 365 366 367 369 368 367 354 362 367 346 315 318 317 317 332 360
341 352 354 356 354 358 363 365 361 364 360 355 363 363 359 353 352 355 355 355 353 352 354 359 362 365 366 368 370 371 370 370 372 372 370 369 369 369 369 369 369 369 368 368 367 365 365 363 364 365 367 368 368 367 366 366 369 337 315 315 316 320 357
357 357 355 353 358 356 359 362 362 361 365 368 364 359 357 353 354 359 360 361 359 357 357 362 365 367 368 368 368 368 369 369 370 369 368 369 368 368 367 368 367 367 368 366 366 366 366 365 364 363 364 365 367 368 368 367 367 356 313 315 314 317 331
350 351 352 356 353 355 360 357 361 358 356 363 365 365 358 358 359 359 360 359 358 361 360 364 366 367 369 369 368 366 367 367 370 370 368 369 370 369 368 369 370 368 368 367 367 368 366 368 366 364 363 364 364 366 368 362 345 372 319 315 313 315 318
352 352 354 354 357 356 355 358 357 357 360 360 360 360 362 360 358 358 359 358 360 361 363 364 364 367 369 369 367 367 367 368 368 368 368 368 370 370 368 369 369 369 370 369 367 367 366 366 366 364 361 361 362 363 365 369 366 337 341 314 313 312 314
355 355 355 353 355 355 356 358 357 358 361 364 362 361 362 361 358 358 358 360 364 363 363 366 367 370 368 368 366 365 365 366 366 368 369 369 370 369 370 369 369 369 368 369 366 364 363 363 362 362 359 359 358 360 361 368 368 344 330 328 311 312 312
352 354 354 353 353 355 356 356 356 357 359 363 366 364 364 363 360 360 362 367 369 366 366 367 368 368 367 366 365 365 363 364 367 368 369 369 369 368 367 369 368 366 368 368 364 362 360 360 360 361 360 359 358 360 361 360 363 363 349 323 315 312 311
353 354 353 352 353 353 354 354 354 354 354 357 360 362 364 366 367 364 363 366 367 367 367 367 366 364 364 364 365 364 363 364 365 367 367 366 366 367 367 367 365 363 365 363 362 363 362 360 358 357 358 358 359 361 362 369 366 367 370 332 321 316 313
351 351 351 352 352 352 353 352 351 351 351 351 355 358 360 363 364 364 364 365 366 368 367 365 364 362 363 363 362 363 363 361 358 359 364 367 365 365 365 363 363 364 362 362 360 361 359 360 359 358 357 356 357 357 360 363 362 363 362 369 350 340 331
348 349 351 350 350 353 353 352 351 351 351 350 353 355 356 357 358 361 363 365 366 368 368 366 363 361 363 363 364 363 364 363 364 364 363 364 363 361 362 362 363 362 361 360 361 359 358 359 357 356 357 356 358 357 357 358 360 361 359 348 346 349 350
347 347 348 349 351 351 351 350 349 350 350 350 353 354 354 355 358 360 362 364 367 369 366 364 363 366 365 365 364 364 364 364 363 362 361 361 363 366 364 363 362 374 364 348 341 346 352 360 361 359 355 351 351 352 352 354 355 355 319 325 313 323 333
345 346 347 349 350 350 350 349 349 348 348 348 350 351 351 352 353 356 359 362 363 364 363 364 364 363 362 363 361 361 360 362 360 362 360 359 359 360 345 329 317 337 352 341 318 309 310 318 339 335 338 342 346 349 342 339 339 318 306 303 302 301 303
344 345 345 346 347 347 347 346 346 346 347 347 348 348 349 350 351 352 354 357 358 358 358 357 354 354 355 354 355 353 358 358 359 361 360 360 357 355 347 344 343 304 309 319 317 305 299 299 300 304 310 328 338 337 324 318 310 303 303 301 301 301 300
345 345 345 346 345 344 344 345 345 345 345 346 346 346 346 346 348 351 352 353 353 355 354 352 351 349 348 348 352 353 353 353 353 353 352 352 353 350 343 340 340 346 317 306 313 310 302 299 299 299 301 304 313 322 336 322 312 307 304 303 302 302 301

ECMWFFLT1_sfc_thetae_066.txt.gz
Theta_e
335 337 340 340 342 343 344 346 345 345 347 351 353 354 354 354 356 358 358 358 358 359 360 362 362 361 361 361 362 362 363 364 364 363 364 364 363 363 364 364 362 362 361 362 363 364 367 367 366 364 368 371 369 370 371 371 372 371 371 371 368 365 364
333 333 334 339 340 341 343 346 346 345 347 352 354 356 355 356 358 358 359 360 360 360 360 362 363 362 362 362 362 363 363 364 365 365 365 365 364 365 366 366 365 365 366 364 366 367 369 367 367 366 367 369 369 370 370 370 371 370 369 370 368 366 365
333 335 338 336 339 340 343 344 346 347 348 352 355 355 355 357 359 359 360 360 361 361 361 362 363 362 363 363 363 363 363 364 365 365 364 362 363 359 365 368 368 367 367 367 368 368 369 368 367 369 368 368 366 370 370 371 371 370 370 370 368 365 365
331 331 334 339 341 343 344 344 344 345 350 353 355 356 356 359 361 362 362 361 360 362 362 362 362 362 363 363 363 363 363 364 365 364 363 363 363 362 362 364 367 365 366 365 364 366 365 367 367 367 371 368 368 369 370 369 369 370 370 371 368 367 366
328 329 333 336 339 342 344 345 346 347 347 349 353 359 358 360 359 361 362 363 363 362 362 362 362 363 363 364 362 363 363 364 365 366 365 364 364 363 361 359 364 363 364 365 364 363 366 366 367 367 368 369 368 369 369 370 370 370 369 370 368 366 366
330 332 335 334 336 340 341 341 343 346 349 351 354 358 357 358 358 358 361 364 364 364 365 364 364 364 363 363 363 363 364 365 366 366 366 366 365 362 360 360 360 363 361 364 364 362 363 367 366 367 366 366 365 365 367 368 368 369 370 369 368 365 364
333 333 336 336 336 338 340 343 346 347 351 354 357 359 358 357 357 357 360 363 364 364 364 363 363 363 364 364 364 364 364 364 365 366 367 366 364 363 362 361 361 362 362 365 363 363 361 362 364 366 366 363 363 362 364 366 366 368 368 368 367 367 365
334 331 336 339 339 338 338 341 350 351 354 357 357 358 357 357 358 358 360 362 364 364 365 364 363 364 364 365 365 363 363 363 364 366 366 363 362 361 361 362 362 363 365 363 364 364 361 361 360 364 367 366 366 365 365 367 367 367 367 367 367 367 365
334 333 334 334 334 337 343 347 348 352 357 357 357 358 358 357 357 357 359 362 363 363 365 365 364 364 366 365 364 363 364 365 365 365 364 361 360 357 357 361 364 364 364 362 361 364 364 363 360 362 366 367 367 367 366 367 366 366 366 367 367 366 364
334 333 334 334 337 335 341 343 346 347 354 358 359 360 360 358 359 358 359 360 362 363 364 365 365 364 365 365 364 364 365 366 366 363 361 361 361 357 355 356 360 364 363 362 361 363 364 365 364 364 365 366 367 367 365 365 366 365 365 366 367 367 366
336 335 336 336 340 341 342 340 343 343 348 358 360 361 361 360 359 358 358 359 361 362 364 364 365 365 365 364 362 362 364 364 365 364 363 361 360 360 357 356 358 361 361 360 358 360 364 364 366 367 366 365 366 367 367 365 366 365 363 365 367 367 366
340 337 337 339 341 342 342 343 344 345 350 359 360 360 363 362 360 359 358 359 361 362 362 363 364 364 365 365 364 363 364 363 362 363 363 360 358 359 357 356 358 359 362 362 360 360 361 365 364 365 367 366 366 367 368 367 366 365 365 364 365 366 367
343 340 338 338 339 341 345 347 349 353 360 360 359 359 362 362 360 359 361 361 361 361 361 364 363 364 365 365 362 363 363 363 363 364 362 362 360 359 359 357 355 356 359 362 362 360 357 362 364 364 367 368 367 366 367 368 367 366 366 365 365 366 366
345 339 343 342 340 341 342 349 352 358 362 361 358 359 360 361 360 361 363 361 361 361 361 362 363 364 365 365 363 363 363 364 364 364 363 363 363 362 360 358 358 358 359 364 364 362 359 358 363 365 365 367 368 368 367 367 367 367 367 367 366 365 366
330 336 341 343 355 348 347 354 364 361 362 361 359 358 359 359 361 363 365 362 362 360 360 362 363 363 364 365 364 363 364 366 365 365 365 365 364 363 362 361 360 360 360 363 364 363 362 360 359 364 364 365 368 369 368 367 366 367 367 367 367 366 365
325 331 335 339 347 353 357 355 367 364 364 363 360 360 357 359 362 362 363 362 361 361 361 363 363 362 363 364 365 366 366 366 367 365 365 364 364 364 363 362 361 360 360 360 362 364 366 364 360 360 365 365 367 369 369 367 367 357 344 349 366 366 364
324 326 338 343 352 351 357 360 365 366 365 365 363 362 359 359 362 363 359 359 358 361 362 364 364 362 362 364 367 367 368 367 367 367 365 364 364 365 363 362 362 361 361 361 361 362 366 366 362 357 361 366 366 368 368 368 365 343 336 338 344 362 365
325 332 331 334 341 348 357 358 361 363 364 363 363 365 362 362 362 361 357 358 358 358 360 361 365 362 363 366 369 369 369 368 369 369 367 365 364 365 365 363 362 362 362 361 360 362 365 366 365 362 358 362 366 366 367 368 350 336 335 336 337 344 364
324 330 335 344 348 353 344 342 351 361 358 358 359 359 361 365 362 360 360 360 360 360 358 358 362 364 365 367 369 370 370 370 369 369 369 367 365 365 366 365 362 361 361 361 362 362 363 366 366 365 363 360 364 366 368 368 347 333 332 334 334 336 350
324 327 331 340 347 346 349 354 355 354 354 359 359 354 356 360 360 362 362 361 363 361 361 360 361 367 365 368 370 370 371 371 371 370 369 369 367 365 366 366 364 361 361 361 363 363 363 364 366 366 366 364 363 365 368 369 348 331 329 330 331 333 340
331 333 339 335 341 335 348 360 356 363 366 358 355 359 357 359 361 362 362 361 361 362 363 362 362 369 367 367 370 371 371 372 373 373 372 371 368 366 366 367 367 364 361 360 361 362 363 363 364 366 366 365 364 363 365 369 343 328 326 326 327 330 332
324 324 326 331 367 361 362 354 358 349 358 347 351 356 356 357 356 355 357 359 359 360 362 364 363 368 369 367 370 371 373 373 373 374 373 372 370 367 366 368 369 367 365 362 360 363 366 366 365 364 365 367 366 362 362 364 336 327 325 325 325 327 343
323 325 326 349 359 363 366 364 357 353 364 361 356 351 355 356 356 356 356 356 354 359 359 361 362 364 370 367 368 370 373 374 374 373 373 373 371 368 367 368 370 370 368 365 363 363 364 365 364 365 365 365 366 365 363 363 340 323 323 322 323 326 349
324 326 329 356 362 362 364 360 360 361 351 359 360 358 363 356 357 358 359 357 355 354 355 357 360 364 370 368 367 369 373 375 375 373 372 373 372 370 369 370 371 370 370 366 363 361 364 365 366 367 367 365 365 366 365 366 347 318 319 319 321 330 352
324 330 350 352 352 355 366 368 366 364 365 362 357 361 364 364 360 356 358 359 354 353 354 356 360 363 368 369 368 369 372 375 376 374 373 373 372 371 371 370 370 371 372 368 366 363 365 366 366 367 368 366 366 354 363 366 353 318 317 317 318 328 353
349 350 353 355 358 361 363 365 358 354 350 352 366 368 367 357 358 358 358 357 358 355 355 358 361 366 370 372 370 371 373 374 375 375 372 372 374 373 372 372 370 370 369 369 366 365 364 364 366 367 368 367 365 364 364 365 367 343 315 315 315 319 350
349 353 354 354 354 361 356 361 361 358 362 372 367 366 364 358 360 366 367 362 360 358 358 364 367 369 370 373 371 371 372 373 374 373 372 373 373 372 371 371 369 369 369 367 367 367 365 364 364 364 365 366 368 367 367 366 367 358 315 314 314 316 327
352 353 354 359 354 352 354 355 363 358 353 364 369 366 365 370 369 367 374 365 361 364 368 372 370 370 370 372 371 370 371 371 374 374 373 373 374 373 371 372 372 370 371 369 369 368 367 367 364 362 361 364 366 368 369 368 350 370 320 315 313 314 315
347 345 349 358 357 351 353 359 358 359 361 362 360 364 368 369 368 371 375 368 368 369 373 376 371 371 369 371 371 372 372 372 373 372 371 372 374 373 372 373 372 371 372 371 370 369 367 368 367 365 363 363 365 366 368 373 368 341 341 314 313 312 313
350 350 354 354 353 355 355 357 359 360 362 363 365 364 365 370 369 368 369 370 378 372 374 378 374 373 370 369 370 372 371 372 371 373 372 374 374 373 372 371 371 372 372 371 370 369 368 368 368 366 363 361 362 364 364 374 377 347 332 325 311 311 311
348 349 353 353 351 355 357 356 356 357 359 364 363 363 366 367 367 365 364 369 375 375 374 377 374 372 370 369 370 371 369 370 370 371 372 372 373 371 370 371 370 370 371 371 370 369 367 368 367 366 365 365 363 365 369 367 373 371 344 320 314 312 311
352 352 351 352 353 353 354 356 356 356 356 359 364 367 365 366 368 364 369 372 370 376 375 375 374 372 371 370 370 369 367 367 367 369 369 372 372 373 372 370 368 368 370 371 369 368 367 367 363 363 363 362 361 361 363 370 372 373 361 334 326 319 314
348 351 351 350 351 353 353 354 353 352 353 354 359 362 365 367 370 370 369 371 370 371 375 373 373 371 372 370 367 368 368 366 362 364 369 372 371 372 372 369 369 369 367 367 365 365 364 364 363 361 359 359 363 363 368 367 370 353 337 341 346 344 334
346 348 352 351 350 354 352 352 352 351 351 352 356 359 360 362 363 365 367 365 370 369 371 372 368 366 368 365 366 364 366 366 367 368 365 366 365 365 366 366 366 366 367 365 365 363 362 361 359 358 358 358 360 364 359 355 339 329 329 325 326 329 331
345 347 349 350 351 353 352 351 351 351 351 351 355 357 359 359 360 363 366 367 369 372 368 368 366 367 368 368 366 367 368 367 366 364 362 357 342 336 334 346 361 348 337 332 334 346 359 364 352 348 349 349 348 348 346 340 333 326 312 319 311 320 324
345 346 347 350 351 351 350 350 350 350 350 351 353 355 357 358 361 364 364 367 369 372 369 367 367 367 367 367 367 366 366 366 363 363 361 347 342 337 334 321 313 331 337 328 316 310 311 319 336 340 348 342 339 340 337 333 331 309 302 303 303 304 304
345 345 347 348 348 348 348 348 348 348 348 349 350 350 353 355 358 361 361 363 366 369 370 370 368 364 357 357 361 367 367 369 367 360 352 347 346 344 335 332 325 304 306 315 314 308 302 302 304 309 318 337 338 330 315 316 310 304 303 303 304 304 303
346 346 346 347 348 347 346 346 346 346 345 348 349 350 352 350 352 357 356 359 360 361 360 360 360 355 355 356 356 353 353 357 358 358 355 349 345 343 340 336 334 331 309 301 305 305 302 302 302 301 303 309 320 332 339 321 307 302 303 303 304 304 303

ECMWFFLT1_sfc_thetae_069.txt.gz
Theta_e
334 334 335 337 338 339 340 340 341 341 342 344 345 346 347 347 347 349 348 348 349 350 351 351 351 354 353 352 352 353 354 354 354 354 354 354 356 357 355 355 354 354 355 357 357 357 358 360 359 360 362 362 362 363 364 364 363 363 362 361 358 357 356
333 334 335 337 338 339 339 340 340 341 343 345 345 346 348 347 348 348 349 349 349 350 351 352 352 353 354 353 353 354 353 354 355 356 356 355 357 358 357 356 354 354 354 357 358 359 360 360 359 359 361 363 361 363 364 363 363 363 362 361 358 357 355
333 335 336 337 338 338 339 339 340 341 343 345 346 346 347 348 348 348 349 349 349 350 352 352 352 352 354 354 353 354 354 355 355 355 355 356 356 358 358 357 355 354 356 357 358 360 361 360 359 359 361 362 362 362 364 363 363 363 362 361 359 356 355
334 335 335 336 337 338 339 341 341 341 342 345 346 346 347 348 349 350 351 350 349 350 351 352 353 353 354 354 353 353 354 355 356 356 356 357 357 357 358 357 356 355 355 356 359 360 362 361 359 359 364 361 361 362 363 363 363 363 362 362 360 357 356
333 334 335 335 336 337 339 341 342 342 342 344 346 347 348 350 350 351 352 352 351 350 352 353 354 354 355 356 355 355 355 355 356 357 357 358 358 358 357 358 357 356 356 357 359 359 359 360 359 360 360 361 361 361 362 362 362 363 362 362 360 359 357
332 332 334 335 337 338 339 341 342 343 343 344 345 347 348 351 351 352 352 353 352 352 353 353 354 355 354 355 356 356 355 356 357 358 358 358 358 357 356 358 359 358 358 358 359 360 360 360 360 359 360 361 361 361 362 362 362 363 362 363 361 359 358
331 332 333 335 337 338 339 341 342 342 343 344 346 348 349 351 352 352 353 353 354 352 352 353 354 355 356 356 356 356 355 355 356 357 358 358 358 357 356 356 359 359 359 360 359 359 360 359 360 359 360 361 361 361 361 362 362 363 362 362 361 360 359
331 331 333 334 336 338 339 340 342 342 343 343 345 348 349 351 352 353 353 354 355 354 353 353 354 355 356 356 356 355 356 356 357 358 359 358 358 358 357 355 356 359 359 359 360 358 357 359 360 360 359 359 361 361 362 362 362 363 362 361 361 361 361
330 332 333 334 336 337 338 339 341 342 342 343 346 349 350 351 352 353 354 354 355 355 354 355 355 356 356 357 356 356 356 356 356 358 358 358 358 358 357 356 355 357 358 358 359 359 357 356 359 360 359 358 359 360 361 362 362 363 363 362 361 360 360
329 330 332 334 336 337 338 339 340 340 342 343 346 349 351 352 353 353 354 355 356 355 356 356 356 356 356 356 357 357 356 356 357 357 358 358 358 358 358 357 355 356 357 357 358 358 358 356 355 359 360 358 357 357 358 361 362 362 362 362 361 361 360
327 330 332 332 333 335 337 338 337 338 340 342 343 347 351 352 352 353 353 355 356 357 357 357 357 356 356 356 356 356 356 356 357 356 357 358 358 358 358 357 356 355 356 357 357 357 357 357 355 354 358 359 358 357 357 358 361 361 361 362 362 361 361
326 328 330 331 331 332 334 336 338 339 340 342 344 346 349 352 353 353 354 354 358 359 359 359 359 358 356 356 356 356 355 356 356 356 356 357 358 358 358 357 356 355 355 356 356 356 357 357 356 354 354 358 360 359 358 358 359 360 360 361 361 361 361
327 329 330 330 331 333 335 337 339 341 342 344 346 348 351 353 353 354 354 354 357 360 361 361 360 359 357 356 356 355 355 355 355 356 356 356 357 357 357 355 355 356 355 356 356 355 356 356 357 357 354 354 358 360 360 359 359 359 360 360 360 361 360
336 330 331 331 332 333 334 337 341 343 345 349 350 352 354 354 355 354 354 354 357 360 362 362 361 360 359 357 355 355 355 356 356 356 356 356 356 356 355 355 352 353 355 356 355 354 355 356 356 357 357 355 355 358 361 360 359 359 359 359 359 360 360
328 328 330 331 332 334 335 337 340 343 345 350 352 352 354 355 355 355 355 356 357 359 361 362 362 361 360 358 356 355 356 356 356 357 357 357 356 355 355 354 352 351 353 355 355 355 354 355 357 356 356 358 357 356 358 360 360 359 359 358 358 358 359
327 327 330 332 333 334 336 338 339 340 342 346 351 352 354 355 355 355 355 355 356 357 360 362 361 360 360 359 357 356 356 356 357 357 357 357 356 355 355 355 353 351 351 354 355 354 354 353 355 357 356 356 358 358 358 359 361 354 342 345 358 358 359
327 327 331 333 334 334 335 337 338 339 340 344 349 352 354 356 356 356 356 356 356 356 358 360 360 360 360 359 359 358 357 357 356 356 356 357 357 356 355 354 353 352 351 352 355 355 355 354 352 354 357 356 357 358 359 359 359 342 335 336 340 354 358
332 335 335 334 334 336 339 339 340 342 344 346 349 352 353 355 357 356 356 357 357 357 358 358 359 359 359 360 361 360 358 357 357 356 355 356 356 356 355 354 353 352 351 351 353 356 357 356 354 353 356 358 357 357 359 360 347 335 333 334 333 339 358
335 337 339 340 344 346 351 353 349 349 351 352 352 352 354 355 356 356 357 357 358 358 357 357 358 358 358 359 361 360 359 358 357 356 355 355 356 356 356 354 353 352 352 351 352 355 357 357 357 355 355 358 357 357 358 359 344 334 331 331 331 331 343
330 335 339 341 345 346 348 351 354 356 356 356 356 356 355 356 356 357 358 358 358 357 357 356 356 357 357 358 360 361 360 359 358 357 356 356 356 356 356 354 353 353 354 353 353 353 355 357 357 357 355 355 357 358 358 359 345 331 329 328 328 330 335
327 332 336 339 337 337 339 342 350 352 353 355 356 356 356 356 356 357 357 357 356 357 356 356 355 356 357 357 359 361 360 359 358 357 357 357 356 355 355 355 354 353 354 354 353 352 353 355 357 358 358 356 355 358 359 360 340 329 327 326 325 327 329
319 324 331 343 346 337 337 340 345 349 350 351 352 352 352 353 356 357 356 356 356 355 355 355 354 357 356 356 358 360 360 360 358 358 358 358 357 355 355 355 355 353 354 354 354 354 354 354 355 357 358 358 356 355 357 361 336 328 326 325 324 325 340
318 323 342 345 347 348 351 346 346 350 355 350 350 349 349 351 353 354 355 354 354 354 354 354 353 357 357 356 358 360 361 360 360 359 359 359 358 356 355 355 355 355 355 353 352 353 353 353 354 355 357 358 358 356 354 356 341 326 323 323 323 325 345
319 326 350 354 353 351 349 350 353 356 349 344 345 348 350 351 351 350 351 352 352 353 354 353 353 357 359 357 359 361 361 361 360 360 360 360 359 358 357 356 357 357 357 354 352 351 353 354 355 355 356 356 358 358 357 356 342 322 322 321 320 329 348
349 352 354 355 357 359 358 357 355 357 358 352 348 351 355 358 350 350 349 351 351 351 351 352 353 355 361 360 360 362 362 362 362 361 361 361 361 361 359 357 357 358 359 358 355 353 353 354 354 355 356 356 357 352 356 358 349 320 318 319 318 328 349
342 343 346 352 357 357 356 358 348 346 350 354 353 358 357 355 355 350 349 350 350 349 349 350 352 354 362 362 362 363 364 364 363 363 363 363 363 363 361 360 359 359 360 360 359 356 355 355 355 355 356 357 357 358 357 358 359 339 314 315 316 319 346
347 346 345 346 351 363 355 354 354 354 358 362 362 361 359 357 352 353 351 350 349 348 349 350 353 356 363 363 363 364 365 366 365 365 365 366 365 366 364 363 361 361 361 361 361 359 357 356 356 358 358 359 359 359 359 360 359 350 311 313 314 316 326
346 351 351 355 360 360 352 355 353 354 357 360 357 359 362 358 355 352 355 351 349 350 350 353 355 357 362 363 362 363 365 367 367 368 368 367 367 366 365 365 364 363 362 362 361 359 358 356 355 356 357 360 361 361 361 363 351 361 317 313 311 314 316
347 348 347 347 347 354 355 354 354 355 356 358 360 360 359 357 355 355 358 354 351 353 356 356 357 358 362 363 362 362 364 366 368 368 369 368 367 367 365 365 364 363 363 362 361 360 358 358 357 355 354 355 358 360 362 363 359 340 340 314 312 311 312
348 348 348 350 351 353 356 352 351 351 354 356 360 359 357 355 354 357 358 360 359 357 361 359 359 359 362 362 362 362 363 365 368 369 368 368 367 366 365 364 364 363 363 362 361 360 359 358 357 356 354 354 355 358 360 362 364 348 333 327 312 310 308
347 347 347 346 347 353 353 351 351 352 354 356 356 358 358 356 354 357 355 359 363 358 363 361 360 358 360 361 362 362 364 365 367 367 367 367 367 365 364 363 364 362 362 362 361 360 359 358 359 357 356 355 355 355 357 359 344 335 321 313 311 313 312
346 347 347 346 347 350 350 349 349 349 350 351 353 356 359 361 357 356 357 361 364 364 365 362 360 358 358 361 362 363 364 364 365 366 365 366 367 366 365 364 363 362 362 362 361 361 360 359 359 358 357 356 356 356 355 340 331 330 332 332 326 318 313
342 345 344 343 347 350 348 346 348 348 350 350 351 354 357 359 359 358 359 359 363 366 365 363 360 360 359 360 362 363 363 363 363 364 364 365 366 366 366 364 364 362 360 362 362 361 359 360 357 357 357 357 356 353 331 328 328 326 325 325 326 327 328
340 342 344 346 348 351 348 348 346 347 347 347 349 353 356 357 357 359 360 361 363 364 364 362 362 361 361 361 361 360 360 360 372 366 362 363 365 364 364 364 363 363 360 359 362 360 358 358 356 355 355 354 351 332 328 325 323 323 323 323 324 325 325
340 341 343 345 346 349 346 346 346 345 345 346 348 350 352 355 358 359 360 362 363 361 360 360 361 362 360 360 359 358 360 358 360 355 342 336 325 319 316 323 349 336 327 323 325 349 360 354 342 341 341 343 338 330 326 326 324 322 314 319 313 319 323
341 341 343 346 347 346 345 347 345 344 343 344 345 347 347 353 355 355 358 360 363 362 358 358 359 359 358 359 358 358 359 358 351 342 338 333 329 325 322 315 304 313 326 322 318 313 316 323 335 335 331 329 329 330 328 325 325 311 303 304 304 305 305
339 340 342 344 343 343 343 343 346 345 344 344 347 347 347 348 351 350 350 353 357 361 357 358 352 350 351 355 358 356 359 353 342 337 333 330 328 326 324 322 319 304 303 311 313 309 306 305 308 312 319 328 324 319 314 313 305 299 301 301 302 303 303
341 342 343 343 343 342 343 342 341 342 344 346 347 347 347 347 349 350 350 352 352 353 352 351 349 347 347 348 348 346 344 342 339 335 332 330 328 326 325 325 324 323 308 301 305 307 306 305 305 306 309 314 319 322 317 305 299 300 300 302 303 304 303

ECMWFFLT1_sfc_thetae_072.txt.gz
Theta_e
332 333 334 336 336 336 336 337 337 338 340 340 342 343 345 345 346 346 347 347 347 347 348 350 350 350 350 349 350 350 350 350 350 350 349 350 351 349 347 349 351 348 351 352 353 354 354 356 357 358 359 360 359 360 360 361 360 360 359 357 354 352 348
331 332 333 335 336 336 337 337 337 339 340 341 342 344 345 345 346 346 346 347 347 347 347 350 350 350 349 349 350 350 349 350 350 352 351 349 351 352 350 349 351 351 351 353 354 355 355 355 357 357 359 359 359 360 360 360 360 359 359 356 354 353 350
330 331 333 334 335 336 337 338 338 339 340 341 342 343 344 345 346 346 346 347 347 347 347 348 351 350 349 349 349 349 350 350 350 350 350 349 349 352 353 351 351 352 352 354 355 355 356 355 357 357 358 359 359 360 360 360 360 359 359 357 355 354 352
330 331 333 334 336 337 338 338 339 339 340 341 342 344 344 345 346 347 347 347 347 347 346 347 350 350 350 349 349 349 349 350 350 350 351 351 350 352 354 352 351 352 352 353 356 356 357 356 356 356 361 358 358 359 360 361 361 360 359 358 356 354 353
331 332 333 334 335 336 337 338 339 339 339 342 343 344 345 346 347 347 347 348 348 347 348 347 348 350 351 350 350 350 350 350 350 351 351 352 352 352 353 354 352 352 353 353 355 357 356 356 356 356 357 358 358 358 360 361 360 360 359 358 357 355 354
330 331 332 333 335 336 337 338 339 340 340 341 342 343 345 346 347 346 347 348 347 349 349 349 348 349 350 351 350 350 350 350 351 352 352 352 353 352 353 355 354 353 352 353 355 356 357 357 356 356 356 358 358 358 359 360 360 360 360 359 358 356 354
331 332 332 333 335 336 337 338 340 340 341 342 343 344 346 346 346 347 347 347 347 347 348 348 348 348 349 351 351 351 350 350 351 351 352 352 353 353 353 355 356 354 353 353 354 356 357 357 357 356 356 357 358 358 358 358 359 360 359 358 357 357 355
331 332 333 334 335 336 337 338 339 340 341 342 343 344 345 346 346 346 347 347 347 348 348 348 349 349 349 350 351 351 350 351 351 352 352 352 353 353 354 354 356 356 354 352 353 356 356 357 357 357 356 356 357 357 358 358 359 359 359 358 358 357 357
332 333 333 334 335 337 338 338 339 340 340 341 343 344 344 346 346 346 347 348 348 347 348 349 350 350 350 350 350 351 351 351 351 352 352 352 352 353 354 355 355 357 355 353 353 355 356 357 358 357 357 356 357 357 357 358 358 359 359 358 358 357 357
331 332 333 335 336 337 338 338 339 339 339 340 342 343 344 345 346 347 347 348 348 347 348 349 350 351 351 350 350 351 352 351 352 352 352 352 353 353 354 355 355 357 357 355 354 354 355 356 356 357 356 356 356 356 357 357 358 358 359 358 358 358 357
331 332 333 334 334 335 336 337 338 339 339 339 341 343 344 345 346 347 347 348 348 348 349 350 351 351 351 351 350 351 351 352 352 352 352 352 353 353 354 355 355 355 356 357 356 355 355 356 356 356 356 355 355 356 356 357 358 358 358 359 359 358 358
331 331 332 333 334 334 335 336 338 339 339 340 341 342 343 344 346 347 348 349 350 350 350 350 351 351 351 351 351 351 351 352 352 352 352 353 353 354 355 355 355 355 355 357 356 356 356 355 355 356 356 356 355 356 357 357 358 358 359 359 359 359 358
330 331 332 332 334 334 335 336 337 338 339 340 340 342 343 344 345 347 348 349 350 351 351 351 351 351 351 351 351 351 351 351 352 353 353 353 353 355 355 355 356 355 354 355 356 356 356 356 355 355 356 357 357 356 356 357 358 358 359 359 359 359 358
338 330 331 332 333 333 333 335 336 337 338 339 340 342 344 345 346 347 348 349 350 352 352 352 352 351 351 351 351 351 351 352 353 353 353 354 354 355 355 356 356 355 355 354 354 355 355 356 355 354 355 356 357 357 356 356 357 358 358 359 359 359 359
328 328 329 330 331 332 333 334 335 337 338 339 340 341 344 345 346 348 349 350 351 352 353 353 352 352 351 351 351 351 352 353 353 354 354 354 354 354 355 355 356 356 355 354 353 355 355 355 356 355 353 353 355 357 357 356 356 357 358 358 358 359 358
327 328 328 329 330 331 333 334 335 336 338 339 340 341 344 346 346 348 349 350 352 353 354 354 353 352 352 351 351 352 353 353 354 354 354 354 353 354 354 355 355 355 354 354 353 353 354 354 354 354 354 353 352 353 356 357 357 350 339 344 357 357 358
326 327 327 329 329 330 332 334 335 336 337 338 339 341 343 346 348 349 350 351 352 353 355 356 354 354 353 352 353 353 353 353 353 353 353 353 354 354 354 354 355 354 354 353 353 352 352 353 352 353 354 354 353 351 352 355 357 341 333 334 337 353 357
325 325 327 328 329 329 330 333 334 335 336 337 339 341 342 345 348 350 350 351 352 353 356 357 356 355 354 354 354 354 353 353 353 353 353 353 353 353 353 354 353 353 352 351 351 352 352 351 351 352 353 353 353 353 352 352 342 335 332 332 331 336 356
325 325 326 328 328 329 330 333 336 337 338 339 340 341 343 346 348 349 351 352 353 354 356 357 357 357 356 356 356 355 354 353 353 353 353 353 353 353 353 353 352 352 351 350 350 351 351 351 351 350 351 353 352 352 353 353 340 332 330 330 330 329 340
325 325 327 328 329 330 331 334 337 339 340 342 344 345 347 349 349 351 353 354 354 354 355 356 357 358 357 357 357 356 355 354 353 353 353 353 353 353 352 352 351 351 352 351 350 349 349 350 350 350 350 351 352 352 353 353 341 330 327 327 327 328 332
326 327 328 329 329 331 332 334 336 338 340 343 346 349 350 352 353 353 353 354 354 354 354 355 356 357 358 358 358 358 357 355 354 353 353 353 353 353 352 352 352 351 351 351 349 348 348 349 349 350 350 350 351 351 352 354 337 328 325 324 324 325 327
330 332 331 332 333 335 337 337 338 339 340 344 347 349 351 352 355 355 354 355 354 354 354 354 355 356 357 358 358 358 358 357 355 354 354 353 353 352 352 352 352 351 351 351 350 350 349 349 351 351 351 351 350 350 350 353 333 327 324 323 322 324 337
333 335 336 336 339 342 344 345 344 344 349 348 348 348 350 352 354 355 355 354 355 354 354 354 353 354 356 357 358 359 359 358 356 355 354 354 353 352 352 352 352 353 353 351 350 349 349 348 350 352 352 352 352 350 350 352 338 325 322 321 321 323 341
348 347 345 343 341 342 344 347 350 353 350 349 349 350 351 353 354 354 354 354 354 354 354 353 353 353 355 356 357 359 359 359 358 356 355 354 353 352 352 353 353 353 354 351 350 349 349 350 349 351 353 353 353 353 352 352 343 322 319 319 319 327 344
346 347 347 348 347 346 347 348 349 348 345 345 346 348 348 352 353 353 353 354 353 354 353 353 353 353 354 355 357 358 359 360 359 358 356 355 354 354 353 353 353 353 354 353 352 351 351 351 350 350 351 353 354 350 352 354 345 319 319 317 317 327 345
346 349 351 352 353 351 351 351 350 352 354 353 348 351 350 347 350 352 352 352 352 352 352 353 354 354 355 356 357 358 359 360 359 358 357 356 356 356 355 354 354 353 353 353 353 351 351 350 350 350 350 351 352 354 355 355 355 332 317 317 316 320 344
346 349 351 354 355 359 352 352 352 352 352 352 352 354 352 349 346 347 348 349 349 349 352 353 353 353 355 356 356 357 358 360 359 358 358 358 357 357 356 356 354 353 353 353 353 352 351 350 349 350 350 351 352 352 352 354 355 338 315 315 315 317 327
346 347 349 354 360 356 349 350 350 351 352 353 355 354 352 350 352 348 345 344 345 348 350 350 351 352 356 357 356 357 358 359 359 360 359 359 358 357 356 357 356 354 354 354 353 352 351 350 349 349 349 350 351 353 353 356 350 352 318 316 314 316 317
343 343 344 346 348 355 352 348 348 350 351 352 353 354 352 348 349 351 352 346 346 348 348 348 350 352 357 357 357 357 357 358 359 358 360 359 359 358 357 357 356 355 354 353 353 353 352 351 351 350 350 352 353 354 355 355 354 339 338 316 314 313 313
342 343 344 346 349 351 353 347 346 347 348 349 351 351 353 351 347 349 350 350 354 350 350 349 350 352 356 357 357 357 358 359 360 360 360 360 359 359 358 358 358 357 356 355 354 354 353 353 352 351 350 350 351 355 357 355 350 331 324 327 312 311 310
341 341 342 343 345 351 347 345 344 345 346 347 349 350 352 353 349 348 347 346 352 353 351 350 350 351 354 356 357 358 359 360 361 361 361 361 361 359 359 359 359 357 357 356 356 355 354 354 353 352 351 350 350 350 344 337 333 329 320 316 313 313 310
341 343 344 345 346 347 345 345 345 344 344 345 346 348 352 352 351 350 351 352 356 357 353 352 351 350 353 356 357 358 360 361 362 362 362 363 363 362 362 361 360 359 358 358 357 356 355 354 354 353 352 351 351 348 331 328 328 329 330 328 323 315 309
338 340 341 342 346 347 343 343 342 342 342 342 343 345 348 351 353 353 353 354 355 356 355 353 351 352 353 355 356 357 359 361 362 362 363 363 363 363 363 363 362 360 357 358 358 356 356 355 353 353 353 352 350 332 327 324 323 323 324 325 327 328 324
337 340 340 340 343 345 341 340 338 338 339 340 341 344 346 349 351 351 352 355 358 355 355 354 352 352 353 356 357 357 359 360 369 364 361 358 359 359 360 361 363 361 359 358 358 357 356 356 355 354 354 353 334 326 325 323 323 323 323 324 325 325 325
336 337 338 339 340 343 339 338 339 337 338 339 340 343 345 347 349 348 348 351 356 351 353 354 354 354 355 357 357 357 358 360 362 354 339 326 318 311 311 313 321 335 336 328 331 359 360 358 357 356 356 344 330 327 324 324 324 323 316 320 316 323 325
333 334 335 337 340 339 340 341 337 336 337 336 339 343 344 346 348 348 348 349 353 352 352 353 354 354 355 356 357 357 358 356 351 342 334 328 324 321 319 313 303 306 323 326 319 311 323 334 345 343 337 331 328 329 328 326 326 311 303 302 301 301 304
333 334 335 337 337 336 336 336 340 336 338 339 340 341 342 343 345 346 347 348 349 351 349 350 351 351 352 353 354 353 352 347 342 335 331 329 328 327 326 324 319 303 302 308 310 307 305 304 307 314 322 330 325 319 315 315 307 301 301 300 301 301 300
334 333 336 336 336 335 335 335 335 336 337 338 340 340 340 342 343 344 346 347 346 347 346 345 348 347 346 347 345 343 341 339 335 332 330 330 330 329 328 326 324 323 308 301 305 304 302 303 304 306 308 312 317 319 316 306 301 300 300 302 301 301 299

ECMWFFLT1_sfc_thetae_075.txt.gz
Theta_e
329 330 332 333 333 334 334 335 335 336 337 337 338 339 340 341 343 344 345 346 346 346 348 349 350 350 350 350 350 350 350 349 349 348 348 348 348 347 346 346 346 345 348 350 352 352 353 355 355 355 356 357 356 356 356 357 358 358 357 356 353 350 346
327 329 331 332 333 334 334 335 335 336 337 338 339 339 341 341 343 344 345 346 347 347 348 349 350 350 350 350 350 350 349 349 349 350 349 349 349 348 347 347 347 346 347 350 352 353 353 354 355 355 355 357 357 356 357 357 357 357 356 355 353 350 347
327 329 330 332 333 334 334 335 336 337 337 338 339 340 340 341 343 344 345 345 346 347 348 349 350 350 350 350 350 349 349 349 348 349 347 348 348 348 348 347 348 348 347 349 351 352 354 353 354 355 355 356 357 356 357 357 357 357 357 355 354 352 348
327 328 330 332 333 334 335 335 336 337 338 339 339 340 341 342 343 344 345 346 346 347 347 349 350 350 350 349 349 349 349 349 349 349 349 348 348 349 348 347 347 349 348 348 351 353 354 353 353 354 359 355 356 356 357 357 357 357 357 355 354 353 351
327 329 330 331 332 333 334 335 335 336 337 339 340 341 342 343 344 344 345 346 346 346 348 349 350 350 351 350 350 350 349 349 348 349 349 349 349 350 349 348 347 348 350 349 351 353 353 353 353 354 355 355 355 356 356 357 357 357 356 356 354 353 352
327 328 329 331 332 333 335 335 336 336 337 338 339 340 342 343 344 344 345 346 346 347 348 349 349 350 349 350 350 349 350 349 349 349 349 349 348 348 349 350 349 348 348 350 352 352 353 353 353 353 353 355 355 356 356 356 357 357 357 356 355 354 352
327 328 329 331 332 334 335 335 336 337 338 339 340 342 343 343 344 344 345 345 346 346 346 347 348 349 349 350 349 349 348 348 349 348 349 349 349 348 348 350 351 350 349 350 351 353 353 353 353 353 354 354 355 355 355 355 356 357 357 356 355 355 354
328 328 330 331 333 334 335 336 336 337 338 339 339 340 342 343 344 344 344 345 346 346 346 346 347 349 349 349 349 348 348 348 349 349 349 348 349 349 348 349 351 351 351 349 350 353 353 353 354 353 353 354 354 355 355 355 356 356 357 356 355 354 355
328 329 330 331 332 334 335 336 337 337 337 338 339 340 341 343 343 344 344 345 346 346 346 347 347 348 349 349 348 348 348 348 348 349 348 348 348 349 349 349 350 352 352 351 350 352 353 354 354 354 353 353 354 354 355 355 355 356 356 356 355 355 355
327 328 330 332 333 334 335 336 337 337 337 337 338 339 340 342 343 344 345 345 346 345 346 347 347 348 348 348 348 348 348 348 348 348 348 348 348 348 349 350 351 353 352 352 351 350 352 354 354 354 353 353 353 353 354 355 355 355 356 356 356 355 355
327 328 329 330 331 333 334 335 336 336 337 337 338 339 341 342 343 343 344 345 345 346 347 347 348 347 347 348 348 348 347 347 348 347 348 348 349 349 350 351 351 352 353 353 352 351 351 353 354 354 353 353 352 353 354 355 355 355 355 356 356 356 355
327 328 329 330 331 332 333 334 336 337 337 338 338 339 340 341 342 343 344 345 346 346 346 347 348 347 347 347 347 347 347 347 348 347 348 348 349 349 350 351 351 352 353 354 353 353 352 351 353 354 354 354 353 353 354 354 355 355 355 356 356 356 356
327 328 328 329 331 332 334 334 335 336 337 338 338 339 340 341 342 343 344 344 346 347 347 347 348 348 347 347 346 347 347 348 348 348 348 349 349 350 350 350 351 352 352 354 354 354 352 352 351 353 354 354 354 354 354 354 355 355 355 355 356 356 355
336 328 329 330 331 331 332 334 335 336 337 338 338 340 341 342 343 343 344 344 345 346 347 347 347 347 347 347 346 346 347 348 349 349 349 350 350 350 350 351 351 351 352 353 353 354 354 353 352 352 353 353 354 354 354 354 354 354 355 355 355 355 355
327 327 328 329 330 332 332 333 334 336 337 337 338 339 340 341 342 343 344 345 346 347 346 347 347 347 347 347 346 346 347 348 349 350 350 350 350 350 350 351 351 352 352 352 353 354 354 355 354 352 352 352 353 353 354 353 353 354 355 354 355 355 355
326 327 328 329 330 331 333 334 335 336 337 337 338 338 340 341 342 343 344 344 346 346 347 347 347 347 347 347 347 348 348 349 349 350 350 350 350 350 351 351 352 352 352 352 352 352 353 354 354 354 353 352 352 353 353 353 354 348 338 341 354 355 356
326 327 328 330 330 331 333 334 335 336 336 337 337 338 340 341 342 343 344 345 346 346 348 348 347 347 347 347 348 348 349 349 349 350 349 350 350 350 350 351 352 352 352 352 352 352 352 353 352 353 354 353 352 351 353 354 354 339 332 332 335 351 355
326 327 328 329 331 332 332 333 334 335 336 337 338 338 339 340 341 342 343 345 346 347 349 348 348 347 347 348 348 349 349 349 349 349 350 350 350 350 351 351 351 351 351 352 352 352 352 351 351 352 353 353 353 352 352 353 342 334 331 331 330 334 354
326 327 328 330 331 332 332 333 334 336 337 338 338 339 340 341 341 342 343 345 347 349 349 349 349 348 348 348 349 349 349 350 350 350 350 350 350 351 351 351 351 350 351 351 352 352 351 351 351 350 351 352 351 352 352 352 338 332 329 329 328 328 338
326 328 329 330 331 331 332 334 335 336 337 338 339 340 341 342 342 343 344 346 348 348 349 349 349 349 349 349 349 349 350 350 350 350 350 351 351 351 351 350 350 351 352 352 352 351 351 351 350 350 350 350 350 351 352 352 340 329 326 326 326 327 330
325 327 328 329 329 331 331 333 334 335 336 338 339 340 341 342 344 344 345 346 347 348 349 350 350 349 350 349 350 350 350 350 350 350 350 351 351 351 350 350 351 351 351 351 351 351 350 350 350 350 350 350 350 350 350 352 336 327 324 322 322 324 326
324 326 326 328 329 329 330 332 333 334 336 339 341 340 341 341 344 345 346 347 347 348 349 350 350 350 351 350 351 351 351 351 350 350 351 351 351 350 350 350 350 350 351 351 351 351 351 350 350 350 350 350 350 349 348 351 333 326 323 321 320 322 335
323 324 325 326 329 329 331 333 334 336 338 338 339 340 340 342 344 346 347 347 348 348 349 350 350 351 351 352 352 352 352 352 351 351 351 351 350 350 350 350 350 351 352 350 350 350 349 349 349 350 349 349 349 348 348 349 337 324 320 319 318 321 338
339 335 332 332 333 331 332 333 336 340 338 337 338 340 341 343 344 345 346 348 348 348 349 349 350 352 353 353 354 354 354 354 353 352 351 351 350 350 351 351 352 351 352 350 350 349 349 349 349 349 349 348 349 349 348 348 339 322 318 318 317 326 340
346 345 343 340 338 338 339 339 341 344 343 339 339 342 344 345 346 346 346 348 348 349 349 349 350 352 353 355 356 356 356 356 355 353 353 352 351 352 351 351 351 352 352 351 351 350 350 350 349 348 348 348 348 345 347 349 342 323 318 316 315 325 341
346 347 348 349 349 348 349 351 349 347 347 346 346 348 347 349 349 349 348 348 349 349 349 350 351 353 355 357 358 358 358 357 356 355 354 353 353 353 353 353 352 352 352 352 351 350 350 350 349 348 348 348 348 349 349 349 349 341 318 315 314 318 341
347 348 347 348 350 356 350 351 351 350 350 350 350 349 346 349 349 351 351 350 350 349 351 352 353 354 354 356 357 358 358 358 358 357 356 356 355 354 354 354 353 352 352 351 352 351 350 349 349 348 348 348 348 349 349 351 350 347 319 314 314 315 325
343 345 348 354 356 352 349 348 348 348 349 350 352 351 349 346 348 348 348 349 350 352 354 354 354 354 353 354 355 357 358 358 359 359 358 357 356 354 354 354 354 353 352 352 351 350 349 349 348 348 348 348 348 348 349 353 345 352 323 316 313 313 315
340 341 343 345 346 350 348 346 345 346 346 348 350 351 351 350 350 349 345 342 346 347 347 349 351 352 353 353 354 355 356 358 358 358 359 358 357 355 354 354 353 353 352 351 350 349 349 349 348 347 347 346 346 348 349 350 349 336 341 318 314 312 312
341 342 343 345 346 346 347 343 344 344 344 345 348 349 350 350 350 350 345 345 346 346 347 346 349 350 351 352 353 354 355 356 358 358 359 358 357 356 355 354 353 353 352 351 350 349 348 348 348 347 346 346 345 347 348 349 350 342 336 333 315 313 312
340 341 342 342 344 346 344 342 341 342 342 343 344 347 348 349 349 349 347 347 348 348 347 346 347 349 350 352 352 352 354 355 356 357 358 358 357 355 355 354 354 352 352 351 350 349 348 348 348 347 347 345 345 347 349 341 334 331 325 327 320 314 312
339 340 341 342 342 343 342 341 341 341 340 340 342 344 348 346 346 345 344 348 351 350 348 346 345 346 349 351 352 353 354 354 355 356 357 357 357 357 356 355 354 353 352 351 350 350 349 348 348 347 347 346 347 347 340 330 331 328 327 325 322 317 313
336 337 338 339 342 342 339 340 339 339 339 339 339 341 344 344 345 342 343 345 349 353 348 345 345 347 348 350 352 353 353 353 353 354 355 356 356 357 357 356 355 354 352 352 351 350 349 349 348 348 347 347 347 338 328 327 327 328 327 327 326 323 319
333 336 337 338 340 340 337 337 336 336 336 336 334 337 341 343 343 344 344 344 347 350 348 347 346 345 346 349 352 353 354 354 361 358 354 355 355 354 356 356 356 355 353 352 352 351 350 350 349 349 349 349 345 329 326 324 324 325 328 328 329 327 327
333 332 333 336 337 340 337 336 336 334 335 335 334 336 338 339 341 343 344 345 346 347 347 347 348 345 343 346 350 352 355 355 357 356 347 325 316 310 310 314 321 331 345 332 330 352 354 353 352 352 353 352 339 330 327 325 324 326 321 329 321 326 327
332 333 334 333 334 335 336 338 335 335 336 335 337 337 338 339 340 342 344 345 346 347 346 348 346 345 344 347 349 351 354 355 354 345 338 332 322 319 315 309 302 305 320 326 317 311 313 330 353 356 355 347 336 333 334 330 329 310 304 305 307 308 310
330 332 334 335 334 335 334 335 338 337 337 336 336 336 336 337 338 340 342 343 344 345 342 347 346 344 344 348 350 351 354 350 342 337 334 332 331 329 327 325 318 301 299 306 306 303 307 318 325 326 329 337 329 318 312 310 305 301 300 299 300 300 300
331 331 334 334 333 333 334 335 335 334 334 332 334 334 335 336 338 339 341 342 342 342 339 342 344 343 343 346 346 348 346 342 337 334 333 332 332 331 330 328 325 322 306 299 301 301 299 301 306 310 313 315 318 318 316 308 302 301 300 300 300 299 298

ECMWFFLT1_sfc_thetae_078.txt.gz
Theta_e
330 331 331 332 332 332 333 334 335 336 337 338 338 339 341 343 344 345 345 346 346 346 348 349 350 350 350 350 350 350 350 350 350 349 349 349 349 349 348 348 347 348 351 352 353 354 355 357 357 357 358 358 358 358 358 360 360 360 360 360 359 356 354
327 329 331 332 332 332 333 334 335 336 336 338 338 339 340 342 343 344 345 346 346 347 348 349 350 350 350 350 351 351 350 350 350 351 350 350 350 350 349 349 348 347 349 352 354 355 356 356 357 357 357 358 358 359 358 359 360 360 360 359 358 356 354
326 328 330 331 332 332 333 334 335 335 336 337 338 338 339 341 343 344 344 345 345 346 348 348 350 350 351 351 350 350 350 350 350 350 349 349 349 349 349 350 349 348 348 351 353 354 356 356 357 357 357 357 358 358 358 359 360 360 360 359 358 357 354
326 327 329 332 333 334 334 334 335 335 336 337 338 338 339 340 343 344 345 345 345 346 346 348 349 350 350 350 350 350 350 350 350 350 350 350 349 350 349 349 349 350 348 349 351 354 355 355 356 356 359 357 357 358 358 358 359 360 360 359 358 358 357
325 327 329 330 331 332 333 334 334 335 336 337 338 339 340 341 342 343 344 346 346 345 346 348 349 350 351 351 351 351 350 350 350 350 350 350 351 351 349 348 348 349 349 349 351 354 355 354 354 355 356 357 357 358 358 359 359 360 359 359 358 357 356
324 325 327 329 331 332 333 334 335 335 336 336 337 338 339 340 341 342 344 345 346 347 347 348 348 350 350 351 351 351 351 351 351 351 350 350 350 349 349 349 349 349 349 349 351 352 353 354 354 354 355 356 356 357 357 358 358 359 359 359 359 358 356
324 325 327 328 330 332 333 334 335 336 336 337 338 339 340 340 340 342 343 344 345 345 346 347 348 349 350 351 351 351 350 350 350 350 351 350 350 350 350 350 350 349 350 351 350 352 352 353 354 354 354 355 356 356 357 357 358 359 359 358 358 358 358
325 326 327 328 330 331 333 334 335 336 337 337 338 338 339 340 341 341 342 343 345 346 346 346 348 349 350 350 350 350 350 350 350 350 350 350 350 349 350 350 351 350 350 350 351 352 352 353 354 354 354 354 355 356 357 357 358 358 359 358 357 357 357
325 327 327 328 329 331 333 334 335 336 336 336 337 338 339 340 340 341 342 343 344 345 346 347 348 349 350 350 350 350 350 350 350 350 350 349 349 349 349 350 351 352 350 349 350 353 353 353 354 354 354 354 355 355 356 356 357 358 358 358 358 357 357
324 326 327 329 330 331 333 334 335 335 336 336 337 338 339 340 341 341 342 343 344 344 346 347 348 349 350 350 350 350 350 350 350 350 349 348 349 349 349 350 350 352 351 350 350 351 354 354 354 354 354 354 354 355 355 356 356 357 358 358 358 357 357
324 326 327 328 329 330 332 333 334 335 335 336 337 338 339 340 341 341 342 343 344 345 346 347 349 349 349 349 349 349 349 349 349 349 349 349 349 349 349 350 350 351 352 352 351 351 352 354 355 354 354 353 353 354 354 355 356 356 356 358 358 358 358
323 324 326 327 328 329 331 333 334 335 335 336 337 338 339 340 341 342 342 343 345 345 346 347 348 348 349 349 349 349 348 349 349 349 349 349 349 349 349 350 350 350 352 352 352 352 352 352 354 354 354 354 354 354 354 355 356 356 356 357 358 358 358
321 324 326 326 328 330 332 333 333 335 335 336 337 338 339 340 341 342 343 343 344 345 346 347 347 348 348 348 348 348 348 348 348 349 349 349 349 350 350 350 350 350 350 352 352 352 351 351 352 354 354 355 355 354 355 355 356 356 356 357 357 357 357
328 323 325 327 328 329 330 332 334 334 335 336 337 338 339 341 341 342 343 343 344 345 346 346 347 347 347 348 348 348 348 349 349 349 349 350 350 350 350 350 350 351 351 353 352 352 352 352 351 353 354 354 355 355 356 355 355 356 356 357 357 357 357
319 322 324 325 327 329 330 331 333 334 335 336 337 337 338 340 341 343 343 344 345 345 346 347 346 346 346 347 347 348 349 349 349 350 350 350 350 350 350 350 350 351 352 352 352 353 353 354 353 352 352 354 355 355 356 355 355 355 355 356 356 357 357
318 321 323 325 327 329 331 332 334 335 336 336 337 337 338 339 341 342 342 343 344 345 346 347 346 346 346 345 346 348 349 349 349 349 349 349 349 349 350 350 350 350 351 351 352 353 354 354 354 353 352 352 353 355 355 355 356 348 337 340 355 357 357
319 322 323 326 328 329 331 332 334 335 336 336 337 337 338 339 341 342 342 343 344 345 346 347 346 346 346 345 347 347 348 349 349 349 349 349 349 350 350 350 350 350 351 351 352 352 354 354 353 353 353 353 352 353 353 355 354 338 332 331 334 352 356
321 323 324 326 328 329 330 332 333 334 335 336 337 338 339 340 340 341 342 343 344 345 346 346 346 346 346 347 347 347 347 348 349 349 349 349 349 350 350 350 350 350 350 350 351 352 353 352 353 354 354 354 353 352 353 354 341 332 330 330 329 334 355
322 324 325 327 328 330 330 332 333 335 336 337 338 338 339 340 340 341 342 343 345 346 346 346 346 346 346 347 347 347 348 348 348 348 349 349 350 350 350 350 350 350 350 350 351 352 351 352 352 352 353 354 354 353 353 354 338 330 328 328 327 327 339
323 325 326 327 329 330 331 333 334 336 337 338 339 340 340 342 341 342 344 345 346 346 346 346 346 346 346 347 347 348 348 348 348 348 348 349 350 350 350 350 349 350 351 351 352 351 351 351 352 352 352 353 353 353 354 354 340 329 326 325 325 325 330
323 325 326 328 329 330 332 333 334 336 336 337 339 340 341 341 343 343 344 345 345 346 346 346 346 346 346 347 348 348 348 348 348 348 349 349 350 350 350 350 350 350 351 351 351 351 351 351 351 352 352 352 353 353 353 354 336 327 324 322 322 323 326
323 325 327 328 330 331 332 333 334 335 337 340 340 340 340 341 343 343 343 345 345 346 346 346 346 346 347 347 347 348 349 349 349 349 349 349 350 349 349 350 350 350 351 351 351 352 353 353 353 352 352 352 352 352 351 353 333 326 323 320 320 322 337
323 326 328 330 331 332 334 335 336 337 340 339 340 340 340 342 343 343 343 344 345 346 346 346 346 346 347 347 347 348 349 349 349 349 349 349 349 349 349 349 350 351 352 351 351 351 351 352 352 353 353 352 352 351 351 352 338 324 320 319 318 322 341
323 325 327 328 330 331 333 334 336 341 339 339 340 340 341 342 343 343 343 343 345 345 346 346 346 347 348 348 348 349 349 350 350 349 350 350 349 349 350 351 351 351 353 351 351 350 351 352 353 353 353 352 352 352 351 352 342 322 318 317 316 326 344
337 326 327 329 330 331 332 335 337 340 339 338 338 339 341 342 343 342 342 344 344 345 345 346 347 348 348 349 350 350 351 351 351 350 350 350 350 351 350 351 351 352 353 352 352 352 353 353 352 352 353 353 353 346 349 352 344 322 318 316 315 326 345
341 338 333 330 331 333 335 341 341 337 336 337 338 340 341 342 343 343 343 343 344 344 345 346 348 350 351 351 352 352 352 352 352 351 351 351 351 352 352 353 353 353 353 353 353 352 353 353 352 351 352 352 352 352 351 351 353 341 317 315 314 318 344
347 346 343 340 339 346 339 338 337 336 336 338 340 340 341 342 343 344 345 345 344 344 346 348 350 351 352 352 353 353 353 353 353 352 352 352 352 352 353 353 353 353 353 352 353 353 352 352 352 351 351 352 352 352 352 352 352 348 317 314 314 315 325
345 346 349 353 353 349 346 346 346 346 346 345 343 342 342 343 343 344 345 345 344 346 348 350 351 352 353 353 353 354 354 354 355 355 354 354 354 353 353 354 355 354 353 353 352 352 351 352 351 351 351 351 351 351 351 353 343 352 323 316 313 313 315
341 342 343 345 346 350 348 346 346 347 348 349 347 345 344 343 344 345 346 344 346 349 351 351 352 352 353 354 354 355 355 356 355 355 355 355 355 354 353 354 354 354 354 353 352 352 351 351 351 350 350 350 351 351 352 352 350 333 341 317 312 311 312
341 341 342 344 345 346 347 345 345 346 348 349 351 350 349 347 347 348 347 346 349 348 352 353 353 353 353 353 354 355 356 357 357 357 357 357 356 355 354 354 354 354 354 353 352 351 350 351 351 350 349 349 349 350 351 352 352 339 333 331 313 312 310
338 339 340 340 341 344 343 342 343 344 345 347 348 350 352 353 352 352 350 349 352 352 350 352 353 353 352 353 353 354 356 357 358 358 358 359 358 356 355 355 355 353 354 353 352 352 351 351 351 350 349 349 349 349 350 351 351 351 339 329 319 313 311
336 338 340 340 340 341 340 339 340 340 341 343 346 347 349 349 351 350 348 350 355 354 350 349 351 352 352 353 353 353 355 356 357 358 359 359 359 358 357 356 355 354 353 353 352 352 351 351 350 349 350 349 350 350 350 350 349 348 343 337 331 321 314
333 336 336 337 340 341 338 338 337 338 339 339 341 344 345 345 346 347 348 349 351 354 352 348 348 350 351 352 352 353 354 354 355 356 358 359 359 359 359 358 356 355 353 353 352 352 351 351 350 349 349 349 350 350 349 345 344 343 340 339 341 340 332
331 334 336 337 338 340 337 336 336 337 338 337 338 341 343 344 344 345 346 348 350 351 351 349 347 347 348 349 352 352 353 353 359 357 355 357 358 357 357 357 357 356 354 353 353 352 351 351 350 349 349 349 350 349 344 341 339 339 341 338 339 339 333
331 333 336 336 336 338 336 336 337 336 337 337 337 339 340 341 342 344 345 347 348 349 351 350 350 348 347 348 351 352 354 353 354 355 355 352 330 321 318 330 354 356 356 355 357 356 354 352 352 351 352 352 351 346 341 340 337 339 328 341 326 335 334
330 331 334 336 337 335 336 339 337 337 337 336 337 338 339 339 340 342 345 345 346 349 354 353 350 348 346 347 350 351 354 353 353 354 350 340 329 323 317 306 298 304 338 347 325 323 328 332 352 355 355 354 353 350 346 342 343 324 315 313 312 312 317
329 330 333 335 335 335 336 337 339 338 337 336 337 338 339 339 340 341 342 343 344 346 349 351 349 347 346 348 349 349 353 353 353 348 343 337 335 333 327 326 319 300 297 304 307 308 314 312 316 326 333 349 348 326 311 315 308 306 307 306 306 305 304
330 330 333 334 334 335 335 336 335 333 334 334 336 336 338 339 339 340 342 342 343 343 344 349 350 348 347 349 349 350 352 352 347 342 338 336 337 337 336 333 331 327 304 297 300 299 295 301 312 313 315 323 328 323 320 307 303 302 302 301 301 300 300

ECMWFFLT1_sfc_thetae_081.txt.gz
Theta_e
337 337 338 338 339 339 340 341 343 344 345 347 347 348 349 350 352 354 354 355 356 356 358 359 358 358 357 357 358 359 359 359 359 357 357 358 358 359 359 359 359 361 360 360 363 364 368 369 368 368 369 369 368 369 369 369 369 368 368 369 368 368 368
335 336 337 338 338 339 341 343 344 344 345 346 346 348 349 350 353 354 354 356 357 357 358 358 359 358 358 358 359 360 359 359 359 359 359 359 360 361 360 361 360 362 363 363 364 367 368 368 368 368 368 369 368 370 369 369 369 369 367 369 366 366 367
335 336 337 337 338 338 341 342 343 343 345 345 346 347 347 351 353 354 355 355 356 357 358 358 359 359 359 360 359 359 359 359 358 358 357 356 358 356 359 361 360 360 361 363 366 366 367 367 369 369 369 368 366 369 369 369 369 369 369 370 368 365 367
334 336 337 339 339 340 341 342 342 342 344 345 346 346 348 352 353 355 355 355 355 356 356 357 358 358 359 359 359 359 359 359 359 357 357 357 357 358 359 360 360 360 360 361 361 363 363 366 367 368 368 368 368 368 368 368 368 369 369 370 367 367 368
335 336 337 338 338 340 340 341 341 342 343 345 346 348 349 351 351 353 354 354 354 355 356 356 356 358 359 360 358 358 359 359 359 358 358 358 360 360 359 357 358 358 359 359 362 364 365 365 365 366 367 368 367 368 367 368 367 369 369 370 367 366 366
332 335 336 337 338 339 339 340 341 341 342 343 345 346 347 348 349 350 351 354 354 355 356 357 357 358 358 359 359 358 359 360 360 360 359 359 360 358 358 358 357 358 357 359 360 360 363 363 363 364 364 364 364 364 366 367 366 367 368 369 367 366 364
332 334 335 337 338 339 339 340 341 341 343 343 345 347 347 347 348 348 350 351 352 353 354 354 355 357 358 359 358 360 359 359 360 359 359 359 359 358 358 359 359 358 358 361 359 360 360 361 362 364 363 362 364 363 365 367 366 367 368 367 365 365 365
333 334 336 337 338 339 339 341 341 341 342 343 344 344 344 345 347 348 349 350 351 352 353 353 354 357 358 358 359 359 359 359 359 359 359 358 358 358 358 359 359 360 360 359 360 360 359 361 361 363 363 362 364 365 366 368 368 366 367 366 365 364 363
332 335 335 336 338 338 339 341 341 341 342 342 343 344 344 345 345 346 348 349 350 350 351 352 354 356 358 358 359 359 359 359 359 359 359 357 357 356 356 358 359 360 359 358 358 360 360 360 360 363 364 363 363 365 365 367 367 367 367 366 366 365 364
331 335 337 336 337 338 340 341 343 344 343 343 343 345 344 344 345 346 347 348 349 349 351 352 353 355 358 358 358 359 359 359 359 358 357 356 356 356 356 356 358 359 358 358 357 358 361 361 361 363 364 362 363 364 364 365 365 366 366 366 366 366 366
331 337 339 336 337 338 340 340 342 344 344 344 345 343 344 344 345 345 347 348 348 349 351 352 354 354 356 356 355 356 358 358 358 357 357 356 356 356 356 356 357 358 358 357 356 358 360 361 362 362 363 360 361 362 363 363 364 365 364 365 366 366 366
331 336 339 338 338 339 338 341 343 344 346 345 344 343 346 347 345 345 347 348 349 350 351 352 353 354 354 354 354 356 357 358 357 357 356 356 356 356 356 356 357 357 357 358 357 358 358 360 360 361 362 362 362 363 364 364 365 365 365 363 365 366 365
329 333 337 337 339 339 343 345 345 346 348 345 343 344 345 344 344 345 348 348 349 350 351 352 353 354 354 354 354 356 356 357 357 357 356 357 357 357 357 356 356 357 357 358 358 357 357 358 359 361 361 362 362 361 363 364 364 365 366 365 365 365 365
333 330 333 338 339 340 341 344 346 346 347 344 343 345 345 345 345 345 348 347 348 350 351 352 353 354 354 354 354 357 357 358 358 358 358 358 359 358 357 357 357 358 358 359 358 357 357 356 357 359 360 361 362 362 363 364 364 365 366 365 364 364 365
322 326 331 333 339 342 342 342 344 346 345 345 345 345 345 345 346 347 350 349 350 350 351 354 354 355 354 355 355 357 359 359 359 360 360 359 360 359 358 358 358 358 358 359 358 358 358 358 357 359 359 360 361 362 362 362 362 363 364 364 364 365 363
317 319 322 329 335 338 342 343 344 346 347 347 344 345 344 346 347 348 347 347 348 350 351 354 355 355 354 354 356 359 360 360 360 360 360 359 359 359 359 358 358 357 358 358 358 359 360 360 359 358 358 359 361 362 362 361 362 355 341 346 363 364 363
319 318 319 326 332 338 341 343 344 346 347 347 347 347 345 347 348 347 346 348 348 350 351 354 356 354 354 355 358 359 360 360 360 360 359 359 359 359 359 358 358 358 359 358 359 359 360 359 358 358 358 358 359 360 360 361 360 340 333 333 337 357 364
327 324 322 321 327 334 340 340 343 344 345 344 345 346 347 349 348 348 346 347 347 349 351 352 353 353 355 357 359 359 359 358 359 359 359 359 359 359 359 358 358 358 359 358 358 359 360 359 359 359 358 358 358 358 359 360 346 333 331 331 330 338 361
339 332 327 326 326 332 335 338 341 344 343 344 344 345 346 348 346 347 348 349 350 351 351 350 351 353 356 357 357 358 359 359 359 358 358 359 359 359 360 359 358 358 358 357 358 359 359 359 358 359 359 359 359 357 358 359 341 331 329 329 328 328 342
344 341 333 330 328 328 335 340 342 344 344 346 346 345 346 348 348 349 350 351 352 351 352 352 352 354 355 356 357 358 359 359 358 357 358 359 359 359 359 358 358 357 357 357 358 358 358 358 359 359 360 360 360 360 360 360 343 329 327 326 326 327 333
343 345 339 332 332 332 339 343 345 346 346 345 345 347 347 348 349 351 350 351 351 352 354 353 353 355 356 356 357 358 358 358 358 358 358 359 359 359 358 357 358 357 356 356 356 358 358 357 358 359 360 359 359 360 359 360 337 325 324 323 322 324 328
343 344 341 334 335 338 343 340 342 343 345 346 345 345 347 348 348 348 349 352 351 351 353 354 356 356 356 356 356 356 357 357 358 358 358 358 358 357 357 358 358 358 357 357 356 358 358 358 358 358 359 359 359 358 358 359 333 325 323 321 321 323 344
345 346 342 338 337 339 346 346 347 345 350 347 346 346 346 347 348 348 349 349 350 352 352 353 354 353 356 355 355 355 356 356 357 357 358 358 357 356 356 357 358 359 359 357 357 356 356 358 357 359 358 358 359 358 358 359 340 324 321 319 319 325 351
349 347 338 335 341 344 347 347 347 350 346 347 346 347 348 349 348 349 349 349 349 351 350 351 353 355 357 355 355 356 356 357 357 357 357 357 356 356 356 357 358 358 359 357 356 355 357 358 358 359 359 358 358 358 358 359 342 320 319 318 317 331 354
348 347 339 337 340 341 343 347 347 347 349 348 345 348 350 349 349 349 349 350 349 349 350 351 354 355 355 355 356 357 357 358 358 357 356 356 356 356 356 357 358 358 359 357 357 357 359 359 358 358 360 359 358 350 355 359 346 318 319 316 315 331 357
346 347 341 340 341 345 349 352 351 346 346 345 349 350 350 349 348 349 349 349 349 349 351 353 356 357 357 357 358 359 359 359 359 358 357 357 357 358 358 359 358 358 358 358 358 357 358 358 358 358 359 359 359 358 358 358 360 345 316 316 314 319 355
348 349 347 341 342 349 348 349 347 345 344 349 354 349 349 349 349 351 353 352 351 351 353 357 360 360 359 359 357 358 358 358 359 358 357 358 358 358 358 359 358 358 358 357 357 358 358 358 359 358 358 359 360 359 359 359 359 361 315 315 313 315 328
346 348 350 351 353 349 347 344 348 347 346 353 351 350 351 353 353 355 354 353 352 355 356 359 360 360 359 359 357 357 357 357 359 359 358 359 360 359 359 360 360 359 359 358 358 358 358 359 358 358 357 359 359 360 360 359 349 361 322 315 313 313 316
341 344 347 349 350 352 348 346 345 344 348 349 349 351 353 353 353 354 355 353 356 356 358 359 359 360 360 360 358 358 358 358 359 358 358 359 361 361 359 360 360 360 361 360 359 359 358 359 358 358 357 358 359 359 360 362 360 337 348 316 313 311 312
340 342 344 346 349 351 353 353 353 352 351 350 353 355 355 354 354 354 354 354 359 359 360 362 361 362 360 360 359 359 358 359 359 359 359 361 361 360 360 360 360 360 361 360 358 358 357 356 357 356 355 355 355 358 359 362 362 343 335 336 313 312 310
338 340 342 343 345 349 352 353 354 353 353 354 355 357 356 357 355 355 354 359 362 359 359 360 360 360 359 358 359 360 359 359 359 359 359 360 360 359 359 360 360 359 360 360 358 357 356 355 357 355 355 355 355 357 359 360 360 362 345 331 319 313 311
335 340 341 343 345 347 349 351 354 355 354 356 357 356 357 358 359 356 359 364 363 362 362 360 360 360 359 359 360 359 359 359 359 360 361 361 361 360 360 360 359 359 360 359 358 358 357 356 356 355 356 356 357 357 359 360 361 361 361 341 332 322 315
332 336 339 340 343 347 347 350 349 350 352 352 357 360 360 361 362 365 365 363 365 363 363 362 361 359 360 360 359 361 361 360 359 360 361 363 362 362 362 361 361 361 359 359 357 358 357 357 356 355 355 355 357 358 359 360 360 360 360 358 353 347 338
330 334 339 342 344 346 346 347 347 348 349 349 352 357 359 361 362 364 365 366 367 365 365 364 361 358 359 359 359 360 361 361 362 362 361 362 362 361 361 361 362 361 360 358 359 357 356 356 355 355 356 356 357 359 359 359 359 360 359 358 356 354 352
330 333 337 340 344 345 344 346 346 347 347 348 351 353 355 357 359 361 363 365 366 367 364 364 363 363 364 363 362 362 362 363 363 362 362 363 364 367 369 368 363 362 362 363 364 362 360 360 359 358 360 360 360 359 359 360 360 360 339 358 336 351 356
329 333 337 341 345 345 345 346 346 346 345 347 350 352 353 354 356 359 361 365 367 366 363 363 362 362 363 364 364 365 363 363 363 362 362 363 364 353 337 308 299 313 359 367 351 340 333 336 361 364 363 361 363 365 362 361 363 337 322 322 319 319 323
329 332 335 339 342 344 345 346 346 348 346 347 350 350 351 352 354 357 358 361 366 369 368 365 361 360 360 361 361 359 363 362 363 365 366 366 361 355 349 345 336 301 296 305 315 324 322 318 321 327 335 360 365 360 338 334 334 321 313 312 311 310 310
330 331 334 336 337 340 342 344 345 345 346 349 349 350 351 350 351 354 355 359 362 367 369 368 365 362 360 360 362 358 361 363 364 364 363 358 357 355 352 351 349 344 307 296 300 304 306 310 311 311 311 317 337 354 356 325 312 308 306 308 308 307 304

ECMWFFLT1_sfc_thetae_084.txt.gz
Theta_e
340 342 344 347 348 347 348 349 351 350 352 354 354 354 355 356 357 359 360 361 362 362 363 364 363 362 360 360 361 364 364 363 365 363 363 362 362 361 361 359 359 360 358 358 362 361 365 368 366 367 369 369 369 369 371 371 370 368 369 371 369 366 367
337 338 341 344 346 347 349 351 352 351 352 353 354 356 355 357 358 358 360 362 363 363 363 364 363 362 361 361 362 364 365 364 365 364 364 363 363 362 363 363 361 362 362 361 361 365 366 367 367 368 368 370 369 370 370 372 371 370 367 370 368 366 367
335 336 339 342 344 346 349 350 351 351 353 353 354 355 355 357 358 360 360 361 362 364 364 364 364 362 362 363 363 364 364 365 363 363 362 360 362 359 363 364 363 361 362 363 364 364 368 368 370 369 368 368 366 369 370 371 372 369 369 370 369 365 368
331 335 337 342 346 348 349 350 351 351 352 353 354 354 356 358 360 361 361 362 362 363 363 364 363 362 363 363 363 364 364 364 363 363 362 361 362 362 362 364 366 363 362 362 362 363 363 368 366 368 369 367 367 366 369 368 367 368 368 370 366 367 369
331 334 336 341 343 346 347 348 350 351 351 352 354 357 357 358 359 359 361 362 362 362 363 363 361 363 363 364 363 364 364 364 363 364 365 363 365 365 363 362 363 363 361 364 365 367 367 367 365 367 368 369 365 366 367 368 366 368 368 369 367 365 365
331 333 335 339 343 345 346 348 349 350 350 351 353 354 356 357 357 357 359 361 362 363 364 364 363 364 363 364 364 364 364 365 365 366 366 366 365 364 364 363 362 363 360 363 364 365 367 366 365 364 364 364 362 361 363 365 364 365 367 368 367 365 363
330 334 337 339 342 344 346 347 348 349 351 351 353 355 355 355 355 356 358 360 361 361 362 362 363 363 364 364 364 365 365 364 365 365 366 366 365 365 365 365 365 364 362 365 364 365 365 366 366 365 365 362 363 361 362 365 364 365 366 368 367 366 367
330 334 339 341 342 343 345 347 348 349 351 351 351 352 353 353 354 356 357 358 359 359 360 360 362 363 365 365 365 365 365 366 365 365 366 366 365 365 364 365 365 365 365 362 365 365 364 366 365 365 365 364 364 365 364 366 368 364 364 366 366 366 364
330 337 340 340 342 343 345 347 348 348 350 350 350 351 352 353 353 354 356 357 358 357 358 359 361 363 365 365 366 366 366 365 364 365 367 365 363 362 363 364 365 365 364 362 363 366 364 364 364 366 368 366 365 367 367 368 368 367 365 365 367 366 363
328 335 342 341 342 342 345 347 349 350 350 349 350 352 352 352 353 354 355 355 356 356 357 359 360 361 364 365 365 366 366 367 366 365 364 362 362 362 362 362 363 365 365 363 362 363 366 365 365 367 369 367 367 367 369 368 367 367 367 367 368 367 367
332 339 343 342 343 344 346 346 348 349 349 351 351 350 352 352 352 353 353 354 354 355 357 358 360 360 363 364 363 364 365 365 364 364 363 362 361 361 362 361 362 364 364 364 361 362 365 366 366 367 369 366 367 367 368 368 369 368 366 366 368 368 366
334 337 342 344 344 344 345 348 350 351 352 352 350 350 353 353 352 352 353 354 355 355 356 358 359 360 361 362 361 363 364 365 364 364 363 362 360 360 361 361 361 363 364 364 362 362 363 365 365 365 368 370 368 368 369 370 369 369 368 364 366 367 367
332 337 340 340 342 343 348 350 350 351 353 351 350 350 351 352 351 351 353 354 354 356 357 358 359 360 361 362 360 362 363 365 364 363 362 363 362 361 361 361 360 361 362 363 362 361 360 363 366 366 367 369 369 367 369 370 368 369 369 367 366 366 368
338 328 336 340 342 343 345 348 350 352 352 351 350 351 351 352 351 352 353 353 354 355 356 357 359 359 360 361 361 363 363 365 366 364 364 364 365 364 362 361 361 362 363 364 363 360 360 360 363 365 366 367 368 368 369 370 369 369 370 369 366 364 366
323 322 327 335 343 345 346 346 351 353 353 351 351 350 351 351 352 353 354 355 355 355 356 358 358 359 360 361 361 363 365 366 366 367 365 364 365 365 364 363 363 363 364 365 364 361 360 361 362 364 365 366 367 368 367 366 368 368 368 368 368 366 364
327 326 325 324 339 343 348 349 351 354 355 354 351 351 350 351 352 352 352 352 353 355 356 358 359 359 360 360 362 364 366 367 368 367 367 365 365 366 365 364 364 362 363 364 364 364 364 364 363 362 364 365 367 368 367 366 367 362 347 353 367 367 363
335 338 341 341 338 337 347 350 351 355 356 355 352 351 350 351 352 352 351 352 353 354 356 357 359 359 359 361 363 365 367 367 367 367 366 366 366 366 366 364 364 364 365 365 365 365 366 364 363 362 362 364 365 366 365 366 365 346 336 338 344 363 367
338 344 345 348 352 350 341 344 349 352 354 353 352 351 351 353 352 352 351 352 353 353 355 356 358 359 361 362 364 366 367 367 368 367 367 367 367 367 367 365 365 365 366 365 365 366 365 364 364 364 362 362 364 364 365 366 352 333 333 335 335 345 365
341 343 345 349 351 353 352 344 340 351 352 352 351 351 351 353 352 352 352 354 354 355 354 355 357 360 362 363 364 367 368 368 367 367 367 367 367 368 367 367 366 365 365 364 366 366 366 367 365 365 364 363 364 363 363 365 344 330 331 332 332 334 348
343 345 346 349 351 351 354 355 348 341 351 353 353 351 352 355 352 353 354 354 356 355 355 357 358 361 361 363 365 368 368 367 367 367 367 368 367 368 367 366 365 364 364 365 366 366 366 365 366 366 367 365 365 365 365 366 343 329 327 328 329 330 339
343 345 347 349 351 352 356 357 355 345 344 350 350 352 352 353 353 354 354 355 354 355 356 357 360 362 363 363 366 367 367 367 367 367 367 368 367 367 367 366 366 365 364 363 364 365 365 365 365 366 367 365 364 364 363 365 334 326 324 324 324 327 332
342 344 346 349 352 354 356 355 352 345 340 350 351 349 350 352 353 353 353 354 353 354 356 358 360 361 363 363 365 365 366 366 366 367 367 367 366 366 365 366 367 366 365 364 363 365 366 366 366 366 366 366 365 363 363 364 329 324 323 322 323 324 350
338 344 348 351 353 354 356 354 351 346 345 348 351 348 350 353 353 353 352 352 353 355 354 356 359 361 363 362 362 363 365 365 365 365 366 366 365 365 364 365 366 366 367 364 363 362 363 365 364 366 365 365 366 365 364 365 340 321 320 321 320 327 357
337 346 349 351 355 355 352 348 347 348 346 349 350 349 350 353 352 353 352 351 352 353 354 356 358 361 363 362 363 363 365 365 365 365 365 365 364 364 364 365 366 366 367 364 361 360 362 364 365 366 366 364 365 364 365 365 343 318 318 319 317 335 359
336 347 350 352 353 350 345 347 349 348 350 352 348 349 353 354 352 351 352 353 352 354 354 356 359 361 362 362 363 364 365 365 366 365 364 364 364 364 364 365 365 366 366 364 363 361 364 365 365 364 366 364 364 357 361 365 346 317 318 317 316 337 362
339 348 350 353 355 351 348 352 352 348 349 349 350 351 353 352 352 353 353 353 353 353 355 358 360 364 365 364 364 365 365 366 367 366 364 365 365 365 365 366 365 365 364 364 363 362 362 362 364 364 364 364 363 363 363 363 366 340 316 316 315 322 360
343 348 350 352 353 356 350 351 350 349 349 350 353 352 353 352 353 354 356 356 355 355 356 360 364 366 366 365 363 363 364 365 366 365 364 366 365 365 365 365 364 363 365 363 362 363 362 361 363 362 364 364 364 364 364 363 364 356 314 315 314 317 332
341 347 350 354 355 354 351 350 350 350 348 353 353 353 354 355 355 355 357 356 355 357 359 362 365 366 366 364 363 363 363 363 366 366 364 366 367 366 365 366 366 365 365 363 364 364 363 364 363 362 362 364 364 365 366 365 355 372 320 316 313 315 319
336 344 347 349 353 355 352 349 348 347 350 352 353 353 355 356 356 358 358 356 359 360 362 363 365 366 366 365 362 364 364 365 365 365 363 364 366 366 365 366 366 366 366 366 364 364 363 364 364 363 362 362 364 365 366 369 366 341 343 316 314 312 315
335 343 347 349 349 354 353 354 350 349 351 354 356 357 357 358 357 359 359 359 363 362 362 366 367 368 365 364 363 363 364 364 365 366 365 365 366 366 366 365 365 366 365 365 364 363 362 362 362 362 361 360 361 363 363 366 364 346 336 331 313 313 313
333 338 344 347 350 352 355 355 357 351 352 356 358 358 359 360 360 362 360 363 364 362 364 367 367 365 364 363 363 364 363 364 365 365 364 364 365 365 365 366 366 363 365 365 363 363 362 362 361 359 359 358 358 360 361 362 363 367 346 328 318 314 312
333 337 343 348 351 353 353 355 358 359 356 356 358 359 361 362 364 363 362 365 366 365 367 367 365 365 364 363 363 363 363 363 363 364 364 364 365 366 366 366 364 363 364 362 360 361 360 359 358 357 359 358 360 360 361 364 364 365 364 338 328 321 314
331 336 341 344 347 352 354 353 354 356 357 358 361 362 362 363 363 365 365 367 367 364 368 367 366 363 363 363 362 363 363 362 361 361 364 365 365 366 367 366 366 365 362 363 361 361 359 360 359 358 357 359 360 362 363 363 363 365 364 360 352 347 336
330 334 339 344 346 347 350 352 352 353 355 358 361 360 360 361 362 364 366 368 366 366 368 365 365 363 363 362 362 361 362 361 360 361 362 363 363 363 365 365 365 364 362 363 362 360 360 360 358 357 359 359 360 362 361 362 363 364 364 365 362 359 356
329 332 336 340 343 345 346 348 350 352 352 354 359 361 362 363 365 367 369 366 365 366 365 363 365 363 364 363 363 362 364 363 363 361 361 363 365 364 366 365 363 364 365 367 367 365 363 363 361 361 362 362 363 361 362 364 364 365 344 368 343 359 362
329 330 333 337 340 342 345 347 349 351 353 355 357 358 359 362 364 366 367 368 366 367 365 365 363 362 363 363 363 363 363 363 362 362 361 363 364 364 359 318 307 330 370 368 351 340 336 339 364 367 366 364 366 370 366 367 368 342 328 328 324 328 330
328 329 330 333 335 337 341 345 346 347 349 352 357 358 359 360 362 364 367 369 370 369 367 367 363 360 361 362 361 360 364 363 363 365 365 365 366 367 365 359 344 300 296 308 317 328 327 322 319 315 317 351 372 366 334 321 316 315 315 315 315 316 318
328 327 330 332 333 335 338 342 344 345 346 349 352 356 359 358 360 363 364 368 370 369 368 367 362 358 359 361 361 363 366 366 366 367 365 365 368 369 366 362 359 354 307 297 301 300 300 301 302 303 308 310 320 349 374 326 307 305 309 311 310 310 306

ECMWFFLT1_sfc_thetae_087.txt.gz
Theta_e
338 341 346 348 349 350 351 352 354 353 354 356 356 356 355 357 358 359 361 363 364 365 366 367 366 366 365 364 365 365 366 364 365 362 360 359 358 359 361 360 359 356 351 353 360 359 363 364 362 364 366 367 367 367 369 369 369 367 368 370 366 364 364
335 337 341 343 347 349 352 354 355 354 355 356 357 357 356 356 358 358 360 364 365 365 366 367 366 366 365 366 366 367 366 365 366 365 364 363 362 362 362 363 360 358 357 355 358 363 363 364 363 364 365 368 367 368 366 369 369 369 366 369 367 365 365
335 337 339 340 340 345 352 353 354 354 355 355 357 357 356 359 360 361 361 363 365 366 367 367 367 366 367 368 367 367 367 366 366 365 364 360 362 359 361 363 361 357 356 355 359 360 363 364 367 366 365 365 365 367 367 368 369 368 368 368 367 364 366
336 338 339 342 345 348 352 353 354 354 355 356 357 358 358 360 361 361 362 364 364 366 365 366 367 366 366 367 366 367 367 366 366 365 364 363 363 362 361 361 362 358 358 356 356 358 359 363 365 367 367 366 366 365 366 366 365 367 367 368 366 365 367
332 336 340 340 340 343 349 352 353 354 354 356 357 360 360 359 360 361 362 364 364 365 365 365 365 366 366 367 364 364 364 365 365 366 365 364 365 364 361 358 359 358 358 359 360 361 363 363 364 366 366 368 366 366 365 366 365 367 367 369 366 364 363
327 330 335 338 339 343 347 351 353 353 354 354 356 358 359 359 360 359 361 363 364 365 367 367 365 366 365 365 363 363 365 366 367 368 367 366 364 362 360 359 358 359 356 360 360 359 361 361 362 363 364 364 362 360 363 365 365 364 367 368 367 363 360
326 328 331 336 339 342 347 350 352 354 354 354 356 358 359 358 358 359 361 362 364 364 364 365 364 364 365 364 364 366 365 365 366 367 367 365 364 364 363 361 361 360 358 362 360 360 361 362 363 362 362 361 362 359 361 365 363 365 365 367 367 367 366
326 327 330 334 337 340 341 343 350 353 354 354 354 356 356 357 358 359 360 361 363 363 363 363 363 365 365 365 365 364 366 365 366 366 367 366 364 364 363 363 361 363 363 359 362 362 361 364 363 362 361 360 360 362 360 364 366 362 364 365 366 367 363
327 330 330 331 334 337 341 345 347 352 354 354 354 355 357 357 357 358 359 360 362 362 363 363 363 364 366 365 365 365 365 366 366 366 366 365 364 362 362 364 364 363 363 359 360 363 362 363 363 364 364 363 362 363 361 365 363 364 364 364 365 366 363
327 329 333 334 335 336 341 341 348 354 354 354 354 356 357 357 357 358 359 360 361 361 363 362 363 363 365 364 364 365 366 366 366 364 363 363 362 361 361 361 363 363 363 361 359 361 364 363 365 364 366 363 363 364 364 363 362 364 364 363 364 365 366
328 333 334 333 336 337 339 340 346 352 355 357 355 354 357 357 357 358 358 359 360 361 362 362 363 362 364 364 362 363 365 365 364 364 363 362 361 362 360 359 361 364 363 362 358 359 363 364 366 367 366 362 363 364 365 364 365 365 363 363 364 365 365
330 336 339 337 337 337 337 346 351 357 358 358 354 354 358 359 357 357 358 359 361 360 361 361 361 362 364 363 361 362 364 365 364 363 362 361 360 360 360 358 359 361 362 363 360 359 361 363 363 364 367 367 366 366 367 368 368 367 366 362 363 364 365
328 334 339 338 342 344 347 355 355 355 358 354 354 354 356 356 357 357 358 359 360 361 362 362 361 363 364 363 361 363 364 365 363 363 361 361 360 360 359 358 357 358 360 362 361 358 357 361 363 364 366 369 368 366 367 369 368 370 369 366 364 364 365
337 330 335 336 338 340 343 351 355 356 357 356 354 354 355 356 356 356 358 358 360 361 360 360 361 362 364 363 361 363 363 366 365 362 363 362 365 362 360 358 357 357 360 363 362 358 357 358 361 363 365 368 368 368 369 370 370 371 372 369 365 363 364
327 324 328 330 340 342 344 345 355 356 355 355 355 354 354 354 356 358 359 359 360 360 360 361 361 362 363 364 362 366 368 368 367 366 365 365 365 362 361 360 359 359 361 364 362 359 357 357 359 362 363 366 369 368 367 368 369 370 370 371 368 365 362
328 329 328 330 337 341 344 346 351 356 357 359 356 355 352 354 357 356 356 357 358 359 360 361 362 363 363 363 364 367 369 370 370 367 368 365 365 365 362 361 361 357 358 361 362 362 361 360 358 360 362 363 366 368 366 366 369 365 352 356 369 367 362
331 331 333 335 338 338 343 348 349 353 357 359 358 355 354 355 357 356 355 356 357 358 359 360 363 362 362 365 367 368 371 371 369 370 369 368 365 365 365 363 362 361 364 364 364 365 366 362 357 357 361 362 364 366 365 365 366 350 339 341 349 366 367
325 330 333 335 338 342 344 343 345 350 353 355 356 356 355 358 355 356 355 355 356 356 357 359 360 361 365 366 368 369 370 370 370 370 369 368 368 368 367 363 364 365 366 362 363 368 363 360 359 362 359 361 363 364 365 366 355 336 336 338 338 350 368
331 332 336 339 340 343 341 339 341 345 349 355 356 354 354 355 354 356 357 357 357 358 357 358 359 362 366 367 368 370 370 372 371 370 368 369 369 369 368 367 365 363 362 361 364 365 366 366 362 362 361 361 364 362 364 365 346 332 333 335 335 336 354
338 340 340 343 344 344 346 343 344 348 353 354 356 357 356 357 354 357 357 357 358 358 359 360 360 363 364 367 369 370 371 372 371 370 370 370 370 370 368 366 365 363 362 363 366 367 366 363 364 364 366 364 364 366 365 368 342 330 329 332 331 334 342
333 334 336 339 342 345 349 354 357 357 358 356 351 353 358 355 354 357 357 357 356 358 361 359 362 365 365 366 368 370 371 371 371 371 371 371 370 371 369 367 367 365 363 362 364 366 367 365 364 365 366 363 362 363 363 366 333 327 326 327 328 330 336
329 330 332 336 340 344 349 352 355 357 359 362 361 355 353 356 355 354 355 356 356 357 358 360 364 362 365 366 368 369 371 370 371 371 371 370 370 370 369 368 369 368 365 364 362 366 367 368 366 365 365 365 363 361 362 365 325 326 325 325 326 328 355
327 329 332 335 338 342 349 354 356 359 362 361 359 357 351 354 356 354 354 354 354 356 356 357 360 362 365 365 366 368 370 370 370 371 370 370 369 369 369 369 369 368 368 364 362 362 365 367 365 367 366 366 365 363 364 364 334 322 321 322 323 331 361
327 329 331 333 337 342 349 354 357 360 359 356 354 354 352 352 356 354 355 354 354 355 355 356 358 363 366 365 367 368 370 371 371 370 370 370 369 369 369 369 369 368 369 365 362 358 362 366 366 366 366 365 365 364 363 363 344 317 319 320 320 338 362
325 327 330 332 335 339 348 354 357 358 359 355 350 352 352 352 356 354 354 354 353 354 355 356 359 362 364 365 367 369 370 370 371 370 369 370 369 368 369 369 369 370 370 365 364 361 362 363 364 364 366 365 365 362 362 363 348 316 319 318 317 339 365
322 325 328 331 336 343 352 356 356 355 354 351 353 353 352 349 354 356 355 354 353 354 355 357 361 365 368 368 369 370 370 370 371 372 370 370 370 370 370 370 369 369 367 366 365 362 359 360 362 363 364 363 363 363 365 365 361 334 317 316 316 325 364
323 325 328 330 336 344 350 353 354 354 354 354 357 352 351 350 354 358 361 359 358 356 356 361 365 368 370 370 368 368 369 370 371 370 369 370 370 369 369 369 368 367 368 365 364 363 362 359 360 361 362 362 362 361 363 364 365 345 315 316 316 320 337
322 324 328 332 338 344 350 352 353 354 355 357 354 352 352 358 360 361 364 361 357 360 358 363 367 368 370 370 368 367 368 369 371 371 369 370 371 370 369 370 370 369 369 366 366 366 365 365 362 359 359 361 360 362 362 364 356 359 318 317 314 317 324
319 321 323 328 337 345 349 351 352 352 354 354 352 354 356 356 363 365 363 360 361 360 363 363 365 368 370 370 367 368 369 370 371 370 368 369 370 369 369 370 369 370 371 369 368 366 365 365 363 361 360 360 361 362 364 370 370 343 335 316 314 314 317
318 320 323 328 337 346 351 353 353 353 355 354 356 358 357 359 364 364 361 361 366 363 364 367 367 370 369 368 367 367 368 368 369 369 368 370 371 370 370 369 369 369 370 369 366 365 364 365 365 363 360 359 360 361 360 369 370 344 331 326 313 313 315
317 318 321 329 336 344 351 355 355 356 355 355 359 360 361 360 363 363 362 364 368 369 365 367 368 368 368 366 366 367 367 367 369 368 368 369 370 370 368 369 369 367 369 369 367 366 365 365 365 363 361 360 359 360 361 363 366 364 338 324 317 314 313
317 320 324 330 336 342 348 355 356 357 357 357 360 360 361 363 361 362 363 365 368 368 368 368 369 369 368 366 366 366 365 366 367 367 366 368 370 370 369 369 367 367 368 367 366 365 365 364 363 363 363 360 361 361 362 365 365 370 355 331 324 320 315
317 320 325 328 333 339 346 355 354 354 356 354 358 360 359 360 361 365 367 368 366 365 369 370 370 367 368 366 365 367 366 366 365 365 366 369 369 369 370 369 368 368 365 366 364 364 363 363 361 361 361 360 360 361 362 364 363 364 366 352 344 341 334
317 321 327 329 333 337 343 353 355 355 356 356 359 360 359 360 361 364 365 366 365 365 370 369 369 367 367 365 364 364 364 365 364 364 364 366 367 366 367 368 369 365 365 364 364 361 359 360 359 359 358 358 359 359 360 360 362 362 363 360 356 354 349
319 324 326 327 332 336 338 348 351 354 355 357 361 361 360 361 361 364 365 367 367 369 368 367 367 368 368 366 365 365 366 365 365 365 364 364 367 367 369 367 367 369 366 368 368 365 362 362 360 360 361 361 361 359 360 362 362 364 344 367 339 354 358
320 324 324 328 331 334 337 345 350 352 354 356 358 361 360 362 363 366 364 366 367 368 369 368 367 367 366 365 365 365 363 364 362 364 363 364 363 365 359 317 308 334 373 369 351 341 337 341 368 371 364 362 365 368 363 361 366 342 331 323 324 324 328
320 321 324 327 328 330 333 344 347 349 352 355 357 359 362 364 366 367 366 367 366 367 368 368 364 364 365 364 363 360 363 362 363 363 366 366 365 365 365 360 346 303 297 310 324 331 306 298 301 306 314 362 371 354 313 321 319 317 316 317 320 317 318
319 322 325 327 326 328 333 342 343 344 347 352 354 359 361 359 362 364 365 368 368 368 368 368 364 362 362 363 362 368 369 364 365 364 364 365 366 366 365 363 359 351 310 298 303 301 297 298 298 300 305 305 321 361 361 319 308 308 309 309 312 314 313

ECMWFFLT1_sfc_thetae_090.txt.gz
Theta_e
338 337 341 344 345 344 344 346 347 347 349 352 353 351 351 352 354 356 357 361 362 362 363 363 364 363 362 360 362 362 361 361 361 359 358 358 357 360 362 360 358 360 356 359 361 362 365 367 366 364 368 370 369 371 373 373 373 370 374 374 372 376 367
335 339 341 342 342 345 348 349 349 348 350 352 353 353 352 353 355 356 358 362 363 363 362 363 364 363 363 361 361 362 361 361 362 361 360 360 360 362 364 363 362 362 361 358 363 366 368 364 368 365 368 369 368 371 369 372 373 372 370 374 371 372 370
334 333 339 340 341 345 346 346 350 349 352 350 352 352 351 354 357 358 360 361 362 364 363 363 364 363 363 362 362 361 361 362 363 361 359 357 359 354 360 364 364 362 358 359 365 364 366 365 368 368 368 366 365 371 371 371 372 370 373 373 371 367 372
335 334 341 343 344 346 349 349 349 350 349 349 352 353 353 357 358 360 361 361 362 363 363 363 363 363 363 362 361 361 361 363 363 359 357 357 357 356 357 362 364 361 360 355 355 361 359 365 365 369 370 369 368 367 367 368 367 369 370 372 370 369 371
335 335 336 339 340 344 345 347 350 349 349 351 353 358 356 358 357 358 360 361 363 362 362 362 361 364 364 363 360 360 361 363 363 362 360 359 359 358 357 356 360 359 360 356 357 363 367 364 364 366 367 370 367 368 368 369 367 370 370 371 370 367 367
335 336 339 341 341 341 342 344 345 347 348 347 349 356 356 355 355 355 357 360 363 363 365 364 363 364 363 363 362 362 364 364 363 364 362 361 361 358 357 358 358 359 356 357 354 357 368 362 363 364 363 363 362 362 363 365 365 366 369 370 368 367 363
335 335 336 337 340 340 341 343 346 351 350 347 350 354 357 356 355 355 356 359 362 362 362 363 363 362 363 364 363 365 363 362 364 364 363 361 362 360 359 359 360 359 357 359 355 356 358 362 362 364 364 361 363 362 363 366 365 365 368 368 370 370 370
333 334 338 342 343 344 341 342 345 347 350 349 349 351 356 356 355 356 356 358 361 362 362 362 362 363 363 364 362 363 362 363 362 363 363 360 361 361 362 360 360 361 359 358 360 358 356 360 360 364 364 362 363 363 364 367 368 364 366 367 367 366 363
332 336 337 339 339 339 340 344 344 345 349 347 344 347 352 356 355 355 357 358 360 361 361 362 363 363 365 364 362 363 365 363 363 363 362 360 359 358 360 359 359 361 359 355 356 361 358 360 359 363 365 364 364 364 364 367 365 364 365 365 366 365 363
328 334 337 336 339 341 345 344 347 348 351 350 348 348 350 356 357 357 357 357 359 361 361 362 363 363 364 364 362 363 364 364 363 361 360 359 359 358 359 358 357 359 359 356 356 358 361 362 361 364 365 363 364 364 363 366 364 363 364 365 366 365 366
326 331 334 336 338 339 343 344 347 351 350 352 351 351 356 357 356 356 356 357 358 361 363 364 364 363 363 362 362 360 362 361 361 360 360 359 359 358 357 358 357 356 356 355 355 357 359 363 364 364 365 361 362 363 362 362 363 363 361 363 364 366 365
334 338 333 334 338 339 340 342 349 354 354 352 352 353 357 358 357 357 357 358 359 360 362 363 364 363 363 363 360 359 361 361 361 361 359 359 358 358 357 357 357 355 356 357 355 357 357 361 362 363 364 362 362 364 363 363 363 364 363 362 363 364 364
333 345 343 334 340 339 344 346 349 351 354 355 353 353 357 356 356 356 359 359 359 361 362 364 363 364 362 362 359 360 362 362 361 360 359 360 359 358 358 356 357 357 355 358 356 355 357 358 360 363 364 364 363 362 363 363 362 364 365 364 363 363 363
339 333 338 347 347 348 345 354 351 351 354 356 354 354 355 356 356 357 360 359 360 361 362 363 364 364 364 362 361 362 363 362 362 362 362 361 362 362 359 356 358 360 360 360 358 354 355 357 358 361 363 364 362 363 364 365 364 365 366 366 364 363 363
326 328 334 334 344 348 352 358 354 353 354 354 353 354 354 355 356 359 361 360 361 360 361 364 364 364 363 363 362 363 364 365 364 364 364 363 363 362 361 359 359 361 362 361 359 356 354 358 358 360 361 364 364 364 363 365 365 365 366 365 365 363 362
327 327 330 329 337 339 348 355 364 367 362 361 356 357 353 356 359 359 359 359 359 361 361 365 364 363 362 362 363 365 366 367 366 364 365 364 363 363 362 361 360 358 361 361 360 359 358 356 360 360 360 363 366 366 364 364 366 361 351 354 364 364 359
324 326 331 334 341 340 345 349 354 361 361 361 365 363 358 359 360 358 356 357 358 361 362 363 364 363 363 363 365 367 367 367 366 366 365 364 364 363 362 361 359 358 360 362 361 360 361 359 359 359 360 361 363 365 364 364 365 349 339 342 349 362 363
332 335 336 339 341 343 345 342 344 345 345 349 350 359 360 364 360 358 356 357 357 358 359 361 364 363 364 366 367 369 368 367 368 367 366 365 364 363 363 361 360 359 361 361 361 363 362 359 359 360 360 359 362 363 365 364 355 338 337 339 340 351 365
332 331 333 335 337 340 342 346 349 353 352 349 351 348 349 354 355 358 359 359 360 360 359 359 360 363 365 367 368 369 369 368 368 367 366 365 365 365 363 362 361 360 360 360 361 363 363 361 359 360 360 360 360 362 365 365 346 334 334 336 336 339 357
328 329 331 333 335 337 340 343 345 348 351 355 354 349 348 355 352 358 359 358 362 361 360 361 361 363 364 368 368 369 370 369 368 367 366 366 367 366 363 362 362 360 359 359 361 363 363 362 360 360 362 361 362 362 364 365 345 330 331 332 333 335 344
325 327 328 330 332 334 337 340 343 346 350 352 353 356 349 345 349 356 357 360 359 360 362 362 363 365 366 367 369 369 370 370 369 368 367 367 366 366 364 362 363 361 359 356 358 362 363 362 360 360 361 361 362 363 362 364 336 327 327 328 329 331 338
324 325 326 328 331 333 336 337 340 342 346 354 354 354 353 350 348 347 351 356 356 358 361 363 364 366 365 366 368 369 370 370 370 369 368 367 366 365 364 363 363 362 361 358 356 361 365 365 362 361 360 360 359 358 361 361 328 326 325 326 327 330 352
323 324 327 329 331 333 337 339 340 342 348 351 354 354 352 349 352 350 348 352 353 358 357 358 362 365 365 365 368 368 370 369 370 369 369 367 365 364 364 363 363 363 363 360 358 358 362 363 361 363 361 359 360 359 360 367 332 323 323 324 325 331 356
324 325 327 329 332 334 336 338 340 343 346 350 355 356 358 359 357 357 352 353 354 353 354 355 359 365 366 365 367 367 369 370 370 370 369 368 364 364 364 365 364 363 364 361 359 356 359 362 362 363 362 359 360 360 361 364 337 318 320 322 321 338 359
323 324 326 328 329 331 333 336 339 343 348 352 354 356 358 357 357 355 354 352 352 353 354 355 358 364 366 365 366 368 369 371 372 370 368 368 366 363 364 364 363 362 364 361 360 359 363 364 363 363 363 361 361 359 362 361 346 315 320 319 319 337 361
321 322 324 327 329 331 333 337 340 344 348 351 356 359 359 358 355 354 353 352 354 353 354 356 358 363 367 367 367 369 370 371 372 371 369 369 369 368 368 367 364 362 361 360 359 359 361 363 364 364 364 362 361 362 363 361 363 328 317 317 317 326 361
321 322 323 324 326 330 332 336 340 343 347 353 358 357 356 357 355 354 355 358 356 355 355 359 361 365 370 369 367 369 370 370 371 370 369 369 369 369 369 368 364 362 362 360 358 359 359 361 363 363 363 362 362 361 362 362 363 337 315 315 317 320 338
320 321 322 324 326 328 331 334 338 341 345 352 356 357 357 360 360 358 358 361 358 357 358 361 364 367 370 369 367 367 368 369 371 372 369 370 370 369 369 368 368 367 365 361 360 360 359 359 360 360 361 362 363 363 363 362 354 347 317 317 315 318 325
317 318 318 320 322 326 329 331 334 338 342 348 354 359 360 362 359 358 359 363 361 360 361 364 365 367 369 369 368 368 369 370 370 370 368 369 371 370 370 370 369 368 367 365 363 362 361 360 359 358 358 359 362 362 363 365 361 337 331 316 314 315 319
317 317 317 319 322 325 328 329 333 337 343 346 353 359 362 363 361 358 360 366 366 363 363 368 369 370 369 368 368 368 369 370 370 370 369 370 371 371 370 369 369 369 368 367 364 362 361 361 360 357 355 355 357 360 361 365 367 338 329 326 314 314 316
314 314 316 318 321 326 327 328 331 335 340 346 355 361 364 364 363 361 362 371 369 364 365 369 369 368 368 368 368 369 368 369 369 369 369 369 371 369 368 369 368 367 369 367 365 363 361 362 360 358 356 355 356 358 359 361 365 355 334 325 317 315 314
314 314 315 318 321 323 326 328 330 332 337 344 355 362 364 366 366 362 365 375 370 367 367 369 368 367 368 368 368 367 366 366 366 368 368 368 370 370 370 368 366 366 368 367 365 364 363 362 360 359 357 356 356 357 360 362 363 365 346 329 322 319 316
313 314 315 316 319 323 325 327 327 330 334 343 356 363 363 367 366 369 376 375 371 366 370 369 369 366 368 368 366 367 366 364 363 364 367 368 369 370 370 369 367 366 365 365 363 363 363 364 361 360 358 357 356 358 360 362 362 365 348 340 335 333 330
315 315 316 318 320 323 325 325 325 329 336 347 357 361 363 364 366 369 375 373 369 367 373 369 368 367 368 366 366 364 365 365 361 362 364 366 366 366 367 368 367 366 365 364 363 362 362 362 360 360 359 358 357 358 359 359 360 364 355 346 343 340 340
318 316 316 317 319 324 324 324 325 331 340 349 357 359 360 363 362 366 371 374 371 369 371 369 365 367 368 367 366 364 363 364 365 364 363 364 367 368 368 366 366 366 366 368 369 367 364 363 361 362 362 361 360 358 357 358 358 361 345 352 334 343 348
318 317 317 319 321 324 323 325 327 333 336 343 351 357 360 363 367 369 364 373 373 372 370 370 368 367 367 366 365 364 363 363 364 365 363 363 365 366 354 320 309 337 368 367 353 344 338 340 363 365 364 362 364 364 360 359 362 340 326 324 321 322 325
318 317 316 319 321 322 322 323 328 332 333 336 343 352 357 361 363 366 369 371 371 371 371 372 368 366 365 365 364 361 363 363 364 365 365 365 366 366 358 354 341 304 296 313 345 333 319 321 324 330 340 363 365 362 332 338 337 326 316 317 317 317 317
319 317 318 320 322 323 322 323 325 329 330 334 338 346 351 356 358 361 363 368 371 373 373 372 369 365 364 364 364 360 360 364 364 364 366 366 368 366 361 358 354 346 311 297 303 306 303 304 306 310 316 324 346 360 360 330 321 313 309 313 314 315 314

ECMWFFLT1_sfc_thetae_093.txt.gz
Theta_e
335 334 335 336 338 340 341 342 342 341 341 341 342 344 345 346 348 349 351 351 349 350 351 352 354 354 353 353 354 353 352 352 351 349 348 350 352 347 346 345 348 353 355 357 357 357 358 359 358 363 363 362 362 361 361 361 360 361 360 361 362 361 360
333 334 334 337 339 340 342 343 343 343 344 344 344 345 346 346 348 350 351 352 351 351 352 352 355 353 353 352 353 353 352 351 352 352 349 349 354 350 349 346 346 350 354 356 357 357 357 358 358 361 362 362 361 363 361 361 361 360 362 360 360 361 359
333 333 334 336 339 340 342 344 344 344 344 345 345 346 346 347 348 350 352 353 353 353 354 352 354 354 353 352 352 352 352 351 351 351 348 348 350 354 351 349 347 350 352 356 357 357 358 357 358 360 361 361 361 362 362 361 362 363 362 361 360 360 358
333 333 334 336 339 341 343 344 344 344 345 346 346 346 347 348 348 351 354 354 354 354 354 353 354 354 353 352 351 351 351 350 350 350 349 348 349 354 353 352 350 351 352 352 357 357 360 356 360 358 366 361 360 362 362 362 362 362 363 361 360 360 360
333 334 334 336 338 340 343 343 344 344 345 346 347 348 348 349 350 351 354 356 356 355 356 355 355 355 355 353 352 352 351 350 350 350 350 349 350 350 354 354 353 353 352 352 355 357 357 356 358 357 362 360 360 362 362 362 362 362 362 362 359 361 358
332 333 335 338 339 341 342 343 344 344 345 345 347 349 349 350 350 351 354 356 357 357 357 356 355 356 354 354 353 353 353 351 351 351 350 349 349 348 351 355 355 355 353 351 352 356 355 357 356 358 360 360 361 361 361 361 361 362 361 362 360 360 360
332 335 337 338 340 341 342 343 343 344 345 346 348 350 350 350 350 351 353 356 357 357 357 356 356 356 356 355 353 353 351 351 351 351 350 349 350 348 348 352 356 355 355 352 349 354 355 356 355 358 358 361 360 360 360 360 360 362 360 361 360 360 359
334 335 337 338 339 341 342 342 344 345 346 347 347 348 349 350 350 351 352 355 357 358 357 357 356 356 356 356 355 352 352 351 352 352 351 349 350 349 348 349 353 355 355 352 349 349 357 355 357 357 357 359 359 358 359 360 359 361 360 360 359 359 363
335 336 337 338 339 341 341 342 343 345 345 345 346 348 350 350 350 350 352 355 357 357 358 358 358 357 357 357 355 354 353 352 352 353 352 350 350 350 349 349 351 355 353 353 350 349 354 356 357 357 357 356 358 357 357 359 358 359 360 359 360 358 359
332 334 337 338 339 341 342 342 344 344 344 345 345 347 349 350 350 350 351 355 357 357 358 359 359 359 358 357 356 355 354 352 353 353 353 351 351 351 351 350 351 355 354 353 351 349 350 356 356 357 357 356 356 357 357 358 358 358 359 359 359 359 358
332 333 336 336 337 338 340 341 341 343 345 345 345 347 349 351 351 351 351 352 356 358 359 360 360 359 359 358 357 356 354 353 353 353 353 352 352 352 352 351 351 354 354 353 352 350 349 354 355 357 357 357 357 357 357 358 358 358 358 360 360 360 359
330 332 335 335 336 337 338 339 340 342 344 345 345 346 347 349 350 351 352 352 354 358 360 360 361 360 359 359 357 356 355 354 353 353 353 353 352 352 353 353 353 353 355 353 351 351 350 352 354 355 357 357 358 358 357 358 358 358 358 359 359 360 360
331 331 333 335 336 337 337 337 339 342 344 344 345 345 346 347 348 350 351 352 354 357 359 360 360 360 359 359 358 356 355 355 354 354 353 354 353 353 353 354 354 353 353 354 351 351 351 352 353 355 356 357 358 358 357 357 359 357 357 357 358 359 359
339 335 337 339 337 336 336 337 339 340 343 344 344 344 345 348 350 350 351 352 354 357 359 360 360 359 359 359 358 357 356 356 356 355 354 354 354 354 354 354 355 353 353 354 351 351 352 353 353 354 356 357 357 358 358 356 357 357 356 356 357 358 358
328 330 332 335 338 343 343 340 340 341 343 344 344 343 343 346 349 352 353 354 354 356 358 360 359 359 359 359 358 357 357 357 357 357 356 355 355 355 354 354 354 354 352 353 352 351 353 354 355 355 355 357 356 356 358 356 355 357 357 356 356 357 357
326 327 328 330 333 337 340 342 343 344 345 345 345 346 345 348 349 352 353 353 355 355 358 360 359 359 359 358 358 358 358 357 357 357 356 356 355 355 354 354 354 354 352 351 351 350 352 353 355 355 355 356 356 355 357 357 357 353 345 348 357 356 357
323 325 326 328 330 332 333 336 340 343 343 344 344 344 343 342 343 346 351 354 355 355 357 360 359 359 359 358 359 359 358 357 357 356 355 356 355 355 355 353 353 353 352 351 351 351 351 353 353 354 355 356 356 355 355 357 358 345 336 338 344 356 356
321 323 324 326 328 330 332 334 334 337 342 345 341 342 344 346 348 347 345 345 352 356 357 359 359 359 359 359 359 359 358 358 357 356 355 356 355 355 355 354 353 352 353 352 352 352 351 351 353 354 355 356 357 356 356 356 351 337 334 336 337 345 358
320 321 323 325 326 330 333 333 334 334 337 341 345 342 343 344 348 347 347 346 345 352 356 358 360 359 359 360 359 359 359 358 357 356 356 356 356 356 356 355 353 352 353 353 354 354 352 350 352 353 354 355 356 356 357 356 346 334 332 333 334 336 350
319 321 322 324 325 327 330 332 334 335 337 339 341 346 346 344 344 346 349 351 350 349 354 356 359 359 359 359 360 359 359 359 358 357 356 357 357 356 355 355 354 353 354 355 355 354 353 352 351 353 354 355 355 357 358 358 347 332 330 330 331 333 341
318 320 321 322 323 326 327 329 331 332 334 337 340 344 347 352 348 348 350 352 349 350 352 354 356 359 359 359 360 360 360 359 359 357 357 357 357 357 355 355 355 354 353 355 355 354 353 352 351 353 355 355 356 357 359 360 341 328 327 327 327 330 336
318 319 319 321 323 324 326 328 329 331 333 338 339 341 345 348 352 352 347 352 353 353 354 354 354 357 358 359 360 360 360 360 359 358 358 357 357 357 356 355 354 354 353 353 355 355 355 355 353 352 354 355 355 355 356 360 335 327 325 325 325 328 345
318 319 320 321 323 324 326 327 328 331 334 336 338 341 344 348 352 353 353 352 344 352 353 354 354 356 358 359 360 360 361 360 359 359 358 358 357 356 356 355 354 355 355 352 353 354 354 354 354 353 353 354 355 355 355 358 338 325 323 323 324 329 350
318 319 320 321 322 323 324 325 328 332 335 337 339 343 346 350 353 353 353 352 351 349 352 353 353 356 358 359 361 361 361 361 360 359 359 358 357 357 357 357 356 355 356 353 351 353 355 355 355 354 354 353 354 356 355 356 340 322 321 321 321 334 352
317 318 319 319 320 320 321 324 328 332 334 334 335 338 341 344 348 351 352 353 352 351 347 351 352 354 358 359 361 362 362 362 361 361 360 359 358 358 357 357 356 355 356 355 353 352 355 356 355 355 355 354 353 355 354 356 343 319 321 320 319 332 353
315 315 316 317 319 320 322 326 327 327 328 329 332 337 339 342 344 348 351 353 353 352 350 348 352 354 357 361 361 362 363 363 362 362 361 360 359 359 359 359 357 356 355 355 354 352 353 356 356 354 355 355 355 354 354 353 354 331 318 318 318 324 353
316 315 314 316 317 322 321 323 324 325 327 329 332 335 338 340 342 344 348 352 353 352 352 352 352 354 356 361 361 362 363 363 363 362 362 362 361 360 360 359 358 356 355 355 355 353 352 354 355 355 355 356 356 355 355 355 356 337 316 315 316 319 336
313 313 315 317 319 319 319 320 321 323 326 328 330 333 336 338 339 342 346 350 352 354 354 353 352 353 355 360 361 362 363 363 364 364 364 364 363 361 359 360 359 358 356 355 354 352 352 353 355 355 355 356 357 356 356 356 351 349 318 316 314 316 323
311 312 312 313 315 317 319 318 320 322 324 327 329 331 333 335 336 339 344 348 353 357 357 354 352 354 356 360 361 361 362 364 364 364 365 365 364 362 359 359 359 358 357 355 353 352 351 352 355 355 355 356 356 357 357 357 355 338 332 316 314 314 317
314 314 314 315 315 317 319 318 321 322 324 326 328 329 332 334 335 338 342 347 355 358 359 357 355 355 356 358 360 361 362 363 365 366 365 365 364 363 361 360 359 358 357 355 353 351 350 351 354 355 355 355 356 357 357 357 358 338 329 325 314 314 315
314 314 315 314 314 317 319 319 320 322 323 325 326 328 332 336 338 340 343 350 357 358 359 357 356 355 356 358 359 360 362 363 364 365 365 365 365 363 362 361 361 358 357 355 354 352 350 350 352 354 354 354 354 356 356 357 358 353 334 324 317 315 314
315 316 317 315 314 316 318 320 321 321 322 323 326 329 333 336 339 344 351 358 360 361 360 359 356 355 356 358 359 360 361 362 364 365 365 365 365 364 364 362 362 360 358 356 354 352 351 350 350 351 352 353 354 355 356 357 357 354 345 331 324 319 316
315 316 316 315 314 317 318 320 320 321 322 323 325 329 332 333 336 340 349 357 360 360 361 360 357 356 356 357 359 360 361 361 362 363 364 364 365 365 365 364 363 361 358 358 356 353 351 350 349 349 349 350 352 353 355 355 355 355 349 341 336 332 328
315 316 317 316 315 318 319 320 319 320 322 323 325 329 332 333 334 339 347 358 364 363 361 359 357 357 356 358 359 359 360 361 358 360 363 363 363 363 364 364 364 362 360 359 358 355 353 351 350 349 349 348 349 350 352 353 353 356 350 343 339 336 335
314 316 316 314 314 318 319 319 319 320 322 324 327 329 329 330 333 338 344 351 359 364 361 358 357 357 357 358 359 359 358 360 360 361 362 362 362 363 364 364 363 363 363 364 362 359 357 354 353 352 352 351 349 348 348 351 351 357 337 344 329 336 339
313 316 315 315 315 318 319 319 319 320 322 325 326 328 328 329 331 335 339 343 347 357 362 359 358 357 357 359 359 359 358 358 360 361 361 362 361 361 362 350 338 352 364 362 348 341 335 334 353 355 355 353 352 352 349 349 353 335 323 319 317 317 321
313 315 315 315 315 318 319 317 319 320 322 324 325 326 327 328 329 331 334 338 341 349 359 363 359 357 358 358 358 356 357 358 358 359 360 361 361 360 359 351 339 308 306 318 340 332 322 319 324 328 334 351 353 348 334 333 331 319 318 315 313 312 313
315 315 316 316 317 319 318 316 317 318 321 324 324 324 325 326 328 329 331 333 336 342 353 363 362 358 358 359 358 355 354 358 358 358 358 359 360 360 358 354 348 341 314 301 308 321 318 315 317 319 320 326 336 349 350 330 320 311 313 313 312 311 310

ECMWFFLT1_sfc_thetae_096.txt.gz
Theta_e
335 336 336 337 336 336 336 336 337 337 338 338 339 339 337 338 340 341 343 344 344 345 347 349 348 347 348 348 348 347 346 347 344 347 343 338 338 339 341 344 348 350 352 352 352 354 357 359 360 360 359 359 358 356 356 356 358 358 359 360 359 359 356
334 335 336 337 336 336 336 337 337 338 338 339 340 340 339 338 341 340 342 344 344 345 348 349 349 348 348 349 349 348 346 346 346 348 346 341 341 340 342 342 350 350 352 353 354 354 358 358 360 360 359 359 358 357 355 356 356 356 357 358 358 357 356
333 334 335 336 337 336 336 337 337 338 338 339 340 340 340 340 341 341 342 344 344 344 348 349 350 349 348 349 349 348 347 346 346 345 346 343 342 341 341 342 349 351 353 354 354 355 358 357 358 360 359 358 358 358 356 356 355 356 356 357 358 356 355
333 334 335 336 337 338 338 338 338 338 339 339 340 341 341 341 342 343 343 343 344 345 345 349 350 349 349 348 349 349 348 347 347 345 346 346 345 343 341 341 344 352 352 354 356 356 358 357 356 358 364 358 357 358 357 357 357 355 357 356 356 356 356
333 334 335 335 336 337 338 338 338 338 338 340 340 342 342 343 343 344 344 344 344 345 346 348 351 351 350 350 350 350 349 347 347 347 346 347 348 347 343 341 340 347 352 354 355 356 356 355 355 356 359 358 357 357 358 356 357 357 357 356 354 356 356
332 332 333 334 336 337 339 339 339 339 339 339 339 341 343 343 344 345 346 346 345 346 347 347 350 351 350 350 350 350 350 349 348 348 347 345 347 348 345 343 342 342 349 352 355 355 355 354 355 354 357 358 358 357 358 357 357 358 358 357 354 355 355
332 333 333 334 335 337 339 340 340 340 340 340 341 342 344 344 345 345 347 347 346 345 346 347 348 351 351 351 350 350 349 349 348 347 348 346 345 348 348 346 345 342 344 350 352 354 354 354 353 354 356 357 357 357 357 357 356 357 357 357 355 355 356
332 332 333 334 335 337 339 341 341 342 342 342 341 342 343 344 345 346 347 348 348 347 347 347 348 350 351 351 351 349 349 349 349 348 348 346 345 345 349 349 348 346 345 345 349 353 353 353 353 354 355 357 357 357 357 357 357 357 356 357 356 355 357
333 333 333 334 335 338 340 341 342 342 342 342 342 342 344 344 345 347 348 349 349 348 348 349 349 350 351 351 350 350 350 349 349 349 347 346 345 344 345 349 350 350 347 346 346 350 352 352 353 353 354 356 357 356 357 357 357 358 357 357 357 355 356
332 332 333 334 336 339 340 341 342 342 342 342 342 343 343 345 345 347 349 350 350 350 350 351 351 351 351 351 350 350 349 349 349 348 347 346 346 344 344 345 350 352 350 349 348 347 351 352 353 353 353 355 356 356 356 357 357 357 357 357 357 357 356
332 333 333 334 335 337 339 340 341 341 342 342 342 344 344 345 346 346 348 351 351 351 352 352 353 352 351 351 350 350 349 349 349 348 347 346 346 345 345 344 345 351 352 351 349 348 348 351 353 352 353 354 355 356 356 356 357 357 357 357 358 357 356
333 334 334 334 336 336 337 339 341 341 341 342 343 344 345 345 346 347 348 350 353 353 353 354 354 353 352 352 351 350 349 349 348 348 347 347 347 346 345 345 344 346 351 352 351 349 347 348 352 353 352 353 354 356 356 356 357 357 357 357 357 357 357
329 331 332 333 335 336 337 338 339 341 341 342 343 344 345 346 346 347 348 349 352 354 355 355 355 354 353 353 352 351 350 349 349 349 348 348 348 347 346 346 345 345 347 352 352 350 348 347 349 353 353 353 353 354 356 356 356 356 356 357 357 357 356
331 327 328 329 330 332 334 337 339 339 340 341 343 344 345 347 347 347 348 349 352 354 355 356 355 355 354 353 353 352 352 351 351 350 349 349 349 348 347 347 346 346 346 349 350 350 349 347 347 351 354 354 353 354 355 355 355 356 356 356 357 357 356
323 324 325 326 328 329 330 331 334 338 340 342 344 343 344 346 347 348 348 349 352 354 355 356 356 355 355 354 353 353 353 353 353 352 351 350 349 349 348 347 347 347 347 348 349 351 350 349 348 349 351 354 354 354 355 354 355 356 356 355 355 356 356
320 321 323 325 326 327 329 330 331 332 334 337 340 343 345 345 345 347 348 348 351 354 355 356 356 355 355 354 354 355 355 355 354 353 352 350 349 349 349 348 348 348 347 347 349 349 350 349 348 348 350 351 353 354 355 355 355 353 344 347 356 355 356
317 319 321 323 324 325 327 329 331 332 332 333 335 339 341 345 346 347 348 349 350 353 356 357 356 356 356 355 356 356 356 355 355 354 352 351 351 350 350 349 349 349 348 348 349 349 349 350 348 348 348 350 352 353 354 355 355 343 336 337 342 353 355
316 317 318 319 321 324 325 327 328 330 332 334 335 335 340 342 345 348 349 350 351 351 355 357 357 356 356 357 357 357 356 356 355 354 354 353 351 351 350 350 349 349 349 349 349 349 349 349 348 348 349 349 350 351 353 354 348 335 333 335 335 343 356
315 316 317 318 319 322 323 325 327 328 330 332 335 335 338 340 344 344 347 347 348 352 352 352 355 356 356 357 357 357 357 357 355 355 354 353 353 352 351 350 350 349 349 349 350 350 349 348 348 349 349 349 349 350 352 353 343 333 330 332 333 334 347
315 316 316 317 319 320 321 322 325 328 330 332 336 338 339 341 343 346 346 348 348 348 349 350 351 354 356 357 357 357 357 357 356 355 354 354 354 353 352 351 350 350 350 351 350 349 349 348 348 348 349 350 350 350 352 352 343 332 328 328 329 331 338
315 316 316 316 318 320 321 322 324 327 329 331 336 339 341 342 343 346 347 345 344 346 347 347 348 349 354 357 357 358 358 357 356 355 355 355 354 353 352 351 351 351 351 351 350 349 348 348 347 348 349 350 351 351 351 353 339 329 326 325 325 327 333
312 314 315 316 316 317 320 322 324 326 328 332 332 335 337 338 340 342 344 349 347 347 347 347 347 347 351 356 358 358 358 357 356 356 355 355 354 353 352 352 351 351 351 351 351 351 350 349 349 348 349 350 351 351 351 353 335 328 325 324 323 326 339
315 313 315 317 317 317 319 322 324 326 327 328 329 331 332 336 340 340 340 342 349 349 349 349 347 347 348 353 357 358 358 358 357 356 355 355 354 353 353 352 352 352 352 351 350 350 350 349 349 349 349 350 351 350 351 352 339 326 323 322 322 326 342
313 313 314 315 318 317 318 320 322 324 326 326 327 328 331 333 337 337 339 341 344 348 350 349 349 349 349 351 356 359 359 359 358 357 356 355 354 353 353 354 353 353 354 351 350 350 351 351 350 350 349 349 350 351 351 351 342 323 321 320 320 330 344
312 313 314 314 314 316 317 319 321 323 325 325 325 327 329 332 334 335 336 338 341 343 345 349 351 351 351 351 355 359 360 359 359 358 357 356 355 355 354 353 353 354 354 353 352 351 352 353 351 350 350 350 351 353 351 352 344 322 322 319 318 329 347
313 313 314 315 315 317 318 320 320 321 322 323 324 327 328 329 331 331 333 335 337 339 342 345 350 353 353 354 356 359 360 360 359 358 358 357 356 356 355 355 355 354 353 353 353 352 351 352 352 351 351 351 351 352 353 352 353 339 319 319 317 321 347
315 314 314 315 315 318 316 318 319 320 321 323 324 326 327 328 328 329 332 334 334 336 340 344 348 352 354 353 356 359 360 360 360 359 359 358 358 357 357 356 355 355 354 353 353 352 351 351 352 352 352 352 351 351 352 354 353 346 319 317 316 318 330
317 316 317 318 319 316 315 317 318 320 321 323 324 326 326 327 327 329 331 333 334 336 340 343 346 350 354 355 354 358 359 360 360 360 360 359 359 357 356 357 357 356 354 354 352 351 350 350 350 351 352 352 352 351 351 354 347 354 324 318 316 316 318
314 315 314 315 316 316 316 316 317 319 320 322 324 325 326 327 328 329 331 331 334 338 341 344 348 350 353 355 355 355 358 360 360 359 360 359 359 358 356 357 356 356 355 353 352 351 350 349 349 350 350 351 352 352 352 352 352 338 340 319 315 314 315
314 315 316 316 317 316 316 315 318 319 320 321 323 324 326 327 327 328 329 329 333 335 339 343 348 353 356 356 356 355 356 358 360 360 360 360 359 358 357 356 356 356 355 354 352 351 350 350 349 349 349 350 350 352 352 352 352 338 331 331 315 314 314
313 314 315 316 316 317 315 315 317 317 318 320 322 324 325 326 326 327 326 329 332 334 337 341 346 351 355 357 358 356 356 357 359 360 360 360 360 358 357 356 356 355 355 354 352 351 350 349 349 348 349 349 349 350 352 353 352 351 336 326 320 315 314
313 313 313 316 316 315 314 316 317 316 316 319 322 324 325 325 325 324 326 329 331 333 336 339 341 344 348 353 357 358 357 355 357 360 361 361 360 359 359 357 356 355 355 354 353 352 350 349 349 348 348 349 350 350 351 352 353 352 349 333 325 319 315
313 313 311 314 315 315 314 316 316 315 315 317 321 323 323 323 324 325 327 328 330 332 333 334 336 338 342 347 353 358 357 354 355 358 360 360 360 360 360 359 357 356 354 354 353 352 351 350 348 348 348 349 350 351 352 352 352 353 352 345 338 332 327
312 311 312 315 315 316 314 315 315 314 314 316 320 322 322 322 323 325 326 327 329 330 330 331 332 334 337 342 349 355 356 354 353 355 359 360 360 360 359 359 358 356 355 354 354 352 351 350 349 348 348 348 350 351 352 352 352 353 353 350 344 340 336
311 310 313 315 315 317 314 316 316 314 314 316 319 320 320 320 322 324 325 326 328 328 328 329 330 332 335 342 350 355 354 354 354 356 358 359 360 361 361 360 359 358 357 358 358 356 354 352 351 351 350 350 350 350 351 351 352 353 338 351 332 340 341
309 309 313 315 315 314 315 317 315 313 314 316 319 320 319 319 320 322 324 325 326 326 326 328 329 331 336 344 352 356 355 353 354 356 357 359 359 359 360 352 339 349 359 358 346 339 334 333 351 354 352 351 351 353 352 352 354 336 325 322 319 318 322
308 310 313 315 314 314 316 315 316 314 314 316 320 319 319 319 320 321 323 324 325 325 325 326 328 332 338 346 350 350 354 354 354 355 357 359 359 359 357 356 343 322 328 340 342 330 321 318 323 327 332 348 351 346 333 332 331 328 318 315 314 314 314
309 311 315 316 314 315 315 315 314 313 314 317 319 319 319 319 319 320 322 323 323 324 325 326 328 331 337 344 347 346 348 353 354 355 356 357 359 359 357 356 353 341 314 306 323 325 315 315 315 316 318 323 333 344 348 328 319 317 312 313 312 312 311

ECMWFFLT1_sfc_thetae_099.txt.gz
Theta_e
334 335 334 335 334 334 334 334 334 334 335 335 335 334 333 335 338 340 340 340 340 340 342 343 344 344 344 344 344 344 343 343 342 341 341 338 338 338 340 342 345 346 348 349 350 350 352 355 356 356 356 357 356 355 355 356 356 357 356 357 356 356 353
333 334 335 335 334 334 335 335 334 334 335 336 336 335 333 335 338 339 340 340 340 341 342 343 344 344 344 344 344 344 343 343 343 345 343 341 340 338 341 341 344 346 348 349 350 350 352 354 357 356 356 357 356 355 354 355 355 355 355 355 355 354 353
332 334 335 335 334 334 335 335 335 335 335 336 337 336 334 334 337 339 340 341 340 341 343 344 345 344 345 345 344 344 343 342 343 343 342 341 338 336 340 341 343 346 348 350 351 351 354 354 356 357 356 356 356 355 353 353 353 354 354 354 355 355 352
332 333 335 336 336 336 336 336 336 336 336 336 337 337 335 335 337 339 341 341 341 341 342 344 345 345 345 345 344 344 344 342 343 343 343 343 340 337 338 340 344 346 347 349 351 352 354 355 355 356 361 356 356 356 354 353 353 353 353 353 354 355 354
332 334 335 335 336 335 335 335 336 336 336 337 337 339 337 336 337 339 341 342 342 341 343 344 346 346 346 346 346 346 345 343 343 343 343 344 342 338 337 338 342 346 347 349 351 353 352 354 354 355 357 356 355 355 355 353 353 353 352 352 353 354 353
330 332 334 335 336 336 336 336 336 337 337 337 337 338 338 337 337 338 340 342 342 343 344 345 346 347 345 345 346 346 346 345 344 344 343 343 343 339 337 338 339 345 348 349 351 352 352 353 354 354 355 357 356 355 355 355 354 353 352 352 352 353 353
330 332 333 335 336 336 336 336 337 337 338 338 339 339 339 337 337 338 340 341 343 342 343 344 346 346 346 346 346 346 345 345 344 344 344 343 343 342 340 338 340 341 348 350 350 352 352 352 353 353 355 356 356 355 355 355 354 354 353 352 351 351 353
330 331 333 335 335 337 337 337 337 337 338 338 338 339 339 338 338 338 338 340 342 342 343 344 345 346 346 346 346 345 346 345 345 345 344 343 343 344 343 341 340 339 343 348 350 352 352 352 353 353 353 355 355 355 355 355 354 354 353 353 351 350 353
331 332 333 334 335 337 337 337 337 337 337 337 338 338 339 339 338 338 339 339 341 342 342 344 346 347 347 347 346 346 346 346 346 345 344 343 343 343 344 345 343 341 339 343 348 351 352 352 352 352 352 353 354 355 354 354 354 354 353 353 352 351 352
328 329 332 334 336 336 337 337 337 337 336 337 337 337 339 339 339 339 340 340 340 341 342 343 345 347 347 347 347 347 346 346 346 346 345 344 344 343 343 344 345 346 341 340 342 347 351 351 351 351 351 351 352 353 354 354 354 354 354 353 353 353 352
326 327 330 332 333 334 335 336 336 336 337 337 337 337 339 340 340 340 340 341 341 341 343 343 345 346 347 347 347 347 346 346 347 346 345 344 344 344 343 343 345 347 345 343 340 342 346 350 350 350 350 350 351 352 353 354 354 354 354 354 354 354 354
322 324 326 327 332 335 335 336 339 339 337 337 337 338 338 339 340 341 341 342 343 342 342 343 345 345 346 347 347 347 346 346 346 346 346 345 345 344 344 343 343 345 347 347 344 342 342 345 348 350 349 350 350 352 353 354 354 354 354 354 354 354 354
319 320 322 324 327 329 331 333 335 338 340 340 339 338 339 339 340 341 342 343 344 344 344 344 345 345 345 346 347 347 347 347 347 347 347 347 346 346 345 344 343 343 345 348 347 345 343 343 345 348 349 349 350 351 352 353 354 354 354 355 355 354 354
321 317 319 321 323 325 327 329 331 332 335 341 342 341 340 340 341 341 343 343 345 346 346 346 345 345 345 346 346 346 347 347 348 348 347 347 347 346 345 345 344 343 343 346 348 348 346 345 344 345 348 348 349 350 352 352 353 354 354 355 355 355 354
314 315 316 317 319 321 323 326 328 330 333 334 335 340 342 342 341 342 343 345 346 347 347 348 347 346 346 346 346 346 348 348 348 348 348 348 347 346 346 345 344 344 343 343 345 348 348 348 346 344 345 348 349 349 351 352 353 354 354 354 354 355 354
313 314 314 315 317 318 320 322 325 327 330 332 334 335 338 341 343 343 343 344 346 348 349 349 348 348 347 347 347 348 348 349 349 349 348 348 347 346 346 346 345 344 343 342 342 344 347 348 348 346 344 345 348 349 350 351 352 351 343 345 354 354 355
313 314 314 315 316 317 318 321 323 325 327 329 333 335 336 338 341 345 344 345 347 348 350 351 350 349 349 348 349 349 350 349 349 349 348 348 347 347 347 346 345 344 343 343 342 342 344 347 346 346 346 345 346 348 350 351 351 341 334 335 340 352 354
313 313 313 314 316 317 317 319 321 323 325 327 330 334 336 337 340 343 346 346 347 349 351 352 351 350 350 351 351 351 351 351 350 350 349 348 348 347 347 347 346 345 344 343 342 343 343 344 345 346 346 346 345 346 349 350 344 334 332 333 333 340 355
311 313 314 314 315 317 316 317 320 322 324 326 327 330 333 336 337 340 342 343 345 351 351 351 352 352 351 352 352 352 352 352 351 351 350 350 349 349 348 347 346 345 345 344 344 344 343 343 344 345 346 345 344 345 347 349 340 332 330 331 331 332 344
311 312 314 314 314 316 317 318 319 321 324 325 327 329 330 334 336 339 344 347 346 346 349 351 352 352 352 353 353 353 353 353 352 351 351 351 351 350 349 348 347 347 346 346 346 344 344 344 343 344 345 345 345 345 346 347 340 331 328 327 328 330 335
310 312 313 314 314 315 316 318 318 320 323 325 327 328 329 330 333 336 339 342 346 346 345 346 348 351 352 353 353 354 354 353 353 352 352 352 352 351 350 349 348 348 347 347 346 345 344 344 344 344 345 345 346 345 345 347 335 328 326 324 324 326 331
311 312 312 314 314 315 316 317 319 320 322 327 326 327 328 328 331 333 336 340 341 345 346 345 345 345 348 352 354 354 354 354 354 353 353 353 352 351 350 350 349 348 348 348 347 347 347 347 346 345 345 346 346 346 345 347 331 326 324 323 323 325 338
313 314 314 315 316 316 317 319 320 321 325 325 326 326 327 328 330 331 334 336 338 340 343 346 344 344 346 349 352 356 356 356 355 354 354 354 353 352 352 351 350 350 350 349 348 347 347 347 347 347 346 346 346 346 346 347 336 324 321 321 321 324 340
316 316 315 315 317 316 317 319 321 323 323 324 325 326 328 328 329 330 332 334 335 336 338 341 344 347 348 347 348 353 357 357 356 355 355 354 353 353 353 353 353 352 352 349 348 348 348 348 348 348 348 347 346 346 346 347 339 323 319 319 319 329 341
317 316 316 316 316 316 316 317 319 322 322 322 323 325 327 329 329 330 331 333 333 335 335 337 340 343 345 348 351 352 352 357 357 357 356 355 355 355 354 353 353 353 353 352 351 350 349 349 348 348 348 348 348 350 347 347 341 323 319 318 317 327 342
315 316 317 317 317 318 319 318 319 318 319 320 321 324 325 328 329 330 331 333 334 333 334 335 337 340 342 345 348 352 353 353 356 357 357 356 356 356 355 355 355 354 353 352 352 350 350 350 349 348 348 348 348 348 348 348 348 340 318 317 315 320 342
316 317 317 316 316 321 318 316 316 317 317 318 321 324 325 326 327 328 330 330 330 330 331 333 336 339 342 345 348 350 353 355 356 357 358 358 357 357 357 356 355 354 353 352 352 351 350 349 349 349 348 349 349 348 348 349 348 345 320 316 315 316 328
316 316 317 318 319 319 317 315 315 317 317 317 319 322 325 325 324 326 326 327 327 328 330 332 334 337 341 345 348 352 354 355 356 358 358 359 358 357 356 356 356 355 354 353 352 350 350 349 348 348 348 349 349 349 348 350 343 349 327 317 314 314 317
314 315 314 314 315 318 318 314 313 316 316 316 318 320 323 323 322 323 325 324 325 328 329 331 333 336 340 344 348 353 356 356 356 357 359 359 359 357 356 356 355 355 354 352 351 350 349 349 349 348 348 348 349 350 350 350 349 334 342 320 314 313 314
315 316 316 316 316 318 318 314 315 316 316 316 317 319 322 322 320 322 323 322 325 327 329 330 332 334 337 339 342 345 350 355 358 358 358 358 358 357 356 355 355 354 354 353 351 350 349 349 349 348 347 347 348 349 350 351 350 338 330 332 315 313 312
312 315 315 314 315 319 318 315 314 316 316 315 316 318 320 322 320 320 320 322 325 327 327 328 330 330 332 334 337 340 344 348 354 357 357 358 358 357 356 355 355 353 353 353 351 350 349 349 349 348 347 347 347 348 349 351 350 350 337 327 321 314 312
313 314 313 314 316 318 318 315 316 316 315 314 315 317 320 320 320 318 319 323 325 326 326 326 327 328 329 331 334 337 340 343 348 354 357 357 358 358 357 356 355 354 353 353 352 351 350 349 348 348 347 347 347 347 349 350 350 350 349 336 329 320 314
310 312 312 312 314 318 317 316 316 316 315 313 314 316 319 320 320 320 321 322 323 325 325 325 325 327 328 329 331 334 339 343 349 353 355 355 357 358 358 357 356 355 353 353 352 351 350 349 348 348 347 347 347 348 348 349 349 350 350 347 342 337 329
309 310 312 312 313 317 317 315 317 316 315 314 315 316 318 319 319 320 320 322 323 324 324 324 326 326 327 328 330 333 339 345 351 353 354 354 355 356 356 357 357 355 354 353 353 351 350 350 349 348 348 347 347 347 348 348 349 349 349 349 346 343 338
309 310 310 310 312 318 315 315 317 317 316 315 316 316 318 319 319 320 319 321 322 323 323 324 326 327 327 329 331 335 341 348 351 352 352 353 354 356 357 356 356 356 356 357 357 355 354 352 351 351 351 350 349 347 347 347 347 349 335 349 332 340 342
308 309 310 310 313 315 315 318 318 316 316 316 317 317 319 319 319 319 319 320 321 322 322 324 325 327 328 330 332 335 341 347 347 348 350 351 352 354 356 347 334 346 357 356 342 336 333 333 351 354 353 352 351 351 349 348 350 333 326 323 320 319 322
308 309 310 311 313 313 314 315 318 317 316 316 318 319 319 318 318 318 319 320 320 321 322 322 325 326 327 330 331 333 336 340 343 345 348 351 352 353 353 354 350 319 322 335 340 330 321 318 322 326 333 348 352 347 333 333 329 324 318 317 315 314 315
309 309 311 313 314 314 315 316 316 315 316 316 318 318 317 317 317 317 319 319 320 321 321 322 324 324 325 326 329 333 336 340 342 345 346 349 351 352 353 353 353 353 326 317 320 322 318 316 315 316 317 322 332 343 349 329 318 316 313 314 313 312 312

ECMWFFLT1_sfc_thetae_102.txt.gz
Theta_e
332 332 332 333 332 332 333 333 334 335 335 335 335 334 335 335 337 338 339 339 339 339 340 342 343 344 344 345 345 345 345 344 343 342 342 341 342 342 345 348 349 350 351 353 354 354 356 358 358 359 360 360 360 359 359 361 361 361 361 361 360 360 358
332 333 333 333 333 333 333 334 334 335 335 335 335 335 335 335 336 338 339 339 339 339 340 341 344 344 344 345 345 345 344 344 344 345 343 342 344 342 344 346 349 349 350 352 354 355 356 356 358 358 359 360 360 360 359 359 360 360 360 360 359 359 359
332 333 333 333 333 333 334 334 334 334 335 335 336 335 334 335 336 338 339 339 339 340 340 341 343 343 344 344 344 344 344 344 344 344 342 341 341 340 342 345 347 348 349 351 353 354 356 355 357 358 359 359 359 359 359 358 359 359 359 359 359 358 358
331 333 334 335 335 335 335 335 335 334 335 336 336 336 335 335 336 338 339 340 339 340 339 340 342 343 344 344 344 344 344 344 344 344 343 343 341 340 341 342 344 346 348 349 352 353 354 355 356 357 361 359 359 359 359 358 358 358 358 359 358 359 359
325 331 334 335 335 335 335 335 335 335 335 336 336 338 336 336 336 337 339 340 340 340 340 341 342 344 345 345 344 344 344 344 344 344 344 344 344 341 339 340 342 343 346 348 351 354 354 355 355 357 359 359 358 359 359 358 357 358 357 358 358 357 357
322 326 332 334 335 335 335 337 336 335 335 335 336 337 337 336 336 336 338 340 340 341 341 342 342 344 344 344 345 344 345 345 345 345 344 345 344 340 339 340 341 343 344 347 351 352 353 354 355 356 357 358 358 358 358 358 357 356 357 357 357 357 357
320 323 326 333 336 336 336 336 336 336 337 336 337 338 338 336 335 336 338 339 340 340 340 341 342 343 344 345 345 345 344 344 344 343 344 344 344 342 340 340 342 342 345 348 349 352 352 353 355 356 357 358 358 358 358 358 358 357 357 356 356 356 357
319 320 324 326 333 337 337 337 337 337 337 337 336 336 337 336 336 336 337 338 340 340 340 340 342 343 344 345 345 345 345 345 344 344 344 343 344 344 341 340 340 342 346 347 348 351 352 353 354 355 356 357 358 359 358 358 359 357 357 356 355 354 355
318 320 320 323 327 334 337 337 338 337 337 336 336 336 337 337 336 335 336 338 339 340 340 341 342 344 345 345 345 345 345 345 345 344 343 342 343 343 343 341 340 341 343 346 348 352 352 352 353 354 355 356 357 358 358 358 358 358 357 357 356 355 354
317 317 320 321 323 327 333 336 342 337 336 337 336 336 337 337 337 336 336 338 339 340 341 341 342 343 345 345 345 345 345 345 346 345 343 342 342 342 343 343 342 342 341 343 347 350 352 353 353 354 354 354 356 357 357 357 357 357 357 357 357 356 355
316 318 318 319 320 322 326 328 331 334 338 338 337 337 337 337 337 336 336 338 338 340 341 342 343 343 344 345 345 345 345 345 345 345 344 343 343 343 343 344 344 343 341 341 343 348 351 353 354 353 353 353 354 355 356 357 357 357 357 357 357 357 356
316 316 317 318 318 320 321 323 326 329 332 336 337 338 338 339 338 337 337 338 339 340 341 342 343 344 344 345 345 345 345 345 345 345 345 344 344 344 343 344 344 345 345 342 341 343 347 351 352 352 352 353 353 354 355 357 357 357 357 357 357 357 357
316 315 316 317 318 318 320 321 323 325 328 331 335 338 338 338 338 338 338 338 339 340 342 343 343 344 344 345 345 345 345 345 345 346 346 346 345 345 345 344 344 344 345 346 343 341 342 346 349 352 352 352 353 353 354 355 356 357 357 357 357 357 357
318 314 315 316 317 317 317 319 321 323 325 327 329 334 337 340 339 339 339 338 339 340 341 342 343 343 344 345 345 345 346 346 346 346 347 347 347 346 345 345 344 344 345 347 346 344 342 342 344 348 351 352 352 353 354 354 355 356 356 357 357 357 356
312 313 313 314 315 316 316 317 319 321 323 325 327 328 330 335 338 341 342 341 341 340 341 343 343 343 343 344 345 346 347 347 348 348 348 348 348 347 346 346 345 345 345 345 346 347 346 345 343 343 346 349 351 351 352 352 353 354 355 356 357 357 356
311 312 312 313 314 315 316 317 318 320 322 323 325 326 328 329 332 336 341 341 341 342 342 343 342 343 343 343 344 346 347 348 349 348 348 348 348 348 347 347 346 345 344 344 345 346 348 348 347 345 344 344 347 349 350 351 352 350 342 344 355 357 356
310 311 313 313 313 314 315 317 318 319 320 322 324 326 327 327 329 332 337 340 343 343 344 343 343 343 343 343 345 346 347 348 348 349 348 348 348 348 348 348 347 346 346 345 344 344 347 348 347 346 346 344 344 346 348 349 350 340 334 335 339 353 356
309 311 313 313 314 315 314 315 317 318 319 321 323 325 326 327 328 330 331 335 339 345 346 344 344 343 343 344 345 346 347 347 348 348 348 349 348 349 349 348 348 347 346 345 344 344 345 345 346 347 347 346 346 345 346 348 343 333 332 333 333 339 356
309 311 311 314 316 316 314 315 316 318 319 321 323 324 325 327 327 328 331 334 338 344 348 346 345 345 345 345 346 346 347 348 348 348 348 349 349 349 349 349 348 347 346 345 346 345 344 344 344 345 347 347 346 345 346 347 338 331 330 330 331 331 344
311 311 312 314 314 315 316 316 317 319 320 322 323 325 326 328 327 329 332 335 339 341 345 348 347 347 346 347 347 347 348 348 348 348 349 349 349 349 349 348 348 347 347 347 347 346 344 344 344 344 345 346 347 347 347 347 338 329 327 327 327 329 335
311 312 312 313 314 315 316 316 317 318 320 321 323 324 325 325 327 329 330 334 336 338 341 347 349 348 348 348 348 349 349 349 349 348 349 350 350 350 349 349 348 348 348 348 347 346 345 344 344 344 345 345 346 346 346 347 334 326 324 324 324 326 330
312 313 313 313 315 316 316 317 317 318 320 323 322 323 324 325 327 327 329 333 335 337 340 343 347 350 351 350 350 350 350 350 350 350 350 350 350 350 349 349 349 348 349 349 348 348 347 347 346 345 344 345 345 345 345 347 330 325 323 322 322 324 339
314 314 314 316 316 317 319 319 318 319 322 321 321 323 323 325 327 327 329 332 333 335 337 338 339 342 346 352 353 353 353 352 352 351 351 352 351 350 350 350 350 350 351 349 349 348 347 347 346 347 346 345 345 345 345 346 335 323 321 320 320 324 342
316 316 316 316 317 318 319 320 319 321 322 320 320 321 323 325 327 327 328 330 331 332 333 333 334 337 340 342 346 352 357 355 354 353 353 353 352 352 352 352 352 351 352 350 349 348 348 348 348 348 348 346 346 345 345 345 338 321 318 318 319 329 343
316 315 316 316 316 316 318 320 320 321 321 320 318 319 321 324 326 326 327 329 329 329 329 330 332 334 335 339 344 347 350 356 357 355 354 354 354 354 353 353 353 353 354 352 351 350 351 351 349 349 349 348 347 348 346 347 340 322 318 317 316 327 345
315 315 315 316 317 317 320 322 319 317 318 318 318 321 321 323 324 325 325 327 328 328 327 328 330 332 335 338 343 347 350 353 355 358 357 356 356 356 355 356 355 355 354 353 353 352 352 351 351 349 349 350 349 349 348 347 348 341 318 316 314 319 344
315 316 316 316 316 320 318 319 318 317 318 318 319 320 321 323 322 323 323 325 325 324 326 328 330 332 335 338 341 345 349 352 354 354 357 359 358 357 357 357 356 356 355 354 354 353 352 352 351 351 350 350 350 350 350 349 349 346 320 315 314 315 327
312 315 316 318 319 318 318 318 317 317 319 320 319 320 320 322 321 322 322 323 322 323 326 328 329 331 333 335 338 342 346 351 355 357 357 358 359 358 358 358 358 357 356 355 355 353 352 352 352 351 351 351 351 351 351 351 342 351 326 316 313 313 317
309 312 313 314 315 317 317 318 316 315 317 320 320 318 319 321 321 320 321 321 321 323 326 327 329 330 330 331 334 337 340 342 345 351 357 359 360 359 358 359 358 358 357 356 355 354 353 352 352 351 351 351 352 352 352 352 351 332 342 318 313 312 313
309 311 312 314 316 316 318 318 318 316 317 319 319 319 319 320 319 320 320 320 322 323 325 326 327 327 328 329 331 333 335 338 341 345 350 355 359 359 358 358 358 358 357 356 355 354 353 352 352 351 350 350 350 352 352 353 353 338 329 333 314 312 311
307 309 310 312 313 317 317 317 318 317 317 318 319 319 319 320 319 320 319 321 322 323 323 324 325 326 326 328 329 331 332 334 337 339 343 347 354 357 358 358 358 356 357 356 355 354 353 353 352 351 351 350 350 351 352 353 353 353 338 326 320 314 312
307 308 309 311 313 315 316 317 318 317 317 318 319 318 319 320 320 318 320 321 322 322 323 324 325 325 327 328 329 331 332 332 334 337 341 346 352 356 358 358 358 356 356 356 355 354 353 352 352 351 351 351 351 351 352 353 353 353 352 335 328 320 314
306 307 308 309 311 314 315 316 316 317 318 318 318 318 318 319 320 320 321 322 322 322 322 321 323 326 326 327 328 330 332 332 334 337 343 349 354 357 358 359 359 358 356 355 354 354 353 353 352 351 351 350 351 352 352 352 352 352 353 351 344 339 330
306 307 308 310 311 314 314 315 315 316 318 318 318 318 318 319 319 321 321 320 321 321 321 321 322 323 325 326 328 330 331 333 337 339 342 348 353 354 356 358 359 357 356 355 355 354 353 353 352 351 351 351 351 352 351 351 352 352 352 352 349 345 341
306 307 308 309 310 314 313 314 317 317 318 318 319 318 318 319 320 320 320 319 320 320 319 320 321 322 324 327 330 329 332 334 336 339 342 345 346 348 351 354 357 357 358 359 359 358 356 354 354 354 354 354 353 351 351 351 351 352 336 351 333 343 346
307 307 307 309 311 312 312 316 318 317 318 318 319 318 319 320 320 319 319 319 319 319 318 319 319 320 322 326 326 327 327 329 332 335 338 340 342 344 348 345 330 341 358 358 342 335 331 331 353 357 357 355 356 356 353 352 354 333 322 319 318 317 322
307 307 307 309 309 310 312 313 317 318 318 319 319 319 320 320 319 317 318 319 318 318 318 318 319 320 320 322 323 324 325 327 329 333 338 340 343 344 345 347 349 319 317 328 338 329 319 315 320 323 330 350 356 351 332 330 329 326 316 314 313 313 313
308 307 309 310 309 310 312 314 316 317 318 318 318 319 319 317 316 316 317 317 317 317 318 318 318 318 319 320 321 323 325 326 328 331 333 337 341 344 344 345 347 352 326 315 316 318 312 312 313 314 315 318 329 345 355 331 316 316 313 311 311 310 310

ECMWFFLT1_sfc_thetae_105.txt.gz
Theta_e
338 337 338 339 339 339 340 342 344 343 344 344 344 343 343 344 346 348 347 349 350 352 353 354 354 355 356 356 357 358 358 357 357 355 355 356 357 359 358 359 360 362 361 361 364 364 367 369 369 369 369 368 367 367 369 370 372 371 372 373 370 369 367
329 332 336 338 338 339 340 342 344 344 345 345 344 344 344 344 347 346 348 350 350 352 352 353 354 354 355 356 357 358 358 357 357 358 356 358 359 360 360 361 361 363 364 363 365 368 368 368 369 369 369 369 368 370 370 371 372 372 370 372 369 368 369
325 328 331 334 338 338 340 341 343 343 345 345 344 344 343 346 348 348 348 348 349 351 352 352 354 354 355 356 357 357 357 356 356 355 354 352 354 352 357 360 361 361 361 363 365 365 367 367 369 370 369 368 366 370 371 371 371 371 371 372 370 366 369
323 324 327 333 338 341 341 341 342 342 344 345 345 344 344 348 347 350 349 348 348 350 350 351 352 352 354 355 355 356 357 357 356 354 353 353 353 354 355 357 360 360 361 361 362 363 363 366 366 368 368 369 368 369 369 369 369 370 370 371 367 368 369
324 325 327 329 332 337 341 341 341 342 342 344 345 347 346 346 346 347 348 348 347 348 348 349 349 352 353 354 353 354 355 356 356 355 355 354 356 356 354 352 354 356 358 360 363 364 365 366 364 366 367 369 368 369 369 369 368 370 370 371 367 366 366
323 324 326 328 330 334 337 341 341 341 340 341 343 344 344 344 344 344 345 348 347 348 350 350 349 352 352 353 353 353 355 356 357 357 355 356 356 353 353 353 352 354 355 357 359 360 363 363 363 364 364 364 364 364 365 367 367 368 369 369 368 365 363
322 324 325 327 329 331 335 340 342 341 342 341 342 344 344 343 343 343 344 345 346 347 347 347 348 350 352 352 353 354 354 354 355 355 355 354 354 354 353 354 355 353 354 357 357 359 359 361 362 363 363 362 365 364 365 368 367 367 368 368 368 367 367
322 322 324 327 328 330 332 335 341 343 342 342 341 341 342 343 343 343 343 344 346 346 346 346 347 350 351 353 353 353 353 353 354 354 354 353 353 353 353 353 353 355 355 354 356 358 357 359 359 362 362 361 364 366 366 369 369 366 367 367 366 366 364
321 323 324 325 327 329 330 332 335 338 343 344 342 342 342 342 342 342 342 343 345 345 346 346 347 349 352 352 353 353 353 353 353 353 353 352 352 351 351 351 353 354 354 351 352 357 357 358 357 362 364 363 364 368 367 369 368 367 366 366 367 366 364
319 321 323 325 326 327 329 330 332 334 336 337 344 344 342 342 343 342 342 342 344 344 346 346 347 348 351 351 351 352 353 353 353 351 351 350 351 351 351 351 351 353 352 352 352 353 357 358 358 362 364 362 365 367 367 368 367 367 367 367 367 366 366
318 320 322 322 324 325 327 327 327 330 332 335 337 339 346 344 343 342 342 342 343 344 345 347 348 348 349 349 349 350 351 351 351 351 350 350 350 350 350 351 350 351 351 351 350 352 356 359 360 361 363 359 361 364 366 366 366 367 365 366 367 366 365
317 318 318 321 322 323 324 325 326 327 329 332 334 336 339 343 345 343 342 343 344 344 345 345 347 348 349 349 348 350 350 352 351 350 350 350 350 350 350 351 351 351 350 350 350 352 353 357 358 359 361 361 361 363 366 367 367 368 367 365 366 366 365
317 317 317 318 320 321 323 325 325 326 328 329 332 334 336 338 339 345 345 344 344 345 345 346 347 349 348 349 348 350 350 351 351 351 350 351 350 351 351 350 350 350 350 350 350 350 350 353 356 359 359 361 361 360 363 365 365 367 368 366 366 366 366
318 316 317 317 318 319 320 322 324 325 326 328 330 332 334 336 337 340 343 347 345 344 345 346 347 348 349 349 349 351 352 352 353 352 353 353 354 353 351 350 351 352 352 352 350 349 349 350 352 356 357 359 359 361 362 365 364 367 368 367 366 365 365
314 314 315 316 316 317 318 319 322 323 324 327 329 330 332 333 336 338 341 344 348 346 346 348 347 348 348 349 350 352 355 355 354 354 354 354 355 354 353 352 352 352 352 353 351 349 349 349 350 353 355 357 359 359 360 360 362 363 365 366 366 365 363
313 313 314 315 316 317 317 318 319 321 323 325 326 329 330 331 333 335 338 340 343 347 350 348 350 349 347 348 351 355 356 356 356 355 356 355 355 355 354 353 353 351 352 352 352 352 352 352 351 350 352 355 358 359 358 359 360 357 347 350 364 365 361
313 312 313 315 317 317 317 318 318 319 322 323 325 327 328 331 332 334 336 339 342 345 349 352 351 350 349 349 352 355 356 357 356 356 356 356 355 356 355 354 353 353 353 352 352 353 355 353 351 350 349 350 352 355 356 357 357 344 336 337 341 358 363
313 313 313 314 316 318 317 317 317 318 319 322 323 325 327 328 331 333 334 338 342 344 348 351 352 349 351 352 355 356 356 355 356 356 356 356 356 356 356 355 354 354 354 353 352 354 354 353 352 352 351 349 350 350 352 355 346 334 332 333 333 341 360
313 314 314 315 316 317 318 317 318 318 319 321 321 323 324 326 328 330 333 336 341 344 347 350 351 352 352 353 353 356 356 357 357 357 356 357 357 358 358 357 355 354 354 352 353 353 353 353 352 353 353 351 351 349 350 352 340 331 330 330 330 331 345
314 314 315 316 316 317 319 320 319 319 321 321 322 322 324 326 326 329 332 336 340 340 344 346 351 355 353 353 355 355 357 358 357 356 357 358 358 358 357 356 356 354 354 353 354 354 353 352 353 353 355 353 353 353 352 352 341 329 327 327 327 328 335
315 315 315 315 317 318 319 320 321 320 320 320 321 322 322 324 325 327 330 333 335 336 338 341 344 348 355 355 355 355 356 357 357 357 358 358 358 358 357 356 357 355 354 353 353 354 354 352 352 352 354 353 353 353 353 352 336 326 324 323 323 325 329
314 315 315 316 317 318 319 321 322 322 321 322 321 320 321 322 326 326 327 330 331 333 334 335 338 340 343 348 356 354 356 355 356 357 358 358 358 357 357 357 358 357 356 355 354 355 354 355 353 353 352 352 352 351 351 353 332 325 323 322 322 323 343
314 316 317 318 318 318 320 322 324 325 324 323 321 320 320 323 325 326 327 327 328 330 330 330 332 335 338 339 341 347 356 354 354 356 356 357 356 356 356 357 358 358 358 356 354 353 353 354 353 355 353 352 352 351 352 353 338 323 320 320 320 325 348
313 314 315 318 319 319 320 321 324 325 324 323 323 322 322 323 325 327 326 326 326 327 328 328 328 330 333 335 336 339 345 356 357 357 356 357 356 356 356 356 357 357 358 356 354 352 353 355 355 355 355 353 352 352 352 352 342 321 318 317 318 330 350
311 312 313 315 317 318 319 321 323 324 323 323 322 323 323 323 325 326 326 326 325 326 325 326 327 327 328 330 334 336 340 348 358 359 356 356 356 355 356 356 357 357 358 356 356 355 356 356 355 355 356 354 353 349 350 352 345 322 318 316 316 329 352
310 311 312 313 316 318 320 322 323 323 322 320 323 324 322 322 323 326 326 326 326 325 324 324 326 328 330 331 332 333 336 341 349 359 359 358 358 358 358 359 358 358 357 357 356 356 356 356 356 355 355 356 355 354 352 352 354 349 317 315 314 318 349
311 311 311 312 313 319 319 319 319 320 321 323 324 324 322 322 323 324 325 325 325 323 323 325 327 329 330 330 331 332 333 336 340 347 359 362 360 360 360 360 359 358 358 357 357 357 357 357 357 356 356 356 357 356 355 355 354 355 318 314 313 315 326
311 311 313 314 316 316 317 317 319 320 320 323 324 324 322 322 323 324 325 325 324 324 325 326 327 328 329 329 330 332 333 335 337 340 345 358 362 362 362 363 362 361 361 360 360 359 359 360 358 357 357 358 358 358 357 356 346 356 326 315 313 313 315
310 310 311 312 313 314 315 315 317 318 320 321 323 325 324 323 323 324 325 324 324 325 326 326 326 326 327 329 330 331 332 334 336 337 339 343 356 362 362 364 363 364 364 363 361 361 360 360 359 358 357 358 358 359 359 360 357 334 349 318 313 311 312
311 311 312 313 313 313 315 315 317 318 321 322 324 325 325 323 323 324 324 325 325 326 326 326 325 326 327 328 329 331 332 334 335 337 338 340 344 351 353 359 361 362 363 363 361 359 358 359 359 358 357 356 357 359 359 362 361 343 331 337 313 312 310
310 311 311 312 312 315 315 315 316 318 321 323 324 325 325 324 323 324 324 326 327 326 325 325 326 326 327 327 328 329 330 332 334 337 340 342 344 344 349 354 358 359 362 363 361 360 359 358 359 359 358 357 356 357 360 360 361 362 345 327 321 313 311
310 312 312 313 313 314 315 316 317 318 319 322 324 324 324 323 324 324 325 325 326 325 325 325 326 327 327 327 327 328 330 331 332 334 339 343 345 346 348 350 355 356 360 361 360 360 359 358 358 358 359 358 358 358 360 361 362 362 363 340 331 321 313
310 311 311 312 314 315 315 316 315 316 318 319 322 324 323 323 324 325 325 324 323 324 324 325 326 327 328 326 325 327 329 331 331 333 335 340 347 348 348 351 354 354 356 358 358 359 359 359 358 357 357 357 357 358 359 361 360 361 362 362 355 348 337
310 310 312 313 314 315 315 315 315 316 318 319 322 324 323 322 323 324 325 323 323 323 323 324 325 326 325 325 325 326 327 329 330 330 331 334 339 341 345 350 350 353 354 357 359 358 358 359 358 357 357 357 358 358 358 359 360 361 362 361 360 356 352
310 311 312 312 313 314 314 314 315 316 318 318 322 324 324 323 323 324 323 322 323 323 322 322 323 323 325 325 326 326 328 328 327 327 327 330 334 340 342 344 347 348 350 356 360 362 360 359 360 360 361 361 361 359 358 360 360 362 341 361 338 353 358
309 310 311 313 313 314 314 315 316 316 317 318 322 323 323 322 323 323 322 321 321 321 321 321 321 322 323 325 325 325 325 325 325 325 327 328 330 333 337 338 325 335 349 350 340 331 324 322 352 363 364 362 363 365 361 361 364 340 326 322 320 319 324
307 308 310 312 312 313 313 314 316 316 317 319 322 323 323 323 322 322 321 321 320 319 319 320 320 320 321 323 324 323 323 323 323 324 326 327 328 330 330 333 338 318 314 320 328 323 316 314 313 315 324 354 363 360 335 333 332 330 319 314 315 314 313
308 309 311 312 312 313 314 314 315 316 317 319 322 324 324 322 321 320 319 319 319 319 318 319 319 318 319 319 321 322 323 323 323 324 324 324 325 325 326 329 331 335 323 319 318 314 309 307 307 309 312 315 329 348 365 335 318 318 312 311 312 312 310

ECMWFFLT1_sfc_thetae_111.txt.gz
Theta_e
343 342 340 347 345 344 344 347 348 349 349 349 350 350 350 350 351 353 353 359 362 364 364 365 365 365 363 360 360 360 360 361 362 359 359 358 357 357 356 356 358 361 359 359 362 361 364 367 365 364 366 363 369 373 376 374 371 373 374 372 369 369 367
339 341 342 344 346 346 347 349 345 349 350 351 351 352 351 351 352 352 354 360 362 364 366 365 365 365 365 363 361 363 362 360 362 363 359 360 360 359 357 358 356 359 361 359 359 361 362 362 365 365 366 366 364 373 372 375 373 372 371 372 367 368 368
338 340 341 342 344 345 349 346 349 348 350 348 349 349 350 353 354 355 356 359 363 365 366 365 366 365 366 365 363 364 363 360 360 359 358 355 358 355 358 359 357 355 357 359 362 360 362 363 365 365 364 365 362 365 372 374 372 373 372 376 369 369 369
336 338 339 340 343 346 350 350 348 348 350 349 349 350 351 353 354 355 357 360 361 363 364 364 365 363 365 365 363 364 364 363 360 356 356 354 355 356 356 356 359 355 356 356 358 360 357 361 362 365 365 366 365 364 365 367 367 370 371 377 367 368 371
335 338 338 339 339 342 346 347 347 350 352 353 352 353 355 354 354 354 356 358 357 359 362 362 361 361 364 365 361 362 364 363 360 357 356 355 357 357 355 353 354 354 354 355 357 361 362 362 360 363 365 366 364 365 364 365 367 371 370 375 368 365 365
331 334 337 337 337 338 342 346 346 349 350 349 350 352 354 354 353 353 354 356 358 359 361 362 360 362 363 363 361 359 365 365 364 361 357 356 356 353 354 354 352 353 351 354 354 356 359 360 359 360 361 361 360 358 360 362 363 361 368 373 367 365 363
330 332 335 337 337 338 341 346 348 349 351 347 349 349 351 351 352 350 354 354 356 358 359 360 359 360 364 362 362 362 364 364 364 361 357 355 355 354 355 355 356 353 352 355 354 355 356 359 359 360 359 358 359 357 360 362 362 363 366 367 367 367 365
329 330 333 335 337 338 339 343 345 347 349 350 346 348 349 348 349 350 350 355 355 354 356 355 354 359 362 364 363 361 362 362 364 363 359 355 354 354 353 355 356 356 355 352 355 356 354 359 358 359 358 357 358 360 357 362 365 360 361 364 365 365 361
328 329 330 331 335 337 338 339 341 344 346 348 351 350 352 351 352 348 350 350 351 350 350 355 355 357 363 363 363 363 362 362 362 363 360 355 353 351 351 353 357 357 355 352 352 356 356 355 356 359 360 359 359 361 360 363 362 362 361 362 364 365 362
327 327 328 329 331 334 338 338 338 340 343 344 347 351 352 353 354 351 352 354 350 350 356 353 354 356 359 361 362 363 362 363 360 358 357 355 352 351 351 350 353 357 355 352 350 351 356 356 355 356 361 359 359 360 361 361 361 362 362 361 362 364 364
326 327 328 328 328 329 333 337 337 337 338 340 343 346 349 351 351 349 354 357 352 352 352 352 354 353 356 359 360 360 361 361 359 355 356 354 351 350 350 349 348 353 354 353 349 348 353 355 357 359 359 356 358 359 360 360 361 362 360 360 361 363 362
326 325 326 328 328 328 328 331 335 336 337 338 339 341 346 349 349 351 354 353 350 355 356 357 355 355 355 357 359 361 361 361 359 356 355 354 352 349 348 348 347 347 352 353 350 348 347 353 353 353 356 358 360 360 361 363 363 364 363 359 359 360 360
326 325 325 325 326 327 329 329 330 332 333 333 336 340 343 344 345 352 354 353 353 355 353 357 361 358 356 359 354 357 358 359 361 358 355 355 354 351 348 348 348 346 346 351 352 348 346 347 353 354 353 357 358 357 358 361 362 365 365 362 359 358 358
325 324 325 325 326 326 327 329 330 330 330 330 331 335 339 340 341 346 351 352 352 353 353 355 354 354 357 354 355 358 357 360 362 361 360 357 360 357 352 348 347 349 348 349 350 350 347 345 346 352 353 353 356 357 356 359 361 363 365 364 360 356 355
321 322 324 324 325 326 326 327 330 330 330 330 329 330 334 336 338 342 347 351 354 355 355 357 357 357 355 352 355 359 362 362 361 362 362 361 361 359 357 353 352 353 351 350 348 348 349 348 345 348 353 354 355 356 353 351 356 359 361 363 363 359 354
321 321 322 323 324 325 326 327 329 330 330 330 329 329 331 334 335 337 339 344 348 351 355 355 356 358 357 354 357 358 362 365 366 365 364 362 361 363 361 359 356 351 350 349 349 352 353 352 349 347 349 353 355 355 352 349 350 357 348 352 362 362 354
321 321 322 323 325 325 327 327 328 329 329 330 330 329 330 332 335 335 336 339 343 348 354 355 354 356 356 357 358 361 362 363 363 364 364 365 363 362 363 362 359 357 360 356 353 357 359 355 350 347 347 349 353 355 353 351 348 345 337 338 344 359 359
321 322 322 323 323 325 326 326 327 327 328 328 329 330 330 331 333 335 336 336 339 342 347 350 355 351 353 354 356 357 357 359 364 365 364 364 365 364 364 363 362 362 361 357 355 361 355 353 354 355 349 346 348 351 355 354 346 333 333 335 336 346 361
321 322 322 323 324 325 324 325 326 328 328 328 328 328 330 330 331 334 337 337 338 340 341 346 351 354 353 353 351 354 357 356 359 362 363 364 364 365 365 365 363 361 360 356 358 358 361 362 356 356 356 352 351 347 349 354 343 330 330 333 333 334 349
319 320 322 323 324 324 326 326 326 327 329 331 329 328 331 332 331 334 338 340 341 338 339 341 346 350 351 352 353 353 354 357 356 358 362 364 363 364 363 363 363 361 360 359 359 360 359 359 361 360 363 359 356 356 351 354 346 329 327 329 330 332 340
318 320 320 321 323 325 326 326 326 327 328 328 329 330 330 330 330 333 337 338 338 339 341 341 343 346 346 347 351 353 354 353 355 355 357 358 360 363 362 361 361 361 362 357 357 358 359 359 360 361 361 360 358 357 354 353 338 326 325 325 326 329 335
316 317 318 319 320 322 324 325 325 326 327 329 330 328 330 330 330 330 333 335 335 337 338 338 340 341 341 341 343 345 347 350 350 353 356 357 357 358 360 359 362 361 361 361 357 358 359 361 361 360 360 361 360 357 356 355 334 324 323 323 324 327 350
316 317 318 320 318 319 323 324 324 327 329 329 329 327 329 331 329 330 330 332 333 335 335 336 337 338 339 339 338 340 343 345 349 352 354 355 356 356 354 355 355 359 361 360 360 360 361 357 357 363 362 361 361 360 360 358 343 322 320 320 322 330 356
317 318 317 318 320 320 322 322 322 323 325 328 329 329 330 331 330 329 330 330 330 331 334 334 334 336 338 337 338 340 342 345 347 349 350 352 353 352 351 352 354 352 351 355 355 352 355 356 353 354 354 357 357 356 361 359 348 318 317 318 319 335 358
316 316 317 318 318 320 320 321 322 322 323 324 325 328 330 331 332 329 330 330 329 330 332 331 332 335 334 335 338 339 341 347 347 346 346 348 349 350 351 349 352 355 356 356 356 357 357 358 355 355 358 358 357 352 355 359 352 316 317 316 317 335 360
316 316 317 317 319 320 320 323 322 322 321 320 323 326 328 329 330 330 331 331 330 331 332 332 332 335 337 338 338 339 342 344 344 345 343 346 347 351 354 356 353 353 353 354 355 355 357 359 357 356 356 357 355 353 357 355 356 349 313 315 314 321 360
317 317 317 317 319 321 320 321 321 320 320 322 324 323 326 328 327 329 330 330 330 331 332 332 334 334 335 336 337 337 339 341 342 341 342 344 348 349 351 353 351 352 352 350 352 356 357 355 357 357 356 357 359 360 359 359 359 353 319 312 312 316 330
317 317 318 320 320 320 320 319 321 321 321 323 323 324 325 326 327 328 330 329 329 331 332 333 333 334 334 334 334 336 338 340 342 342 342 346 347 349 348 351 352 350 350 350 352 353 354 355 355 356 356 358 358 362 361 361 350 358 329 315 311 312 316
317 316 317 318 319 320 319 319 319 320 322 323 324 324 324 325 326 328 329 329 331 332 333 332 333 333 333 334 333 334 336 338 340 341 341 344 345 345 346 349 351 351 350 348 348 350 352 354 355 355 355 356 361 362 361 363 363 336 351 319 313 311 311
317 317 317 317 318 318 319 319 320 320 322 322 326 327 326 326 326 327 328 330 333 333 334 334 333 333 332 333 334 333 334 335 336 338 343 343 344 344 345 347 348 349 348 346 347 349 350 352 354 354 353 354 356 359 362 363 361 343 338 339 315 312 310
315 316 316 316 316 319 318 318 318 319 321 322 324 326 328 327 326 326 327 331 333 333 332 332 332 332 331 331 331 332 332 333 335 337 340 341 342 343 344 346 348 348 348 347 348 350 349 350 352 353 353 355 355 356 357 361 361 361 342 330 326 315 311
315 315 315 316 317 317 317 317 318 318 319 321 323 324 326 327 327 326 327 330 332 332 331 331 331 330 331 330 330 329 330 330 332 334 338 339 340 341 343 344 345 346 348 349 350 351 351 351 352 353 354 354 353 354 356 357 358 358 360 342 334 324 315
313 314 314 314 316 316 316 317 316 317 317 318 321 322 323 324 326 327 327 328 329 331 331 331 330 329 330 330 329 329 330 331 331 332 333 336 339 340 341 341 343 345 345 345 346 348 349 351 351 351 351 350 353 355 355 354 354 356 358 361 357 348 338
312 313 314 315 315 316 316 316 316 316 317 317 319 321 322 323 324 326 327 327 327 329 330 329 328 327 328 329 329 329 329 329 331 332 331 331 333 334 337 339 341 341 343 345 343 341 342 344 345 345 346 348 350 352 353 353 352 353 355 357 360 359 356
312 312 313 313 314 315 315 316 316 316 317 318 320 320 321 322 323 325 327 327 328 329 328 327 327 328 328 328 329 329 330 330 330 328 328 330 333 333 335 336 337 338 339 342 343 341 339 338 338 339 342 344 346 347 348 350 351 355 341 353 330 344 350
312 312 312 314 314 315 316 316 315 316 317 318 320 320 322 322 324 325 325 327 328 328 327 327 326 326 327 328 328 329 329 328 327 328 330 329 330 331 333 333 322 329 338 339 338 327 316 316 332 336 339 338 341 345 345 348 353 333 319 314 312 311 312
311 312 312 313 314 314 315 315 316 316 316 318 320 320 321 322 323 325 325 327 328 327 327 326 324 323 324 326 326 326 327 328 328 330 331 331 331 332 330 331 334 313 310 319 325 320 312 306 305 306 309 325 331 334 325 323 319 312 310 309 308 308 307
312 312 313 314 314 314 314 314 315 316 316 318 319 320 321 321 322 324 325 327 327 327 327 325 324 321 321 323 324 325 326 327 328 329 329 329 330 330 329 328 328 331 317 305 311 312 308 305 304 303 303 305 311 324 333 324 314 310 309 308 306 305 305

ECMWFFLT1_sfc_thetae_114.txt.gz
Theta_e
339 346 346 347 344 345 347 350 349 349 349 348 351 354 346 345 351 354 356 360 359 359 360 362 364 365 363 363 363 364 364 365 364 362 362 362 362 363 362 360 360 365 360 360 361 361 365 370 366 365 366 367 369 370 374 374 375 374 374 374 372 372 368
341 342 344 345 346 346 346 350 348 349 349 349 351 349 349 348 352 352 357 361 360 361 360 360 363 363 362 363 362 365 365 364 365 365 362 366 367 369 363 363 363 364 369 364 366 367 365 366 364 364 365 368 366 372 371 373 373 373 370 373 370 371 370
339 342 342 343 344 347 350 350 348 347 351 350 348 348 348 355 354 354 357 358 361 363 360 361 364 363 361 362 361 362 363 362 363 360 359 356 358 354 358 362 361 359 359 362 366 364 365 363 370 368 366 363 362 373 372 372 372 371 372 373 369 367 371
338 339 341 343 346 349 348 349 350 349 350 350 348 348 349 354 353 357 357 358 360 363 361 360 361 361 361 362 361 362 361 362 361 358 357 357 357 357 358 360 361 359 361 359 357 359 357 364 365 370 368 368 367 367 368 369 368 369 370 374 369 369 371
338 339 340 341 343 345 347 348 350 351 349 346 347 349 351 352 349 351 352 353 360 360 361 360 360 361 363 362 359 358 359 360 360 360 358 357 361 360 358 354 355 355 358 356 363 365 369 364 363 366 367 370 365 367 367 369 368 371 370 373 371 367 368
332 337 338 337 341 343 345 346 348 351 349 349 350 350 351 352 352 350 350 354 356 357 361 361 359 361 360 361 360 358 363 364 363 362 359 360 361 356 355 355 354 355 352 356 356 357 364 361 360 361 361 360 360 359 361 364 365 365 370 371 371 365 362
331 332 338 337 340 342 343 346 348 351 353 352 351 352 353 351 351 350 350 351 355 357 356 357 356 354 360 361 361 362 362 361 363 358 358 355 356 357 356 356 357 353 352 357 355 356 356 359 360 362 362 360 361 358 361 365 364 364 369 371 372 371 371
329 331 332 336 341 341 340 341 343 347 352 350 350 350 349 349 351 350 352 353 353 352 352 353 354 355 357 360 360 357 358 360 361 361 358 354 353 354 355 355 355 358 356 353 356 357 354 359 357 360 361 359 361 361 361 365 367 361 364 367 368 366 361
330 331 332 334 337 338 340 341 340 341 343 349 351 350 349 350 349 350 350 354 355 356 357 358 359 353 354 359 360 361 357 360 361 362 358 353 351 349 350 352 353 356 356 351 351 355 355 357 357 361 362 361 363 364 364 367 363 362 363 364 367 365 362
327 329 331 333 336 337 339 339 342 341 341 341 347 351 352 353 352 351 352 351 351 351 352 352 355 358 354 354 357 357 357 361 362 359 358 353 351 349 349 349 351 355 354 351 350 351 355 358 357 362 363 361 364 365 362 367 363 362 362 366 365 364 365
326 327 329 331 331 333 334 334 335 337 339 339 342 344 350 352 353 352 353 355 353 351 350 354 356 356 357 357 353 358 362 357 355 354 357 355 351 349 349 348 348 352 351 351 349 349 352 357 360 361 362 356 360 362 362 361 363 364 360 361 362 364 363
326 325 326 327 329 330 331 332 333 333 335 336 336 338 341 345 350 352 352 352 353 354 357 356 356 354 354 355 356 354 360 361 357 352 352 355 352 349 349 348 346 348 351 351 350 350 350 353 354 357 360 358 358 360 362 363 363 366 365 360 360 362 362
325 325 325 326 327 329 330 330 330 331 333 333 335 336 338 339 340 348 354 352 353 355 356 358 358 358 358 356 355 358 359 360 357 357 351 352 353 351 349 347 346 346 348 352 351 348 345 349 353 355 358 360 359 358 361 362 361 364 366 365 363 362 362
328 325 325 325 326 326 327 328 329 329 330 332 334 336 338 339 341 342 344 350 354 353 355 356 356 354 354 356 356 354 355 358 358 358 353 354 355 356 350 348 347 348 350 352 351 348 344 343 348 352 353 357 356 359 360 364 362 365 367 365 363 360 361
322 324 325 325 325 326 326 326 328 329 328 330 331 335 339 341 341 344 345 346 349 354 352 355 355 356 354 354 353 353 354 357 359 358 355 354 357 359 355 352 350 351 351 354 351 348 347 345 343 350 351 353 357 358 358 358 361 361 364 365 364 363 359
320 322 323 323 325 325 327 327 328 328 329 330 330 333 336 336 339 342 342 344 345 346 355 356 356 355 354 352 353 354 356 356 356 354 357 358 357 354 355 356 354 346 349 349 350 352 352 351 348 346 350 352 355 357 356 356 356 359 351 354 363 364 358
321 321 322 323 324 324 325 327 328 328 329 330 330 330 334 335 337 341 339 343 344 342 345 350 355 354 353 354 354 356 358 359 357 353 352 353 356 357 353 350 349 351 357 355 353 354 362 353 350 347 345 351 351 353 352 353 352 348 337 339 346 361 362
321 321 322 322 323 324 324 325 326 327 327 327 329 332 333 336 337 338 338 339 340 340 343 343 348 351 352 353 354 354 355 356 356 357 356 354 354 354 355 356 352 351 349 356 356 363 357 355 354 354 349 345 348 350 351 352 349 334 333 336 336 348 363
319 321 321 323 323 323 323 323 325 327 327 327 327 329 330 330 332 335 337 339 340 341 341 341 342 343 345 348 350 352 354 355 354 355 353 351 353 356 356 355 353 355 354 351 349 353 356 360 362 358 356 352 355 349 351 353 343 330 330 332 333 334 351
318 319 320 321 322 323 323 324 325 326 328 330 328 328 330 331 330 333 337 339 342 340 341 340 340 341 341 343 345 346 347 347 349 352 354 355 357 356 356 355 355 356 356 355 354 352 351 355 356 359 365 360 357 359 356 361 346 329 326 328 329 331 339
317 318 319 320 321 322 322 322 323 326 327 326 327 328 330 329 329 332 333 335 334 337 339 337 337 339 339 342 345 346 346 345 347 349 352 354 355 355 355 353 353 355 356 356 355 351 353 357 355 354 356 358 356 357 353 352 340 326 323 324 325 328 334
316 317 317 318 320 321 322 320 322 323 325 328 328 325 328 329 329 329 329 330 330 334 335 335 335 335 337 338 339 342 344 345 345 347 349 350 351 351 353 352 352 352 356 356 358 356 357 360 358 357 356 359 358 357 354 355 335 328 322 319 322 326 346
316 317 317 319 319 320 322 323 323 325 328 327 326 325 326 329 330 330 329 328 327 332 332 332 332 334 337 336 335 337 340 342 345 344 344 348 349 350 351 351 350 354 356 354 356 355 355 356 358 360 358 357 357 355 360 357 347 334 324 317 318 325 348
317 317 317 317 320 320 320 322 322 323 322 325 328 325 328 328 330 330 330 329 326 329 331 330 330 333 334 333 334 336 338 342 343 343 342 345 346 348 352 354 353 352 356 355 354 356 355 357 356 359 358 355 355 355 357 356 351 331 321 314 316 328 350
316 316 317 317 319 317 318 321 322 322 322 322 322 326 330 334 332 328 329 330 328 329 330 330 331 331 331 331 333 335 338 341 345 343 341 344 347 349 348 352 353 355 356 354 354 355 357 357 356 356 359 358 356 358 357 357 351 326 320 314 314 324 346
316 316 316 317 318 317 321 323 322 321 320 321 323 324 326 327 328 329 328 330 330 329 329 331 332 332 334 334 334 335 339 339 342 343 342 344 345 347 349 349 346 345 348 350 350 351 353 355 354 356 357 359 359 358 356 354 356 346 317 314 312 315 345
317 317 317 317 317 321 320 320 320 319 319 323 326 324 324 324 324 325 327 330 330 331 331 334 336 336 336 335 333 332 332 334 336 337 338 345 346 348 350 348 346 344 342 341 347 350 352 352 354 355 356 357 359 360 360 359 359 359 317 313 312 313 321
317 317 318 319 320 320 319 319 320 320 321 322 323 325 325 326 326 326 327 327 328 330 333 335 336 336 335 334 333 333 332 332 337 337 335 342 348 349 348 350 351 347 343 343 343 344 346 348 350 350 352 356 357 361 363 364 362 362 328 317 312 311 311
316 316 316 317 318 319 318 318 318 318 319 321 322 324 325 326 326 326 326 326 328 330 333 333 334 336 334 334 333 333 332 335 333 333 333 337 344 347 346 349 348 348 349 348 348 348 347 346 348 351 352 354 358 360 362 364 367 344 354 320 312 310 309
316 316 316 316 317 317 317 317 317 317 319 320 322 323 324 325 324 326 325 326 330 330 332 332 332 334 333 333 334 332 331 330 331 333 336 339 344 343 342 345 348 349 349 348 347 345 344 345 348 349 350 350 354 357 360 365 366 352 342 344 315 310 308
314 314 315 315 315 317 316 315 316 316 318 319 321 322 324 324 323 323 324 327 330 330 329 331 331 332 331 331 330 331 330 332 335 337 339 339 340 340 342 344 346 347 349 351 349 346 346 348 349 348 350 351 351 355 359 362 366 363 349 333 326 312 310
314 314 314 315 315 315 315 315 316 316 316 318 320 321 322 322 322 322 324 327 329 330 329 330 332 331 330 329 330 328 329 328 329 330 335 334 338 341 345 342 341 343 348 348 348 348 347 345 342 342 343 347 349 351 352 355 358 362 362 350 343 327 313
313 313 313 313 314 315 315 315 314 315 315 315 318 319 320 321 322 324 326 327 327 328 330 330 330 330 331 330 327 328 328 329 328 329 331 333 333 333 334 335 339 341 343 344 341 341 341 339 338 339 340 340 341 345 351 351 355 357 358 362 361 358 345
312 312 313 314 314 315 314 314 314 314 315 316 317 318 319 319 320 322 323 324 324 326 328 328 328 326 327 326 326 327 327 327 330 331 328 328 328 328 331 333 333 335 338 336 336 336 337 337 338 337 335 336 337 340 343 346 350 353 355 357 358 360 360
312 312 312 313 314 315 314 314 314 315 315 316 317 318 318 319 320 322 324 324 325 327 327 327 327 328 326 326 327 327 330 329 328 327 327 328 331 332 333 332 331 334 334 335 338 338 335 334 335 336 335 334 336 336 338 341 344 347 321 333 322 345 357
311 312 312 313 314 315 315 315 315 314 315 315 317 317 318 318 320 321 322 324 325 326 326 327 326 326 325 325 325 325 326 326 325 327 328 327 327 328 330 332 322 327 333 333 333 325 317 320 334 336 336 333 332 334 332 333 339 324 314 311 310 309 309
310 311 312 313 313 313 314 314 315 315 315 316 317 318 320 321 321 321 322 325 325 324 326 326 326 325 323 324 323 325 325 324 325 325 328 328 328 330 329 329 332 315 310 314 321 314 307 304 306 308 310 323 327 329 320 318 314 309 307 307 307 305 303
312 312 312 313 313 314 313 314 314 314 314 315 316 316 318 319 321 322 321 324 325 326 326 326 325 323 322 323 324 328 326 324 325 326 326 326 327 328 329 327 327 330 320 311 308 307 304 303 303 303 303 304 310 321 326 319 312 307 305 304 302 302 302

ECMWFFLT1_sfc_thetae_117.txt.gz
Theta_e
340 342 343 346 345 345 347 347 346 346 346 344 345 337 336 340 345 348 351 351 353 352 354 357 356 355 354 354 355 354 354 356 360 356 357 358 360 358 359 359 359 359 358 359 359 356 359 360 359 362 363 364 366 364 365 366 366 368 367 367 365 360 357
340 342 343 343 344 344 347 350 348 346 345 346 348 346 345 344 345 347 350 350 352 352 353 356 358 357 356 354 356 355 354 356 359 360 358 359 361 359 359 358 359 359 357 360 358 358 360 360 359 361 362 364 364 365 367 366 366 366 366 365 362 363 360
337 340 341 343 343 343 346 345 346 349 348 347 348 347 345 348 347 347 350 350 351 353 353 355 358 357 358 356 356 356 356 357 357 357 355 357 358 360 358 358 359 359 360 359 358 361 361 362 360 361 361 362 362 364 367 366 365 365 365 365 363 361 361
335 337 340 343 346 346 348 346 345 347 350 350 350 349 351 351 350 352 353 351 351 353 351 353 356 358 357 357 355 355 356 357 357 356 355 354 356 354 356 356 357 358 357 357 360 361 361 359 359 359 366 360 360 366 366 365 365 364 365 365 362 362 362
335 337 340 341 343 344 346 348 350 348 348 348 352 352 350 354 353 353 355 354 354 353 353 353 356 357 358 357 356 357 356 356 356 356 355 354 354 354 352 354 354 353 355 356 357 357 356 357 360 361 361 358 361 365 364 364 363 364 363 365 361 361 361
334 336 336 338 341 342 343 344 347 349 347 345 346 347 350 351 350 347 353 357 355 356 355 356 355 357 356 356 355 355 355 355 355 356 355 354 354 352 352 351 353 352 354 354 358 354 361 356 357 361 360 360 361 363 363 362 364 364 363 366 363 361 361
328 331 336 336 339 338 337 338 341 351 354 352 350 352 350 349 348 347 348 355 356 357 357 357 356 357 358 356 354 353 353 354 354 354 355 354 354 353 351 352 353 351 351 353 352 354 360 356 356 358 358 358 358 358 360 361 362 363 363 364 363 363 360
328 329 335 339 338 336 336 337 339 343 352 353 351 350 349 349 349 348 347 351 354 358 358 354 353 353 356 358 356 354 355 355 355 355 354 353 351 353 352 351 351 351 350 351 351 352 353 355 356 357 357 356 356 355 356 359 359 361 362 362 363 363 365
329 330 331 332 335 336 335 336 337 338 341 348 352 354 351 350 350 352 349 351 354 353 355 357 355 353 354 354 356 355 357 357 357 356 354 352 350 349 350 351 350 353 350 350 351 352 351 354 354 356 357 356 356 355 356 357 358 359 360 362 363 362 361
328 328 329 330 331 332 332 333 335 335 336 337 339 340 343 345 345 346 347 346 346 348 351 356 356 354 352 352 351 353 356 356 357 357 355 352 350 348 347 348 350 351 351 350 348 350 352 353 353 355 356 355 355 355 354 357 357 357 358 360 361 360 359
326 328 328 328 328 329 330 331 331 332 334 335 338 339 340 344 346 347 350 351 350 351 351 352 351 353 353 351 354 356 354 353 357 357 356 353 351 348 347 346 346 349 349 349 348 347 349 353 353 353 355 355 354 357 354 358 357 355 356 358 360 360 359
324 326 326 326 326 327 327 329 331 333 334 335 337 338 338 339 342 346 346 349 353 352 350 353 353 354 353 354 354 353 355 358 355 352 352 351 352 351 347 346 345 346 349 348 347 346 347 350 353 354 354 354 354 356 356 355 357 356 355 356 358 360 360
323 324 325 325 325 326 327 327 328 332 334 335 337 338 339 340 341 341 343 347 349 351 353 355 353 353 351 354 356 357 356 355 354 356 353 352 352 351 352 352 349 344 347 349 347 347 345 347 350 354 355 354 353 354 356 355 355 356 358 357 355 356 357
326 324 325 325 325 325 325 326 327 328 330 335 338 338 340 341 342 343 343 343 345 348 348 351 353 353 353 353 352 352 353 354 354 353 352 354 354 354 352 352 350 347 347 347 347 346 346 344 347 350 354 354 353 353 355 356 355 354 356 358 357 356 355
322 322 323 324 325 326 325 326 326 327 328 331 334 335 338 339 339 341 342 344 344 344 347 349 351 351 351 351 351 353 354 354 355 354 354 354 353 351 349 348 348 349 348 346 346 348 345 345 345 347 350 354 353 352 353 356 356 355 356 356 356 357 355
320 321 321 321 323 324 324 325 328 327 328 329 331 334 336 338 339 340 341 342 344 344 347 350 350 350 350 350 350 352 354 353 352 350 350 350 350 349 349 349 349 350 350 350 349 347 347 346 346 345 347 349 352 352 353 354 357 358 351 354 357 355 355
319 319 320 320 321 322 324 324 325 328 327 327 329 333 337 337 337 338 340 342 343 344 345 347 346 347 348 348 349 351 353 354 352 351 350 351 351 350 351 350 351 349 349 351 350 348 348 349 346 347 344 347 349 351 351 352 355 350 339 340 347 358 355
318 318 318 319 320 321 322 322 323 324 324 325 325 326 330 333 335 337 337 339 341 344 344 343 343 343 343 344 345 346 347 350 352 350 350 351 350 350 351 352 350 348 348 350 352 349 349 347 347 348 349 347 346 348 350 351 352 338 335 337 337 348 358
317 318 318 318 318 319 319 321 322 324 324 324 324 324 326 328 329 331 336 336 336 337 337 338 340 340 341 343 344 344 345 347 349 350 351 352 354 355 356 354 353 353 353 353 354 353 349 346 346 348 352 354 345 345 348 350 343 334 332 333 334 335 351
316 317 317 317 317 317 317 318 320 322 324 323 325 327 327 328 328 328 334 336 335 334 334 334 335 337 340 341 341 342 344 345 346 347 348 349 350 353 353 353 353 356 358 357 354 351 351 350 347 348 349 352 352 351 351 350 344 330 327 328 329 331 338
315 317 317 317 317 317 317 318 320 321 321 322 324 326 327 327 327 327 327 331 331 332 332 333 333 334 335 339 341 342 343 343 342 344 346 348 347 349 350 351 350 353 355 356 355 351 349 352 352 352 354 354 353 352 352 352 333 329 326 323 321 325 332
313 315 315 316 316 317 317 318 320 322 321 323 321 321 326 326 328 327 326 327 330 329 330 330 330 331 333 332 335 339 343 343 341 342 345 346 347 348 348 349 349 350 353 355 356 356 354 355 354 353 353 353 353 353 349 351 333 333 328 323 322 324 333
314 314 316 316 317 317 320 319 320 323 323 320 320 323 325 327 328 328 327 326 328 329 329 329 328 329 330 330 331 335 338 343 344 342 342 345 345 345 348 348 348 349 353 353 354 355 354 354 356 355 356 355 354 352 350 352 340 329 328 324 320 324 334
314 314 315 315 315 316 320 320 320 321 320 319 320 323 325 326 326 326 326 327 327 328 328 328 328 329 330 329 330 332 336 341 343 342 342 343 344 344 344 348 348 348 349 348 349 350 353 355 355 355 356 355 354 354 352 352 349 335 326 321 319 329 336
313 314 314 313 313 315 319 321 322 321 321 320 320 321 323 323 324 325 325 327 327 328 327 327 328 329 329 329 330 331 333 336 337 336 342 343 346 346 345 344 344 342 340 341 342 345 349 351 350 352 354 357 356 360 356 353 349 335 330 326 315 325 336
313 313 313 314 316 318 320 321 318 318 318 320 320 322 323 324 324 327 326 325 328 328 328 329 330 331 331 331 330 331 331 332 335 336 338 343 344 345 345 345 343 341 341 339 336 339 345 349 350 349 350 351 353 357 358 355 354 350 330 321 317 317 338
314 314 313 315 319 323 316 316 317 316 317 318 320 321 323 324 324 324 325 325 325 326 329 330 331 332 331 331 331 330 329 330 331 333 333 344 345 347 348 346 344 342 339 337 335 335 340 343 344 346 347 350 353 355 356 358 355 352 330 320 318 316 323
314 314 315 321 322 320 315 315 315 315 316 317 319 321 321 322 324 324 324 323 323 323 327 331 330 331 330 330 329 330 329 330 331 334 333 335 338 347 345 346 347 346 341 337 335 337 342 344 345 345 346 348 350 352 353 358 360 357 336 321 316 315 312
312 312 313 313 313 316 316 313 313 314 315 318 319 320 320 321 321 322 321 321 321 324 326 327 330 331 331 330 330 330 330 330 329 330 330 334 340 334 334 337 341 345 346 344 344 344 343 344 344 343 344 346 348 351 353 354 352 337 345 332 317 313 311
312 312 312 313 314 314 317 312 314 314 316 318 319 319 320 319 319 321 321 321 322 325 326 326 326 328 331 331 329 329 329 328 329 328 331 335 331 331 332 334 338 342 344 344 344 343 343 343 344 342 339 338 340 342 344 351 348 346 341 341 324 314 311
311 311 312 312 312 316 314 312 312 314 315 316 317 318 319 319 318 320 320 320 324 326 326 326 327 327 329 328 328 328 326 325 325 327 332 328 329 331 335 332 333 333 336 345 345 344 341 338 337 337 337 337 337 339 341 343 347 350 346 335 330 320 315
310 311 311 311 311 313 313 313 313 313 314 314 315 316 318 317 318 317 319 321 324 321 323 325 325 326 326 327 327 325 326 324 325 326 328 329 330 331 328 329 330 332 335 336 335 336 336 336 336 335 334 334 334 335 337 339 342 347 351 351 346 338 323
310 310 310 310 312 314 313 314 313 313 313 314 315 315 316 316 317 317 319 320 321 321 323 323 326 326 325 323 325 325 325 323 324 327 326 325 326 327 329 330 330 330 331 329 327 328 332 333 334 333 332 332 331 332 334 335 338 343 345 347 347 346 340
309 310 310 311 313 313 312 312 311 313 314 314 314 315 316 317 317 317 318 319 321 321 322 324 325 324 322 322 323 326 324 323 329 326 323 324 325 325 325 327 329 328 327 326 326 326 327 328 329 328 329 330 330 330 330 330 331 336 342 339 335 331 330
309 308 309 310 312 312 311 313 313 313 314 313 314 315 316 316 318 319 319 319 319 321 322 323 325 325 323 322 323 325 327 328 323 324 323 322 323 323 324 326 327 325 325 327 329 330 329 326 325 328 328 330 330 329 328 328 328 332 325 327 315 318 320
308 308 310 311 311 313 313 314 314 313 313 312 313 314 315 315 317 320 322 322 322 321 320 323 323 322 321 322 322 324 324 325 323 323 324 322 321 322 323 329 320 320 324 324 329 323 315 313 323 327 327 326 327 328 327 327 330 320 309 304 301 301 301
308 308 309 309 310 311 313 313 314 313 313 312 314 313 314 314 316 320 320 322 322 322 322 322 322 322 322 324 324 323 326 324 322 322 321 321 321 322 322 322 323 312 311 314 317 312 305 302 302 303 307 319 321 323 319 317 313 308 303 299 299 298 298
309 308 310 309 310 312 312 313 314 313 312 312 313 312 313 314 317 317 318 319 320 321 322 322 322 321 321 322 323 324 324 322 322 323 322 321 321 321 321 320 320 320 313 311 312 311 307 305 304 303 303 305 309 319 321 316 310 306 299 298 298 297 297

ECMWFFLT1_sfc_thetae_120.txt.gz
Theta_e
337 337 337 339 339 345 341 334 329 329 330 332 334 338 343 346 346 346 345 348 346 347 350 347 351 351 352 350 352 352 351 353 355 353 355 354 354 352 352 356 355 354 354 354 355 356 357 359 358 359 359 359 361 360 360 361 360 362 361 360 357 357 354
335 336 336 339 340 340 346 346 343 338 336 331 334 336 344 346 346 346 345 348 347 347 351 348 351 351 353 351 352 351 350 351 356 357 356 356 358 355 355 357 356 355 356 357 356 356 358 358 358 359 359 361 362 360 360 362 361 361 362 360 358 355 354
337 340 339 339 337 339 343 342 343 346 345 340 333 334 343 345 347 346 346 348 348 347 352 350 351 351 353 352 351 351 351 351 355 356 354 355 357 357 357 358 357 357 357 359 358 356 359 358 357 358 360 360 361 361 361 362 362 363 362 361 359 358 355
334 337 340 341 340 342 342 343 343 347 350 349 337 335 340 345 348 348 348 348 349 348 350 352 351 351 352 352 352 351 350 351 354 355 355 356 357 357 357 357 357 357 357 357 359 359 359 358 357 357 365 359 360 361 363 363 362 362 362 361 359 358 357
334 336 337 339 341 343 342 339 340 342 347 348 350 350 345 343 347 349 349 350 351 349 350 354 354 353 353 353 354 353 352 351 353 354 354 356 357 356 356 355 356 357 357 357 358 358 358 357 357 357 360 359 359 360 362 363 362 362 361 362 359 358 358
333 333 335 335 336 338 338 341 346 347 348 346 346 350 348 348 346 347 349 350 351 351 351 354 355 354 353 353 353 354 353 353 353 354 353 353 355 354 354 355 355 356 356 356 358 357 357 356 357 356 358 358 358 360 361 362 362 361 360 361 360 358 359
333 334 334 334 335 336 337 339 345 349 349 347 348 349 349 347 346 346 350 350 352 351 350 352 355 356 355 355 354 354 353 353 353 353 353 352 352 352 352 353 355 354 355 354 355 356 355 355 357 356 357 357 357 360 361 360 360 361 360 360 360 358 359
329 331 334 332 335 336 335 336 338 339 345 348 347 349 349 348 347 345 345 348 349 350 351 352 352 355 355 356 355 353 353 353 354 354 353 352 351 351 350 350 352 352 352 352 352 353 355 354 356 358 357 357 356 358 360 360 360 361 360 360 360 360 361
328 329 330 331 331 332 335 335 336 337 338 341 344 346 348 348 348 347 347 347 350 350 349 349 347 346 345 348 352 352 353 353 353 353 353 352 351 351 351 350 350 351 350 351 351 352 354 354 354 356 357 356 356 356 357 358 359 360 360 359 360 359 360
325 326 327 328 330 332 333 334 335 335 336 337 340 343 345 345 345 344 344 348 346 346 351 351 350 348 346 346 345 345 349 351 352 352 352 352 351 350 351 351 350 351 349 349 350 350 352 354 354 354 355 355 354 354 354 356 357 358 359 359 359 360 359
324 325 325 326 327 329 332 332 332 333 334 335 338 340 341 343 344 346 347 349 348 347 348 347 348 348 349 350 348 346 344 346 352 352 352 352 351 350 349 349 350 350 350 348 348 349 349 352 353 353 354 354 353 353 353 353 355 356 357 358 359 360 359
323 324 324 325 326 327 329 332 333 334 334 335 336 338 339 341 344 345 345 346 348 348 350 350 350 348 347 351 350 348 347 343 343 349 352 352 351 349 348 346 344 347 349 349 347 347 349 350 351 353 353 353 353 353 353 353 354 355 355 356 358 359 359
323 323 323 324 325 326 327 329 332 335 336 336 337 337 339 340 340 342 343 345 347 349 350 351 351 351 351 352 350 349 347 346 345 347 351 351 349 349 349 347 347 345 343 347 348 346 346 348 349 352 352 353 354 353 354 353 354 354 354 355 356 357 357
325 322 322 323 324 325 325 327 330 333 335 336 336 337 338 340 341 341 342 343 346 348 348 349 350 352 351 350 349 348 347 346 347 349 351 351 353 351 350 349 346 344 346 348 345 345 345 346 348 350 351 352 353 353 354 354 353 354 354 353 354 355 356
320 320 320 321 322 324 324 325 327 330 333 335 337 336 337 338 340 341 342 344 345 348 350 350 349 349 350 350 350 351 351 350 351 351 353 354 350 349 348 348 347 346 346 346 346 347 346 346 343 347 349 350 351 351 352 353 353 353 354 353 352 353 353
319 319 319 320 320 322 324 325 326 327 329 332 335 335 337 337 338 340 341 342 344 345 348 350 349 348 348 349 351 352 351 350 350 349 348 349 349 348 348 347 348 349 347 346 345 345 346 344 344 343 345 348 350 350 351 351 353 356 348 351 354 353 353
317 317 318 319 320 320 322 322 322 322 324 326 328 331 335 337 338 340 340 341 342 343 345 345 344 344 344 344 346 347 348 348 349 349 348 348 347 347 349 348 350 348 347 348 348 344 346 345 344 344 343 344 348 349 350 351 353 347 336 337 342 354 352
316 316 317 317 318 318 320 321 321 322 323 323 325 328 330 333 337 337 337 338 339 342 344 343 342 342 342 343 344 346 346 348 348 347 348 349 347 347 347 349 348 346 346 348 349 349 350 345 344 344 346 345 344 346 349 350 350 337 334 335 334 344 353
314 314 315 316 316 317 318 320 321 322 323 324 324 326 328 332 332 331 333 333 335 338 339 341 342 341 341 342 343 343 344 345 346 346 346 347 350 352 349 347 348 350 350 350 351 350 347 346 346 343 345 348 344 343 346 349 343 333 331 332 332 332 345
313 313 314 315 316 315 317 319 319 320 322 325 326 327 327 330 330 331 333 333 332 332 332 334 336 339 340 341 341 342 342 343 344 344 344 345 346 349 349 347 348 352 354 354 351 348 348 349 349 347 344 347 349 348 349 346 344 333 328 327 328 329 334
312 312 312 312 313 315 316 317 318 319 320 323 327 327 327 327 328 329 329 329 328 329 329 330 330 331 333 338 341 342 341 341 343 343 344 345 346 347 347 347 347 349 351 352 351 349 347 348 348 350 351 351 351 349 350 351 341 330 327 325 324 326 330
312 312 312 312 313 314 315 317 317 318 320 325 325 325 326 326 327 327 327 328 327 328 328 328 328 329 330 330 332 337 342 342 340 341 343 344 345 344 345 345 345 345 346 348 348 350 352 351 352 352 352 352 351 350 349 351 336 330 327 322 321 324 335
313 313 313 314 315 315 316 318 318 320 321 320 321 322 322 324 326 326 325 326 326 326 327 327 327 328 329 330 330 332 336 342 341 342 342 343 341 340 341 341 340 340 342 338 339 340 344 347 349 351 352 353 353 351 349 350 342 329 327 324 320 324 333
314 314 314 314 316 317 317 318 319 321 320 320 320 321 322 324 324 324 325 325 326 326 326 326 326 328 329 329 330 330 329 333 335 339 343 342 341 340 340 341 341 339 339 337 336 336 338 344 346 347 348 349 350 353 353 353 346 329 325 324 322 331 334
311 313 315 315 315 315 316 318 319 319 319 319 319 320 322 323 324 324 324 326 326 326 325 325 325 326 327 328 329 329 329 329 331 332 338 342 343 343 341 339 340 340 339 339 337 336 338 343 342 342 344 346 348 352 351 352 350 330 322 321 320 328 338
313 314 314 315 315 315 316 317 316 316 316 316 317 320 322 323 323 326 324 323 322 323 326 325 326 326 326 327 328 328 329 329 331 331 333 339 341 341 342 343 344 341 340 338 335 335 337 340 342 342 343 345 346 348 350 350 351 347 327 319 315 318 341
314 314 313 314 316 320 313 313 314 314 315 316 317 319 321 322 321 320 323 320 318 320 322 324 327 327 326 325 325 327 328 328 328 328 328 330 338 342 344 343 341 342 340 339 336 335 338 342 344 344 344 345 345 347 347 352 351 346 327 321 319 315 322
312 313 316 319 320 316 312 313 313 314 315 316 318 319 318 318 320 320 320 317 317 319 322 323 324 325 326 324 324 326 326 326 327 329 329 332 338 329 329 332 335 339 341 339 338 339 342 343 343 342 341 340 340 342 341 345 347 345 334 325 319 317 313
310 310 310 310 312 316 313 311 312 313 313 315 316 317 317 318 319 319 318 315 317 321 323 325 323 324 326 326 325 327 324 325 326 326 328 332 332 329 329 330 332 333 338 340 341 341 340 340 340 338 336 336 337 338 338 339 343 339 342 331 322 318 319
310 310 310 312 313 313 315 311 312 312 313 314 315 315 315 315 316 319 318 314 318 321 322 323 322 323 325 328 326 325 324 324 326 325 326 328 328 329 327 327 329 332 333 332 331 329 329 332 335 334 333 333 334 335 337 338 339 341 339 338 325 317 312
308 308 309 309 311 314 311 310 310 311 312 313 314 314 315 314 314 317 315 315 319 320 319 321 322 324 323 322 323 324 322 321 321 324 325 325 325 326 326 327 328 328 329 328 326 326 326 328 331 330 330 330 330 332 334 337 338 338 339 337 334 320 314
308 308 309 309 309 311 310 311 311 312 312 312 314 314 316 315 314 315 315 317 318 318 318 321 322 324 323 322 322 323 322 320 320 324 323 323 324 325 325 325 326 326 325 324 324 324 325 327 328 328 327 326 327 328 330 333 335 335 337 345 340 331 321
306 307 307 308 311 311 310 311 311 313 312 312 312 313 314 314 315 316 318 319 319 318 317 320 322 323 322 319 320 321 321 318 322 321 322 321 320 321 323 324 323 323 325 323 321 322 325 325 327 326 325 325 325 326 328 329 330 331 334 338 333 330 329
305 306 307 308 310 311 310 310 310 311 311 311 311 312 313 314 314 316 318 320 320 320 319 320 321 321 318 319 320 321 322 322 329 324 319 319 320 318 319 321 323 321 321 321 321 322 322 322 322 322 323 323 323 324 324 325 326 328 331 331 326 324 324
305 305 306 307 309 311 309 311 311 311 312 311 311 311 312 313 315 317 317 318 318 320 321 323 324 322 319 320 319 320 325 323 321 321 319 318 318 319 318 320 321 321 320 321 323 323 319 318 317 322 319 320 321 321 321 323 323 327 320 318 308 312 315
305 306 306 307 310 311 313 313 311 311 311 309 310 311 312 314 315 315 316 316 316 317 319 321 322 320 319 321 321 323 322 322 319 319 320 319 317 319 320 327 316 315 318 319 324 317 308 309 315 317 315 315 318 321 321 322 324 317 305 299 298 298 298
304 304 304 307 308 309 309 310 313 312 311 309 311 310 312 315 315 315 315 314 314 314 315 317 320 319 319 322 321 323 324 320 319 320 318 318 317 318 318 318 318 309 308 311 315 310 303 301 302 304 307 315 315 318 315 314 311 304 298 297 297 296 296
305 304 306 309 309 310 310 310 310 310 310 308 309 309 311 313 313 313 313 313 312 312 313 313 315 315 316 319 320 322 323 319 320 320 318 318 316 318 317 315 315 315 309 307 308 307 303 302 302 302 302 304 307 313 317 314 309 299 298 297 296 296 296

ECMWFFLT1_sfc_thetae_123.txt.gz
Theta_e
335 336 337 338 332 325 327 329 332 334 336 337 337 338 340 342 342 343 345 345 345 344 345 344 347 347 348 349 349 349 350 349 352 352 351 350 350 348 348 351 350 351 351 351 353 353 355 357 355 356 356 357 356 356 355 356 355 358 356 356 354 354 351
335 336 337 338 338 330 326 327 330 333 335 337 337 338 340 342 342 342 344 345 345 345 345 344 348 347 348 348 350 349 349 350 352 355 353 353 354 350 350 352 352 351 351 352 353 354 356 356 357 355 356 357 357 357 357 357 357 356 356 355 354 352 351
334 335 336 336 338 338 335 336 333 330 333 336 338 338 340 342 343 343 343 345 344 345 346 344 348 347 348 347 348 349 349 350 352 353 352 352 353 351 351 354 354 352 352 353 354 355 357 356 356 356 356 356 357 358 357 357 358 358 357 356 356 355 351
334 337 339 338 339 340 341 340 341 340 333 334 336 338 340 342 343 344 344 345 344 346 346 345 347 348 348 347 347 348 348 348 352 353 353 353 353 353 351 353 355 354 353 354 355 356 357 356 356 355 362 356 357 358 359 358 359 359 359 358 356 355 353
335 336 335 335 336 339 340 339 340 340 343 338 335 339 340 343 344 344 344 346 346 346 348 346 347 349 350 349 349 349 349 348 350 353 353 353 354 354 353 353 354 354 354 355 356 357 355 355 355 355 356 357 356 357 359 359 359 359 358 358 356 355 354
331 332 332 333 335 336 339 342 344 342 344 342 342 341 341 344 345 344 344 346 346 346 349 348 347 349 349 350 350 350 349 349 349 352 352 353 353 353 354 353 354 355 354 354 356 356 356 355 355 355 355 357 357 357 357 359 360 359 358 358 357 357 356
331 331 332 334 334 334 336 337 342 346 342 343 346 349 344 344 345 345 345 346 348 345 347 349 348 348 349 350 351 351 349 349 349 350 352 352 353 353 353 354 355 355 356 355 355 356 355 355 355 355 355 356 357 357 357 357 359 359 358 357 357 356 355
333 332 333 334 335 334 335 336 338 342 343 343 345 345 344 345 346 346 347 349 350 349 349 350 351 350 350 350 351 350 351 350 350 350 351 351 351 352 352 353 353 354 354 354 354 355 355 355 355 355 355 355 355 356 357 357 357 359 358 357 356 356 358
330 331 331 332 333 334 335 336 337 339 340 342 344 345 345 345 346 346 347 348 348 348 349 351 349 350 352 352 351 350 351 351 351 351 351 350 350 350 351 352 352 353 352 352 353 353 354 354 355 355 355 354 355 355 356 357 357 358 358 357 357 356 357
327 329 330 331 333 333 333 334 335 336 337 340 343 343 343 343 344 346 347 348 347 347 348 348 347 348 348 348 349 349 350 350 351 351 351 350 350 349 350 350 350 352 351 351 351 350 352 353 354 354 354 354 354 354 354 356 357 357 358 358 357 357 356
326 328 328 330 331 332 333 333 333 334 337 339 341 343 342 342 343 344 345 346 347 346 348 348 347 347 348 348 347 347 347 348 349 350 351 351 351 350 350 350 350 349 350 350 349 349 349 351 352 352 353 354 354 353 353 354 356 356 357 358 358 357 357
325 326 326 328 330 331 331 331 333 334 335 337 340 341 342 342 344 344 344 344 346 347 346 347 348 346 346 349 347 346 346 346 347 349 350 350 351 351 351 350 349 349 349 349 348 348 348 348 350 352 351 353 354 353 353 353 354 355 356 357 357 357 358
323 324 325 326 328 330 331 331 332 334 336 337 339 339 340 341 342 343 342 344 346 347 347 347 347 345 344 349 347 346 346 345 346 347 349 350 350 351 350 349 348 347 347 349 349 348 347 347 348 351 351 352 353 353 353 352 353 353 354 355 355 356 356
324 323 324 326 328 329 329 331 332 333 334 336 338 340 341 342 343 344 344 344 345 347 347 347 347 346 346 347 346 345 346 346 346 347 347 348 349 349 349 348 346 345 344 346 346 347 346 346 346 348 351 352 352 352 353 352 351 351 352 353 353 354 354
320 321 323 324 325 327 328 329 330 332 334 335 337 338 339 340 341 343 344 347 348 348 348 350 350 349 348 347 346 345 345 346 346 347 348 351 349 348 347 347 346 345 344 343 344 346 346 345 345 346 347 349 351 351 352 352 352 352 352 351 351 352 352
319 320 321 321 323 324 326 327 328 330 333 335 336 336 337 337 340 342 343 345 347 347 349 350 349 349 349 349 349 349 349 348 349 347 348 348 346 344 345 346 346 345 344 344 345 345 344 343 343 343 345 346 348 349 351 351 352 355 348 350 353 351 352
316 317 318 319 319 320 321 322 324 326 329 333 335 336 336 336 338 339 340 341 343 345 347 347 345 345 346 346 347 348 348 348 347 346 345 345 344 343 344 345 346 345 343 343 344 345 347 347 342 341 342 345 346 347 349 350 352 347 337 337 341 353 351
315 316 317 318 319 320 321 322 324 326 329 330 332 333 333 332 333 335 335 338 339 342 344 343 343 343 343 344 345 346 347 347 347 346 347 347 345 344 344 345 344 343 343 344 344 346 349 347 344 342 343 344 343 345 348 349 349 337 334 334 334 342 353
313 315 316 318 319 319 320 322 324 325 326 327 328 329 330 331 331 331 332 333 336 338 339 341 340 339 339 341 343 344 344 344 344 344 345 346 348 346 346 345 345 345 346 347 348 349 346 346 347 346 343 344 344 343 344 346 343 334 331 331 330 331 341
311 313 315 316 316 316 319 321 323 325 325 325 327 328 328 329 328 330 332 331 332 333 334 334 335 338 340 341 341 342 343 343 344 344 344 345 346 347 346 345 346 348 350 351 350 349 349 349 348 348 345 344 344 345 347 346 345 333 328 326 326 327 332
311 313 314 315 317 319 320 321 322 323 324 325 327 326 325 325 327 327 327 327 327 328 329 330 330 330 331 333 338 342 342 342 343 343 344 345 345 345 345 345 345 343 345 345 344 346 347 348 345 345 350 350 349 347 349 351 337 330 329 325 321 323 328
312 314 315 316 317 317 318 319 319 320 321 325 324 324 325 324 325 326 325 327 326 327 327 328 328 329 330 329 330 332 338 342 341 342 342 341 341 340 340 341 341 340 342 340 340 341 344 346 348 347 345 346 350 348 347 351 337 334 331 325 322 322 332
313 314 315 316 317 317 318 319 319 321 322 322 322 323 323 324 325 325 325 325 325 325 325 325 326 327 329 331 330 331 330 331 337 342 342 341 339 339 340 340 339 340 342 338 337 340 341 342 345 345 345 345 346 347 346 349 343 332 327 325 323 326 333
315 315 316 316 317 317 317 317 318 320 320 320 321 322 324 325 324 324 324 325 325 325 325 325 324 325 326 326 328 329 328 330 330 333 342 341 338 338 339 341 341 339 341 337 337 338 339 343 343 344 344 345 344 349 348 348 344 324 321 318 319 328 334
315 315 315 315 315 315 316 317 317 318 317 317 318 320 321 322 322 321 319 321 321 321 322 323 325 325 324 325 327 327 327 328 329 329 331 338 340 342 340 339 340 341 340 339 337 338 339 345 343 344 344 344 345 347 347 347 342 326 319 319 316 327 337
312 312 313 314 314 315 316 317 316 314 314 314 315 318 320 320 321 323 319 318 319 319 320 320 321 323 323 323 324 325 327 327 329 329 329 332 335 336 337 339 340 341 340 339 337 339 341 343 343 340 339 340 340 340 340 340 340 339 320 316 318 317 334
312 313 313 314 315 319 313 314 314 313 314 314 315 316 318 319 318 317 319 318 316 318 319 320 321 322 323 322 322 322 323 325 326 327 329 332 331 333 334 334 336 338 338 339 339 338 339 341 340 339 337 337 339 338 337 340 339 338 322 315 317 318 327
312 313 315 318 318 316 312 312 312 312 313 313 314 316 316 318 318 317 315 314 314 316 318 321 321 322 323 324 323 323 322 324 327 329 329 330 330 329 329 331 331 332 332 332 331 331 331 333 335 333 333 332 334 335 334 338 342 338 328 314 313 314 318
310 310 310 311 312 315 313 311 311 311 312 313 314 314 314 316 317 316 315 313 314 316 318 321 320 321 322 324 324 325 323 324 325 326 328 328 328 327 327 328 328 327 328 327 327 326 326 328 329 328 328 329 329 330 331 333 337 334 336 317 311 310 313
309 309 309 311 312 312 314 311 311 311 312 313 314 313 314 315 317 318 317 314 316 317 318 318 319 321 322 323 321 322 323 323 326 324 324 326 325 326 325 325 326 326 326 324 325 324 323 324 326 325 325 325 326 328 329 331 333 336 333 329 313 311 309
308 308 309 310 311 314 312 311 310 311 311 312 313 313 313 314 316 317 315 315 319 318 316 317 320 322 321 319 318 320 319 318 321 322 321 321 322 323 324 323 324 323 323 324 323 323 321 322 323 321 322 322 323 324 326 328 329 330 333 332 326 316 312
307 308 309 310 310 312 311 311 310 310 310 310 312 313 315 314 314 314 314 317 318 318 316 317 320 323 321 319 320 319 318 316 319 319 319 320 321 324 321 321 323 323 322 322 322 322 321 320 320 320 319 319 319 320 323 325 327 327 331 334 330 326 318
306 306 307 308 310 312 310 310 309 310 310 310 310 312 314 313 314 315 315 316 316 318 318 320 322 322 319 317 319 319 318 319 319 317 318 317 317 319 322 321 319 320 323 321 318 318 319 317 320 318 318 317 317 318 320 321 323 325 326 325 324 323 323
305 306 308 309 310 310 309 308 308 309 309 309 309 311 313 313 312 313 313 313 314 316 319 322 322 318 317 318 319 322 321 321 328 322 316 317 318 317 318 319 319 318 318 318 316 314 315 316 318 318 316 315 315 316 317 319 320 321 316 319 319 318 318
305 306 307 308 309 311 308 309 309 309 310 309 309 311 311 311 311 311 311 311 312 314 317 319 320 319 317 318 319 320 323 320 319 319 318 316 318 317 318 316 317 316 315 317 317 316 314 314 314 317 314 314 314 315 316 318 319 320 309 311 303 306 310
305 306 307 308 310 309 310 311 309 309 309 307 308 311 310 310 310 310 310 310 311 311 313 316 317 314 315 318 319 321 321 319 317 317 318 317 316 316 317 321 313 313 314 314 319 313 307 309 313 313 313 312 316 317 316 316 319 305 298 296 296 296 297
305 306 307 308 307 307 308 309 311 310 309 307 310 310 310 310 309 309 309 309 309 310 310 310 313 313 313 317 317 320 319 318 316 315 314 314 314 316 316 314 314 305 305 309 313 307 302 301 301 302 306 314 313 316 313 310 303 297 295 296 296 296 296
305 307 308 308 308 309 309 308 308 308 308 307 309 308 308 309 308 308 308 308 308 309 309 309 310 309 311 312 313 315 315 312 314 314 313 313 312 314 314 312 312 313 307 304 305 305 302 302 301 300 299 301 305 313 315 310 302 296 297 297 297 297 296